<?xml version="1.0" encoding="UTF-8" standalone="no" ?>
<gpx xmlns="http://www.topografix.com/GPX/1/1" xmlns:xsi="http://www.w3.org/2001/XMLSchema-instance" xsi:schemaLocation="http://www.topografix.com/GPX/1/1 http://www.topografix.com/GPX/1/1/gpx.xsd" version="1.1" creator="VisuGPX - https://www.visugpx.com">
  <metadata>
    <name>Portes du Soleil 2012</name>
    <desc><![CDATA[Portes du Soleil 2012]]></desc>
  </metadata>
  <trk>
    <name><![CDATA[Tour-vtt-portes-du-soleil on GPSies.com]]></name>
    <trkseg>
      <trkpt lat="46.18325" lon="6.70296">
        <ele>989</ele>
        <time>2010-01-01T00:00:00Z</time>
      </trkpt>
      <trkpt lat="46.18329" lon="6.70306">
        <ele>988</ele>
        <time>2010-01-01T00:00:03Z</time>
      </trkpt>
      <trkpt lat="46.18334" lon="6.70312">
        <ele>988</ele>
        <time>2010-01-01T00:00:05Z</time>
      </trkpt>
      <trkpt lat="46.18344" lon="6.70321">
        <ele>990</ele>
        <time>2010-01-01T00:00:10Z</time>
      </trkpt>
      <trkpt lat="46.18349" lon="6.70322">
        <ele>991</ele>
        <time>2010-01-01T00:00:12Z</time>
      </trkpt>
      <trkpt lat="46.18348" lon="6.70322">
        <ele>991</ele>
        <time>2010-01-01T00:00:13Z</time>
      </trkpt>
      <trkpt lat="46.18349" lon="6.70325">
        <ele>990</ele>
        <time>2010-01-01T00:00:14Z</time>
      </trkpt>
      <trkpt lat="46.18345" lon="6.70321">
        <ele>990</ele>
        <time>2010-01-01T00:00:16Z</time>
      </trkpt>
      <trkpt lat="46.18345" lon="6.70323">
        <ele>990</ele>
        <time>2010-01-01T00:00:16Z</time>
      </trkpt>
      <trkpt lat="46.18343" lon="6.70323">
        <ele>991</ele>
        <time>2010-01-01T00:00:17Z</time>
      </trkpt>
      <trkpt lat="46.18352" lon="6.70333">
        <ele>992</ele>
        <time>2010-01-01T00:00:22Z</time>
      </trkpt>
      <trkpt lat="46.18367" lon="6.70354">
        <ele>995</ele>
        <time>2010-01-01T00:00:30Z</time>
      </trkpt>
      <trkpt lat="46.18377" lon="6.70384">
        <ele>999</ele>
        <time>2010-01-01T00:00:39Z</time>
      </trkpt>
      <trkpt lat="46.1839" lon="6.70409">
        <ele>998</ele>
        <time>2010-01-01T00:00:48Z</time>
      </trkpt>
      <trkpt lat="46.18394" lon="6.70423">
        <ele>1004</ele>
        <time>2010-01-01T00:00:52Z</time>
      </trkpt>
      <trkpt lat="46.18406" lon="6.70439">
        <ele>1008</ele>
        <time>2010-01-01T00:00:59Z</time>
      </trkpt>
      <trkpt lat="46.18416" lon="6.70456">
        <ele>1010</ele>
        <time>2010-01-01T00:01:05Z</time>
      </trkpt>
      <trkpt lat="46.18418" lon="6.70469">
        <ele>1015</ele>
        <time>2010-01-01T00:01:09Z</time>
      </trkpt>
      <trkpt lat="46.18432" lon="6.70505">
        <ele>1021</ele>
        <time>2010-01-01T00:01:20Z</time>
      </trkpt>
      <trkpt lat="46.18443" lon="6.70518">
        <ele>1023</ele>
        <time>2010-01-01T00:01:26Z</time>
      </trkpt>
      <trkpt lat="46.18451" lon="6.7054">
        <ele>1024</ele>
        <time>2010-01-01T00:01:33Z</time>
      </trkpt>
      <trkpt lat="46.18476" lon="6.70583">
        <ele>1023</ele>
        <time>2010-01-01T00:01:48Z</time>
      </trkpt>
      <trkpt lat="46.18502" lon="6.70641">
        <ele>1033</ele>
        <time>2010-01-01T00:02:07Z</time>
      </trkpt>
      <trkpt lat="46.18507" lon="6.70646">
        <ele>1033</ele>
        <time>2010-01-01T00:02:10Z</time>
      </trkpt>
      <trkpt lat="46.18557" lon="6.70725">
        <ele>1048</ele>
        <time>2010-01-01T00:02:39Z</time>
      </trkpt>
      <trkpt lat="46.18594" lon="6.70778">
        <ele>1056</ele>
        <time>2010-01-01T00:03:00Z</time>
      </trkpt>
      <trkpt lat="46.18605" lon="6.70796">
        <ele>1059</ele>
        <time>2010-01-01T00:03:07Z</time>
      </trkpt>
      <trkpt lat="46.18621" lon="6.70817">
        <ele>1064</ele>
        <time>2010-01-01T00:03:15Z</time>
      </trkpt>
      <trkpt lat="46.18632" lon="6.70837">
        <ele>1071</ele>
        <time>2010-01-01T00:03:23Z</time>
      </trkpt>
      <trkpt lat="46.18641" lon="6.70848">
        <ele>1072</ele>
        <time>2010-01-01T00:03:27Z</time>
      </trkpt>
      <trkpt lat="46.18663" lon="6.70893">
        <ele>1092</ele>
        <time>2010-01-01T00:03:43Z</time>
      </trkpt>
      <trkpt lat="46.18673" lon="6.70906">
        <ele>1098</ele>
        <time>2010-01-01T00:03:48Z</time>
      </trkpt>
      <trkpt lat="46.18679" lon="6.70923">
        <ele>1109</ele>
        <time>2010-01-01T00:03:53Z</time>
      </trkpt>
      <trkpt lat="46.18696" lon="6.70955">
        <ele>1125</ele>
        <time>2010-01-01T00:04:04Z</time>
      </trkpt>
      <trkpt lat="46.18699" lon="6.70962">
        <ele>1127</ele>
        <time>2010-01-01T00:04:07Z</time>
      </trkpt>
      <trkpt lat="46.18705" lon="6.70969">
        <ele>1127</ele>
        <time>2010-01-01T00:04:10Z</time>
      </trkpt>
      <trkpt lat="46.18714" lon="6.70984">
        <ele>1133</ele>
        <time>2010-01-01T00:04:16Z</time>
      </trkpt>
      <trkpt lat="46.18735" lon="6.7103">
        <ele>1154</ele>
        <time>2010-01-01T00:04:31Z</time>
      </trkpt>
      <trkpt lat="46.18746" lon="6.71047">
        <ele>1157</ele>
        <time>2010-01-01T00:04:37Z</time>
      </trkpt>
      <trkpt lat="46.1875" lon="6.71058">
        <ele>1166</ele>
        <time>2010-01-01T00:04:41Z</time>
      </trkpt>
      <trkpt lat="46.18768" lon="6.71088">
        <ele>1178</ele>
        <time>2010-01-01T00:04:52Z</time>
      </trkpt>
      <trkpt lat="46.18779" lon="6.71104">
        <ele>1183</ele>
        <time>2010-01-01T00:04:58Z</time>
      </trkpt>
      <trkpt lat="46.18783" lon="6.71115">
        <ele>1191</ele>
        <time>2010-01-01T00:05:01Z</time>
      </trkpt>
      <trkpt lat="46.18799" lon="6.71146">
        <ele>1208</ele>
        <time>2010-01-01T00:05:12Z</time>
      </trkpt>
      <trkpt lat="46.18818" lon="6.71177">
        <ele>1227</ele>
        <time>2010-01-01T00:05:23Z</time>
      </trkpt>
      <trkpt lat="46.18825" lon="6.71194">
        <ele>1241</ele>
        <time>2010-01-01T00:05:29Z</time>
      </trkpt>
      <trkpt lat="46.18827" lon="6.71204">
        <ele>1251</ele>
        <time>2010-01-01T00:05:32Z</time>
      </trkpt>
      <trkpt lat="46.18827" lon="6.71204">
        <ele>1251</ele>
        <time>2010-01-01T00:05:32Z</time>
      </trkpt>
      <trkpt lat="46.1883" lon="6.71215">
        <ele>1263</ele>
        <time>2010-01-01T00:05:35Z</time>
      </trkpt>
      <trkpt lat="46.18846" lon="6.71244">
        <ele>1280</ele>
        <time>2010-01-01T00:05:45Z</time>
      </trkpt>
      <trkpt lat="46.18863" lon="6.71282">
        <ele>1302</ele>
        <time>2010-01-01T00:05:58Z</time>
      </trkpt>
      <trkpt lat="46.18874" lon="6.71311">
        <ele>1319</ele>
        <time>2010-01-01T00:06:07Z</time>
      </trkpt>
      <trkpt lat="46.1891" lon="6.71384">
        <ele>1349</ele>
        <time>2010-01-01T00:06:32Z</time>
      </trkpt>
      <trkpt lat="46.18922" lon="6.71412">
        <ele>1363</ele>
        <time>2010-01-01T00:06:41Z</time>
      </trkpt>
      <trkpt lat="46.18965" lon="6.71491">
        <ele>1391</ele>
        <time>2010-01-01T00:07:09Z</time>
      </trkpt>
      <trkpt lat="46.18986" lon="6.71525">
        <ele>1400</ele>
        <time>2010-01-01T00:07:22Z</time>
      </trkpt>
      <trkpt lat="46.19007" lon="6.71565">
        <ele>1410</ele>
        <time>2010-01-01T00:07:35Z</time>
      </trkpt>
      <trkpt lat="46.19019" lon="6.71584">
        <ele>1414</ele>
        <time>2010-01-01T00:07:42Z</time>
      </trkpt>
      <trkpt lat="46.19089" lon="6.71712">
        <ele>1449</ele>
        <time>2010-01-01T00:08:28Z</time>
      </trkpt>
      <trkpt lat="46.19111" lon="6.71748">
        <ele>1459</ele>
        <time>2010-01-01T00:08:41Z</time>
      </trkpt>
      <trkpt lat="46.19116" lon="6.71768">
        <ele>1464</ele>
        <time>2010-01-01T00:08:47Z</time>
      </trkpt>
      <trkpt lat="46.19123" lon="6.71782">
        <ele>1469</ele>
        <time>2010-01-01T00:08:52Z</time>
      </trkpt>
      <trkpt lat="46.19122" lon="6.71789">
        <ele>1468</ele>
        <time>2010-01-01T00:08:54Z</time>
      </trkpt>
      <trkpt lat="46.19115" lon="6.71799">
        <ele>1466</ele>
        <time>2010-01-01T00:08:58Z</time>
      </trkpt>
      <trkpt lat="46.19113" lon="6.71804">
        <ele>1464</ele>
        <time>2010-01-01T00:08:59Z</time>
      </trkpt>
      <trkpt lat="46.19118" lon="6.71811">
        <ele>1463</ele>
        <time>2010-01-01T00:09:02Z</time>
      </trkpt>
      <trkpt lat="46.19112" lon="6.71823">
        <ele>1460</ele>
        <time>2010-01-01T00:09:06Z</time>
      </trkpt>
      <trkpt lat="46.19107" lon="6.71821">
        <ele>1458</ele>
        <time>2010-01-01T00:09:08Z</time>
      </trkpt>
      <trkpt lat="46.19091" lon="6.71805">
        <ele>1457</ele>
        <time>2010-01-01T00:09:16Z</time>
      </trkpt>
      <trkpt lat="46.19084" lon="6.718">
        <ele>1456</ele>
        <time>2010-01-01T00:09:19Z</time>
      </trkpt>
      <trkpt lat="46.19079" lon="6.718">
        <ele>1456</ele>
        <time>2010-01-01T00:09:21Z</time>
      </trkpt>
      <trkpt lat="46.19066" lon="6.71804">
        <ele>1456</ele>
        <time>2010-01-01T00:09:26Z</time>
      </trkpt>
      <trkpt lat="46.19062" lon="6.71804">
        <ele>1456</ele>
        <time>2010-01-01T00:09:28Z</time>
      </trkpt>
      <trkpt lat="46.19052" lon="6.71799">
        <ele>1456</ele>
        <time>2010-01-01T00:09:32Z</time>
      </trkpt>
      <trkpt lat="46.19036" lon="6.71785">
        <ele>1455</ele>
        <time>2010-01-01T00:09:39Z</time>
      </trkpt>
      <trkpt lat="46.19031" lon="6.71784">
        <ele>1454</ele>
        <time>2010-01-01T00:09:42Z</time>
      </trkpt>
      <trkpt lat="46.19026" lon="6.71785">
        <ele>1454</ele>
        <time>2010-01-01T00:09:43Z</time>
      </trkpt>
      <trkpt lat="46.19023" lon="6.71791">
        <ele>1453</ele>
        <time>2010-01-01T00:09:46Z</time>
      </trkpt>
      <trkpt lat="46.19023" lon="6.71793">
        <ele>1453</ele>
        <time>2010-01-01T00:09:46Z</time>
      </trkpt>
      <trkpt lat="46.19031" lon="6.71801">
        <ele>1453</ele>
        <time>2010-01-01T00:09:50Z</time>
      </trkpt>
      <trkpt lat="46.19042" lon="6.71818">
        <ele>1452</ele>
        <time>2010-01-01T00:09:57Z</time>
      </trkpt>
      <trkpt lat="46.19063" lon="6.71866">
        <ele>1460</ele>
        <time>2010-01-01T00:10:12Z</time>
      </trkpt>
      <trkpt lat="46.19066" lon="6.71877">
        <ele>1465</ele>
        <time>2010-01-01T00:10:16Z</time>
      </trkpt>
      <trkpt lat="46.19073" lon="6.71888">
        <ele>1469</ele>
        <time>2010-01-01T00:10:20Z</time>
      </trkpt>
      <trkpt lat="46.19075" lon="6.71896">
        <ele>1471</ele>
        <time>2010-01-01T00:10:22Z</time>
      </trkpt>
      <trkpt lat="46.19093" lon="6.71934">
        <ele>1477</ele>
        <time>2010-01-01T00:10:35Z</time>
      </trkpt>
      <trkpt lat="46.1911" lon="6.71976">
        <ele>1484</ele>
        <time>2010-01-01T00:10:48Z</time>
      </trkpt>
      <trkpt lat="46.19115" lon="6.71992">
        <ele>1487</ele>
        <time>2010-01-01T00:10:53Z</time>
      </trkpt>
      <trkpt lat="46.19134" lon="6.72035">
        <ele>1494</ele>
        <time>2010-01-01T00:11:07Z</time>
      </trkpt>
      <trkpt lat="46.19134" lon="6.72035">
        <ele>1494</ele>
        <time>2010-01-01T00:11:07Z</time>
      </trkpt>
      <trkpt lat="46.1917" lon="6.72113">
        <ele>1508</ele>
        <time>2010-01-01T00:11:33Z</time>
      </trkpt>
      <trkpt lat="46.1919" lon="6.72152">
        <ele>1518</ele>
        <time>2010-01-01T00:11:47Z</time>
      </trkpt>
      <trkpt lat="46.19194" lon="6.72168">
        <ele>1524</ele>
        <time>2010-01-01T00:11:52Z</time>
      </trkpt>
      <trkpt lat="46.19206" lon="6.72196">
        <ele>1536</ele>
        <time>2010-01-01T00:12:01Z</time>
      </trkpt>
      <trkpt lat="46.19216" lon="6.72229">
        <ele>1549</ele>
        <time>2010-01-01T00:12:11Z</time>
      </trkpt>
      <trkpt lat="46.19237" lon="6.72272">
        <ele>1563</ele>
        <time>2010-01-01T00:12:25Z</time>
      </trkpt>
      <trkpt lat="46.19252" lon="6.72316">
        <ele>1579</ele>
        <time>2010-01-01T00:12:39Z</time>
      </trkpt>
      <trkpt lat="46.19265" lon="6.72347">
        <ele>1590</ele>
        <time>2010-01-01T00:12:49Z</time>
      </trkpt>
      <trkpt lat="46.1928" lon="6.72389">
        <ele>1597</ele>
        <time>2010-01-01T00:13:02Z</time>
      </trkpt>
      <trkpt lat="46.19301" lon="6.7243">
        <ele>1605</ele>
        <time>2010-01-01T00:13:16Z</time>
      </trkpt>
      <trkpt lat="46.19313" lon="6.72461">
        <ele>1612</ele>
        <time>2010-01-01T00:13:26Z</time>
      </trkpt>
      <trkpt lat="46.19316" lon="6.72472">
        <ele>1614</ele>
        <time>2010-01-01T00:13:29Z</time>
      </trkpt>
      <trkpt lat="46.19329" lon="6.72499">
        <ele>1620</ele>
        <time>2010-01-01T00:13:38Z</time>
      </trkpt>
      <trkpt lat="46.19344" lon="6.7254">
        <ele>1625</ele>
        <time>2010-01-01T00:13:51Z</time>
      </trkpt>
      <trkpt lat="46.19376" lon="6.72609">
        <ele>1635</ele>
        <time>2010-01-01T00:14:14Z</time>
      </trkpt>
      <trkpt lat="46.19419" lon="6.72717">
        <ele>1650</ele>
        <time>2010-01-01T00:14:49Z</time>
      </trkpt>
      <trkpt lat="46.19437" lon="6.72752">
        <ele>1655</ele>
        <time>2010-01-01T00:15:01Z</time>
      </trkpt>
      <trkpt lat="46.19458" lon="6.72808">
        <ele>1664</ele>
        <time>2010-01-01T00:15:18Z</time>
      </trkpt>
      <trkpt lat="46.1946" lon="6.7282">
        <ele>1667</ele>
        <time>2010-01-01T00:15:22Z</time>
      </trkpt>
      <trkpt lat="46.19468" lon="6.7284">
        <ele>1672</ele>
        <time>2010-01-01T00:15:28Z</time>
      </trkpt>
      <trkpt lat="46.19493" lon="6.72889">
        <ele>1683</ele>
        <time>2010-01-01T00:15:45Z</time>
      </trkpt>
      <trkpt lat="46.1952" lon="6.72957">
        <ele>1695</ele>
        <time>2010-01-01T00:16:07Z</time>
      </trkpt>
      <trkpt lat="46.19527" lon="6.72979">
        <ele>1699</ele>
        <time>2010-01-01T00:16:13Z</time>
      </trkpt>
      <trkpt lat="46.19552" lon="6.73032">
        <ele>1712</ele>
        <time>2010-01-01T00:16:31Z</time>
      </trkpt>
      <trkpt lat="46.19575" lon="6.73088">
        <ele>1721</ele>
        <time>2010-01-01T00:16:49Z</time>
      </trkpt>
      <trkpt lat="46.19575" lon="6.73088">
        <ele>1721</ele>
        <time>2010-01-01T00:16:49Z</time>
      </trkpt>
      <trkpt lat="46.1958" lon="6.73104">
        <ele>1723</ele>
        <time>2010-01-01T00:16:54Z</time>
      </trkpt>
      <trkpt lat="46.19585" lon="6.73112">
        <ele>1725</ele>
        <time>2010-01-01T00:16:57Z</time>
      </trkpt>
      <trkpt lat="46.1961" lon="6.73164">
        <ele>1735</ele>
        <time>2010-01-01T00:17:15Z</time>
      </trkpt>
      <trkpt lat="46.19613" lon="6.73176">
        <ele>1738</ele>
        <time>2010-01-01T00:17:18Z</time>
      </trkpt>
      <trkpt lat="46.19623" lon="6.73203">
        <ele>1741</ele>
        <time>2010-01-01T00:17:27Z</time>
      </trkpt>
      <trkpt lat="46.19625" lon="6.73216">
        <ele>1742</ele>
        <time>2010-01-01T00:17:30Z</time>
      </trkpt>
      <trkpt lat="46.19628" lon="6.73221">
        <ele>1742</ele>
        <time>2010-01-01T00:17:32Z</time>
      </trkpt>
      <trkpt lat="46.1963" lon="6.73232">
        <ele>1742</ele>
        <time>2010-01-01T00:17:35Z</time>
      </trkpt>
      <trkpt lat="46.19628" lon="6.73269">
        <ele>1741</ele>
        <time>2010-01-01T00:17:46Z</time>
      </trkpt>
      <trkpt lat="46.19626" lon="6.7328">
        <ele>1741</ele>
        <time>2010-01-01T00:17:49Z</time>
      </trkpt>
      <trkpt lat="46.1962" lon="6.73294">
        <ele>1741</ele>
        <time>2010-01-01T00:17:53Z</time>
      </trkpt>
      <trkpt lat="46.19619" lon="6.73307">
        <ele>1740</ele>
        <time>2010-01-01T00:17:57Z</time>
      </trkpt>
      <trkpt lat="46.19613" lon="6.73329">
        <ele>1740</ele>
        <time>2010-01-01T00:18:03Z</time>
      </trkpt>
      <trkpt lat="46.19608" lon="6.73362">
        <ele>1739</ele>
        <time>2010-01-01T00:18:13Z</time>
      </trkpt>
      <trkpt lat="46.19606" lon="6.73406">
        <ele>1736</ele>
        <time>2010-01-01T00:18:25Z</time>
      </trkpt>
      <trkpt lat="46.19607" lon="6.73427">
        <ele>1735</ele>
        <time>2010-01-01T00:18:31Z</time>
      </trkpt>
      <trkpt lat="46.19619" lon="6.73497">
        <ele>1735</ele>
        <time>2010-01-01T00:18:51Z</time>
      </trkpt>
      <trkpt lat="46.19626" lon="6.73529">
        <ele>1735</ele>
        <time>2010-01-01T00:19:00Z</time>
      </trkpt>
      <trkpt lat="46.19631" lon="6.73542">
        <ele>1735</ele>
        <time>2010-01-01T00:19:04Z</time>
      </trkpt>
      <trkpt lat="46.19638" lon="6.73559">
        <ele>1735</ele>
        <time>2010-01-01T00:19:10Z</time>
      </trkpt>
      <trkpt lat="46.19677" lon="6.73622">
        <ele>1736</ele>
        <time>2010-01-01T00:19:33Z</time>
      </trkpt>
      <trkpt lat="46.19744" lon="6.73706">
        <ele>1739</ele>
        <time>2010-01-01T00:20:09Z</time>
      </trkpt>
      <trkpt lat="46.19775" lon="6.73752">
        <ele>1742</ele>
        <time>2010-01-01T00:20:27Z</time>
      </trkpt>
      <trkpt lat="46.19814" lon="6.73819">
        <ele>1745</ele>
        <time>2010-01-01T00:20:51Z</time>
      </trkpt>
      <trkpt lat="46.19844" lon="6.73881">
        <ele>1751</ele>
        <time>2010-01-01T00:21:12Z</time>
      </trkpt>
      <trkpt lat="46.19865" lon="6.73936">
        <ele>1752</ele>
        <time>2010-01-01T00:21:29Z</time>
      </trkpt>
      <trkpt lat="46.19891" lon="6.73982">
        <ele>1753</ele>
        <time>2010-01-01T00:21:45Z</time>
      </trkpt>
      <trkpt lat="46.19914" lon="6.74011">
        <ele>1754</ele>
        <time>2010-01-01T00:21:58Z</time>
      </trkpt>
      <trkpt lat="46.19942" lon="6.74059">
        <ele>1757</ele>
        <time>2010-01-01T00:22:15Z</time>
      </trkpt>
      <trkpt lat="46.19956" lon="6.74076">
        <ele>1759</ele>
        <time>2010-01-01T00:22:23Z</time>
      </trkpt>
      <trkpt lat="46.19972" lon="6.74091">
        <ele>1759</ele>
        <time>2010-01-01T00:22:30Z</time>
      </trkpt>
      <trkpt lat="46.19987" lon="6.74109">
        <ele>1761</ele>
        <time>2010-01-01T00:22:38Z</time>
      </trkpt>
      <trkpt lat="46.19996" lon="6.74132">
        <ele>1761</ele>
        <time>2010-01-01T00:22:45Z</time>
      </trkpt>
      <trkpt lat="46.19996" lon="6.74132">
        <ele>1761</ele>
        <time>2010-01-01T00:22:45Z</time>
      </trkpt>
      <trkpt lat="46.20017" lon="6.74189">
        <ele>1760</ele>
        <time>2010-01-01T00:23:03Z</time>
      </trkpt>
      <trkpt lat="46.2003" lon="6.74216">
        <ele>1759</ele>
        <time>2010-01-01T00:23:12Z</time>
      </trkpt>
      <trkpt lat="46.20045" lon="6.74253">
        <ele>1760</ele>
        <time>2010-01-01T00:23:24Z</time>
      </trkpt>
      <trkpt lat="46.20048" lon="6.7427">
        <ele>1761</ele>
        <time>2010-01-01T00:23:29Z</time>
      </trkpt>
      <trkpt lat="46.20041" lon="6.74305">
        <ele>1760</ele>
        <time>2010-01-01T00:23:39Z</time>
      </trkpt>
      <trkpt lat="46.20039" lon="6.74334">
        <ele>1760</ele>
        <time>2010-01-01T00:23:47Z</time>
      </trkpt>
      <trkpt lat="46.20035" lon="6.74363">
        <ele>1759</ele>
        <time>2010-01-01T00:23:55Z</time>
      </trkpt>
      <trkpt lat="46.20049" lon="6.74435">
        <ele>1757</ele>
        <time>2010-01-01T00:24:16Z</time>
      </trkpt>
      <trkpt lat="46.20057" lon="6.74504">
        <ele>1756</ele>
        <time>2010-01-01T00:24:36Z</time>
      </trkpt>
      <trkpt lat="46.20059" lon="6.74554">
        <ele>1754</ele>
        <time>2010-01-01T00:24:50Z</time>
      </trkpt>
      <trkpt lat="46.20063" lon="6.74566">
        <ele>1754</ele>
        <time>2010-01-01T00:24:53Z</time>
      </trkpt>
      <trkpt lat="46.2007" lon="6.7458">
        <ele>1754</ele>
        <time>2010-01-01T00:24:58Z</time>
      </trkpt>
      <trkpt lat="46.20073" lon="6.74593">
        <ele>1753</ele>
        <time>2010-01-01T00:25:02Z</time>
      </trkpt>
      <trkpt lat="46.20073" lon="6.74629">
        <ele>1751</ele>
        <time>2010-01-01T00:25:12Z</time>
      </trkpt>
      <trkpt lat="46.20077" lon="6.74673">
        <ele>1751</ele>
        <time>2010-01-01T00:25:24Z</time>
      </trkpt>
      <trkpt lat="46.20077" lon="6.74697">
        <ele>1749</ele>
        <time>2010-01-01T00:25:31Z</time>
      </trkpt>
      <trkpt lat="46.20079" lon="6.74723">
        <ele>1748</ele>
        <time>2010-01-01T00:25:38Z</time>
      </trkpt>
      <trkpt lat="46.20089" lon="6.74786">
        <ele>1749</ele>
        <time>2010-01-01T00:25:56Z</time>
      </trkpt>
      <trkpt lat="46.20092" lon="6.74854">
        <ele>1748</ele>
        <time>2010-01-01T00:26:15Z</time>
      </trkpt>
      <trkpt lat="46.20095" lon="6.74883">
        <ele>1749</ele>
        <time>2010-01-01T00:26:23Z</time>
      </trkpt>
      <trkpt lat="46.20096" lon="6.7492">
        <ele>1749</ele>
        <time>2010-01-01T00:26:33Z</time>
      </trkpt>
      <trkpt lat="46.20104" lon="6.74983">
        <ele>1749</ele>
        <time>2010-01-01T00:26:51Z</time>
      </trkpt>
      <trkpt lat="46.20113" lon="6.75016">
        <ele>1750</ele>
        <time>2010-01-01T00:27:00Z</time>
      </trkpt>
      <trkpt lat="46.20121" lon="6.75085">
        <ele>1747</ele>
        <time>2010-01-01T00:27:20Z</time>
      </trkpt>
      <trkpt lat="46.20132" lon="6.75141">
        <ele>1747</ele>
        <time>2010-01-01T00:27:36Z</time>
      </trkpt>
      <trkpt lat="46.20136" lon="6.75174">
        <ele>1747</ele>
        <time>2010-01-01T00:27:45Z</time>
      </trkpt>
      <trkpt lat="46.20136" lon="6.7525">
        <ele>1747</ele>
        <time>2010-01-01T00:28:06Z</time>
      </trkpt>
      <trkpt lat="46.20135" lon="6.75275">
        <ele>1747</ele>
        <time>2010-01-01T00:28:13Z</time>
      </trkpt>
      <trkpt lat="46.20132" lon="6.75291">
        <ele>1746</ele>
        <time>2010-01-01T00:28:18Z</time>
      </trkpt>
      <trkpt lat="46.20129" lon="6.75335">
        <ele>1746</ele>
        <time>2010-01-01T00:28:30Z</time>
      </trkpt>
      <trkpt lat="46.20122" lon="6.75379">
        <ele>1746</ele>
        <time>2010-01-01T00:28:43Z</time>
      </trkpt>
      <trkpt lat="46.20122" lon="6.75379">
        <ele>1746</ele>
        <time>2010-01-01T00:28:43Z</time>
      </trkpt>
      <trkpt lat="46.20116" lon="6.75432">
        <ele>1746</ele>
        <time>2010-01-01T00:28:58Z</time>
      </trkpt>
      <trkpt lat="46.20112" lon="6.75453">
        <ele>1746</ele>
        <time>2010-01-01T00:29:04Z</time>
      </trkpt>
      <trkpt lat="46.20107" lon="6.7548">
        <ele>1746</ele>
        <time>2010-01-01T00:29:11Z</time>
      </trkpt>
      <trkpt lat="46.20106" lon="6.75512">
        <ele>1747</ele>
        <time>2010-01-01T00:29:20Z</time>
      </trkpt>
      <trkpt lat="46.20108" lon="6.75533">
        <ele>1748</ele>
        <time>2010-01-01T00:29:26Z</time>
      </trkpt>
      <trkpt lat="46.20108" lon="6.75597">
        <ele>1749</ele>
        <time>2010-01-01T00:29:44Z</time>
      </trkpt>
      <trkpt lat="46.20106" lon="6.7563">
        <ele>1750</ele>
        <time>2010-01-01T00:29:53Z</time>
      </trkpt>
      <trkpt lat="46.20102" lon="6.75672">
        <ele>1750</ele>
        <time>2010-01-01T00:30:05Z</time>
      </trkpt>
      <trkpt lat="46.20097" lon="6.757">
        <ele>1750</ele>
        <time>2010-01-01T00:30:13Z</time>
      </trkpt>
      <trkpt lat="46.2009" lon="6.75721">
        <ele>1750</ele>
        <time>2010-01-01T00:30:19Z</time>
      </trkpt>
      <trkpt lat="46.20076" lon="6.75748">
        <ele>1751</ele>
        <time>2010-01-01T00:30:29Z</time>
      </trkpt>
      <trkpt lat="46.20066" lon="6.75776">
        <ele>1750</ele>
        <time>2010-01-01T00:30:37Z</time>
      </trkpt>
      <trkpt lat="46.20058" lon="6.75792">
        <ele>1749</ele>
        <time>2010-01-01T00:30:43Z</time>
      </trkpt>
      <trkpt lat="46.20056" lon="6.75802">
        <ele>1749</ele>
        <time>2010-01-01T00:30:46Z</time>
      </trkpt>
      <trkpt lat="46.20056" lon="6.75817">
        <ele>1750</ele>
        <time>2010-01-01T00:30:50Z</time>
      </trkpt>
      <trkpt lat="46.20054" lon="6.7583">
        <ele>1750</ele>
        <time>2010-01-01T00:30:53Z</time>
      </trkpt>
      <trkpt lat="46.20055" lon="6.7585">
        <ele>1751</ele>
        <time>2010-01-01T00:30:59Z</time>
      </trkpt>
      <trkpt lat="46.20052" lon="6.75863">
        <ele>1752</ele>
        <time>2010-01-01T00:31:03Z</time>
      </trkpt>
      <trkpt lat="46.20047" lon="6.75876">
        <ele>1753</ele>
        <time>2010-01-01T00:31:07Z</time>
      </trkpt>
      <trkpt lat="46.20031" lon="6.75897">
        <ele>1753</ele>
        <time>2010-01-01T00:31:16Z</time>
      </trkpt>
      <trkpt lat="46.20016" lon="6.75923">
        <ele>1752</ele>
        <time>2010-01-01T00:31:25Z</time>
      </trkpt>
      <trkpt lat="46.20017" lon="6.75928">
        <ele>1752</ele>
        <time>2010-01-01T00:31:26Z</time>
      </trkpt>
      <trkpt lat="46.2002" lon="6.75929">
        <ele>1752</ele>
        <time>2010-01-01T00:31:28Z</time>
      </trkpt>
      <trkpt lat="46.20037" lon="6.75921">
        <ele>1750</ele>
        <time>2010-01-01T00:31:35Z</time>
      </trkpt>
      <trkpt lat="46.20039" lon="6.75926">
        <ele>1750</ele>
        <time>2010-01-01T00:31:36Z</time>
      </trkpt>
      <trkpt lat="46.20036" lon="6.75949">
        <ele>1748</ele>
        <time>2010-01-01T00:31:43Z</time>
      </trkpt>
      <trkpt lat="46.20031" lon="6.75958">
        <ele>1748</ele>
        <time>2010-01-01T00:31:46Z</time>
      </trkpt>
      <trkpt lat="46.20023" lon="6.75969">
        <ele>1748</ele>
        <time>2010-01-01T00:31:50Z</time>
      </trkpt>
      <trkpt lat="46.20019" lon="6.75984">
        <ele>1748</ele>
        <time>2010-01-01T00:31:55Z</time>
      </trkpt>
      <trkpt lat="46.20018" lon="6.75996">
        <ele>1748</ele>
        <time>2010-01-01T00:31:58Z</time>
      </trkpt>
      <trkpt lat="46.20023" lon="6.76001">
        <ele>1747</ele>
        <time>2010-01-01T00:32:01Z</time>
      </trkpt>
      <trkpt lat="46.20037" lon="6.75995">
        <ele>1746</ele>
        <time>2010-01-01T00:32:06Z</time>
      </trkpt>
      <trkpt lat="46.20039" lon="6.75997">
        <ele>1745</ele>
        <time>2010-01-01T00:32:07Z</time>
      </trkpt>
      <trkpt lat="46.20041" lon="6.76001">
        <ele>1745</ele>
        <time>2010-01-01T00:32:09Z</time>
      </trkpt>
      <trkpt lat="46.20036" lon="6.76023">
        <ele>1744</ele>
        <time>2010-01-01T00:32:15Z</time>
      </trkpt>
      <trkpt lat="46.20037" lon="6.76029">
        <ele>1743</ele>
        <time>2010-01-01T00:32:16Z</time>
      </trkpt>
      <trkpt lat="46.20041" lon="6.76036">
        <ele>1743</ele>
        <time>2010-01-01T00:32:19Z</time>
      </trkpt>
      <trkpt lat="46.2006" lon="6.76059">
        <ele>1741</ele>
        <time>2010-01-01T00:32:29Z</time>
      </trkpt>
      <trkpt lat="46.20064" lon="6.76074">
        <ele>1739</ele>
        <time>2010-01-01T00:32:34Z</time>
      </trkpt>
      <trkpt lat="46.20064" lon="6.76084">
        <ele>1738</ele>
        <time>2010-01-01T00:32:36Z</time>
      </trkpt>
      <trkpt lat="46.20062" lon="6.76103">
        <ele>1736</ele>
        <time>2010-01-01T00:32:42Z</time>
      </trkpt>
      <trkpt lat="46.20067" lon="6.76134">
        <ele>1734</ele>
        <time>2010-01-01T00:32:51Z</time>
      </trkpt>
      <trkpt lat="46.20065" lon="6.76147">
        <ele>1732</ele>
        <time>2010-01-01T00:32:54Z</time>
      </trkpt>
      <trkpt lat="46.20058" lon="6.76163">
        <ele>1729</ele>
        <time>2010-01-01T00:33:00Z</time>
      </trkpt>
      <trkpt lat="46.20051" lon="6.76199">
        <ele>1725</ele>
        <time>2010-01-01T00:33:10Z</time>
      </trkpt>
      <trkpt lat="46.20049" lon="6.76225">
        <ele>1721</ele>
        <time>2010-01-01T00:33:17Z</time>
      </trkpt>
      <trkpt lat="46.20049" lon="6.76233">
        <ele>1720</ele>
        <time>2010-01-01T00:33:19Z</time>
      </trkpt>
      <trkpt lat="46.20057" lon="6.76275">
        <ele>1714</ele>
        <time>2010-01-01T00:33:31Z</time>
      </trkpt>
      <trkpt lat="46.20057" lon="6.7634">
        <ele>1710</ele>
        <time>2010-01-01T00:33:49Z</time>
      </trkpt>
      <trkpt lat="46.20064" lon="6.76415">
        <ele>1704</ele>
        <time>2010-01-01T00:34:10Z</time>
      </trkpt>
      <trkpt lat="46.20075" lon="6.76446">
        <ele>1700</ele>
        <time>2010-01-01T00:34:20Z</time>
      </trkpt>
      <trkpt lat="46.20076" lon="6.76453">
        <ele>1699</ele>
        <time>2010-01-01T00:34:22Z</time>
      </trkpt>
      <trkpt lat="46.20072" lon="6.7647">
        <ele>1697</ele>
        <time>2010-01-01T00:34:27Z</time>
      </trkpt>
      <trkpt lat="46.20069" lon="6.76491">
        <ele>1696</ele>
        <time>2010-01-01T00:34:33Z</time>
      </trkpt>
      <trkpt lat="46.20071" lon="6.76505">
        <ele>1694</ele>
        <time>2010-01-01T00:34:37Z</time>
      </trkpt>
      <trkpt lat="46.20074" lon="6.7651">
        <ele>1692</ele>
        <time>2010-01-01T00:34:39Z</time>
      </trkpt>
      <trkpt lat="46.20074" lon="6.7651">
        <ele>1692</ele>
        <time>2010-01-01T00:34:39Z</time>
      </trkpt>
      <trkpt lat="46.20079" lon="6.76515">
        <ele>1691</ele>
        <time>2010-01-01T00:34:41Z</time>
      </trkpt>
      <trkpt lat="46.20084" lon="6.76515">
        <ele>1689</ele>
        <time>2010-01-01T00:34:43Z</time>
      </trkpt>
      <trkpt lat="46.20096" lon="6.76502">
        <ele>1684</ele>
        <time>2010-01-01T00:34:49Z</time>
      </trkpt>
      <trkpt lat="46.20098" lon="6.76502">
        <ele>1683</ele>
        <time>2010-01-01T00:34:50Z</time>
      </trkpt>
      <trkpt lat="46.201" lon="6.76509">
        <ele>1682</ele>
        <time>2010-01-01T00:34:52Z</time>
      </trkpt>
      <trkpt lat="46.20098" lon="6.76516">
        <ele>1681</ele>
        <time>2010-01-01T00:34:54Z</time>
      </trkpt>
      <trkpt lat="46.20098" lon="6.7652">
        <ele>1680</ele>
        <time>2010-01-01T00:34:55Z</time>
      </trkpt>
      <trkpt lat="46.20107" lon="6.76547">
        <ele>1679</ele>
        <time>2010-01-01T00:35:04Z</time>
      </trkpt>
      <trkpt lat="46.2011" lon="6.76555">
        <ele>1678</ele>
        <time>2010-01-01T00:35:06Z</time>
      </trkpt>
      <trkpt lat="46.20124" lon="6.76572">
        <ele>1677</ele>
        <time>2010-01-01T00:35:13Z</time>
      </trkpt>
      <trkpt lat="46.20127" lon="6.76579">
        <ele>1676</ele>
        <time>2010-01-01T00:35:16Z</time>
      </trkpt>
      <trkpt lat="46.20126" lon="6.76599">
        <ele>1675</ele>
        <time>2010-01-01T00:35:21Z</time>
      </trkpt>
      <trkpt lat="46.20113" lon="6.76649">
        <ele>1671</ele>
        <time>2010-01-01T00:35:36Z</time>
      </trkpt>
      <trkpt lat="46.20111" lon="6.76668">
        <ele>1671</ele>
        <time>2010-01-01T00:35:41Z</time>
      </trkpt>
      <trkpt lat="46.20111" lon="6.76695">
        <ele>1669</ele>
        <time>2010-01-01T00:35:49Z</time>
      </trkpt>
      <trkpt lat="46.20104" lon="6.76726">
        <ele>1666</ele>
        <time>2010-01-01T00:35:58Z</time>
      </trkpt>
      <trkpt lat="46.20102" lon="6.76741">
        <ele>1666</ele>
        <time>2010-01-01T00:36:02Z</time>
      </trkpt>
      <trkpt lat="46.20101" lon="6.76756">
        <ele>1664</ele>
        <time>2010-01-01T00:36:06Z</time>
      </trkpt>
      <trkpt lat="46.20105" lon="6.76785">
        <ele>1662</ele>
        <time>2010-01-01T00:36:14Z</time>
      </trkpt>
      <trkpt lat="46.20104" lon="6.76817">
        <ele>1660</ele>
        <time>2010-01-01T00:36:23Z</time>
      </trkpt>
      <trkpt lat="46.20107" lon="6.76823">
        <ele>1660</ele>
        <time>2010-01-01T00:36:25Z</time>
      </trkpt>
      <trkpt lat="46.20113" lon="6.76826">
        <ele>1659</ele>
        <time>2010-01-01T00:36:28Z</time>
      </trkpt>
      <trkpt lat="46.20129" lon="6.76828">
        <ele>1656</ele>
        <time>2010-01-01T00:36:34Z</time>
      </trkpt>
      <trkpt lat="46.2014" lon="6.76835">
        <ele>1655</ele>
        <time>2010-01-01T00:36:39Z</time>
      </trkpt>
      <trkpt lat="46.20149" lon="6.76848">
        <ele>1653</ele>
        <time>2010-01-01T00:36:44Z</time>
      </trkpt>
      <trkpt lat="46.20153" lon="6.76864">
        <ele>1652</ele>
        <time>2010-01-01T00:36:49Z</time>
      </trkpt>
      <trkpt lat="46.20163" lon="6.76877">
        <ele>1651</ele>
        <time>2010-01-01T00:36:54Z</time>
      </trkpt>
      <trkpt lat="46.20168" lon="6.76881">
        <ele>1650</ele>
        <time>2010-01-01T00:36:57Z</time>
      </trkpt>
      <trkpt lat="46.20208" lon="6.76885">
        <ele>1647</ele>
        <time>2010-01-01T00:37:13Z</time>
      </trkpt>
      <trkpt lat="46.20224" lon="6.76891">
        <ele>1645</ele>
        <time>2010-01-01T00:37:19Z</time>
      </trkpt>
      <trkpt lat="46.20232" lon="6.76897">
        <ele>1643</ele>
        <time>2010-01-01T00:37:23Z</time>
      </trkpt>
      <trkpt lat="46.20249" lon="6.769">
        <ele>1640</ele>
        <time>2010-01-01T00:37:30Z</time>
      </trkpt>
      <trkpt lat="46.20267" lon="6.76894">
        <ele>1638</ele>
        <time>2010-01-01T00:37:37Z</time>
      </trkpt>
      <trkpt lat="46.20276" lon="6.76888">
        <ele>1638</ele>
        <time>2010-01-01T00:37:41Z</time>
      </trkpt>
      <trkpt lat="46.20283" lon="6.76888">
        <ele>1638</ele>
        <time>2010-01-01T00:37:44Z</time>
      </trkpt>
      <trkpt lat="46.20289" lon="6.76886">
        <ele>1636</ele>
        <time>2010-01-01T00:37:46Z</time>
      </trkpt>
      <trkpt lat="46.20296" lon="6.76886">
        <ele>1636</ele>
        <time>2010-01-01T00:37:49Z</time>
      </trkpt>
      <trkpt lat="46.20299" lon="6.76884">
        <ele>1635</ele>
        <time>2010-01-01T00:37:50Z</time>
      </trkpt>
      <trkpt lat="46.20299" lon="6.76882">
        <ele>1635</ele>
        <time>2010-01-01T00:37:51Z</time>
      </trkpt>
      <trkpt lat="46.20306" lon="6.76879">
        <ele>1633</ele>
        <time>2010-01-01T00:37:54Z</time>
      </trkpt>
      <trkpt lat="46.20324" lon="6.76879">
        <ele>1633</ele>
        <time>2010-01-01T00:38:02Z</time>
      </trkpt>
      <trkpt lat="46.20329" lon="6.76881">
        <ele>1632</ele>
        <time>2010-01-01T00:38:03Z</time>
      </trkpt>
      <trkpt lat="46.2034" lon="6.76879">
        <ele>1635</ele>
        <time>2010-01-01T00:38:08Z</time>
      </trkpt>
      <trkpt lat="46.20345" lon="6.76876">
        <ele>1635</ele>
        <time>2010-01-01T00:38:10Z</time>
      </trkpt>
      <trkpt lat="46.20351" lon="6.76869">
        <ele>1636</ele>
        <time>2010-01-01T00:38:13Z</time>
      </trkpt>
      <trkpt lat="46.2036" lon="6.76867">
        <ele>1636</ele>
        <time>2010-01-01T00:38:17Z</time>
      </trkpt>
      <trkpt lat="46.20366" lon="6.76864">
        <ele>1636</ele>
        <time>2010-01-01T00:38:19Z</time>
      </trkpt>
      <trkpt lat="46.20384" lon="6.76858">
        <ele>1640</ele>
        <time>2010-01-01T00:38:27Z</time>
      </trkpt>
      <trkpt lat="46.20406" lon="6.76846">
        <ele>1641</ele>
        <time>2010-01-01T00:38:36Z</time>
      </trkpt>
      <trkpt lat="46.20418" lon="6.76835">
        <ele>1642</ele>
        <time>2010-01-01T00:38:42Z</time>
      </trkpt>
      <trkpt lat="46.20431" lon="6.76828">
        <ele>1639</ele>
        <time>2010-01-01T00:38:47Z</time>
      </trkpt>
      <trkpt lat="46.20435" lon="6.76831">
        <ele>1639</ele>
        <time>2010-01-01T00:38:49Z</time>
      </trkpt>
      <trkpt lat="46.20443" lon="6.7683">
        <ele>1639</ele>
        <time>2010-01-01T00:38:53Z</time>
      </trkpt>
      <trkpt lat="46.20446" lon="6.76831">
        <ele>1638</ele>
        <time>2010-01-01T00:38:54Z</time>
      </trkpt>
      <trkpt lat="46.20452" lon="6.76838">
        <ele>1637</ele>
        <time>2010-01-01T00:38:57Z</time>
      </trkpt>
      <trkpt lat="46.20457" lon="6.76847">
        <ele>1636</ele>
        <time>2010-01-01T00:39:00Z</time>
      </trkpt>
      <trkpt lat="46.20462" lon="6.76851">
        <ele>1637</ele>
        <time>2010-01-01T00:39:02Z</time>
      </trkpt>
      <trkpt lat="46.20469" lon="6.76854">
        <ele>1636</ele>
        <time>2010-01-01T00:39:05Z</time>
      </trkpt>
      <trkpt lat="46.20479" lon="6.76855">
        <ele>1636</ele>
        <time>2010-01-01T00:39:09Z</time>
      </trkpt>
      <trkpt lat="46.20484" lon="6.76857">
        <ele>1636</ele>
        <time>2010-01-01T00:39:11Z</time>
      </trkpt>
      <trkpt lat="46.20493" lon="6.76867">
        <ele>1634</ele>
        <time>2010-01-01T00:39:16Z</time>
      </trkpt>
      <trkpt lat="46.20495" lon="6.76872">
        <ele>1634</ele>
        <time>2010-01-01T00:39:18Z</time>
      </trkpt>
      <trkpt lat="46.20504" lon="6.76956">
        <ele>1629</ele>
        <time>2010-01-01T00:39:41Z</time>
      </trkpt>
      <trkpt lat="46.20504" lon="6.76975">
        <ele>1629</ele>
        <time>2010-01-01T00:39:46Z</time>
      </trkpt>
      <trkpt lat="46.205" lon="6.77003">
        <ele>1628</ele>
        <time>2010-01-01T00:39:54Z</time>
      </trkpt>
      <trkpt lat="46.205" lon="6.77033">
        <ele>1626</ele>
        <time>2010-01-01T00:40:02Z</time>
      </trkpt>
      <trkpt lat="46.20501" lon="6.77048">
        <ele>1626</ele>
        <time>2010-01-01T00:40:07Z</time>
      </trkpt>
      <trkpt lat="46.20507" lon="6.77067">
        <ele>1624</ele>
        <time>2010-01-01T00:40:12Z</time>
      </trkpt>
      <trkpt lat="46.20508" lon="6.77084">
        <ele>1623</ele>
        <time>2010-01-01T00:40:17Z</time>
      </trkpt>
      <trkpt lat="46.20505" lon="6.77108">
        <ele>1622</ele>
        <time>2010-01-01T00:40:24Z</time>
      </trkpt>
      <trkpt lat="46.20498" lon="6.77127">
        <ele>1622</ele>
        <time>2010-01-01T00:40:30Z</time>
      </trkpt>
      <trkpt lat="46.20498" lon="6.77135">
        <ele>1621</ele>
        <time>2010-01-01T00:40:32Z</time>
      </trkpt>
      <trkpt lat="46.20498" lon="6.77135">
        <ele>1621</ele>
        <time>2010-01-01T00:40:32Z</time>
      </trkpt>
      <trkpt lat="46.20496" lon="6.77189">
        <ele>1619</ele>
        <time>2010-01-01T00:40:47Z</time>
      </trkpt>
      <trkpt lat="46.20487" lon="6.7722">
        <ele>1619</ele>
        <time>2010-01-01T00:40:56Z</time>
      </trkpt>
      <trkpt lat="46.20489" lon="6.77229">
        <ele>1618</ele>
        <time>2010-01-01T00:40:59Z</time>
      </trkpt>
      <trkpt lat="46.20494" lon="6.77241">
        <ele>1619</ele>
        <time>2010-01-01T00:41:03Z</time>
      </trkpt>
      <trkpt lat="46.20494" lon="6.77251">
        <ele>1619</ele>
        <time>2010-01-01T00:41:05Z</time>
      </trkpt>
      <trkpt lat="46.20492" lon="6.77266">
        <ele>1619</ele>
        <time>2010-01-01T00:41:10Z</time>
      </trkpt>
      <trkpt lat="46.2053" lon="6.77203">
        <ele>1605</ele>
        <time>2010-01-01T00:41:33Z</time>
      </trkpt>
      <trkpt lat="46.20485" lon="6.77283">
        <ele>1618</ele>
        <time>2010-01-01T00:42:01Z</time>
      </trkpt>
      <trkpt lat="46.20471" lon="6.77326">
        <ele>1616</ele>
        <time>2010-01-01T00:42:15Z</time>
      </trkpt>
      <trkpt lat="46.20458" lon="6.77355">
        <ele>1615</ele>
        <time>2010-01-01T00:42:24Z</time>
      </trkpt>
      <trkpt lat="46.20438" lon="6.77383">
        <ele>1614</ele>
        <time>2010-01-01T00:42:35Z</time>
      </trkpt>
      <trkpt lat="46.20423" lon="6.77414">
        <ele>1612</ele>
        <time>2010-01-01T00:42:46Z</time>
      </trkpt>
      <trkpt lat="46.20401" lon="6.77439">
        <ele>1611</ele>
        <time>2010-01-01T00:42:57Z</time>
      </trkpt>
      <trkpt lat="46.20384" lon="6.77465">
        <ele>1609</ele>
        <time>2010-01-01T00:43:07Z</time>
      </trkpt>
      <trkpt lat="46.20367" lon="6.77504">
        <ele>1607</ele>
        <time>2010-01-01T00:43:20Z</time>
      </trkpt>
      <trkpt lat="46.20364" lon="6.77518">
        <ele>1606</ele>
        <time>2010-01-01T00:43:23Z</time>
      </trkpt>
      <trkpt lat="46.20368" lon="6.77538">
        <ele>1604</ele>
        <time>2010-01-01T00:43:29Z</time>
      </trkpt>
      <trkpt lat="46.20369" lon="6.77568">
        <ele>1602</ele>
        <time>2010-01-01T00:43:38Z</time>
      </trkpt>
      <trkpt lat="46.20366" lon="6.77587">
        <ele>1600</ele>
        <time>2010-01-01T00:43:43Z</time>
      </trkpt>
      <trkpt lat="46.2037" lon="6.7763">
        <ele>1599</ele>
        <time>2010-01-01T00:43:55Z</time>
      </trkpt>
      <trkpt lat="46.20378" lon="6.77642">
        <ele>1598</ele>
        <time>2010-01-01T00:44:00Z</time>
      </trkpt>
      <trkpt lat="46.20391" lon="6.7765">
        <ele>1598</ele>
        <time>2010-01-01T00:44:05Z</time>
      </trkpt>
      <trkpt lat="46.20395" lon="6.77661">
        <ele>1597</ele>
        <time>2010-01-01T00:44:09Z</time>
      </trkpt>
      <trkpt lat="46.20395" lon="6.7767">
        <ele>1598</ele>
        <time>2010-01-01T00:44:11Z</time>
      </trkpt>
      <trkpt lat="46.20378" lon="6.77717">
        <ele>1596</ele>
        <time>2010-01-01T00:44:26Z</time>
      </trkpt>
      <trkpt lat="46.20375" lon="6.77722">
        <ele>1596</ele>
        <time>2010-01-01T00:44:28Z</time>
      </trkpt>
      <trkpt lat="46.2036" lon="6.7774">
        <ele>1595</ele>
        <time>2010-01-01T00:44:35Z</time>
      </trkpt>
      <trkpt lat="46.20343" lon="6.77773">
        <ele>1594</ele>
        <time>2010-01-01T00:44:47Z</time>
      </trkpt>
      <trkpt lat="46.20333" lon="6.77805">
        <ele>1594</ele>
        <time>2010-01-01T00:44:56Z</time>
      </trkpt>
      <trkpt lat="46.20333" lon="6.77818">
        <ele>1593</ele>
        <time>2010-01-01T00:45:00Z</time>
      </trkpt>
      <trkpt lat="46.20335" lon="6.7783">
        <ele>1593</ele>
        <time>2010-01-01T00:45:04Z</time>
      </trkpt>
      <trkpt lat="46.20336" lon="6.77834">
        <ele>1593</ele>
        <time>2010-01-01T00:45:05Z</time>
      </trkpt>
      <trkpt lat="46.20345" lon="6.77843">
        <ele>1594</ele>
        <time>2010-01-01T00:45:09Z</time>
      </trkpt>
      <trkpt lat="46.20349" lon="6.77867">
        <ele>1594</ele>
        <time>2010-01-01T00:45:16Z</time>
      </trkpt>
      <trkpt lat="46.20354" lon="6.77883">
        <ele>1595</ele>
        <time>2010-01-01T00:45:21Z</time>
      </trkpt>
      <trkpt lat="46.20353" lon="6.77905">
        <ele>1594</ele>
        <time>2010-01-01T00:45:27Z</time>
      </trkpt>
      <trkpt lat="46.20346" lon="6.77918">
        <ele>1593</ele>
        <time>2010-01-01T00:45:31Z</time>
      </trkpt>
      <trkpt lat="46.20336" lon="6.77926">
        <ele>1594</ele>
        <time>2010-01-01T00:45:36Z</time>
      </trkpt>
      <trkpt lat="46.20325" lon="6.77931">
        <ele>1594</ele>
        <time>2010-01-01T00:45:41Z</time>
      </trkpt>
      <trkpt lat="46.20317" lon="6.77938">
        <ele>1593</ele>
        <time>2010-01-01T00:45:44Z</time>
      </trkpt>
      <trkpt lat="46.20308" lon="6.77953">
        <ele>1591</ele>
        <time>2010-01-01T00:45:50Z</time>
      </trkpt>
      <trkpt lat="46.20299" lon="6.77975">
        <ele>1591</ele>
        <time>2010-01-01T00:45:57Z</time>
      </trkpt>
      <trkpt lat="46.20297" lon="6.77986">
        <ele>1592</ele>
        <time>2010-01-01T00:46:00Z</time>
      </trkpt>
      <trkpt lat="46.20296" lon="6.78005">
        <ele>1592</ele>
        <time>2010-01-01T00:46:05Z</time>
      </trkpt>
      <trkpt lat="46.20298" lon="6.78032">
        <ele>1590</ele>
        <time>2010-01-01T00:46:13Z</time>
      </trkpt>
      <trkpt lat="46.20296" lon="6.78037">
        <ele>1591</ele>
        <time>2010-01-01T00:46:15Z</time>
      </trkpt>
      <trkpt lat="46.20291" lon="6.78045">
        <ele>1592</ele>
        <time>2010-01-01T00:46:18Z</time>
      </trkpt>
      <trkpt lat="46.20279" lon="6.78051">
        <ele>1591</ele>
        <time>2010-01-01T00:46:23Z</time>
      </trkpt>
      <trkpt lat="46.2027" lon="6.78063">
        <ele>1590</ele>
        <time>2010-01-01T00:46:28Z</time>
      </trkpt>
      <trkpt lat="46.2027" lon="6.78063">
        <ele>1590</ele>
        <time>2010-01-01T00:46:28Z</time>
      </trkpt>
      <trkpt lat="46.20251" lon="6.78083">
        <ele>1589</ele>
        <time>2010-01-01T00:46:37Z</time>
      </trkpt>
      <trkpt lat="46.2024" lon="6.78102">
        <ele>1589</ele>
        <time>2010-01-01T00:46:44Z</time>
      </trkpt>
      <trkpt lat="46.20233" lon="6.78121">
        <ele>1589</ele>
        <time>2010-01-01T00:46:50Z</time>
      </trkpt>
      <trkpt lat="46.20221" lon="6.78165">
        <ele>1590</ele>
        <time>2010-01-01T00:47:03Z</time>
      </trkpt>
      <trkpt lat="46.20212" lon="6.78183">
        <ele>1589</ele>
        <time>2010-01-01T00:47:09Z</time>
      </trkpt>
      <trkpt lat="46.20187" lon="6.78221">
        <ele>1588</ele>
        <time>2010-01-01T00:47:24Z</time>
      </trkpt>
      <trkpt lat="46.2018" lon="6.7823">
        <ele>1588</ele>
        <time>2010-01-01T00:47:27Z</time>
      </trkpt>
      <trkpt lat="46.20173" lon="6.78245">
        <ele>1588</ele>
        <time>2010-01-01T00:47:33Z</time>
      </trkpt>
      <trkpt lat="46.20152" lon="6.78276">
        <ele>1587</ele>
        <time>2010-01-01T00:47:44Z</time>
      </trkpt>
      <trkpt lat="46.20148" lon="6.7828">
        <ele>1587</ele>
        <time>2010-01-01T00:47:46Z</time>
      </trkpt>
      <trkpt lat="46.20138" lon="6.78285">
        <ele>1587</ele>
        <time>2010-01-01T00:47:51Z</time>
      </trkpt>
      <trkpt lat="46.2013" lon="6.78298">
        <ele>1587</ele>
        <time>2010-01-01T00:47:56Z</time>
      </trkpt>
      <trkpt lat="46.20117" lon="6.7834">
        <ele>1586</ele>
        <time>2010-01-01T00:48:08Z</time>
      </trkpt>
      <trkpt lat="46.20094" lon="6.78383">
        <ele>1586</ele>
        <time>2010-01-01T00:48:23Z</time>
      </trkpt>
      <trkpt lat="46.20089" lon="6.78399">
        <ele>1586</ele>
        <time>2010-01-01T00:48:28Z</time>
      </trkpt>
      <trkpt lat="46.20086" lon="6.78418">
        <ele>1586</ele>
        <time>2010-01-01T00:48:34Z</time>
      </trkpt>
      <trkpt lat="46.20077" lon="6.7844">
        <ele>1587</ele>
        <time>2010-01-01T00:48:41Z</time>
      </trkpt>
      <trkpt lat="46.20072" lon="6.78459">
        <ele>1587</ele>
        <time>2010-01-01T00:48:46Z</time>
      </trkpt>
      <trkpt lat="46.2006" lon="6.78497">
        <ele>1587</ele>
        <time>2010-01-01T00:48:58Z</time>
      </trkpt>
      <trkpt lat="46.20048" lon="6.78519">
        <ele>1587</ele>
        <time>2010-01-01T00:49:06Z</time>
      </trkpt>
      <trkpt lat="46.20038" lon="6.78556">
        <ele>1587</ele>
        <time>2010-01-01T00:49:17Z</time>
      </trkpt>
      <trkpt lat="46.20025" lon="6.78583">
        <ele>1586</ele>
        <time>2010-01-01T00:49:26Z</time>
      </trkpt>
      <trkpt lat="46.20017" lon="6.78591">
        <ele>1586</ele>
        <time>2010-01-01T00:49:30Z</time>
      </trkpt>
      <trkpt lat="46.20013" lon="6.78593">
        <ele>1586</ele>
        <time>2010-01-01T00:49:32Z</time>
      </trkpt>
      <trkpt lat="46.20008" lon="6.78594">
        <ele>1586</ele>
        <time>2010-01-01T00:49:33Z</time>
      </trkpt>
      <trkpt lat="46.20004" lon="6.78592">
        <ele>1586</ele>
        <time>2010-01-01T00:49:35Z</time>
      </trkpt>
      <trkpt lat="46.19996" lon="6.78586">
        <ele>1585</ele>
        <time>2010-01-01T00:49:39Z</time>
      </trkpt>
      <trkpt lat="46.19986" lon="6.78583">
        <ele>1585</ele>
        <time>2010-01-01T00:49:43Z</time>
      </trkpt>
      <trkpt lat="46.19937" lon="6.78588">
        <ele>1583</ele>
        <time>2010-01-01T00:50:03Z</time>
      </trkpt>
      <trkpt lat="46.1992" lon="6.78592">
        <ele>1582</ele>
        <time>2010-01-01T00:50:10Z</time>
      </trkpt>
      <trkpt lat="46.1991" lon="6.78599">
        <ele>1581</ele>
        <time>2010-01-01T00:50:14Z</time>
      </trkpt>
      <trkpt lat="46.19903" lon="6.78625">
        <ele>1581</ele>
        <time>2010-01-01T00:50:22Z</time>
      </trkpt>
      <trkpt lat="46.199" lon="6.78632">
        <ele>1581</ele>
        <time>2010-01-01T00:50:24Z</time>
      </trkpt>
      <trkpt lat="46.19898" lon="6.78645">
        <ele>1581</ele>
        <time>2010-01-01T00:50:28Z</time>
      </trkpt>
      <trkpt lat="46.19888" lon="6.78679">
        <ele>1581</ele>
        <time>2010-01-01T00:50:38Z</time>
      </trkpt>
      <trkpt lat="46.19882" lon="6.78721">
        <ele>1579</ele>
        <time>2010-01-01T00:50:50Z</time>
      </trkpt>
      <trkpt lat="46.1988" lon="6.78744">
        <ele>1578</ele>
        <time>2010-01-01T00:50:56Z</time>
      </trkpt>
      <trkpt lat="46.19884" lon="6.78755">
        <ele>1578</ele>
        <time>2010-01-01T00:51:00Z</time>
      </trkpt>
      <trkpt lat="46.19892" lon="6.7876">
        <ele>1577</ele>
        <time>2010-01-01T00:51:03Z</time>
      </trkpt>
      <trkpt lat="46.19899" lon="6.78762">
        <ele>1577</ele>
        <time>2010-01-01T00:51:06Z</time>
      </trkpt>
      <trkpt lat="46.19921" lon="6.78761">
        <ele>1579</ele>
        <time>2010-01-01T00:51:15Z</time>
      </trkpt>
      <trkpt lat="46.1993" lon="6.78763">
        <ele>1580</ele>
        <time>2010-01-01T00:51:18Z</time>
      </trkpt>
      <trkpt lat="46.19936" lon="6.78763">
        <ele>1580</ele>
        <time>2010-01-01T00:51:21Z</time>
      </trkpt>
      <trkpt lat="46.19949" lon="6.78761">
        <ele>1581</ele>
        <time>2010-01-01T00:51:26Z</time>
      </trkpt>
      <trkpt lat="46.19957" lon="6.78757">
        <ele>1582</ele>
        <time>2010-01-01T00:51:29Z</time>
      </trkpt>
      <trkpt lat="46.19978" lon="6.78753">
        <ele>1584</ele>
        <time>2010-01-01T00:51:38Z</time>
      </trkpt>
      <trkpt lat="46.19981" lon="6.78751">
        <ele>1585</ele>
        <time>2010-01-01T00:51:39Z</time>
      </trkpt>
      <trkpt lat="46.19986" lon="6.7875">
        <ele>1585</ele>
        <time>2010-01-01T00:51:41Z</time>
      </trkpt>
      <trkpt lat="46.20003" lon="6.78729">
        <ele>1589</ele>
        <time>2010-01-01T00:51:50Z</time>
      </trkpt>
      <trkpt lat="46.20009" lon="6.78723">
        <ele>1589</ele>
        <time>2010-01-01T00:51:53Z</time>
      </trkpt>
      <trkpt lat="46.20018" lon="6.78719">
        <ele>1590</ele>
        <time>2010-01-01T00:51:57Z</time>
      </trkpt>
      <trkpt lat="46.20028" lon="6.78717">
        <ele>1592</ele>
        <time>2010-01-01T00:52:01Z</time>
      </trkpt>
      <trkpt lat="46.20042" lon="6.7872">
        <ele>1592</ele>
        <time>2010-01-01T00:52:07Z</time>
      </trkpt>
      <trkpt lat="46.20058" lon="6.7872">
        <ele>1592</ele>
        <time>2010-01-01T00:52:13Z</time>
      </trkpt>
      <trkpt lat="46.20072" lon="6.78717">
        <ele>1592</ele>
        <time>2010-01-01T00:52:19Z</time>
      </trkpt>
      <trkpt lat="46.20086" lon="6.78723">
        <ele>1593</ele>
        <time>2010-01-01T00:52:25Z</time>
      </trkpt>
      <trkpt lat="46.20086" lon="6.78723">
        <ele>1593</ele>
        <time>2010-01-01T00:52:25Z</time>
      </trkpt>
      <trkpt lat="46.20097" lon="6.78723">
        <ele>1593</ele>
        <time>2010-01-01T00:52:29Z</time>
      </trkpt>
      <trkpt lat="46.20104" lon="6.78725">
        <ele>1593</ele>
        <time>2010-01-01T00:52:32Z</time>
      </trkpt>
      <trkpt lat="46.20118" lon="6.78735">
        <ele>1593</ele>
        <time>2010-01-01T00:52:38Z</time>
      </trkpt>
      <trkpt lat="46.20126" lon="6.78738">
        <ele>1593</ele>
        <time>2010-01-01T00:52:41Z</time>
      </trkpt>
      <trkpt lat="46.20141" lon="6.78735">
        <ele>1593</ele>
        <time>2010-01-01T00:52:47Z</time>
      </trkpt>
      <trkpt lat="46.20157" lon="6.78735">
        <ele>1592</ele>
        <time>2010-01-01T00:52:54Z</time>
      </trkpt>
      <trkpt lat="46.20208" lon="6.78745">
        <ele>1590</ele>
        <time>2010-01-01T00:53:14Z</time>
      </trkpt>
      <trkpt lat="46.2022" lon="6.78745">
        <ele>1589</ele>
        <time>2010-01-01T00:53:19Z</time>
      </trkpt>
      <trkpt lat="46.20231" lon="6.78744">
        <ele>1588</ele>
        <time>2010-01-01T00:53:23Z</time>
      </trkpt>
      <trkpt lat="46.20237" lon="6.78741">
        <ele>1588</ele>
        <time>2010-01-01T00:53:26Z</time>
      </trkpt>
      <trkpt lat="46.20252" lon="6.7873">
        <ele>1587</ele>
        <time>2010-01-01T00:53:33Z</time>
      </trkpt>
      <trkpt lat="46.20292" lon="6.78689">
        <ele>1584</ele>
        <time>2010-01-01T00:53:52Z</time>
      </trkpt>
      <trkpt lat="46.20335" lon="6.78652">
        <ele>1582</ele>
        <time>2010-01-01T00:54:12Z</time>
      </trkpt>
      <trkpt lat="46.2035" lon="6.78637">
        <ele>1582</ele>
        <time>2010-01-01T00:54:20Z</time>
      </trkpt>
      <trkpt lat="46.20362" lon="6.78622">
        <ele>1582</ele>
        <time>2010-01-01T00:54:26Z</time>
      </trkpt>
      <trkpt lat="46.20396" lon="6.78568">
        <ele>1582</ele>
        <time>2010-01-01T00:54:46Z</time>
      </trkpt>
      <trkpt lat="46.20407" lon="6.78554">
        <ele>1581</ele>
        <time>2010-01-01T00:54:52Z</time>
      </trkpt>
      <trkpt lat="46.20422" lon="6.78545">
        <ele>1581</ele>
        <time>2010-01-01T00:54:58Z</time>
      </trkpt>
      <trkpt lat="46.2045" lon="6.78523">
        <ele>1580</ele>
        <time>2010-01-01T00:55:11Z</time>
      </trkpt>
      <trkpt lat="46.20467" lon="6.78499">
        <ele>1579</ele>
        <time>2010-01-01T00:55:21Z</time>
      </trkpt>
      <trkpt lat="46.20483" lon="6.78471">
        <ele>1578</ele>
        <time>2010-01-01T00:55:31Z</time>
      </trkpt>
      <trkpt lat="46.20507" lon="6.7845">
        <ele>1577</ele>
        <time>2010-01-01T00:55:42Z</time>
      </trkpt>
      <trkpt lat="46.20522" lon="6.78429">
        <ele>1576</ele>
        <time>2010-01-01T00:55:51Z</time>
      </trkpt>
      <trkpt lat="46.2053" lon="6.78416">
        <ele>1575</ele>
        <time>2010-01-01T00:55:55Z</time>
      </trkpt>
      <trkpt lat="46.20534" lon="6.78408">
        <ele>1575</ele>
        <time>2010-01-01T00:55:58Z</time>
      </trkpt>
      <trkpt lat="46.20537" lon="6.7839">
        <ele>1573</ele>
        <time>2010-01-01T00:56:03Z</time>
      </trkpt>
      <trkpt lat="46.20536" lon="6.78348">
        <ele>1571</ele>
        <time>2010-01-01T00:56:15Z</time>
      </trkpt>
      <trkpt lat="46.20538" lon="6.78327">
        <ele>1568</ele>
        <time>2010-01-01T00:56:21Z</time>
      </trkpt>
      <trkpt lat="46.20548" lon="6.78298">
        <ele>1566</ele>
        <time>2010-01-01T00:56:30Z</time>
      </trkpt>
      <trkpt lat="46.2057" lon="6.78259">
        <ele>1563</ele>
        <time>2010-01-01T00:56:44Z</time>
      </trkpt>
      <trkpt lat="46.20601" lon="6.78208">
        <ele>1558</ele>
        <time>2010-01-01T00:57:03Z</time>
      </trkpt>
      <trkpt lat="46.20632" lon="6.78165">
        <ele>1552</ele>
        <time>2010-01-01T00:57:20Z</time>
      </trkpt>
      <trkpt lat="46.20675" lon="6.78086">
        <ele>1542</ele>
        <time>2010-01-01T00:57:48Z</time>
      </trkpt>
      <trkpt lat="46.20696" lon="6.78056">
        <ele>1537</ele>
        <time>2010-01-01T00:58:00Z</time>
      </trkpt>
      <trkpt lat="46.20705" lon="6.78031">
        <ele>1534</ele>
        <time>2010-01-01T00:58:07Z</time>
      </trkpt>
      <trkpt lat="46.2073" lon="6.77984">
        <ele>1528</ele>
        <time>2010-01-01T00:58:24Z</time>
      </trkpt>
      <trkpt lat="46.2073" lon="6.77984">
        <ele>1528</ele>
        <time>2010-01-01T00:58:24Z</time>
      </trkpt>
      <trkpt lat="46.20738" lon="6.77962">
        <ele>1525</ele>
        <time>2010-01-01T00:58:31Z</time>
      </trkpt>
      <trkpt lat="46.20749" lon="6.77924">
        <ele>1522</ele>
        <time>2010-01-01T00:58:42Z</time>
      </trkpt>
      <trkpt lat="46.20751" lon="6.77906">
        <ele>1520</ele>
        <time>2010-01-01T00:58:47Z</time>
      </trkpt>
      <trkpt lat="46.2075" lon="6.77897">
        <ele>1520</ele>
        <time>2010-01-01T00:58:50Z</time>
      </trkpt>
      <trkpt lat="46.20733" lon="6.77839">
        <ele>1515</ele>
        <time>2010-01-01T00:59:07Z</time>
      </trkpt>
      <trkpt lat="46.20713" lon="6.77793">
        <ele>1511</ele>
        <time>2010-01-01T00:59:22Z</time>
      </trkpt>
      <trkpt lat="46.20711" lon="6.7779">
        <ele>1510</ele>
        <time>2010-01-01T00:59:23Z</time>
      </trkpt>
      <trkpt lat="46.20708" lon="6.77789">
        <ele>1509</ele>
        <time>2010-01-01T00:59:24Z</time>
      </trkpt>
      <trkpt lat="46.20703" lon="6.77793">
        <ele>1508</ele>
        <time>2010-01-01T00:59:27Z</time>
      </trkpt>
      <trkpt lat="46.20699" lon="6.77809">
        <ele>1506</ele>
        <time>2010-01-01T00:59:31Z</time>
      </trkpt>
      <trkpt lat="46.20706" lon="6.77819">
        <ele>1507</ele>
        <time>2010-01-01T00:59:35Z</time>
      </trkpt>
      <trkpt lat="46.20715" lon="6.77841">
        <ele>1508</ele>
        <time>2010-01-01T00:59:43Z</time>
      </trkpt>
      <trkpt lat="46.20766" lon="6.77977">
        <ele>1530</ele>
        <time>2010-01-01T01:00:25Z</time>
      </trkpt>
      <trkpt lat="46.21024" lon="6.78642">
        <ele>1791</ele>
        <time>2010-01-01T01:03:57Z</time>
      </trkpt>
      <trkpt lat="46.21024" lon="6.78642">
        <ele>1791</ele>
        <time>2010-01-01T01:03:57Z</time>
      </trkpt>
      <trkpt lat="46.21172" lon="6.79023">
        <ele>1929</ele>
        <time>2010-01-01T01:05:58Z</time>
      </trkpt>
      <trkpt lat="46.21179" lon="6.79036">
        <ele>1932</ele>
        <time>2010-01-01T01:06:02Z</time>
      </trkpt>
      <trkpt lat="46.21181" lon="6.79038">
        <ele>1931</ele>
        <time>2010-01-01T01:06:03Z</time>
      </trkpt>
      <trkpt lat="46.21187" lon="6.79037">
        <ele>1931</ele>
        <time>2010-01-01T01:06:05Z</time>
      </trkpt>
      <trkpt lat="46.21222" lon="6.79019">
        <ele>1928</ele>
        <time>2010-01-01T01:06:20Z</time>
      </trkpt>
      <trkpt lat="46.21253" lon="6.78993">
        <ele>1925</ele>
        <time>2010-01-01T01:06:35Z</time>
      </trkpt>
      <trkpt lat="46.21255" lon="6.78992">
        <ele>1925</ele>
        <time>2010-01-01T01:06:36Z</time>
      </trkpt>
      <trkpt lat="46.21258" lon="6.78992">
        <ele>1925</ele>
        <time>2010-01-01T01:06:37Z</time>
      </trkpt>
      <trkpt lat="46.21258" lon="6.78984">
        <ele>1923</ele>
        <time>2010-01-01T01:06:39Z</time>
      </trkpt>
      <trkpt lat="46.21273" lon="6.78941">
        <ele>1923</ele>
        <time>2010-01-01T01:06:52Z</time>
      </trkpt>
      <trkpt lat="46.2128" lon="6.78923">
        <ele>1923</ele>
        <time>2010-01-01T01:06:58Z</time>
      </trkpt>
      <trkpt lat="46.21293" lon="6.789">
        <ele>1922</ele>
        <time>2010-01-01T01:07:06Z</time>
      </trkpt>
      <trkpt lat="46.21306" lon="6.78865">
        <ele>1920</ele>
        <time>2010-01-01T01:07:17Z</time>
      </trkpt>
      <trkpt lat="46.21315" lon="6.7885">
        <ele>1920</ele>
        <time>2010-01-01T01:07:23Z</time>
      </trkpt>
      <trkpt lat="46.21329" lon="6.78832">
        <ele>1919</ele>
        <time>2010-01-01T01:07:30Z</time>
      </trkpt>
      <trkpt lat="46.21358" lon="6.78781">
        <ele>1916</ele>
        <time>2010-01-01T01:07:48Z</time>
      </trkpt>
      <trkpt lat="46.21374" lon="6.78751">
        <ele>1914</ele>
        <time>2010-01-01T01:07:59Z</time>
      </trkpt>
      <trkpt lat="46.21388" lon="6.78714">
        <ele>1911</ele>
        <time>2010-01-01T01:08:10Z</time>
      </trkpt>
      <trkpt lat="46.21401" lon="6.78687">
        <ele>1909</ele>
        <time>2010-01-01T01:08:20Z</time>
      </trkpt>
      <trkpt lat="46.21412" lon="6.78673">
        <ele>1908</ele>
        <time>2010-01-01T01:08:25Z</time>
      </trkpt>
      <trkpt lat="46.21431" lon="6.78658">
        <ele>1906</ele>
        <time>2010-01-01T01:08:34Z</time>
      </trkpt>
      <trkpt lat="46.21444" lon="6.78644">
        <ele>1905</ele>
        <time>2010-01-01T01:08:41Z</time>
      </trkpt>
      <trkpt lat="46.21481" lon="6.78593">
        <ele>1901</ele>
        <time>2010-01-01T01:09:01Z</time>
      </trkpt>
      <trkpt lat="46.21498" lon="6.78573">
        <ele>1900</ele>
        <time>2010-01-01T01:09:10Z</time>
      </trkpt>
      <trkpt lat="46.21507" lon="6.78567">
        <ele>1899</ele>
        <time>2010-01-01T01:09:14Z</time>
      </trkpt>
      <trkpt lat="46.21515" lon="6.78565">
        <ele>1899</ele>
        <time>2010-01-01T01:09:17Z</time>
      </trkpt>
      <trkpt lat="46.21527" lon="6.78556">
        <ele>1900</ele>
        <time>2010-01-01T01:09:22Z</time>
      </trkpt>
      <trkpt lat="46.21539" lon="6.78538">
        <ele>1904</ele>
        <time>2010-01-01T01:09:29Z</time>
      </trkpt>
      <trkpt lat="46.21553" lon="6.7852">
        <ele>1904</ele>
        <time>2010-01-01T01:09:37Z</time>
      </trkpt>
      <trkpt lat="46.21559" lon="6.78508">
        <ele>1903</ele>
        <time>2010-01-01T01:09:41Z</time>
      </trkpt>
      <trkpt lat="46.21559" lon="6.78508">
        <ele>1903</ele>
        <time>2010-01-01T01:09:41Z</time>
      </trkpt>
      <trkpt lat="46.21567" lon="6.78486">
        <ele>1903</ele>
        <time>2010-01-01T01:09:48Z</time>
      </trkpt>
      <trkpt lat="46.21579" lon="6.78463">
        <ele>1903</ele>
        <time>2010-01-01T01:09:56Z</time>
      </trkpt>
      <trkpt lat="46.216" lon="6.78429">
        <ele>1903</ele>
        <time>2010-01-01T01:10:09Z</time>
      </trkpt>
      <trkpt lat="46.2161" lon="6.7841">
        <ele>1902</ele>
        <time>2010-01-01T01:10:15Z</time>
      </trkpt>
      <trkpt lat="46.21613" lon="6.78402">
        <ele>1902</ele>
        <time>2010-01-01T01:10:18Z</time>
      </trkpt>
      <trkpt lat="46.21625" lon="6.78353">
        <ele>1902</ele>
        <time>2010-01-01T01:10:32Z</time>
      </trkpt>
      <trkpt lat="46.21631" lon="6.78303">
        <ele>1901</ele>
        <time>2010-01-01T01:10:46Z</time>
      </trkpt>
      <trkpt lat="46.21632" lon="6.78268">
        <ele>1900</ele>
        <time>2010-01-01T01:10:56Z</time>
      </trkpt>
      <trkpt lat="46.2163" lon="6.78238">
        <ele>1898</ele>
        <time>2010-01-01T01:11:04Z</time>
      </trkpt>
      <trkpt lat="46.21628" lon="6.78148">
        <ele>1896</ele>
        <time>2010-01-01T01:11:29Z</time>
      </trkpt>
      <trkpt lat="46.21631" lon="6.78122">
        <ele>1894</ele>
        <time>2010-01-01T01:11:36Z</time>
      </trkpt>
      <trkpt lat="46.21644" lon="6.78101">
        <ele>1893</ele>
        <time>2010-01-01T01:11:44Z</time>
      </trkpt>
      <trkpt lat="46.21649" lon="6.78082">
        <ele>1895</ele>
        <time>2010-01-01T01:11:50Z</time>
      </trkpt>
      <trkpt lat="46.21662" lon="6.7805">
        <ele>1893</ele>
        <time>2010-01-01T01:12:00Z</time>
      </trkpt>
      <trkpt lat="46.21686" lon="6.78014">
        <ele>1892</ele>
        <time>2010-01-01T01:12:14Z</time>
      </trkpt>
      <trkpt lat="46.21698" lon="6.77991">
        <ele>1893</ele>
        <time>2010-01-01T01:12:22Z</time>
      </trkpt>
      <trkpt lat="46.21723" lon="6.77973">
        <ele>1892</ele>
        <time>2010-01-01T01:12:33Z</time>
      </trkpt>
      <trkpt lat="46.21734" lon="6.77961">
        <ele>1893</ele>
        <time>2010-01-01T01:12:39Z</time>
      </trkpt>
      <trkpt lat="46.21795" lon="6.77901">
        <ele>1891</ele>
        <time>2010-01-01T01:13:08Z</time>
      </trkpt>
      <trkpt lat="46.21837" lon="6.77864">
        <ele>1889</ele>
        <time>2010-01-01T01:13:28Z</time>
      </trkpt>
      <trkpt lat="46.21864" lon="6.77832">
        <ele>1886</ele>
        <time>2010-01-01T01:13:42Z</time>
      </trkpt>
      <trkpt lat="46.21892" lon="6.77812">
        <ele>1886</ele>
        <time>2010-01-01T01:13:54Z</time>
      </trkpt>
      <trkpt lat="46.21902" lon="6.77798">
        <ele>1885</ele>
        <time>2010-01-01T01:14:00Z</time>
      </trkpt>
      <trkpt lat="46.2191" lon="6.77784">
        <ele>1885</ele>
        <time>2010-01-01T01:14:05Z</time>
      </trkpt>
      <trkpt lat="46.21913" lon="6.77783">
        <ele>1885</ele>
        <time>2010-01-01T01:14:06Z</time>
      </trkpt>
      <trkpt lat="46.21914" lon="6.77786">
        <ele>1883</ele>
        <time>2010-01-01T01:14:07Z</time>
      </trkpt>
      <trkpt lat="46.2191" lon="6.77814">
        <ele>1880</ele>
        <time>2010-01-01T01:14:15Z</time>
      </trkpt>
      <trkpt lat="46.21911" lon="6.77822">
        <ele>1880</ele>
        <time>2010-01-01T01:14:17Z</time>
      </trkpt>
      <trkpt lat="46.2192" lon="6.77844">
        <ele>1878</ele>
        <time>2010-01-01T01:14:24Z</time>
      </trkpt>
      <trkpt lat="46.21928" lon="6.77881">
        <ele>1875</ele>
        <time>2010-01-01T01:14:35Z</time>
      </trkpt>
      <trkpt lat="46.21934" lon="6.77889">
        <ele>1874</ele>
        <time>2010-01-01T01:14:39Z</time>
      </trkpt>
      <trkpt lat="46.21939" lon="6.77906">
        <ele>1870</ele>
        <time>2010-01-01T01:14:44Z</time>
      </trkpt>
      <trkpt lat="46.21942" lon="6.77905">
        <ele>1870</ele>
        <time>2010-01-01T01:14:45Z</time>
      </trkpt>
      <trkpt lat="46.21944" lon="6.77901">
        <ele>1869</ele>
        <time>2010-01-01T01:14:46Z</time>
      </trkpt>
      <trkpt lat="46.21942" lon="6.77894">
        <ele>1868</ele>
        <time>2010-01-01T01:14:48Z</time>
      </trkpt>
      <trkpt lat="46.21935" lon="6.77877">
        <ele>1866</ele>
        <time>2010-01-01T01:14:54Z</time>
      </trkpt>
      <trkpt lat="46.21935" lon="6.77873">
        <ele>1865</ele>
        <time>2010-01-01T01:14:55Z</time>
      </trkpt>
      <trkpt lat="46.21937" lon="6.77874">
        <ele>1864</ele>
        <time>2010-01-01T01:14:56Z</time>
      </trkpt>
      <trkpt lat="46.21965" lon="6.77911">
        <ele>1858</ele>
        <time>2010-01-01T01:15:11Z</time>
      </trkpt>
      <trkpt lat="46.21979" lon="6.77947">
        <ele>1853</ele>
        <time>2010-01-01T01:15:22Z</time>
      </trkpt>
      <trkpt lat="46.21994" lon="6.77995">
        <ele>1849</ele>
        <time>2010-01-01T01:15:37Z</time>
      </trkpt>
      <trkpt lat="46.21994" lon="6.77995">
        <ele>1849</ele>
        <time>2010-01-01T01:15:37Z</time>
      </trkpt>
      <trkpt lat="46.21995" lon="6.77996">
        <ele>1848</ele>
        <time>2010-01-01T01:15:38Z</time>
      </trkpt>
      <trkpt lat="46.21996" lon="6.77994">
        <ele>1847</ele>
        <time>2010-01-01T01:15:38Z</time>
      </trkpt>
      <trkpt lat="46.21994" lon="6.77976">
        <ele>1845</ele>
        <time>2010-01-01T01:15:43Z</time>
      </trkpt>
      <trkpt lat="46.21993" lon="6.7795">
        <ele>1842</ele>
        <time>2010-01-01T01:15:51Z</time>
      </trkpt>
      <trkpt lat="46.2199" lon="6.77921">
        <ele>1839</ele>
        <time>2010-01-01T01:15:59Z</time>
      </trkpt>
      <trkpt lat="46.21984" lon="6.77899">
        <ele>1836</ele>
        <time>2010-01-01T01:16:05Z</time>
      </trkpt>
      <trkpt lat="46.21984" lon="6.77881">
        <ele>1834</ele>
        <time>2010-01-01T01:16:10Z</time>
      </trkpt>
      <trkpt lat="46.21985" lon="6.77878">
        <ele>1833</ele>
        <time>2010-01-01T01:16:11Z</time>
      </trkpt>
      <trkpt lat="46.21994" lon="6.77896">
        <ele>1830</ele>
        <time>2010-01-01T01:16:17Z</time>
      </trkpt>
      <trkpt lat="46.21998" lon="6.77901">
        <ele>1829</ele>
        <time>2010-01-01T01:16:19Z</time>
      </trkpt>
      <trkpt lat="46.22002" lon="6.77899">
        <ele>1829</ele>
        <time>2010-01-01T01:16:21Z</time>
      </trkpt>
      <trkpt lat="46.22001" lon="6.77891">
        <ele>1828</ele>
        <time>2010-01-01T01:16:23Z</time>
      </trkpt>
      <trkpt lat="46.21988" lon="6.77852">
        <ele>1822</ele>
        <time>2010-01-01T01:16:35Z</time>
      </trkpt>
      <trkpt lat="46.21989" lon="6.77849">
        <ele>1821</ele>
        <time>2010-01-01T01:16:36Z</time>
      </trkpt>
      <trkpt lat="46.21992" lon="6.7785">
        <ele>1821</ele>
        <time>2010-01-01T01:16:37Z</time>
      </trkpt>
      <trkpt lat="46.22001" lon="6.7786">
        <ele>1819</ele>
        <time>2010-01-01T01:16:42Z</time>
      </trkpt>
      <trkpt lat="46.22013" lon="6.77868">
        <ele>1817</ele>
        <time>2010-01-01T01:16:47Z</time>
      </trkpt>
      <trkpt lat="46.22018" lon="6.77874">
        <ele>1817</ele>
        <time>2010-01-01T01:16:50Z</time>
      </trkpt>
      <trkpt lat="46.22029" lon="6.77897">
        <ele>1812</ele>
        <time>2010-01-01T01:16:57Z</time>
      </trkpt>
      <trkpt lat="46.22037" lon="6.77921">
        <ele>1809</ele>
        <time>2010-01-01T01:17:05Z</time>
      </trkpt>
      <trkpt lat="46.22041" lon="6.77929">
        <ele>1808</ele>
        <time>2010-01-01T01:17:08Z</time>
      </trkpt>
      <trkpt lat="46.22058" lon="6.77948">
        <ele>1807</ele>
        <time>2010-01-01T01:17:16Z</time>
      </trkpt>
      <trkpt lat="46.22061" lon="6.77956">
        <ele>1805</ele>
        <time>2010-01-01T01:17:19Z</time>
      </trkpt>
      <trkpt lat="46.22062" lon="6.77967">
        <ele>1805</ele>
        <time>2010-01-01T01:17:22Z</time>
      </trkpt>
      <trkpt lat="46.22061" lon="6.77977">
        <ele>1804</ele>
        <time>2010-01-01T01:17:25Z</time>
      </trkpt>
      <trkpt lat="46.22059" lon="6.77987">
        <ele>1803</ele>
        <time>2010-01-01T01:17:28Z</time>
      </trkpt>
      <trkpt lat="46.22055" lon="6.77996">
        <ele>1802</ele>
        <time>2010-01-01T01:17:31Z</time>
      </trkpt>
      <trkpt lat="46.22047" lon="6.78011">
        <ele>1801</ele>
        <time>2010-01-01T01:17:36Z</time>
      </trkpt>
      <trkpt lat="46.22042" lon="6.78024">
        <ele>1799</ele>
        <time>2010-01-01T01:17:40Z</time>
      </trkpt>
      <trkpt lat="46.22032" lon="6.78078">
        <ele>1798</ele>
        <time>2010-01-01T01:17:56Z</time>
      </trkpt>
      <trkpt lat="46.22031" lon="6.78107">
        <ele>1797</ele>
        <time>2010-01-01T01:18:04Z</time>
      </trkpt>
      <trkpt lat="46.22033" lon="6.78125">
        <ele>1797</ele>
        <time>2010-01-01T01:18:09Z</time>
      </trkpt>
      <trkpt lat="46.22041" lon="6.78165">
        <ele>1795</ele>
        <time>2010-01-01T01:18:20Z</time>
      </trkpt>
      <trkpt lat="46.22043" lon="6.78211">
        <ele>1794</ele>
        <time>2010-01-01T01:18:33Z</time>
      </trkpt>
      <trkpt lat="46.22036" lon="6.78264">
        <ele>1791</ele>
        <time>2010-01-01T01:18:48Z</time>
      </trkpt>
      <trkpt lat="46.22031" lon="6.78293">
        <ele>1790</ele>
        <time>2010-01-01T01:18:56Z</time>
      </trkpt>
      <trkpt lat="46.22027" lon="6.78302">
        <ele>1790</ele>
        <time>2010-01-01T01:18:59Z</time>
      </trkpt>
      <trkpt lat="46.22013" lon="6.78322">
        <ele>1788</ele>
        <time>2010-01-01T01:19:07Z</time>
      </trkpt>
      <trkpt lat="46.22" lon="6.78332">
        <ele>1788</ele>
        <time>2010-01-01T01:19:13Z</time>
      </trkpt>
      <trkpt lat="46.21985" lon="6.7834">
        <ele>1787</ele>
        <time>2010-01-01T01:19:19Z</time>
      </trkpt>
      <trkpt lat="46.21981" lon="6.78346">
        <ele>1786</ele>
        <time>2010-01-01T01:19:22Z</time>
      </trkpt>
      <trkpt lat="46.2196" lon="6.78388">
        <ele>1784</ele>
        <time>2010-01-01T01:19:36Z</time>
      </trkpt>
      <trkpt lat="46.21947" lon="6.78409">
        <ele>1783</ele>
        <time>2010-01-01T01:19:44Z</time>
      </trkpt>
      <trkpt lat="46.2195" lon="6.78406">
        <ele>1782</ele>
        <time>2010-01-01T01:19:45Z</time>
      </trkpt>
      <trkpt lat="46.21977" lon="6.78394">
        <ele>1781</ele>
        <time>2010-01-01T01:19:56Z</time>
      </trkpt>
      <trkpt lat="46.21984" lon="6.78388">
        <ele>1780</ele>
        <time>2010-01-01T01:20:00Z</time>
      </trkpt>
      <trkpt lat="46.21995" lon="6.78372">
        <ele>1779</ele>
        <time>2010-01-01T01:20:06Z</time>
      </trkpt>
      <trkpt lat="46.21999" lon="6.78369">
        <ele>1779</ele>
        <time>2010-01-01T01:20:08Z</time>
      </trkpt>
      <trkpt lat="46.22021" lon="6.78368">
        <ele>1775</ele>
        <time>2010-01-01T01:20:17Z</time>
      </trkpt>
      <trkpt lat="46.22027" lon="6.78367">
        <ele>1775</ele>
        <time>2010-01-01T01:20:19Z</time>
      </trkpt>
      <trkpt lat="46.22033" lon="6.78362">
        <ele>1774</ele>
        <time>2010-01-01T01:20:22Z</time>
      </trkpt>
      <trkpt lat="46.22042" lon="6.78349">
        <ele>1772</ele>
        <time>2010-01-01T01:20:27Z</time>
      </trkpt>
      <trkpt lat="46.2205" lon="6.78328">
        <ele>1769</ele>
        <time>2010-01-01T01:20:33Z</time>
      </trkpt>
      <trkpt lat="46.22052" lon="6.78326">
        <ele>1768</ele>
        <time>2010-01-01T01:20:34Z</time>
      </trkpt>
      <trkpt lat="46.22053" lon="6.78346">
        <ele>1767</ele>
        <time>2010-01-01T01:20:40Z</time>
      </trkpt>
      <trkpt lat="46.22056" lon="6.78359">
        <ele>1765</ele>
        <time>2010-01-01T01:20:44Z</time>
      </trkpt>
      <trkpt lat="46.22056" lon="6.78352">
        <ele>1764</ele>
        <time>2010-01-01T01:20:46Z</time>
      </trkpt>
      <trkpt lat="46.2206" lon="6.78332">
        <ele>1762</ele>
        <time>2010-01-01T01:20:52Z</time>
      </trkpt>
      <trkpt lat="46.22067" lon="6.78321">
        <ele>1761</ele>
        <time>2010-01-01T01:20:56Z</time>
      </trkpt>
      <trkpt lat="46.2207" lon="6.78319">
        <ele>1760</ele>
        <time>2010-01-01T01:20:57Z</time>
      </trkpt>
      <trkpt lat="46.22071" lon="6.78321">
        <ele>1759</ele>
        <time>2010-01-01T01:20:58Z</time>
      </trkpt>
      <trkpt lat="46.22072" lon="6.78324">
        <ele>1759</ele>
        <time>2010-01-01T01:20:58Z</time>
      </trkpt>
      <trkpt lat="46.22066" lon="6.78361">
        <ele>1755</ele>
        <time>2010-01-01T01:21:09Z</time>
      </trkpt>
      <trkpt lat="46.22056" lon="6.78387">
        <ele>1752</ele>
        <time>2010-01-01T01:21:17Z</time>
      </trkpt>
      <trkpt lat="46.22031" lon="6.7843">
        <ele>1749</ele>
        <time>2010-01-01T01:21:33Z</time>
      </trkpt>
      <trkpt lat="46.22031" lon="6.7843">
        <ele>1749</ele>
        <time>2010-01-01T01:21:33Z</time>
      </trkpt>
      <trkpt lat="46.22028" lon="6.78439">
        <ele>1748</ele>
        <time>2010-01-01T01:21:36Z</time>
      </trkpt>
      <trkpt lat="46.22018" lon="6.7848">
        <ele>1743</ele>
        <time>2010-01-01T01:21:48Z</time>
      </trkpt>
      <trkpt lat="46.22014" lon="6.78487">
        <ele>1742</ele>
        <time>2010-01-01T01:21:50Z</time>
      </trkpt>
      <trkpt lat="46.21998" lon="6.78504">
        <ele>1739</ele>
        <time>2010-01-01T01:21:58Z</time>
      </trkpt>
      <trkpt lat="46.21992" lon="6.78509">
        <ele>1738</ele>
        <time>2010-01-01T01:22:01Z</time>
      </trkpt>
      <trkpt lat="46.2198" lon="6.78512">
        <ele>1737</ele>
        <time>2010-01-01T01:22:06Z</time>
      </trkpt>
      <trkpt lat="46.21974" lon="6.78515">
        <ele>1736</ele>
        <time>2010-01-01T01:22:08Z</time>
      </trkpt>
      <trkpt lat="46.2196" lon="6.78527">
        <ele>1734</ele>
        <time>2010-01-01T01:22:15Z</time>
      </trkpt>
      <trkpt lat="46.2195" lon="6.7853">
        <ele>1733</ele>
        <time>2010-01-01T01:22:19Z</time>
      </trkpt>
      <trkpt lat="46.21931" lon="6.78545">
        <ele>1730</ele>
        <time>2010-01-01T01:22:28Z</time>
      </trkpt>
      <trkpt lat="46.21897" lon="6.78563">
        <ele>1727</ele>
        <time>2010-01-01T01:22:42Z</time>
      </trkpt>
      <trkpt lat="46.21887" lon="6.78573">
        <ele>1725</ele>
        <time>2010-01-01T01:22:47Z</time>
      </trkpt>
      <trkpt lat="46.21872" lon="6.78596">
        <ele>1722</ele>
        <time>2010-01-01T01:22:56Z</time>
      </trkpt>
      <trkpt lat="46.21854" lon="6.78615">
        <ele>1720</ele>
        <time>2010-01-01T01:23:05Z</time>
      </trkpt>
      <trkpt lat="46.21841" lon="6.78638">
        <ele>1718</ele>
        <time>2010-01-01T01:23:13Z</time>
      </trkpt>
      <trkpt lat="46.21839" lon="6.7865">
        <ele>1718</ele>
        <time>2010-01-01T01:23:16Z</time>
      </trkpt>
      <trkpt lat="46.21835" lon="6.7866">
        <ele>1718</ele>
        <time>2010-01-01T01:23:19Z</time>
      </trkpt>
      <trkpt lat="46.21827" lon="6.78676">
        <ele>1717</ele>
        <time>2010-01-01T01:23:25Z</time>
      </trkpt>
      <trkpt lat="46.21812" lon="6.7871">
        <ele>1715</ele>
        <time>2010-01-01T01:23:36Z</time>
      </trkpt>
      <trkpt lat="46.21803" lon="6.78723">
        <ele>1715</ele>
        <time>2010-01-01T01:23:41Z</time>
      </trkpt>
      <trkpt lat="46.2179" lon="6.78735">
        <ele>1713</ele>
        <time>2010-01-01T01:23:48Z</time>
      </trkpt>
      <trkpt lat="46.21785" lon="6.78744">
        <ele>1713</ele>
        <time>2010-01-01T01:23:51Z</time>
      </trkpt>
      <trkpt lat="46.21782" lon="6.78753">
        <ele>1711</ele>
        <time>2010-01-01T01:23:54Z</time>
      </trkpt>
      <trkpt lat="46.21778" lon="6.78773">
        <ele>1710</ele>
        <time>2010-01-01T01:23:59Z</time>
      </trkpt>
      <trkpt lat="46.21775" lon="6.78782">
        <ele>1709</ele>
        <time>2010-01-01T01:24:02Z</time>
      </trkpt>
      <trkpt lat="46.21769" lon="6.78788">
        <ele>1709</ele>
        <time>2010-01-01T01:24:05Z</time>
      </trkpt>
      <trkpt lat="46.21757" lon="6.78798">
        <ele>1707</ele>
        <time>2010-01-01T01:24:11Z</time>
      </trkpt>
      <trkpt lat="46.21752" lon="6.78804">
        <ele>1707</ele>
        <time>2010-01-01T01:24:13Z</time>
      </trkpt>
      <trkpt lat="46.21744" lon="6.7883">
        <ele>1705</ele>
        <time>2010-01-01T01:24:21Z</time>
      </trkpt>
      <trkpt lat="46.21742" lon="6.78858">
        <ele>1704</ele>
        <time>2010-01-01T01:24:29Z</time>
      </trkpt>
      <trkpt lat="46.21725" lon="6.78896">
        <ele>1703</ele>
        <time>2010-01-01T01:24:42Z</time>
      </trkpt>
      <trkpt lat="46.21722" lon="6.78906">
        <ele>1702</ele>
        <time>2010-01-01T01:24:44Z</time>
      </trkpt>
      <trkpt lat="46.21722" lon="6.78915">
        <ele>1701</ele>
        <time>2010-01-01T01:24:47Z</time>
      </trkpt>
      <trkpt lat="46.21724" lon="6.78923">
        <ele>1700</ele>
        <time>2010-01-01T01:24:49Z</time>
      </trkpt>
      <trkpt lat="46.21733" lon="6.78937">
        <ele>1699</ele>
        <time>2010-01-01T01:24:55Z</time>
      </trkpt>
      <trkpt lat="46.21744" lon="6.7895">
        <ele>1697</ele>
        <time>2010-01-01T01:25:00Z</time>
      </trkpt>
      <trkpt lat="46.21759" lon="6.78971">
        <ele>1694</ele>
        <time>2010-01-01T01:25:09Z</time>
      </trkpt>
      <trkpt lat="46.2177" lon="6.78979">
        <ele>1693</ele>
        <time>2010-01-01T01:25:13Z</time>
      </trkpt>
      <trkpt lat="46.21773" lon="6.78984">
        <ele>1693</ele>
        <time>2010-01-01T01:25:15Z</time>
      </trkpt>
      <trkpt lat="46.21776" lon="6.78996">
        <ele>1693</ele>
        <time>2010-01-01T01:25:19Z</time>
      </trkpt>
      <trkpt lat="46.21775" lon="6.79004">
        <ele>1693</ele>
        <time>2010-01-01T01:25:21Z</time>
      </trkpt>
      <trkpt lat="46.21764" lon="6.7902">
        <ele>1693</ele>
        <time>2010-01-01T01:25:27Z</time>
      </trkpt>
      <trkpt lat="46.2176" lon="6.79046">
        <ele>1692</ele>
        <time>2010-01-01T01:25:35Z</time>
      </trkpt>
      <trkpt lat="46.21749" lon="6.79076">
        <ele>1692</ele>
        <time>2010-01-01T01:25:44Z</time>
      </trkpt>
      <trkpt lat="46.21746" lon="6.79082">
        <ele>1692</ele>
        <time>2010-01-01T01:25:46Z</time>
      </trkpt>
      <trkpt lat="46.21741" lon="6.79083">
        <ele>1692</ele>
        <time>2010-01-01T01:25:48Z</time>
      </trkpt>
      <trkpt lat="46.21733" lon="6.79082">
        <ele>1692</ele>
        <time>2010-01-01T01:25:51Z</time>
      </trkpt>
      <trkpt lat="46.21727" lon="6.79082">
        <ele>1692</ele>
        <time>2010-01-01T01:25:54Z</time>
      </trkpt>
      <trkpt lat="46.21722" lon="6.7909">
        <ele>1691</ele>
        <time>2010-01-01T01:25:57Z</time>
      </trkpt>
      <trkpt lat="46.21711" lon="6.79127">
        <ele>1689</ele>
        <time>2010-01-01T01:26:08Z</time>
      </trkpt>
      <trkpt lat="46.21703" lon="6.79149">
        <ele>1689</ele>
        <time>2010-01-01T01:26:15Z</time>
      </trkpt>
      <trkpt lat="46.21691" lon="6.79192">
        <ele>1686</ele>
        <time>2010-01-01T01:26:28Z</time>
      </trkpt>
      <trkpt lat="46.21674" lon="6.79231">
        <ele>1683</ele>
        <time>2010-01-01T01:26:40Z</time>
      </trkpt>
      <trkpt lat="46.21663" lon="6.79257">
        <ele>1681</ele>
        <time>2010-01-01T01:26:49Z</time>
      </trkpt>
      <trkpt lat="46.21661" lon="6.79266">
        <ele>1679</ele>
        <time>2010-01-01T01:26:52Z</time>
      </trkpt>
      <trkpt lat="46.21658" lon="6.79285">
        <ele>1678</ele>
        <time>2010-01-01T01:26:57Z</time>
      </trkpt>
      <trkpt lat="46.21659" lon="6.7931">
        <ele>1674</ele>
        <time>2010-01-01T01:27:04Z</time>
      </trkpt>
      <trkpt lat="46.21661" lon="6.79317">
        <ele>1673</ele>
        <time>2010-01-01T01:27:06Z</time>
      </trkpt>
      <trkpt lat="46.2167" lon="6.79333">
        <ele>1670</ele>
        <time>2010-01-01T01:27:12Z</time>
      </trkpt>
      <trkpt lat="46.21681" lon="6.79338">
        <ele>1667</ele>
        <time>2010-01-01T01:27:16Z</time>
      </trkpt>
      <trkpt lat="46.21698" lon="6.79343">
        <ele>1664</ele>
        <time>2010-01-01T01:27:23Z</time>
      </trkpt>
      <trkpt lat="46.21704" lon="6.79343">
        <ele>1663</ele>
        <time>2010-01-01T01:27:25Z</time>
      </trkpt>
      <trkpt lat="46.21709" lon="6.7934">
        <ele>1662</ele>
        <time>2010-01-01T01:27:28Z</time>
      </trkpt>
      <trkpt lat="46.21714" lon="6.79335">
        <ele>1661</ele>
        <time>2010-01-01T01:27:30Z</time>
      </trkpt>
      <trkpt lat="46.21714" lon="6.79335">
        <ele>1661</ele>
        <time>2010-01-01T01:27:30Z</time>
      </trkpt>
      <trkpt lat="46.21725" lon="6.79322">
        <ele>1660</ele>
        <time>2010-01-01T01:27:36Z</time>
      </trkpt>
      <trkpt lat="46.21732" lon="6.79317">
        <ele>1660</ele>
        <time>2010-01-01T01:27:39Z</time>
      </trkpt>
      <trkpt lat="46.21757" lon="6.7931">
        <ele>1658</ele>
        <time>2010-01-01T01:27:49Z</time>
      </trkpt>
      <trkpt lat="46.21768" lon="6.79306">
        <ele>1657</ele>
        <time>2010-01-01T01:27:54Z</time>
      </trkpt>
      <trkpt lat="46.21808" lon="6.79275">
        <ele>1654</ele>
        <time>2010-01-01T01:28:12Z</time>
      </trkpt>
      <trkpt lat="46.21821" lon="6.7926">
        <ele>1653</ele>
        <time>2010-01-01T01:28:18Z</time>
      </trkpt>
      <trkpt lat="46.21833" lon="6.7924">
        <ele>1654</ele>
        <time>2010-01-01T01:28:26Z</time>
      </trkpt>
      <trkpt lat="46.2185" lon="6.7922">
        <ele>1652</ele>
        <time>2010-01-01T01:28:35Z</time>
      </trkpt>
      <trkpt lat="46.21864" lon="6.79208">
        <ele>1651</ele>
        <time>2010-01-01T01:28:41Z</time>
      </trkpt>
      <trkpt lat="46.21885" lon="6.79187">
        <ele>1649</ele>
        <time>2010-01-01T01:28:51Z</time>
      </trkpt>
      <trkpt lat="46.21897" lon="6.79172">
        <ele>1649</ele>
        <time>2010-01-01T01:28:58Z</time>
      </trkpt>
      <trkpt lat="46.21921" lon="6.79121">
        <ele>1648</ele>
        <time>2010-01-01T01:29:15Z</time>
      </trkpt>
      <trkpt lat="46.21928" lon="6.79098">
        <ele>1648</ele>
        <time>2010-01-01T01:29:22Z</time>
      </trkpt>
      <trkpt lat="46.2193" lon="6.79086">
        <ele>1648</ele>
        <time>2010-01-01T01:29:25Z</time>
      </trkpt>
      <trkpt lat="46.21924" lon="6.79057">
        <ele>1647</ele>
        <time>2010-01-01T01:29:34Z</time>
      </trkpt>
      <trkpt lat="46.21925" lon="6.79042">
        <ele>1647</ele>
        <time>2010-01-01T01:29:38Z</time>
      </trkpt>
      <trkpt lat="46.21934" lon="6.79003">
        <ele>1646</ele>
        <time>2010-01-01T01:29:49Z</time>
      </trkpt>
      <trkpt lat="46.21944" lon="6.78941">
        <ele>1643</ele>
        <time>2010-01-01T01:30:07Z</time>
      </trkpt>
      <trkpt lat="46.21958" lon="6.78896">
        <ele>1643</ele>
        <time>2010-01-01T01:30:20Z</time>
      </trkpt>
      <trkpt lat="46.21959" lon="6.78864">
        <ele>1642</ele>
        <time>2010-01-01T01:30:29Z</time>
      </trkpt>
      <trkpt lat="46.21962" lon="6.78855">
        <ele>1642</ele>
        <time>2010-01-01T01:30:32Z</time>
      </trkpt>
      <trkpt lat="46.21977" lon="6.78824">
        <ele>1641</ele>
        <time>2010-01-01T01:30:43Z</time>
      </trkpt>
      <trkpt lat="46.21982" lon="6.78818">
        <ele>1641</ele>
        <time>2010-01-01T01:30:45Z</time>
      </trkpt>
      <trkpt lat="46.21994" lon="6.78817">
        <ele>1641</ele>
        <time>2010-01-01T01:30:50Z</time>
      </trkpt>
      <trkpt lat="46.22005" lon="6.78812">
        <ele>1640</ele>
        <time>2010-01-01T01:30:54Z</time>
      </trkpt>
      <trkpt lat="46.22024" lon="6.78796">
        <ele>1640</ele>
        <time>2010-01-01T01:31:03Z</time>
      </trkpt>
      <trkpt lat="46.22036" lon="6.7879">
        <ele>1639</ele>
        <time>2010-01-01T01:31:08Z</time>
      </trkpt>
      <trkpt lat="46.22043" lon="6.78782">
        <ele>1638</ele>
        <time>2010-01-01T01:31:12Z</time>
      </trkpt>
      <trkpt lat="46.22074" lon="6.78758">
        <ele>1636</ele>
        <time>2010-01-01T01:31:26Z</time>
      </trkpt>
      <trkpt lat="46.22104" lon="6.78727">
        <ele>1634</ele>
        <time>2010-01-01T01:31:41Z</time>
      </trkpt>
      <trkpt lat="46.22125" lon="6.78718">
        <ele>1632</ele>
        <time>2010-01-01T01:31:49Z</time>
      </trkpt>
      <trkpt lat="46.22139" lon="6.78709">
        <ele>1631</ele>
        <time>2010-01-01T01:31:56Z</time>
      </trkpt>
      <trkpt lat="46.22177" lon="6.78669">
        <ele>1628</ele>
        <time>2010-01-01T01:32:14Z</time>
      </trkpt>
      <trkpt lat="46.2222" lon="6.78611">
        <ele>1623</ele>
        <time>2010-01-01T01:32:38Z</time>
      </trkpt>
      <trkpt lat="46.22243" lon="6.78592">
        <ele>1621</ele>
        <time>2010-01-01T01:32:48Z</time>
      </trkpt>
      <trkpt lat="46.22248" lon="6.78584">
        <ele>1620</ele>
        <time>2010-01-01T01:32:52Z</time>
      </trkpt>
      <trkpt lat="46.2226" lon="6.7857">
        <ele>1619</ele>
        <time>2010-01-01T01:32:58Z</time>
      </trkpt>
      <trkpt lat="46.2229" lon="6.78548">
        <ele>1620</ele>
        <time>2010-01-01T01:33:11Z</time>
      </trkpt>
      <trkpt lat="46.22304" lon="6.78533">
        <ele>1620</ele>
        <time>2010-01-01T01:33:18Z</time>
      </trkpt>
      <trkpt lat="46.2232" lon="6.78522">
        <ele>1623</ele>
        <time>2010-01-01T01:33:25Z</time>
      </trkpt>
      <trkpt lat="46.2232" lon="6.78522">
        <ele>1623</ele>
        <time>2010-01-01T01:33:25Z</time>
      </trkpt>
      <trkpt lat="46.22338" lon="6.78503">
        <ele>1619</ele>
        <time>2010-01-01T01:33:34Z</time>
      </trkpt>
      <trkpt lat="46.22343" lon="6.78499">
        <ele>1619</ele>
        <time>2010-01-01T01:33:36Z</time>
      </trkpt>
      <trkpt lat="46.22354" lon="6.78495">
        <ele>1618</ele>
        <time>2010-01-01T01:33:41Z</time>
      </trkpt>
      <trkpt lat="46.22371" lon="6.78482">
        <ele>1616</ele>
        <time>2010-01-01T01:33:48Z</time>
      </trkpt>
      <trkpt lat="46.22374" lon="6.78481">
        <ele>1616</ele>
        <time>2010-01-01T01:33:50Z</time>
      </trkpt>
      <trkpt lat="46.22377" lon="6.78487">
        <ele>1615</ele>
        <time>2010-01-01T01:33:52Z</time>
      </trkpt>
      <trkpt lat="46.22379" lon="6.78507">
        <ele>1613</ele>
        <time>2010-01-01T01:33:58Z</time>
      </trkpt>
      <trkpt lat="46.22378" lon="6.78505">
        <ele>1613</ele>
        <time>2010-01-01T01:33:58Z</time>
      </trkpt>
      <trkpt lat="46.22384" lon="6.78499">
        <ele>1612</ele>
        <time>2010-01-01T01:34:01Z</time>
      </trkpt>
      <trkpt lat="46.22394" lon="6.78481">
        <ele>1610</ele>
        <time>2010-01-01T01:34:08Z</time>
      </trkpt>
      <trkpt lat="46.22398" lon="6.78478">
        <ele>1610</ele>
        <time>2010-01-01T01:34:10Z</time>
      </trkpt>
      <trkpt lat="46.22402" lon="6.7848">
        <ele>1610</ele>
        <time>2010-01-01T01:34:11Z</time>
      </trkpt>
      <trkpt lat="46.22403" lon="6.785">
        <ele>1607</ele>
        <time>2010-01-01T01:34:17Z</time>
      </trkpt>
      <trkpt lat="46.2242" lon="6.78473">
        <ele>1602</ele>
        <time>2010-01-01T01:34:27Z</time>
      </trkpt>
      <trkpt lat="46.22424" lon="6.78474">
        <ele>1601</ele>
        <time>2010-01-01T01:34:29Z</time>
      </trkpt>
      <trkpt lat="46.22431" lon="6.78483">
        <ele>1601</ele>
        <time>2010-01-01T01:34:33Z</time>
      </trkpt>
      <trkpt lat="46.22436" lon="6.78486">
        <ele>1599</ele>
        <time>2010-01-01T01:34:35Z</time>
      </trkpt>
      <trkpt lat="46.22439" lon="6.78484">
        <ele>1597</ele>
        <time>2010-01-01T01:34:36Z</time>
      </trkpt>
      <trkpt lat="46.2244" lon="6.78478">
        <ele>1596</ele>
        <time>2010-01-01T01:34:38Z</time>
      </trkpt>
      <trkpt lat="46.22435" lon="6.7846">
        <ele>1594</ele>
        <time>2010-01-01T01:34:43Z</time>
      </trkpt>
      <trkpt lat="46.22437" lon="6.78456">
        <ele>1593</ele>
        <time>2010-01-01T01:34:44Z</time>
      </trkpt>
      <trkpt lat="46.22441" lon="6.78456">
        <ele>1592</ele>
        <time>2010-01-01T01:34:46Z</time>
      </trkpt>
      <trkpt lat="46.22468" lon="6.78465">
        <ele>1588</ele>
        <time>2010-01-01T01:34:57Z</time>
      </trkpt>
      <trkpt lat="46.22473" lon="6.78465">
        <ele>1587</ele>
        <time>2010-01-01T01:34:59Z</time>
      </trkpt>
      <trkpt lat="46.22472" lon="6.78458">
        <ele>1586</ele>
        <time>2010-01-01T01:35:01Z</time>
      </trkpt>
      <trkpt lat="46.22465" lon="6.78453">
        <ele>1584</ele>
        <time>2010-01-01T01:35:04Z</time>
      </trkpt>
      <trkpt lat="46.22463" lon="6.7845">
        <ele>1583</ele>
        <time>2010-01-01T01:35:06Z</time>
      </trkpt>
      <trkpt lat="46.22463" lon="6.78445">
        <ele>1582</ele>
        <time>2010-01-01T01:35:07Z</time>
      </trkpt>
      <trkpt lat="46.22473" lon="6.78436">
        <ele>1581</ele>
        <time>2010-01-01T01:35:12Z</time>
      </trkpt>
      <trkpt lat="46.22485" lon="6.78415">
        <ele>1578</ele>
        <time>2010-01-01T01:35:19Z</time>
      </trkpt>
      <trkpt lat="46.22498" lon="6.78403">
        <ele>1577</ele>
        <time>2010-01-01T01:35:25Z</time>
      </trkpt>
      <trkpt lat="46.22508" lon="6.78396">
        <ele>1575</ele>
        <time>2010-01-01T01:35:30Z</time>
      </trkpt>
      <trkpt lat="46.2253" lon="6.78387">
        <ele>1573</ele>
        <time>2010-01-01T01:35:39Z</time>
      </trkpt>
      <trkpt lat="46.22545" lon="6.78373">
        <ele>1571</ele>
        <time>2010-01-01T01:35:46Z</time>
      </trkpt>
      <trkpt lat="46.22551" lon="6.78365">
        <ele>1571</ele>
        <time>2010-01-01T01:35:49Z</time>
      </trkpt>
      <trkpt lat="46.22572" lon="6.78304">
        <ele>1567</ele>
        <time>2010-01-01T01:36:08Z</time>
      </trkpt>
      <trkpt lat="46.22592" lon="6.78253">
        <ele>1567</ele>
        <time>2010-01-01T01:36:24Z</time>
      </trkpt>
      <trkpt lat="46.22611" lon="6.78229">
        <ele>1565</ele>
        <time>2010-01-01T01:36:34Z</time>
      </trkpt>
      <trkpt lat="46.2263" lon="6.78215">
        <ele>1563</ele>
        <time>2010-01-01T01:36:43Z</time>
      </trkpt>
      <trkpt lat="46.22637" lon="6.78209">
        <ele>1563</ele>
        <time>2010-01-01T01:36:46Z</time>
      </trkpt>
      <trkpt lat="46.22653" lon="6.78191">
        <ele>1562</ele>
        <time>2010-01-01T01:36:55Z</time>
      </trkpt>
      <trkpt lat="46.22666" lon="6.78174">
        <ele>1559</ele>
        <time>2010-01-01T01:37:02Z</time>
      </trkpt>
      <trkpt lat="46.22676" lon="6.78164">
        <ele>1558</ele>
        <time>2010-01-01T01:37:06Z</time>
      </trkpt>
      <trkpt lat="46.2268" lon="6.78157">
        <ele>1557</ele>
        <time>2010-01-01T01:37:09Z</time>
      </trkpt>
      <trkpt lat="46.22702" lon="6.7812">
        <ele>1554</ele>
        <time>2010-01-01T01:37:22Z</time>
      </trkpt>
      <trkpt lat="46.22708" lon="6.78104">
        <ele>1553</ele>
        <time>2010-01-01T01:37:27Z</time>
      </trkpt>
      <trkpt lat="46.22711" lon="6.78104">
        <ele>1552</ele>
        <time>2010-01-01T01:37:29Z</time>
      </trkpt>
      <trkpt lat="46.22714" lon="6.78107">
        <ele>1553</ele>
        <time>2010-01-01T01:37:30Z</time>
      </trkpt>
      <trkpt lat="46.22715" lon="6.78119">
        <ele>1551</ele>
        <time>2010-01-01T01:37:33Z</time>
      </trkpt>
      <trkpt lat="46.22717" lon="6.78121">
        <ele>1551</ele>
        <time>2010-01-01T01:37:34Z</time>
      </trkpt>
      <trkpt lat="46.22719" lon="6.78122">
        <ele>1550</ele>
        <time>2010-01-01T01:37:35Z</time>
      </trkpt>
      <trkpt lat="46.22722" lon="6.78115">
        <ele>1550</ele>
        <time>2010-01-01T01:37:37Z</time>
      </trkpt>
      <trkpt lat="46.22726" lon="6.7811">
        <ele>1549</ele>
        <time>2010-01-01T01:37:39Z</time>
      </trkpt>
      <trkpt lat="46.2273" lon="6.7811">
        <ele>1549</ele>
        <time>2010-01-01T01:37:41Z</time>
      </trkpt>
      <trkpt lat="46.22736" lon="6.78113">
        <ele>1549</ele>
        <time>2010-01-01T01:37:44Z</time>
      </trkpt>
      <trkpt lat="46.22743" lon="6.78127">
        <ele>1548</ele>
        <time>2010-01-01T01:37:48Z</time>
      </trkpt>
      <trkpt lat="46.22744" lon="6.78135">
        <ele>1547</ele>
        <time>2010-01-01T01:37:51Z</time>
      </trkpt>
      <trkpt lat="46.2274" lon="6.78158">
        <ele>1546</ele>
        <time>2010-01-01T01:37:57Z</time>
      </trkpt>
      <trkpt lat="46.22726" lon="6.78177">
        <ele>1545</ele>
        <time>2010-01-01T01:38:05Z</time>
      </trkpt>
      <trkpt lat="46.22722" lon="6.78185">
        <ele>1544</ele>
        <time>2010-01-01T01:38:07Z</time>
      </trkpt>
      <trkpt lat="46.22736" lon="6.78177">
        <ele>1542</ele>
        <time>2010-01-01T01:38:13Z</time>
      </trkpt>
      <trkpt lat="46.22739" lon="6.78178">
        <ele>1541</ele>
        <time>2010-01-01T01:38:15Z</time>
      </trkpt>
      <trkpt lat="46.22742" lon="6.78181">
        <ele>1541</ele>
        <time>2010-01-01T01:38:16Z</time>
      </trkpt>
      <trkpt lat="46.22742" lon="6.78185">
        <ele>1540</ele>
        <time>2010-01-01T01:38:17Z</time>
      </trkpt>
      <trkpt lat="46.22737" lon="6.78204">
        <ele>1538</ele>
        <time>2010-01-01T01:38:23Z</time>
      </trkpt>
      <trkpt lat="46.22738" lon="6.78209">
        <ele>1537</ele>
        <time>2010-01-01T01:38:24Z</time>
      </trkpt>
      <trkpt lat="46.22748" lon="6.78199">
        <ele>1536</ele>
        <time>2010-01-01T01:38:29Z</time>
      </trkpt>
      <trkpt lat="46.22765" lon="6.78192">
        <ele>1533</ele>
        <time>2010-01-01T01:38:36Z</time>
      </trkpt>
      <trkpt lat="46.22766" lon="6.78193">
        <ele>1532</ele>
        <time>2010-01-01T01:38:37Z</time>
      </trkpt>
      <trkpt lat="46.22767" lon="6.78205">
        <ele>1528</ele>
        <time>2010-01-01T01:38:40Z</time>
      </trkpt>
      <trkpt lat="46.2277" lon="6.78212">
        <ele>1526</ele>
        <time>2010-01-01T01:38:42Z</time>
      </trkpt>
      <trkpt lat="46.22777" lon="6.78207">
        <ele>1525</ele>
        <time>2010-01-01T01:38:45Z</time>
      </trkpt>
      <trkpt lat="46.22768" lon="6.78231">
        <ele>1521</ele>
        <time>2010-01-01T01:38:53Z</time>
      </trkpt>
      <trkpt lat="46.22767" lon="6.78239">
        <ele>1520</ele>
        <time>2010-01-01T01:38:55Z</time>
      </trkpt>
      <trkpt lat="46.22768" lon="6.78259">
        <ele>1517</ele>
        <time>2010-01-01T01:39:00Z</time>
      </trkpt>
      <trkpt lat="46.22771" lon="6.7826">
        <ele>1516</ele>
        <time>2010-01-01T01:39:02Z</time>
      </trkpt>
      <trkpt lat="46.22773" lon="6.78262">
        <ele>1515</ele>
        <time>2010-01-01T01:39:03Z</time>
      </trkpt>
      <trkpt lat="46.22774" lon="6.78267">
        <ele>1514</ele>
        <time>2010-01-01T01:39:04Z</time>
      </trkpt>
      <trkpt lat="46.22773" lon="6.78282">
        <ele>1511</ele>
        <time>2010-01-01T01:39:09Z</time>
      </trkpt>
      <trkpt lat="46.22765" lon="6.78306">
        <ele>1506</ele>
        <time>2010-01-01T01:39:16Z</time>
      </trkpt>
      <trkpt lat="46.22759" lon="6.78319">
        <ele>1504</ele>
        <time>2010-01-01T01:39:20Z</time>
      </trkpt>
      <trkpt lat="46.22759" lon="6.78319">
        <ele>1504</ele>
        <time>2010-01-01T01:39:20Z</time>
      </trkpt>
      <trkpt lat="46.22756" lon="6.78319">
        <ele>1503</ele>
        <time>2010-01-01T01:39:21Z</time>
      </trkpt>
      <trkpt lat="46.22754" lon="6.78318">
        <ele>1501</ele>
        <time>2010-01-01T01:39:22Z</time>
      </trkpt>
      <trkpt lat="46.2275" lon="6.78318">
        <ele>1497</ele>
        <time>2010-01-01T01:39:24Z</time>
      </trkpt>
      <trkpt lat="46.22742" lon="6.78325">
        <ele>1495</ele>
        <time>2010-01-01T01:39:28Z</time>
      </trkpt>
      <trkpt lat="46.22729" lon="6.78329">
        <ele>1492</ele>
        <time>2010-01-01T01:39:33Z</time>
      </trkpt>
      <trkpt lat="46.22725" lon="6.78355">
        <ele>1487</ele>
        <time>2010-01-01T01:39:40Z</time>
      </trkpt>
      <trkpt lat="46.22723" lon="6.78389">
        <ele>1483</ele>
        <time>2010-01-01T01:39:50Z</time>
      </trkpt>
      <trkpt lat="46.22726" lon="6.78399">
        <ele>1482</ele>
        <time>2010-01-01T01:39:53Z</time>
      </trkpt>
      <trkpt lat="46.22731" lon="6.78407">
        <ele>1482</ele>
        <time>2010-01-01T01:39:56Z</time>
      </trkpt>
      <trkpt lat="46.22735" lon="6.78409">
        <ele>1481</ele>
        <time>2010-01-01T01:39:57Z</time>
      </trkpt>
      <trkpt lat="46.22744" lon="6.7841">
        <ele>1478</ele>
        <time>2010-01-01T01:40:01Z</time>
      </trkpt>
      <trkpt lat="46.22754" lon="6.78416">
        <ele>1473</ele>
        <time>2010-01-01T01:40:05Z</time>
      </trkpt>
      <trkpt lat="46.22756" lon="6.78416">
        <ele>1472</ele>
        <time>2010-01-01T01:40:06Z</time>
      </trkpt>
      <trkpt lat="46.22756" lon="6.78404">
        <ele>1469</ele>
        <time>2010-01-01T01:40:09Z</time>
      </trkpt>
      <trkpt lat="46.2275" lon="6.78393">
        <ele>1466</ele>
        <time>2010-01-01T01:40:13Z</time>
      </trkpt>
      <trkpt lat="46.22745" lon="6.78388">
        <ele>1464</ele>
        <time>2010-01-01T01:40:16Z</time>
      </trkpt>
      <trkpt lat="46.22747" lon="6.78386">
        <ele>1464</ele>
        <time>2010-01-01T01:40:17Z</time>
      </trkpt>
      <trkpt lat="46.22748" lon="6.78385">
        <ele>1463</ele>
        <time>2010-01-01T01:40:17Z</time>
      </trkpt>
      <trkpt lat="46.22753" lon="6.78388">
        <ele>1459</ele>
        <time>2010-01-01T01:40:19Z</time>
      </trkpt>
      <trkpt lat="46.22766" lon="6.78403">
        <ele>1452</ele>
        <time>2010-01-01T01:40:26Z</time>
      </trkpt>
      <trkpt lat="46.22767" lon="6.78415">
        <ele>1450</ele>
        <time>2010-01-01T01:40:30Z</time>
      </trkpt>
      <trkpt lat="46.22766" lon="6.78429">
        <ele>1447</ele>
        <time>2010-01-01T01:40:33Z</time>
      </trkpt>
      <trkpt lat="46.22762" lon="6.78443">
        <ele>1446</ele>
        <time>2010-01-01T01:40:38Z</time>
      </trkpt>
      <trkpt lat="46.22762" lon="6.78452">
        <ele>1445</ele>
        <time>2010-01-01T01:40:40Z</time>
      </trkpt>
      <trkpt lat="46.22763" lon="6.78455">
        <ele>1444</ele>
        <time>2010-01-01T01:40:41Z</time>
      </trkpt>
      <trkpt lat="46.22766" lon="6.78452">
        <ele>1442</ele>
        <time>2010-01-01T01:40:43Z</time>
      </trkpt>
      <trkpt lat="46.22767" lon="6.78448">
        <ele>1441</ele>
        <time>2010-01-01T01:40:44Z</time>
      </trkpt>
      <trkpt lat="46.22775" lon="6.78435">
        <ele>1436</ele>
        <time>2010-01-01T01:40:49Z</time>
      </trkpt>
      <trkpt lat="46.22777" lon="6.78436">
        <ele>1436</ele>
        <time>2010-01-01T01:40:50Z</time>
      </trkpt>
      <trkpt lat="46.22775" lon="6.78454">
        <ele>1433</ele>
        <time>2010-01-01T01:40:55Z</time>
      </trkpt>
      <trkpt lat="46.22768" lon="6.78474">
        <ele>1431</ele>
        <time>2010-01-01T01:41:01Z</time>
      </trkpt>
      <trkpt lat="46.22768" lon="6.78479">
        <ele>1430</ele>
        <time>2010-01-01T01:41:02Z</time>
      </trkpt>
      <trkpt lat="46.22777" lon="6.78501">
        <ele>1427</ele>
        <time>2010-01-01T01:41:09Z</time>
      </trkpt>
      <trkpt lat="46.22778" lon="6.7851">
        <ele>1425</ele>
        <time>2010-01-01T01:41:12Z</time>
      </trkpt>
      <trkpt lat="46.22779" lon="6.78559">
        <ele>1420</ele>
        <time>2010-01-01T01:41:25Z</time>
      </trkpt>
      <trkpt lat="46.22778" lon="6.78587">
        <ele>1418</ele>
        <time>2010-01-01T01:41:33Z</time>
      </trkpt>
      <trkpt lat="46.22772" lon="6.78598">
        <ele>1416</ele>
        <time>2010-01-01T01:41:37Z</time>
      </trkpt>
      <trkpt lat="46.22772" lon="6.78606">
        <ele>1415</ele>
        <time>2010-01-01T01:41:39Z</time>
      </trkpt>
      <trkpt lat="46.22776" lon="6.7861">
        <ele>1413</ele>
        <time>2010-01-01T01:41:41Z</time>
      </trkpt>
      <trkpt lat="46.22787" lon="6.78609">
        <ele>1410</ele>
        <time>2010-01-01T01:41:46Z</time>
      </trkpt>
      <trkpt lat="46.22787" lon="6.78619">
        <ele>1409</ele>
        <time>2010-01-01T01:41:48Z</time>
      </trkpt>
      <trkpt lat="46.22783" lon="6.78625">
        <ele>1408</ele>
        <time>2010-01-01T01:41:50Z</time>
      </trkpt>
      <trkpt lat="46.22777" lon="6.7864">
        <ele>1405</ele>
        <time>2010-01-01T01:41:56Z</time>
      </trkpt>
      <trkpt lat="46.22776" lon="6.78646">
        <ele>1404</ele>
        <time>2010-01-01T01:41:57Z</time>
      </trkpt>
      <trkpt lat="46.22777" lon="6.78647">
        <ele>1403</ele>
        <time>2010-01-01T01:41:58Z</time>
      </trkpt>
      <trkpt lat="46.22786" lon="6.78636">
        <ele>1402</ele>
        <time>2010-01-01T01:42:02Z</time>
      </trkpt>
      <trkpt lat="46.22798" lon="6.78636">
        <ele>1399</ele>
        <time>2010-01-01T01:42:07Z</time>
      </trkpt>
      <trkpt lat="46.22802" lon="6.78637">
        <ele>1398</ele>
        <time>2010-01-01T01:42:09Z</time>
      </trkpt>
      <trkpt lat="46.22803" lon="6.78639">
        <ele>1397</ele>
        <time>2010-01-01T01:42:09Z</time>
      </trkpt>
      <trkpt lat="46.22806" lon="6.78634">
        <ele>1396</ele>
        <time>2010-01-01T01:42:11Z</time>
      </trkpt>
      <trkpt lat="46.22809" lon="6.78633">
        <ele>1395</ele>
        <time>2010-01-01T01:42:12Z</time>
      </trkpt>
      <trkpt lat="46.22814" lon="6.78635">
        <ele>1394</ele>
        <time>2010-01-01T01:42:14Z</time>
      </trkpt>
      <trkpt lat="46.22822" lon="6.78622">
        <ele>1391</ele>
        <time>2010-01-01T01:42:19Z</time>
      </trkpt>
      <trkpt lat="46.22831" lon="6.78617">
        <ele>1389</ele>
        <time>2010-01-01T01:42:23Z</time>
      </trkpt>
      <trkpt lat="46.22833" lon="6.78613">
        <ele>1389</ele>
        <time>2010-01-01T01:42:24Z</time>
      </trkpt>
      <trkpt lat="46.22836" lon="6.78605">
        <ele>1387</ele>
        <time>2010-01-01T01:42:27Z</time>
      </trkpt>
      <trkpt lat="46.22838" lon="6.78605">
        <ele>1386</ele>
        <time>2010-01-01T01:42:28Z</time>
      </trkpt>
      <trkpt lat="46.22838" lon="6.78626">
        <ele>1381</ele>
        <time>2010-01-01T01:42:33Z</time>
      </trkpt>
      <trkpt lat="46.2284" lon="6.78631">
        <ele>1382</ele>
        <time>2010-01-01T01:42:35Z</time>
      </trkpt>
      <trkpt lat="46.22834" lon="6.78642">
        <ele>1382</ele>
        <time>2010-01-01T01:42:39Z</time>
      </trkpt>
      <trkpt lat="46.22836" lon="6.78648">
        <ele>1382</ele>
        <time>2010-01-01T01:42:40Z</time>
      </trkpt>
      <trkpt lat="46.22835" lon="6.78644">
        <ele>1382</ele>
        <time>2010-01-01T01:42:41Z</time>
      </trkpt>
      <trkpt lat="46.22837" lon="6.78639">
        <ele>1382</ele>
        <time>2010-01-01T01:42:43Z</time>
      </trkpt>
      <trkpt lat="46.2285" lon="6.78619">
        <ele>1382</ele>
        <time>2010-01-01T01:42:51Z</time>
      </trkpt>
      <trkpt lat="46.22853" lon="6.78611">
        <ele>1382</ele>
        <time>2010-01-01T01:42:53Z</time>
      </trkpt>
      <trkpt lat="46.2285" lon="6.78595">
        <ele>1381</ele>
        <time>2010-01-01T01:42:57Z</time>
      </trkpt>
      <trkpt lat="46.22853" lon="6.78583">
        <ele>1380</ele>
        <time>2010-01-01T01:43:01Z</time>
      </trkpt>
      <trkpt lat="46.22855" lon="6.7858">
        <ele>1379</ele>
        <time>2010-01-01T01:43:02Z</time>
      </trkpt>
      <trkpt lat="46.22859" lon="6.78579">
        <ele>1379</ele>
        <time>2010-01-01T01:43:04Z</time>
      </trkpt>
      <trkpt lat="46.22861" lon="6.7858">
        <ele>1380</ele>
        <time>2010-01-01T01:43:05Z</time>
      </trkpt>
      <trkpt lat="46.22865" lon="6.78596">
        <ele>1379</ele>
        <time>2010-01-01T01:43:09Z</time>
      </trkpt>
      <trkpt lat="46.22869" lon="6.78605">
        <ele>1379</ele>
        <time>2010-01-01T01:43:12Z</time>
      </trkpt>
      <trkpt lat="46.22875" lon="6.7861">
        <ele>1378</ele>
        <time>2010-01-01T01:43:15Z</time>
      </trkpt>
      <trkpt lat="46.22874" lon="6.78638">
        <ele>1375</ele>
        <time>2010-01-01T01:43:23Z</time>
      </trkpt>
      <trkpt lat="46.22875" lon="6.78642">
        <ele>1375</ele>
        <time>2010-01-01T01:43:24Z</time>
      </trkpt>
      <trkpt lat="46.2288" lon="6.7865">
        <ele>1374</ele>
        <time>2010-01-01T01:43:27Z</time>
      </trkpt>
      <trkpt lat="46.22889" lon="6.78656">
        <ele>1373</ele>
        <time>2010-01-01T01:43:31Z</time>
      </trkpt>
      <trkpt lat="46.22897" lon="6.78633">
        <ele>1371</ele>
        <time>2010-01-01T01:43:38Z</time>
      </trkpt>
      <trkpt lat="46.22901" lon="6.78628">
        <ele>1370</ele>
        <time>2010-01-01T01:43:40Z</time>
      </trkpt>
      <trkpt lat="46.22906" lon="6.78624">
        <ele>1370</ele>
        <time>2010-01-01T01:43:43Z</time>
      </trkpt>
      <trkpt lat="46.22914" lon="6.7863">
        <ele>1370</ele>
        <time>2010-01-01T01:43:46Z</time>
      </trkpt>
      <trkpt lat="46.22921" lon="6.78632">
        <ele>1370</ele>
        <time>2010-01-01T01:43:49Z</time>
      </trkpt>
      <trkpt lat="46.22925" lon="6.78654">
        <ele>1368</ele>
        <time>2010-01-01T01:43:55Z</time>
      </trkpt>
      <trkpt lat="46.22929" lon="6.78664">
        <ele>1367</ele>
        <time>2010-01-01T01:43:59Z</time>
      </trkpt>
      <trkpt lat="46.22931" lon="6.78685">
        <ele>1366</ele>
        <time>2010-01-01T01:44:04Z</time>
      </trkpt>
      <trkpt lat="46.22935" lon="6.78692">
        <ele>1365</ele>
        <time>2010-01-01T01:44:07Z</time>
      </trkpt>
      <trkpt lat="46.22947" lon="6.78694">
        <ele>1363</ele>
        <time>2010-01-01T01:44:12Z</time>
      </trkpt>
      <trkpt lat="46.2296" lon="6.78704">
        <ele>1361</ele>
        <time>2010-01-01T01:44:18Z</time>
      </trkpt>
      <trkpt lat="46.22996" lon="6.78714">
        <ele>1356</ele>
        <time>2010-01-01T01:44:32Z</time>
      </trkpt>
      <trkpt lat="46.23017" lon="6.78724">
        <ele>1351</ele>
        <time>2010-01-01T01:44:41Z</time>
      </trkpt>
      <trkpt lat="46.23078" lon="6.78764">
        <ele>1334</ele>
        <time>2010-01-01T01:45:08Z</time>
      </trkpt>
      <trkpt lat="46.23078" lon="6.78764">
        <ele>1334</ele>
        <time>2010-01-01T01:45:08Z</time>
      </trkpt>
      <trkpt lat="46.23093" lon="6.7878">
        <ele>1331</ele>
        <time>2010-01-01T01:45:15Z</time>
      </trkpt>
      <trkpt lat="46.23098" lon="6.78781">
        <ele>1330</ele>
        <time>2010-01-01T01:45:17Z</time>
      </trkpt>
      <trkpt lat="46.23114" lon="6.78781">
        <ele>1328</ele>
        <time>2010-01-01T01:45:24Z</time>
      </trkpt>
      <trkpt lat="46.2314" lon="6.78787">
        <ele>1325</ele>
        <time>2010-01-01T01:45:34Z</time>
      </trkpt>
      <trkpt lat="46.2316" lon="6.78796">
        <ele>1321</ele>
        <time>2010-01-01T01:45:43Z</time>
      </trkpt>
      <trkpt lat="46.23187" lon="6.78804">
        <ele>1317</ele>
        <time>2010-01-01T01:45:54Z</time>
      </trkpt>
      <trkpt lat="46.23196" lon="6.78809">
        <ele>1316</ele>
        <time>2010-01-01T01:45:58Z</time>
      </trkpt>
      <trkpt lat="46.23199" lon="6.78812">
        <ele>1315</ele>
        <time>2010-01-01T01:45:59Z</time>
      </trkpt>
      <trkpt lat="46.23203" lon="6.7882">
        <ele>1314</ele>
        <time>2010-01-01T01:46:02Z</time>
      </trkpt>
      <trkpt lat="46.2321" lon="6.7887">
        <ele>1309</ele>
        <time>2010-01-01T01:46:16Z</time>
      </trkpt>
      <trkpt lat="46.2321" lon="6.78884">
        <ele>1308</ele>
        <time>2010-01-01T01:46:20Z</time>
      </trkpt>
      <trkpt lat="46.23206" lon="6.78895">
        <ele>1307</ele>
        <time>2010-01-01T01:46:23Z</time>
      </trkpt>
      <trkpt lat="46.23205" lon="6.78894">
        <ele>1306</ele>
        <time>2010-01-01T01:46:24Z</time>
      </trkpt>
      <trkpt lat="46.23205" lon="6.78891">
        <ele>1306</ele>
        <time>2010-01-01T01:46:25Z</time>
      </trkpt>
      <trkpt lat="46.2321" lon="6.78889">
        <ele>1306</ele>
        <time>2010-01-01T01:46:27Z</time>
      </trkpt>
      <trkpt lat="46.23211" lon="6.78889">
        <ele>1306</ele>
        <time>2010-01-01T01:46:27Z</time>
      </trkpt>
      <trkpt lat="46.23213" lon="6.78891">
        <ele>1305</ele>
        <time>2010-01-01T01:46:28Z</time>
      </trkpt>
      <trkpt lat="46.23214" lon="6.78909">
        <ele>1302</ele>
        <time>2010-01-01T01:46:33Z</time>
      </trkpt>
      <trkpt lat="46.23224" lon="6.78934">
        <ele>1300</ele>
        <time>2010-01-01T01:46:41Z</time>
      </trkpt>
      <trkpt lat="46.23225" lon="6.78952">
        <ele>1298</ele>
        <time>2010-01-01T01:46:46Z</time>
      </trkpt>
      <trkpt lat="46.23227" lon="6.78957">
        <ele>1297</ele>
        <time>2010-01-01T01:46:48Z</time>
      </trkpt>
      <trkpt lat="46.23235" lon="6.78965">
        <ele>1296</ele>
        <time>2010-01-01T01:46:51Z</time>
      </trkpt>
      <trkpt lat="46.2325" lon="6.78977">
        <ele>1295</ele>
        <time>2010-01-01T01:46:58Z</time>
      </trkpt>
      <trkpt lat="46.23281" lon="6.78998">
        <ele>1293</ele>
        <time>2010-01-01T01:47:12Z</time>
      </trkpt>
      <trkpt lat="46.23381" lon="6.79055">
        <ele>1286</ele>
        <time>2010-01-01T01:47:55Z</time>
      </trkpt>
      <trkpt lat="46.23389" lon="6.79061">
        <ele>1285</ele>
        <time>2010-01-01T01:47:59Z</time>
      </trkpt>
      <trkpt lat="46.2341" lon="6.79088">
        <ele>1283</ele>
        <time>2010-01-01T01:48:10Z</time>
      </trkpt>
      <trkpt lat="46.23418" lon="6.79095">
        <ele>1283</ele>
        <time>2010-01-01T01:48:13Z</time>
      </trkpt>
      <trkpt lat="46.23444" lon="6.79111">
        <ele>1282</ele>
        <time>2010-01-01T01:48:25Z</time>
      </trkpt>
      <trkpt lat="46.23481" lon="6.79129">
        <ele>1280</ele>
        <time>2010-01-01T01:48:40Z</time>
      </trkpt>
      <trkpt lat="46.23489" lon="6.79131">
        <ele>1279</ele>
        <time>2010-01-01T01:48:44Z</time>
      </trkpt>
      <trkpt lat="46.23507" lon="6.7913">
        <ele>1278</ele>
        <time>2010-01-01T01:48:51Z</time>
      </trkpt>
      <trkpt lat="46.23532" lon="6.79123">
        <ele>1277</ele>
        <time>2010-01-01T01:49:01Z</time>
      </trkpt>
      <trkpt lat="46.23539" lon="6.79126">
        <ele>1277</ele>
        <time>2010-01-01T01:49:04Z</time>
      </trkpt>
      <trkpt lat="46.2354" lon="6.79134">
        <ele>1276</ele>
        <time>2010-01-01T01:49:06Z</time>
      </trkpt>
      <trkpt lat="46.23551" lon="6.79151">
        <ele>1275</ele>
        <time>2010-01-01T01:49:13Z</time>
      </trkpt>
      <trkpt lat="46.23559" lon="6.7916">
        <ele>1277</ele>
        <time>2010-01-01T01:49:17Z</time>
      </trkpt>
      <trkpt lat="46.2357" lon="6.79171">
        <ele>1277</ele>
        <time>2010-01-01T01:49:22Z</time>
      </trkpt>
      <trkpt lat="46.23589" lon="6.79182">
        <ele>1277</ele>
        <time>2010-01-01T01:49:30Z</time>
      </trkpt>
      <trkpt lat="46.23607" lon="6.79202">
        <ele>1278</ele>
        <time>2010-01-01T01:49:39Z</time>
      </trkpt>
      <trkpt lat="46.23612" lon="6.79207">
        <ele>1278</ele>
        <time>2010-01-01T01:49:42Z</time>
      </trkpt>
      <trkpt lat="46.23664" lon="6.79232">
        <ele>1276</ele>
        <time>2010-01-01T01:50:04Z</time>
      </trkpt>
      <trkpt lat="46.23686" lon="6.7924">
        <ele>1276</ele>
        <time>2010-01-01T01:50:13Z</time>
      </trkpt>
      <trkpt lat="46.23714" lon="6.79252">
        <ele>1273</ele>
        <time>2010-01-01T01:50:25Z</time>
      </trkpt>
      <trkpt lat="46.23728" lon="6.79256">
        <ele>1272</ele>
        <time>2010-01-01T01:50:30Z</time>
      </trkpt>
      <trkpt lat="46.23744" lon="6.79269">
        <ele>1271</ele>
        <time>2010-01-01T01:50:38Z</time>
      </trkpt>
      <trkpt lat="46.2375" lon="6.79272">
        <ele>1270</ele>
        <time>2010-01-01T01:50:40Z</time>
      </trkpt>
      <trkpt lat="46.23776" lon="6.79272">
        <ele>1269</ele>
        <time>2010-01-01T01:50:51Z</time>
      </trkpt>
      <trkpt lat="46.23783" lon="6.79274">
        <ele>1269</ele>
        <time>2010-01-01T01:50:54Z</time>
      </trkpt>
      <trkpt lat="46.23795" lon="6.79286">
        <ele>1268</ele>
        <time>2010-01-01T01:50:59Z</time>
      </trkpt>
      <trkpt lat="46.23804" lon="6.79303">
        <ele>1267</ele>
        <time>2010-01-01T01:51:05Z</time>
      </trkpt>
      <trkpt lat="46.23804" lon="6.79303">
        <ele>1267</ele>
        <time>2010-01-01T01:51:05Z</time>
      </trkpt>
      <trkpt lat="46.23815" lon="6.79333">
        <ele>1267</ele>
        <time>2010-01-01T01:51:14Z</time>
      </trkpt>
      <trkpt lat="46.23826" lon="6.79346">
        <ele>1268</ele>
        <time>2010-01-01T01:51:20Z</time>
      </trkpt>
      <trkpt lat="46.23833" lon="6.79352">
        <ele>1267</ele>
        <time>2010-01-01T01:51:23Z</time>
      </trkpt>
      <trkpt lat="46.23856" lon="6.79366">
        <ele>1267</ele>
        <time>2010-01-01T01:51:33Z</time>
      </trkpt>
      <trkpt lat="46.23869" lon="6.79372">
        <ele>1266</ele>
        <time>2010-01-01T01:51:39Z</time>
      </trkpt>
      <trkpt lat="46.23873" lon="6.79378">
        <ele>1267</ele>
        <time>2010-01-01T01:51:41Z</time>
      </trkpt>
      <trkpt lat="46.23879" lon="6.79374">
        <ele>1268</ele>
        <time>2010-01-01T01:51:44Z</time>
      </trkpt>
      <trkpt lat="46.23881" lon="6.79373">
        <ele>1267</ele>
        <time>2010-01-01T01:51:45Z</time>
      </trkpt>
      <trkpt lat="46.23898" lon="6.79376">
        <ele>1266</ele>
        <time>2010-01-01T01:51:52Z</time>
      </trkpt>
      <trkpt lat="46.23917" lon="6.79382">
        <ele>1265</ele>
        <time>2010-01-01T01:51:59Z</time>
      </trkpt>
      <trkpt lat="46.23929" lon="6.79397">
        <ele>1265</ele>
        <time>2010-01-01T01:52:06Z</time>
      </trkpt>
      <trkpt lat="46.2394" lon="6.79413">
        <ele>1264</ele>
        <time>2010-01-01T01:52:12Z</time>
      </trkpt>
      <trkpt lat="46.2396" lon="6.79431">
        <ele>1262</ele>
        <time>2010-01-01T01:52:21Z</time>
      </trkpt>
      <trkpt lat="46.23989" lon="6.79495">
        <ele>1260</ele>
        <time>2010-01-01T01:52:42Z</time>
      </trkpt>
      <trkpt lat="46.23995" lon="6.7952">
        <ele>1259</ele>
        <time>2010-01-01T01:52:50Z</time>
      </trkpt>
      <trkpt lat="46.23995" lon="6.79536">
        <ele>1258</ele>
        <time>2010-01-01T01:52:54Z</time>
      </trkpt>
      <trkpt lat="46.23999" lon="6.79563">
        <ele>1258</ele>
        <time>2010-01-01T01:53:02Z</time>
      </trkpt>
      <trkpt lat="46.24014" lon="6.79604">
        <ele>1255</ele>
        <time>2010-01-01T01:53:15Z</time>
      </trkpt>
      <trkpt lat="46.24018" lon="6.79613">
        <ele>1255</ele>
        <time>2010-01-01T01:53:18Z</time>
      </trkpt>
      <trkpt lat="46.24024" lon="6.79619">
        <ele>1254</ele>
        <time>2010-01-01T01:53:21Z</time>
      </trkpt>
      <trkpt lat="46.24044" lon="6.7963">
        <ele>1251</ele>
        <time>2010-01-01T01:53:29Z</time>
      </trkpt>
      <trkpt lat="46.24056" lon="6.79645">
        <ele>1251</ele>
        <time>2010-01-01T01:53:36Z</time>
      </trkpt>
      <trkpt lat="46.24064" lon="6.79663">
        <ele>1250</ele>
        <time>2010-01-01T01:53:42Z</time>
      </trkpt>
      <trkpt lat="46.2407" lon="6.79695">
        <ele>1248</ele>
        <time>2010-01-01T01:53:51Z</time>
      </trkpt>
      <trkpt lat="46.24078" lon="6.79712">
        <ele>1247</ele>
        <time>2010-01-01T01:53:56Z</time>
      </trkpt>
      <trkpt lat="46.24089" lon="6.79728">
        <ele>1246</ele>
        <time>2010-01-01T01:54:03Z</time>
      </trkpt>
      <trkpt lat="46.24102" lon="6.79752">
        <ele>1244</ele>
        <time>2010-01-01T01:54:11Z</time>
      </trkpt>
      <trkpt lat="46.24105" lon="6.79771">
        <ele>1244</ele>
        <time>2010-01-01T01:54:17Z</time>
      </trkpt>
      <trkpt lat="46.24105" lon="6.79781">
        <ele>1243</ele>
        <time>2010-01-01T01:54:19Z</time>
      </trkpt>
      <trkpt lat="46.24099" lon="6.79804">
        <ele>1241</ele>
        <time>2010-01-01T01:54:26Z</time>
      </trkpt>
      <trkpt lat="46.24101" lon="6.79807">
        <ele>1242</ele>
        <time>2010-01-01T01:54:27Z</time>
      </trkpt>
      <trkpt lat="46.24109" lon="6.79839">
        <ele>1243</ele>
        <time>2010-01-01T01:54:37Z</time>
      </trkpt>
      <trkpt lat="46.24118" lon="6.79854">
        <ele>1244</ele>
        <time>2010-01-01T01:54:42Z</time>
      </trkpt>
      <trkpt lat="46.24123" lon="6.79868">
        <ele>1243</ele>
        <time>2010-01-01T01:54:47Z</time>
      </trkpt>
      <trkpt lat="46.24124" lon="6.79879">
        <ele>1242</ele>
        <time>2010-01-01T01:54:50Z</time>
      </trkpt>
      <trkpt lat="46.24129" lon="6.79891">
        <ele>1242</ele>
        <time>2010-01-01T01:54:54Z</time>
      </trkpt>
      <trkpt lat="46.24134" lon="6.79899">
        <ele>1242</ele>
        <time>2010-01-01T01:54:57Z</time>
      </trkpt>
      <trkpt lat="46.24136" lon="6.79904">
        <ele>1242</ele>
        <time>2010-01-01T01:54:58Z</time>
      </trkpt>
      <trkpt lat="46.24153" lon="6.79973">
        <ele>1243</ele>
        <time>2010-01-01T01:55:18Z</time>
      </trkpt>
      <trkpt lat="46.24161" lon="6.79995">
        <ele>1243</ele>
        <time>2010-01-01T01:55:25Z</time>
      </trkpt>
      <trkpt lat="46.24162" lon="6.80001">
        <ele>1244</ele>
        <time>2010-01-01T01:55:27Z</time>
      </trkpt>
      <trkpt lat="46.2416" lon="6.80002">
        <ele>1244</ele>
        <time>2010-01-01T01:55:28Z</time>
      </trkpt>
      <trkpt lat="46.24162" lon="6.80005">
        <ele>1244</ele>
        <time>2010-01-01T01:55:29Z</time>
      </trkpt>
      <trkpt lat="46.24166" lon="6.80007">
        <ele>1244</ele>
        <time>2010-01-01T01:55:30Z</time>
      </trkpt>
      <trkpt lat="46.24174" lon="6.80021">
        <ele>1245</ele>
        <time>2010-01-01T01:55:36Z</time>
      </trkpt>
      <trkpt lat="46.24183" lon="6.80037">
        <ele>1245</ele>
        <time>2010-01-01T01:55:41Z</time>
      </trkpt>
      <trkpt lat="46.24187" lon="6.8005">
        <ele>1247</ele>
        <time>2010-01-01T01:55:45Z</time>
      </trkpt>
      <trkpt lat="46.24192" lon="6.80056">
        <ele>1247</ele>
        <time>2010-01-01T01:55:48Z</time>
      </trkpt>
      <trkpt lat="46.24195" lon="6.80064">
        <ele>1248</ele>
        <time>2010-01-01T01:55:50Z</time>
      </trkpt>
      <trkpt lat="46.24206" lon="6.80076">
        <ele>1249</ele>
        <time>2010-01-01T01:55:56Z</time>
      </trkpt>
      <trkpt lat="46.24253" lon="6.8014">
        <ele>1246</ele>
        <time>2010-01-01T01:56:21Z</time>
      </trkpt>
      <trkpt lat="46.24267" lon="6.80154">
        <ele>1245</ele>
        <time>2010-01-01T01:56:28Z</time>
      </trkpt>
      <trkpt lat="46.24301" lon="6.80181">
        <ele>1244</ele>
        <time>2010-01-01T01:56:44Z</time>
      </trkpt>
      <trkpt lat="46.24328" lon="6.80207">
        <ele>1242</ele>
        <time>2010-01-01T01:56:57Z</time>
      </trkpt>
      <trkpt lat="46.24328" lon="6.80207">
        <ele>1242</ele>
        <time>2010-01-01T01:56:57Z</time>
      </trkpt>
      <trkpt lat="46.24365" lon="6.80248">
        <ele>1239</ele>
        <time>2010-01-01T01:57:16Z</time>
      </trkpt>
      <trkpt lat="46.24393" lon="6.80272">
        <ele>1236</ele>
        <time>2010-01-01T01:57:29Z</time>
      </trkpt>
      <trkpt lat="46.24411" lon="6.80291">
        <ele>1233</ele>
        <time>2010-01-01T01:57:37Z</time>
      </trkpt>
      <trkpt lat="46.24427" lon="6.80316">
        <ele>1230</ele>
        <time>2010-01-01T01:57:47Z</time>
      </trkpt>
      <trkpt lat="46.24441" lon="6.80343">
        <ele>1229</ele>
        <time>2010-01-01T01:57:56Z</time>
      </trkpt>
      <trkpt lat="46.24501" lon="6.80423">
        <ele>1221</ele>
        <time>2010-01-01T01:58:29Z</time>
      </trkpt>
      <trkpt lat="46.24534" lon="6.80472">
        <ele>1216</ele>
        <time>2010-01-01T01:58:48Z</time>
      </trkpt>
      <trkpt lat="46.24544" lon="6.80491">
        <ele>1214</ele>
        <time>2010-01-01T01:58:55Z</time>
      </trkpt>
      <trkpt lat="46.24599" lon="6.80551">
        <ele>1205</ele>
        <time>2010-01-01T01:59:22Z</time>
      </trkpt>
      <trkpt lat="46.24613" lon="6.80574">
        <ele>1203</ele>
        <time>2010-01-01T01:59:30Z</time>
      </trkpt>
      <trkpt lat="46.24642" lon="6.80634">
        <ele>1198</ele>
        <time>2010-01-01T01:59:51Z</time>
      </trkpt>
      <trkpt lat="46.24674" lon="6.80673">
        <ele>1196</ele>
        <time>2010-01-01T02:00:07Z</time>
      </trkpt>
      <trkpt lat="46.24681" lon="6.80685">
        <ele>1195</ele>
        <time>2010-01-01T02:00:12Z</time>
      </trkpt>
      <trkpt lat="46.24736" lon="6.80784">
        <ele>1191</ele>
        <time>2010-01-01T02:00:47Z</time>
      </trkpt>
      <trkpt lat="46.24754" lon="6.80818">
        <ele>1188</ele>
        <time>2010-01-01T02:00:59Z</time>
      </trkpt>
      <trkpt lat="46.24788" lon="6.80893">
        <ele>1184</ele>
        <time>2010-01-01T02:01:24Z</time>
      </trkpt>
      <trkpt lat="46.24802" lon="6.80919">
        <ele>1189</ele>
        <time>2010-01-01T02:01:33Z</time>
      </trkpt>
      <trkpt lat="46.24813" lon="6.80948">
        <ele>1192</ele>
        <time>2010-01-01T02:01:42Z</time>
      </trkpt>
      <trkpt lat="46.2482" lon="6.80984">
        <ele>1194</ele>
        <time>2010-01-01T02:01:52Z</time>
      </trkpt>
      <trkpt lat="46.24826" lon="6.81001">
        <ele>1196</ele>
        <time>2010-01-01T02:01:58Z</time>
      </trkpt>
      <trkpt lat="46.24829" lon="6.81018">
        <ele>1196</ele>
        <time>2010-01-01T02:02:02Z</time>
      </trkpt>
      <trkpt lat="46.24833" lon="6.81035">
        <ele>1197</ele>
        <time>2010-01-01T02:02:07Z</time>
      </trkpt>
      <trkpt lat="46.24834" lon="6.8105">
        <ele>1197</ele>
        <time>2010-01-01T02:02:11Z</time>
      </trkpt>
      <trkpt lat="46.24841" lon="6.8108">
        <ele>1199</ele>
        <time>2010-01-01T02:02:20Z</time>
      </trkpt>
      <trkpt lat="46.24845" lon="6.81114">
        <ele>1199</ele>
        <time>2010-01-01T02:02:30Z</time>
      </trkpt>
      <trkpt lat="46.24852" lon="6.81146">
        <ele>1200</ele>
        <time>2010-01-01T02:02:39Z</time>
      </trkpt>
      <trkpt lat="46.24859" lon="6.81162">
        <ele>1202</ele>
        <time>2010-01-01T02:02:44Z</time>
      </trkpt>
      <trkpt lat="46.24857" lon="6.81163">
        <ele>1202</ele>
        <time>2010-01-01T02:02:45Z</time>
      </trkpt>
      <trkpt lat="46.2486" lon="6.81171">
        <ele>1202</ele>
        <time>2010-01-01T02:02:47Z</time>
      </trkpt>
      <trkpt lat="46.2487" lon="6.81189">
        <ele>1203</ele>
        <time>2010-01-01T02:02:54Z</time>
      </trkpt>
      <trkpt lat="46.2487" lon="6.81189">
        <ele>1203</ele>
        <time>2010-01-01T02:02:54Z</time>
      </trkpt>
      <trkpt lat="46.24879" lon="6.81204">
        <ele>1203</ele>
        <time>2010-01-01T02:02:59Z</time>
      </trkpt>
      <trkpt lat="46.24896" lon="6.81239">
        <ele>1205</ele>
        <time>2010-01-01T02:03:11Z</time>
      </trkpt>
      <trkpt lat="46.24913" lon="6.81312">
        <ele>1206</ele>
        <time>2010-01-01T02:03:33Z</time>
      </trkpt>
      <trkpt lat="46.24916" lon="6.81343">
        <ele>1207</ele>
        <time>2010-01-01T02:03:41Z</time>
      </trkpt>
      <trkpt lat="46.24915" lon="6.81382">
        <ele>1210</ele>
        <time>2010-01-01T02:03:52Z</time>
      </trkpt>
      <trkpt lat="46.24916" lon="6.81401">
        <ele>1211</ele>
        <time>2010-01-01T02:03:57Z</time>
      </trkpt>
      <trkpt lat="46.24919" lon="6.81421">
        <ele>1213</ele>
        <time>2010-01-01T02:04:03Z</time>
      </trkpt>
      <trkpt lat="46.24924" lon="6.81442">
        <ele>1213</ele>
        <time>2010-01-01T02:04:09Z</time>
      </trkpt>
      <trkpt lat="46.24927" lon="6.81472">
        <ele>1214</ele>
        <time>2010-01-01T02:04:17Z</time>
      </trkpt>
      <trkpt lat="46.24926" lon="6.81524">
        <ele>1215</ele>
        <time>2010-01-01T02:04:32Z</time>
      </trkpt>
      <trkpt lat="46.24935" lon="6.81563">
        <ele>1218</ele>
        <time>2010-01-01T02:04:43Z</time>
      </trkpt>
      <trkpt lat="46.24944" lon="6.8162">
        <ele>1222</ele>
        <time>2010-01-01T02:04:59Z</time>
      </trkpt>
      <trkpt lat="46.24948" lon="6.81655">
        <ele>1225</ele>
        <time>2010-01-01T02:05:09Z</time>
      </trkpt>
      <trkpt lat="46.24952" lon="6.81734">
        <ele>1236</ele>
        <time>2010-01-01T02:05:31Z</time>
      </trkpt>
      <trkpt lat="46.24954" lon="6.81743">
        <ele>1237</ele>
        <time>2010-01-01T02:05:34Z</time>
      </trkpt>
      <trkpt lat="46.24958" lon="6.8175">
        <ele>1238</ele>
        <time>2010-01-01T02:05:36Z</time>
      </trkpt>
      <trkpt lat="46.24959" lon="6.8176">
        <ele>1238</ele>
        <time>2010-01-01T02:05:39Z</time>
      </trkpt>
      <trkpt lat="46.24964" lon="6.8177">
        <ele>1240</ele>
        <time>2010-01-01T02:05:43Z</time>
      </trkpt>
      <trkpt lat="46.24968" lon="6.81786">
        <ele>1242</ele>
        <time>2010-01-01T02:05:47Z</time>
      </trkpt>
      <trkpt lat="46.24969" lon="6.81794">
        <ele>1242</ele>
        <time>2010-01-01T02:05:49Z</time>
      </trkpt>
      <trkpt lat="46.24981" lon="6.81832">
        <ele>1245</ele>
        <time>2010-01-01T02:06:01Z</time>
      </trkpt>
      <trkpt lat="46.24984" lon="6.81877">
        <ele>1248</ele>
        <time>2010-01-01T02:06:13Z</time>
      </trkpt>
      <trkpt lat="46.24989" lon="6.81889">
        <ele>1248</ele>
        <time>2010-01-01T02:06:17Z</time>
      </trkpt>
      <trkpt lat="46.25005" lon="6.81921">
        <ele>1250</ele>
        <time>2010-01-01T02:06:28Z</time>
      </trkpt>
      <trkpt lat="46.25021" lon="6.8197">
        <ele>1254</ele>
        <time>2010-01-01T02:06:43Z</time>
      </trkpt>
      <trkpt lat="46.25028" lon="6.81997">
        <ele>1256</ele>
        <time>2010-01-01T02:06:51Z</time>
      </trkpt>
      <trkpt lat="46.25032" lon="6.82026">
        <ele>1258</ele>
        <time>2010-01-01T02:06:59Z</time>
      </trkpt>
      <trkpt lat="46.25034" lon="6.82062">
        <ele>1261</ele>
        <time>2010-01-01T02:07:09Z</time>
      </trkpt>
      <trkpt lat="46.25037" lon="6.82069">
        <ele>1261</ele>
        <time>2010-01-01T02:07:12Z</time>
      </trkpt>
      <trkpt lat="46.25039" lon="6.82087">
        <ele>1260</ele>
        <time>2010-01-01T02:07:17Z</time>
      </trkpt>
      <trkpt lat="46.25052" lon="6.8213">
        <ele>1261</ele>
        <time>2010-01-01T02:07:30Z</time>
      </trkpt>
      <trkpt lat="46.25058" lon="6.82169">
        <ele>1261</ele>
        <time>2010-01-01T02:07:41Z</time>
      </trkpt>
      <trkpt lat="46.25057" lon="6.82202">
        <ele>1262</ele>
        <time>2010-01-01T02:07:50Z</time>
      </trkpt>
      <trkpt lat="46.25053" lon="6.82244">
        <ele>1263</ele>
        <time>2010-01-01T02:08:02Z</time>
      </trkpt>
      <trkpt lat="46.25046" lon="6.82281">
        <ele>1264</ele>
        <time>2010-01-01T02:08:12Z</time>
      </trkpt>
      <trkpt lat="46.2504" lon="6.82295">
        <ele>1263</ele>
        <time>2010-01-01T02:08:17Z</time>
      </trkpt>
      <trkpt lat="46.25042" lon="6.82299">
        <ele>1263</ele>
        <time>2010-01-01T02:08:18Z</time>
      </trkpt>
      <trkpt lat="46.25042" lon="6.82303">
        <ele>1263</ele>
        <time>2010-01-01T02:08:19Z</time>
      </trkpt>
      <trkpt lat="46.25034" lon="6.82336">
        <ele>1263</ele>
        <time>2010-01-01T02:08:29Z</time>
      </trkpt>
      <trkpt lat="46.25034" lon="6.82397">
        <ele>1262</ele>
        <time>2010-01-01T02:08:46Z</time>
      </trkpt>
      <trkpt lat="46.25034" lon="6.82397">
        <ele>1262</ele>
        <time>2010-01-01T02:08:46Z</time>
      </trkpt>
      <trkpt lat="46.25032" lon="6.82435">
        <ele>1261</ele>
        <time>2010-01-01T02:08:57Z</time>
      </trkpt>
      <trkpt lat="46.25033" lon="6.82442">
        <ele>1261</ele>
        <time>2010-01-01T02:08:59Z</time>
      </trkpt>
      <trkpt lat="46.25038" lon="6.82453">
        <ele>1261</ele>
        <time>2010-01-01T02:09:02Z</time>
      </trkpt>
      <trkpt lat="46.25057" lon="6.82471">
        <ele>1262</ele>
        <time>2010-01-01T02:09:11Z</time>
      </trkpt>
      <trkpt lat="46.25094" lon="6.82488">
        <ele>1266</ele>
        <time>2010-01-01T02:09:27Z</time>
      </trkpt>
      <trkpt lat="46.25108" lon="6.82497">
        <ele>1267</ele>
        <time>2010-01-01T02:09:33Z</time>
      </trkpt>
      <trkpt lat="46.25117" lon="6.82509">
        <ele>1269</ele>
        <time>2010-01-01T02:09:38Z</time>
      </trkpt>
      <trkpt lat="46.25135" lon="6.82526">
        <ele>1270</ele>
        <time>2010-01-01T02:09:46Z</time>
      </trkpt>
      <trkpt lat="46.25143" lon="6.82536">
        <ele>1270</ele>
        <time>2010-01-01T02:09:51Z</time>
      </trkpt>
      <trkpt lat="46.25171" lon="6.82564">
        <ele>1271</ele>
        <time>2010-01-01T02:10:04Z</time>
      </trkpt>
      <trkpt lat="46.25198" lon="6.82587">
        <ele>1271</ele>
        <time>2010-01-01T02:10:17Z</time>
      </trkpt>
      <trkpt lat="46.25207" lon="6.826">
        <ele>1270</ele>
        <time>2010-01-01T02:10:22Z</time>
      </trkpt>
      <trkpt lat="46.25215" lon="6.82615">
        <ele>1269</ele>
        <time>2010-01-01T02:10:27Z</time>
      </trkpt>
      <trkpt lat="46.25224" lon="6.82642">
        <ele>1268</ele>
        <time>2010-01-01T02:10:35Z</time>
      </trkpt>
      <trkpt lat="46.25228" lon="6.82659">
        <ele>1267</ele>
        <time>2010-01-01T02:10:40Z</time>
      </trkpt>
      <trkpt lat="46.25237" lon="6.82753">
        <ele>1265</ele>
        <time>2010-01-01T02:11:07Z</time>
      </trkpt>
      <trkpt lat="46.25239" lon="6.82821">
        <ele>1264</ele>
        <time>2010-01-01T02:11:26Z</time>
      </trkpt>
      <trkpt lat="46.25238" lon="6.82894">
        <ele>1263</ele>
        <time>2010-01-01T02:11:46Z</time>
      </trkpt>
      <trkpt lat="46.25235" lon="6.82939">
        <ele>1263</ele>
        <time>2010-01-01T02:11:58Z</time>
      </trkpt>
      <trkpt lat="46.2523" lon="6.82956">
        <ele>1263</ele>
        <time>2010-01-01T02:12:03Z</time>
      </trkpt>
      <trkpt lat="46.2523" lon="6.82973">
        <ele>1263</ele>
        <time>2010-01-01T02:12:08Z</time>
      </trkpt>
      <trkpt lat="46.25236" lon="6.83031">
        <ele>1261</ele>
        <time>2010-01-01T02:12:24Z</time>
      </trkpt>
      <trkpt lat="46.25251" lon="6.83096">
        <ele>1261</ele>
        <time>2010-01-01T02:12:43Z</time>
      </trkpt>
      <trkpt lat="46.25258" lon="6.83117">
        <ele>1260</ele>
        <time>2010-01-01T02:12:50Z</time>
      </trkpt>
      <trkpt lat="46.25276" lon="6.83154">
        <ele>1258</ele>
        <time>2010-01-01T02:13:02Z</time>
      </trkpt>
      <trkpt lat="46.25297" lon="6.83202">
        <ele>1257</ele>
        <time>2010-01-01T02:13:18Z</time>
      </trkpt>
      <trkpt lat="46.25306" lon="6.83225">
        <ele>1256</ele>
        <time>2010-01-01T02:13:25Z</time>
      </trkpt>
      <trkpt lat="46.25325" lon="6.83261">
        <ele>1255</ele>
        <time>2010-01-01T02:13:38Z</time>
      </trkpt>
      <trkpt lat="46.25336" lon="6.83304">
        <ele>1255</ele>
        <time>2010-01-01T02:13:50Z</time>
      </trkpt>
      <trkpt lat="46.25343" lon="6.83323">
        <ele>1254</ele>
        <time>2010-01-01T02:13:56Z</time>
      </trkpt>
      <trkpt lat="46.25396" lon="6.83418">
        <ele>1250</ele>
        <time>2010-01-01T02:14:30Z</time>
      </trkpt>
      <trkpt lat="46.25422" lon="6.83454">
        <ele>1250</ele>
        <time>2010-01-01T02:14:44Z</time>
      </trkpt>
      <trkpt lat="46.25422" lon="6.83454">
        <ele>1250</ele>
        <time>2010-01-01T02:14:44Z</time>
      </trkpt>
      <trkpt lat="46.25453" lon="6.8352">
        <ele>1249</ele>
        <time>2010-01-01T02:15:07Z</time>
      </trkpt>
      <trkpt lat="46.2547" lon="6.83564">
        <ele>1249</ele>
        <time>2010-01-01T02:15:21Z</time>
      </trkpt>
      <trkpt lat="46.25477" lon="6.83591">
        <ele>1251</ele>
        <time>2010-01-01T02:15:28Z</time>
      </trkpt>
      <trkpt lat="46.25495" lon="6.83615">
        <ele>1256</ele>
        <time>2010-01-01T02:15:38Z</time>
      </trkpt>
      <trkpt lat="46.25506" lon="6.83644">
        <ele>1256</ele>
        <time>2010-01-01T02:15:47Z</time>
      </trkpt>
      <trkpt lat="46.25541" lon="6.83717">
        <ele>1259</ele>
        <time>2010-01-01T02:16:12Z</time>
      </trkpt>
      <trkpt lat="46.25554" lon="6.83737">
        <ele>1261</ele>
        <time>2010-01-01T02:16:20Z</time>
      </trkpt>
      <trkpt lat="46.25581" lon="6.83769">
        <ele>1262</ele>
        <time>2010-01-01T02:16:33Z</time>
      </trkpt>
      <trkpt lat="46.25602" lon="6.83803">
        <ele>1263</ele>
        <time>2010-01-01T02:16:46Z</time>
      </trkpt>
      <trkpt lat="46.25622" lon="6.83838">
        <ele>1263</ele>
        <time>2010-01-01T02:16:59Z</time>
      </trkpt>
      <trkpt lat="46.25653" lon="6.83921">
        <ele>1262</ele>
        <time>2010-01-01T02:17:25Z</time>
      </trkpt>
      <trkpt lat="46.25665" lon="6.83939">
        <ele>1262</ele>
        <time>2010-01-01T02:17:32Z</time>
      </trkpt>
      <trkpt lat="46.25684" lon="6.83953">
        <ele>1261</ele>
        <time>2010-01-01T02:17:40Z</time>
      </trkpt>
      <trkpt lat="46.257" lon="6.83973">
        <ele>1260</ele>
        <time>2010-01-01T02:17:49Z</time>
      </trkpt>
      <trkpt lat="46.25724" lon="6.84004">
        <ele>1258</ele>
        <time>2010-01-01T02:18:02Z</time>
      </trkpt>
      <trkpt lat="46.25736" lon="6.84029">
        <ele>1256</ele>
        <time>2010-01-01T02:18:10Z</time>
      </trkpt>
      <trkpt lat="46.25739" lon="6.84033">
        <ele>1255</ele>
        <time>2010-01-01T02:18:12Z</time>
      </trkpt>
      <trkpt lat="46.2575" lon="6.8404">
        <ele>1255</ele>
        <time>2010-01-01T02:18:16Z</time>
      </trkpt>
      <trkpt lat="46.25756" lon="6.84057">
        <ele>1254</ele>
        <time>2010-01-01T02:18:22Z</time>
      </trkpt>
      <trkpt lat="46.2576" lon="6.84064">
        <ele>1254</ele>
        <time>2010-01-01T02:18:24Z</time>
      </trkpt>
      <trkpt lat="46.2577" lon="6.84072">
        <ele>1254</ele>
        <time>2010-01-01T02:18:29Z</time>
      </trkpt>
      <trkpt lat="46.25777" lon="6.8408">
        <ele>1253</ele>
        <time>2010-01-01T02:18:33Z</time>
      </trkpt>
      <trkpt lat="46.25796" lon="6.84132">
        <ele>1253</ele>
        <time>2010-01-01T02:18:49Z</time>
      </trkpt>
      <trkpt lat="46.25801" lon="6.84153">
        <ele>1252</ele>
        <time>2010-01-01T02:18:55Z</time>
      </trkpt>
      <trkpt lat="46.25816" lon="6.84203">
        <ele>1252</ele>
        <time>2010-01-01T02:19:10Z</time>
      </trkpt>
      <trkpt lat="46.25818" lon="6.84223">
        <ele>1252</ele>
        <time>2010-01-01T02:19:16Z</time>
      </trkpt>
      <trkpt lat="46.25818" lon="6.84216">
        <ele>1251</ele>
        <time>2010-01-01T02:19:17Z</time>
      </trkpt>
      <trkpt lat="46.25809" lon="6.84182">
        <ele>1250</ele>
        <time>2010-01-01T02:19:27Z</time>
      </trkpt>
      <trkpt lat="46.25795" lon="6.84135">
        <ele>1248</ele>
        <time>2010-01-01T02:19:42Z</time>
      </trkpt>
      <trkpt lat="46.25776" lon="6.84079">
        <ele>1246</ele>
        <time>2010-01-01T02:19:59Z</time>
      </trkpt>
      <trkpt lat="46.2577" lon="6.8407">
        <ele>1247</ele>
        <time>2010-01-01T02:20:02Z</time>
      </trkpt>
      <trkpt lat="46.25762" lon="6.84065">
        <ele>1247</ele>
        <time>2010-01-01T02:20:06Z</time>
      </trkpt>
      <trkpt lat="46.25761" lon="6.84059">
        <ele>1247</ele>
        <time>2010-01-01T02:20:07Z</time>
      </trkpt>
      <trkpt lat="46.2577" lon="6.84042">
        <ele>1247</ele>
        <time>2010-01-01T02:20:13Z</time>
      </trkpt>
      <trkpt lat="46.25792" lon="6.84043">
        <ele>1246</ele>
        <time>2010-01-01T02:20:22Z</time>
      </trkpt>
      <trkpt lat="46.2584" lon="6.84058">
        <ele>1243</ele>
        <time>2010-01-01T02:20:42Z</time>
      </trkpt>
      <trkpt lat="46.2584" lon="6.84058">
        <ele>1243</ele>
        <time>2010-01-01T02:20:42Z</time>
      </trkpt>
      <trkpt lat="46.25883" lon="6.8407">
        <ele>1242</ele>
        <time>2010-01-01T02:20:59Z</time>
      </trkpt>
      <trkpt lat="46.25952" lon="6.84087">
        <ele>1239</ele>
        <time>2010-01-01T02:21:27Z</time>
      </trkpt>
      <trkpt lat="46.25969" lon="6.84089">
        <ele>1239</ele>
        <time>2010-01-01T02:21:34Z</time>
      </trkpt>
      <trkpt lat="46.25994" lon="6.84089">
        <ele>1238</ele>
        <time>2010-01-01T02:21:44Z</time>
      </trkpt>
      <trkpt lat="46.2605" lon="6.8408">
        <ele>1235</ele>
        <time>2010-01-01T02:22:07Z</time>
      </trkpt>
      <trkpt lat="46.26083" lon="6.84072">
        <ele>1233</ele>
        <time>2010-01-01T02:22:20Z</time>
      </trkpt>
      <trkpt lat="46.2611" lon="6.84069">
        <ele>1231</ele>
        <time>2010-01-01T02:22:31Z</time>
      </trkpt>
      <trkpt lat="46.26128" lon="6.84069">
        <ele>1230</ele>
        <time>2010-01-01T02:22:38Z</time>
      </trkpt>
      <trkpt lat="46.26147" lon="6.84071">
        <ele>1229</ele>
        <time>2010-01-01T02:22:46Z</time>
      </trkpt>
      <trkpt lat="46.26221" lon="6.8409">
        <ele>1226</ele>
        <time>2010-01-01T02:23:16Z</time>
      </trkpt>
      <trkpt lat="46.26278" lon="6.84109">
        <ele>1222</ele>
        <time>2010-01-01T02:23:39Z</time>
      </trkpt>
      <trkpt lat="46.26307" lon="6.84122">
        <ele>1220</ele>
        <time>2010-01-01T02:23:51Z</time>
      </trkpt>
      <trkpt lat="46.26326" lon="6.84128">
        <ele>1220</ele>
        <time>2010-01-01T02:23:59Z</time>
      </trkpt>
      <trkpt lat="46.26375" lon="6.84142">
        <ele>1217</ele>
        <time>2010-01-01T02:24:19Z</time>
      </trkpt>
      <trkpt lat="46.26403" lon="6.84153">
        <ele>1215</ele>
        <time>2010-01-01T02:24:31Z</time>
      </trkpt>
      <trkpt lat="46.26451" lon="6.84167">
        <ele>1212</ele>
        <time>2010-01-01T02:24:51Z</time>
      </trkpt>
      <trkpt lat="46.2648" lon="6.84174">
        <ele>1210</ele>
        <time>2010-01-01T02:25:02Z</time>
      </trkpt>
      <trkpt lat="46.2652" lon="6.84175">
        <ele>1208</ele>
        <time>2010-01-01T02:25:18Z</time>
      </trkpt>
      <trkpt lat="46.2656" lon="6.84169">
        <ele>1206</ele>
        <time>2010-01-01T02:25:34Z</time>
      </trkpt>
      <trkpt lat="46.2659" lon="6.84161">
        <ele>1204</ele>
        <time>2010-01-01T02:25:47Z</time>
      </trkpt>
      <trkpt lat="46.26643" lon="6.84139">
        <ele>1202</ele>
        <time>2010-01-01T02:26:09Z</time>
      </trkpt>
      <trkpt lat="46.26651" lon="6.84139">
        <ele>1203</ele>
        <time>2010-01-01T02:26:12Z</time>
      </trkpt>
      <trkpt lat="46.26665" lon="6.84143">
        <ele>1201</ele>
        <time>2010-01-01T02:26:18Z</time>
      </trkpt>
      <trkpt lat="46.26684" lon="6.84144">
        <ele>1200</ele>
        <time>2010-01-01T02:26:25Z</time>
      </trkpt>
      <trkpt lat="46.26703" lon="6.84146">
        <ele>1198</ele>
        <time>2010-01-01T02:26:33Z</time>
      </trkpt>
      <trkpt lat="46.26708" lon="6.84148">
        <ele>1198</ele>
        <time>2010-01-01T02:26:35Z</time>
      </trkpt>
      <trkpt lat="46.26714" lon="6.84157">
        <ele>1197</ele>
        <time>2010-01-01T02:26:38Z</time>
      </trkpt>
      <trkpt lat="46.26717" lon="6.84159">
        <ele>1198</ele>
        <time>2010-01-01T02:26:40Z</time>
      </trkpt>
      <trkpt lat="46.26717" lon="6.84159">
        <ele>1198</ele>
        <time>2010-01-01T02:26:40Z</time>
      </trkpt>
      <trkpt lat="46.26733" lon="6.84173">
        <ele>1198</ele>
        <time>2010-01-01T02:26:47Z</time>
      </trkpt>
      <trkpt lat="46.26734" lon="6.84175">
        <ele>1198</ele>
        <time>2010-01-01T02:26:48Z</time>
      </trkpt>
      <trkpt lat="46.26732" lon="6.84183">
        <ele>1197</ele>
        <time>2010-01-01T02:26:50Z</time>
      </trkpt>
      <trkpt lat="46.2673" lon="6.84186">
        <ele>1197</ele>
        <time>2010-01-01T02:26:52Z</time>
      </trkpt>
      <trkpt lat="46.26709" lon="6.84197">
        <ele>1198</ele>
        <time>2010-01-01T02:27:00Z</time>
      </trkpt>
      <trkpt lat="46.26672" lon="6.84223">
        <ele>1201</ele>
        <time>2010-01-01T02:27:17Z</time>
      </trkpt>
      <trkpt lat="46.26668" lon="6.84225">
        <ele>1201</ele>
        <time>2010-01-01T02:27:19Z</time>
      </trkpt>
      <trkpt lat="46.26666" lon="6.84229">
        <ele>1202</ele>
        <time>2010-01-01T02:27:20Z</time>
      </trkpt>
      <trkpt lat="46.2666" lon="6.84227">
        <ele>1203</ele>
        <time>2010-01-01T02:27:22Z</time>
      </trkpt>
      <trkpt lat="46.26659" lon="6.84233">
        <ele>1202</ele>
        <time>2010-01-01T02:27:24Z</time>
      </trkpt>
      <trkpt lat="46.26662" lon="6.84256">
        <ele>1202</ele>
        <time>2010-01-01T02:27:30Z</time>
      </trkpt>
      <trkpt lat="46.26665" lon="6.84261">
        <ele>1201</ele>
        <time>2010-01-01T02:27:32Z</time>
      </trkpt>
      <trkpt lat="46.26668" lon="6.84263">
        <ele>1201</ele>
        <time>2010-01-01T02:27:34Z</time>
      </trkpt>
      <trkpt lat="46.26667" lon="6.84245">
        <ele>1199</ele>
        <time>2010-01-01T02:27:39Z</time>
      </trkpt>
      <trkpt lat="46.26668" lon="6.84246">
        <ele>1199</ele>
        <time>2010-01-01T02:27:39Z</time>
      </trkpt>
      <trkpt lat="46.26673" lon="6.84239">
        <ele>1198</ele>
        <time>2010-01-01T02:27:42Z</time>
      </trkpt>
      <trkpt lat="46.26678" lon="6.8424">
        <ele>1197</ele>
        <time>2010-01-01T02:27:44Z</time>
      </trkpt>
      <trkpt lat="46.26683" lon="6.84256">
        <ele>1198</ele>
        <time>2010-01-01T02:27:49Z</time>
      </trkpt>
      <trkpt lat="46.26682" lon="6.84262">
        <ele>1199</ele>
        <time>2010-01-01T02:27:51Z</time>
      </trkpt>
      <trkpt lat="46.26683" lon="6.8428">
        <ele>1202</ele>
        <time>2010-01-01T02:27:56Z</time>
      </trkpt>
      <trkpt lat="46.26681" lon="6.84294">
        <ele>1200</ele>
        <time>2010-01-01T02:28:00Z</time>
      </trkpt>
      <trkpt lat="46.26681" lon="6.84312">
        <ele>1202</ele>
        <time>2010-01-01T02:28:04Z</time>
      </trkpt>
      <trkpt lat="46.26678" lon="6.84339">
        <ele>1211</ele>
        <time>2010-01-01T02:28:12Z</time>
      </trkpt>
      <trkpt lat="46.26683" lon="6.84412">
        <ele>1233</ele>
        <time>2010-01-01T02:28:32Z</time>
      </trkpt>
      <trkpt lat="46.26683" lon="6.8444">
        <ele>1243</ele>
        <time>2010-01-01T02:28:40Z</time>
      </trkpt>
      <trkpt lat="46.26687" lon="6.84498">
        <ele>1269</ele>
        <time>2010-01-01T02:28:56Z</time>
      </trkpt>
      <trkpt lat="46.267" lon="6.84737">
        <ele>1395</ele>
        <time>2010-01-01T02:30:03Z</time>
      </trkpt>
      <trkpt lat="46.26705" lon="6.84788">
        <ele>1430</ele>
        <time>2010-01-01T02:30:17Z</time>
      </trkpt>
      <trkpt lat="46.26704" lon="6.84808">
        <ele>1442</ele>
        <time>2010-01-01T02:30:22Z</time>
      </trkpt>
      <trkpt lat="46.26714" lon="6.84914">
        <ele>1487</ele>
        <time>2010-01-01T02:30:52Z</time>
      </trkpt>
      <trkpt lat="46.26726" lon="6.84976">
        <ele>1505</ele>
        <time>2010-01-01T02:31:10Z</time>
      </trkpt>
      <trkpt lat="46.26726" lon="6.85009">
        <ele>1511</ele>
        <time>2010-01-01T02:31:19Z</time>
      </trkpt>
      <trkpt lat="46.2673" lon="6.85073">
        <ele>1525</ele>
        <time>2010-01-01T02:31:37Z</time>
      </trkpt>
      <trkpt lat="46.26733" lon="6.85159">
        <ele>1543</ele>
        <time>2010-01-01T02:32:00Z</time>
      </trkpt>
      <trkpt lat="46.26733" lon="6.85159">
        <ele>1543</ele>
        <time>2010-01-01T02:32:00Z</time>
      </trkpt>
      <trkpt lat="46.26742" lon="6.85281">
        <ele>1544</ele>
        <time>2010-01-01T02:32:35Z</time>
      </trkpt>
      <trkpt lat="46.26741" lon="6.85292">
        <ele>1544</ele>
        <time>2010-01-01T02:32:38Z</time>
      </trkpt>
      <trkpt lat="46.26746" lon="6.85336">
        <ele>1546</ele>
        <time>2010-01-01T02:32:50Z</time>
      </trkpt>
      <trkpt lat="46.26748" lon="6.85374">
        <ele>1548</ele>
        <time>2010-01-01T02:33:01Z</time>
      </trkpt>
      <trkpt lat="46.26748" lon="6.85404">
        <ele>1551</ele>
        <time>2010-01-01T02:33:09Z</time>
      </trkpt>
      <trkpt lat="46.26751" lon="6.85436">
        <ele>1555</ele>
        <time>2010-01-01T02:33:18Z</time>
      </trkpt>
      <trkpt lat="46.26758" lon="6.85616">
        <ele>1604</ele>
        <time>2010-01-01T02:34:07Z</time>
      </trkpt>
      <trkpt lat="46.26763" lon="6.85652">
        <ele>1619</ele>
        <time>2010-01-01T02:34:18Z</time>
      </trkpt>
      <trkpt lat="46.26767" lon="6.8569">
        <ele>1630</ele>
        <time>2010-01-01T02:34:28Z</time>
      </trkpt>
      <trkpt lat="46.2677" lon="6.85731">
        <ele>1634</ele>
        <time>2010-01-01T02:34:40Z</time>
      </trkpt>
      <trkpt lat="46.26769" lon="6.8574">
        <ele>1636</ele>
        <time>2010-01-01T02:34:42Z</time>
      </trkpt>
      <trkpt lat="46.26773" lon="6.85755">
        <ele>1634</ele>
        <time>2010-01-01T02:34:47Z</time>
      </trkpt>
      <trkpt lat="46.26771" lon="6.85768">
        <ele>1634</ele>
        <time>2010-01-01T02:34:50Z</time>
      </trkpt>
      <trkpt lat="46.26772" lon="6.85783">
        <ele>1633</ele>
        <time>2010-01-01T02:34:55Z</time>
      </trkpt>
      <trkpt lat="46.26771" lon="6.85785">
        <ele>1633</ele>
        <time>2010-01-01T02:34:55Z</time>
      </trkpt>
      <trkpt lat="46.26778" lon="6.85776">
        <ele>1635</ele>
        <time>2010-01-01T02:34:59Z</time>
      </trkpt>
      <trkpt lat="46.2678" lon="6.85775">
        <ele>1636</ele>
        <time>2010-01-01T02:35:00Z</time>
      </trkpt>
      <trkpt lat="46.26782" lon="6.85776">
        <ele>1636</ele>
        <time>2010-01-01T02:35:01Z</time>
      </trkpt>
      <trkpt lat="46.26782" lon="6.8578">
        <ele>1636</ele>
        <time>2010-01-01T02:35:02Z</time>
      </trkpt>
      <trkpt lat="46.2678" lon="6.85785">
        <ele>1636</ele>
        <time>2010-01-01T02:35:03Z</time>
      </trkpt>
      <trkpt lat="46.26772" lon="6.85787">
        <ele>1637</ele>
        <time>2010-01-01T02:35:06Z</time>
      </trkpt>
      <trkpt lat="46.26761" lon="6.85798">
        <ele>1640</ele>
        <time>2010-01-01T02:35:12Z</time>
      </trkpt>
      <trkpt lat="46.26751" lon="6.85802">
        <ele>1641</ele>
        <time>2010-01-01T02:35:16Z</time>
      </trkpt>
      <trkpt lat="46.26736" lon="6.85818">
        <ele>1640</ele>
        <time>2010-01-01T02:35:24Z</time>
      </trkpt>
      <trkpt lat="46.26727" lon="6.85825">
        <ele>1642</ele>
        <time>2010-01-01T02:35:27Z</time>
      </trkpt>
      <trkpt lat="46.26692" lon="6.85877">
        <ele>1645</ele>
        <time>2010-01-01T02:35:47Z</time>
      </trkpt>
      <trkpt lat="46.26673" lon="6.85904">
        <ele>1646</ele>
        <time>2010-01-01T02:35:58Z</time>
      </trkpt>
      <trkpt lat="46.26655" lon="6.85925">
        <ele>1647</ele>
        <time>2010-01-01T02:36:07Z</time>
      </trkpt>
      <trkpt lat="46.26631" lon="6.85942">
        <ele>1649</ele>
        <time>2010-01-01T02:36:18Z</time>
      </trkpt>
      <trkpt lat="46.26625" lon="6.85951">
        <ele>1649</ele>
        <time>2010-01-01T02:36:22Z</time>
      </trkpt>
      <trkpt lat="46.26612" lon="6.85964">
        <ele>1652</ele>
        <time>2010-01-01T02:36:28Z</time>
      </trkpt>
      <trkpt lat="46.26607" lon="6.85972">
        <ele>1653</ele>
        <time>2010-01-01T02:36:31Z</time>
      </trkpt>
      <trkpt lat="46.26598" lon="6.85977">
        <ele>1655</ele>
        <time>2010-01-01T02:36:35Z</time>
      </trkpt>
      <trkpt lat="46.26587" lon="6.85989">
        <ele>1657</ele>
        <time>2010-01-01T02:36:40Z</time>
      </trkpt>
      <trkpt lat="46.26573" lon="6.86009">
        <ele>1659</ele>
        <time>2010-01-01T02:36:48Z</time>
      </trkpt>
      <trkpt lat="46.2655" lon="6.86033">
        <ele>1662</ele>
        <time>2010-01-01T02:37:00Z</time>
      </trkpt>
      <trkpt lat="46.26527" lon="6.86051">
        <ele>1662</ele>
        <time>2010-01-01T02:37:10Z</time>
      </trkpt>
      <trkpt lat="46.26519" lon="6.86055">
        <ele>1663</ele>
        <time>2010-01-01T02:37:13Z</time>
      </trkpt>
      <trkpt lat="46.26508" lon="6.86066">
        <ele>1664</ele>
        <time>2010-01-01T02:37:19Z</time>
      </trkpt>
      <trkpt lat="46.265" lon="6.8607">
        <ele>1665</ele>
        <time>2010-01-01T02:37:22Z</time>
      </trkpt>
      <trkpt lat="46.26493" lon="6.86077">
        <ele>1666</ele>
        <time>2010-01-01T02:37:25Z</time>
      </trkpt>
      <trkpt lat="46.26485" lon="6.86088">
        <ele>1668</ele>
        <time>2010-01-01T02:37:30Z</time>
      </trkpt>
      <trkpt lat="46.26477" lon="6.86103">
        <ele>1671</ele>
        <time>2010-01-01T02:37:35Z</time>
      </trkpt>
      <trkpt lat="46.26471" lon="6.86121">
        <ele>1674</ele>
        <time>2010-01-01T02:37:40Z</time>
      </trkpt>
      <trkpt lat="46.2647" lon="6.86128">
        <ele>1675</ele>
        <time>2010-01-01T02:37:42Z</time>
      </trkpt>
      <trkpt lat="46.2647" lon="6.86128">
        <ele>1675</ele>
        <time>2010-01-01T02:37:42Z</time>
      </trkpt>
      <trkpt lat="46.26467" lon="6.8614">
        <ele>1676</ele>
        <time>2010-01-01T02:37:46Z</time>
      </trkpt>
      <trkpt lat="46.26467" lon="6.86155">
        <ele>1679</ele>
        <time>2010-01-01T02:37:50Z</time>
      </trkpt>
      <trkpt lat="46.26477" lon="6.86173">
        <ele>1682</ele>
        <time>2010-01-01T02:37:56Z</time>
      </trkpt>
      <trkpt lat="46.26484" lon="6.8618">
        <ele>1683</ele>
        <time>2010-01-01T02:38:00Z</time>
      </trkpt>
      <trkpt lat="46.26495" lon="6.86184">
        <ele>1684</ele>
        <time>2010-01-01T02:38:05Z</time>
      </trkpt>
      <trkpt lat="46.26508" lon="6.86186">
        <ele>1686</ele>
        <time>2010-01-01T02:38:10Z</time>
      </trkpt>
      <trkpt lat="46.26517" lon="6.86184">
        <ele>1687</ele>
        <time>2010-01-01T02:38:13Z</time>
      </trkpt>
      <trkpt lat="46.26537" lon="6.86186">
        <ele>1688</ele>
        <time>2010-01-01T02:38:21Z</time>
      </trkpt>
      <trkpt lat="46.26545" lon="6.86185">
        <ele>1688</ele>
        <time>2010-01-01T02:38:25Z</time>
      </trkpt>
      <trkpt lat="46.26551" lon="6.86187">
        <ele>1688</ele>
        <time>2010-01-01T02:38:27Z</time>
      </trkpt>
      <trkpt lat="46.26561" lon="6.86187">
        <ele>1689</ele>
        <time>2010-01-01T02:38:31Z</time>
      </trkpt>
      <trkpt lat="46.26568" lon="6.86189">
        <ele>1689</ele>
        <time>2010-01-01T02:38:34Z</time>
      </trkpt>
      <trkpt lat="46.26592" lon="6.86205">
        <ele>1690</ele>
        <time>2010-01-01T02:38:45Z</time>
      </trkpt>
      <trkpt lat="46.26606" lon="6.86226">
        <ele>1692</ele>
        <time>2010-01-01T02:38:52Z</time>
      </trkpt>
      <trkpt lat="46.26608" lon="6.86235">
        <ele>1693</ele>
        <time>2010-01-01T02:38:55Z</time>
      </trkpt>
      <trkpt lat="46.26609" lon="6.86248">
        <ele>1694</ele>
        <time>2010-01-01T02:38:59Z</time>
      </trkpt>
      <trkpt lat="46.26602" lon="6.86266">
        <ele>1694</ele>
        <time>2010-01-01T02:39:05Z</time>
      </trkpt>
      <trkpt lat="46.26566" lon="6.86331">
        <ele>1694</ele>
        <time>2010-01-01T02:39:28Z</time>
      </trkpt>
      <trkpt lat="46.26559" lon="6.86347">
        <ele>1696</ele>
        <time>2010-01-01T02:39:33Z</time>
      </trkpt>
      <trkpt lat="46.26551" lon="6.86374">
        <ele>1697</ele>
        <time>2010-01-01T02:39:41Z</time>
      </trkpt>
      <trkpt lat="46.26548" lon="6.864">
        <ele>1700</ele>
        <time>2010-01-01T02:39:48Z</time>
      </trkpt>
      <trkpt lat="46.26544" lon="6.86422">
        <ele>1701</ele>
        <time>2010-01-01T02:39:54Z</time>
      </trkpt>
      <trkpt lat="46.26543" lon="6.86433">
        <ele>1702</ele>
        <time>2010-01-01T02:39:57Z</time>
      </trkpt>
      <trkpt lat="46.26547" lon="6.8645">
        <ele>1701</ele>
        <time>2010-01-01T02:40:02Z</time>
      </trkpt>
      <trkpt lat="46.26548" lon="6.86462">
        <ele>1700</ele>
        <time>2010-01-01T02:40:06Z</time>
      </trkpt>
      <trkpt lat="46.26541" lon="6.86535">
        <ele>1698</ele>
        <time>2010-01-01T02:40:26Z</time>
      </trkpt>
      <trkpt lat="46.26545" lon="6.86558">
        <ele>1697</ele>
        <time>2010-01-01T02:40:33Z</time>
      </trkpt>
      <trkpt lat="46.26557" lon="6.86581">
        <ele>1698</ele>
        <time>2010-01-01T02:40:41Z</time>
      </trkpt>
      <trkpt lat="46.26558" lon="6.86588">
        <ele>1698</ele>
        <time>2010-01-01T02:40:43Z</time>
      </trkpt>
      <trkpt lat="46.26561" lon="6.86607">
        <ele>1698</ele>
        <time>2010-01-01T02:40:48Z</time>
      </trkpt>
      <trkpt lat="46.26562" lon="6.86647">
        <ele>1697</ele>
        <time>2010-01-01T02:40:59Z</time>
      </trkpt>
      <trkpt lat="46.26555" lon="6.86672">
        <ele>1697</ele>
        <time>2010-01-01T02:41:07Z</time>
      </trkpt>
      <trkpt lat="46.26535" lon="6.86712">
        <ele>1695</ele>
        <time>2010-01-01T02:41:20Z</time>
      </trkpt>
      <trkpt lat="46.26529" lon="6.86732">
        <ele>1696</ele>
        <time>2010-01-01T02:41:26Z</time>
      </trkpt>
      <trkpt lat="46.26525" lon="6.86759">
        <ele>1695</ele>
        <time>2010-01-01T02:41:34Z</time>
      </trkpt>
      <trkpt lat="46.2652" lon="6.86771">
        <ele>1695</ele>
        <time>2010-01-01T02:41:38Z</time>
      </trkpt>
      <trkpt lat="46.26516" lon="6.86776">
        <ele>1695</ele>
        <time>2010-01-01T02:41:40Z</time>
      </trkpt>
      <trkpt lat="46.26498" lon="6.86788">
        <ele>1694</ele>
        <time>2010-01-01T02:41:48Z</time>
      </trkpt>
      <trkpt lat="46.26425" lon="6.86846">
        <ele>1692</ele>
        <time>2010-01-01T02:42:21Z</time>
      </trkpt>
      <trkpt lat="46.26384" lon="6.86873">
        <ele>1693</ele>
        <time>2010-01-01T02:42:39Z</time>
      </trkpt>
      <trkpt lat="46.26361" lon="6.86891">
        <ele>1695</ele>
        <time>2010-01-01T02:42:49Z</time>
      </trkpt>
      <trkpt lat="46.26353" lon="6.86895">
        <ele>1696</ele>
        <time>2010-01-01T02:42:53Z</time>
      </trkpt>
      <trkpt lat="46.26316" lon="6.86907">
        <ele>1698</ele>
        <time>2010-01-01T02:43:08Z</time>
      </trkpt>
      <trkpt lat="46.26303" lon="6.86916">
        <ele>1699</ele>
        <time>2010-01-01T02:43:14Z</time>
      </trkpt>
      <trkpt lat="46.26289" lon="6.86927">
        <ele>1700</ele>
        <time>2010-01-01T02:43:20Z</time>
      </trkpt>
      <trkpt lat="46.26284" lon="6.86935">
        <ele>1700</ele>
        <time>2010-01-01T02:43:23Z</time>
      </trkpt>
      <trkpt lat="46.26271" lon="6.86949">
        <ele>1700</ele>
        <time>2010-01-01T02:43:30Z</time>
      </trkpt>
      <trkpt lat="46.26265" lon="6.86961">
        <ele>1701</ele>
        <time>2010-01-01T02:43:34Z</time>
      </trkpt>
      <trkpt lat="46.26263" lon="6.86973">
        <ele>1701</ele>
        <time>2010-01-01T02:43:37Z</time>
      </trkpt>
      <trkpt lat="46.26263" lon="6.86973">
        <ele>1701</ele>
        <time>2010-01-01T02:43:37Z</time>
      </trkpt>
      <trkpt lat="46.26256" lon="6.87003">
        <ele>1703</ele>
        <time>2010-01-01T02:43:46Z</time>
      </trkpt>
      <trkpt lat="46.26255" lon="6.87028">
        <ele>1705</ele>
        <time>2010-01-01T02:43:53Z</time>
      </trkpt>
      <trkpt lat="46.2625" lon="6.87053">
        <ele>1707</ele>
        <time>2010-01-01T02:44:00Z</time>
      </trkpt>
      <trkpt lat="46.26247" lon="6.87086">
        <ele>1709</ele>
        <time>2010-01-01T02:44:10Z</time>
      </trkpt>
      <trkpt lat="46.26249" lon="6.87106">
        <ele>1711</ele>
        <time>2010-01-01T02:44:15Z</time>
      </trkpt>
      <trkpt lat="46.26247" lon="6.87112">
        <ele>1711</ele>
        <time>2010-01-01T02:44:17Z</time>
      </trkpt>
      <trkpt lat="46.26243" lon="6.87115">
        <ele>1711</ele>
        <time>2010-01-01T02:44:19Z</time>
      </trkpt>
      <trkpt lat="46.26232" lon="6.87108">
        <ele>1712</ele>
        <time>2010-01-01T02:44:24Z</time>
      </trkpt>
      <trkpt lat="46.26221" lon="6.87095">
        <ele>1714</ele>
        <time>2010-01-01T02:44:30Z</time>
      </trkpt>
      <trkpt lat="46.26208" lon="6.87083">
        <ele>1715</ele>
        <time>2010-01-01T02:44:36Z</time>
      </trkpt>
      <trkpt lat="46.26203" lon="6.87075">
        <ele>1715</ele>
        <time>2010-01-01T02:44:39Z</time>
      </trkpt>
      <trkpt lat="46.26197" lon="6.87061">
        <ele>1714</ele>
        <time>2010-01-01T02:44:43Z</time>
      </trkpt>
      <trkpt lat="46.26196" lon="6.87043">
        <ele>1716</ele>
        <time>2010-01-01T02:44:48Z</time>
      </trkpt>
      <trkpt lat="46.26201" lon="6.87002">
        <ele>1718</ele>
        <time>2010-01-01T02:45:00Z</time>
      </trkpt>
      <trkpt lat="46.26198" lon="6.86946">
        <ele>1721</ele>
        <time>2010-01-01T02:45:15Z</time>
      </trkpt>
      <trkpt lat="46.26191" lon="6.86912">
        <ele>1724</ele>
        <time>2010-01-01T02:45:25Z</time>
      </trkpt>
      <trkpt lat="46.26191" lon="6.86901">
        <ele>1725</ele>
        <time>2010-01-01T02:45:28Z</time>
      </trkpt>
      <trkpt lat="46.26188" lon="6.86874">
        <ele>1727</ele>
        <time>2010-01-01T02:45:36Z</time>
      </trkpt>
      <trkpt lat="46.26188" lon="6.86861">
        <ele>1728</ele>
        <time>2010-01-01T02:45:39Z</time>
      </trkpt>
      <trkpt lat="46.26182" lon="6.86828">
        <ele>1731</ele>
        <time>2010-01-01T02:45:49Z</time>
      </trkpt>
      <trkpt lat="46.26184" lon="6.86811">
        <ele>1733</ele>
        <time>2010-01-01T02:45:53Z</time>
      </trkpt>
      <trkpt lat="46.26189" lon="6.86802">
        <ele>1734</ele>
        <time>2010-01-01T02:45:56Z</time>
      </trkpt>
      <trkpt lat="46.262" lon="6.86792">
        <ele>1734</ele>
        <time>2010-01-01T02:46:02Z</time>
      </trkpt>
      <trkpt lat="46.26201" lon="6.86789">
        <ele>1735</ele>
        <time>2010-01-01T02:46:03Z</time>
      </trkpt>
      <trkpt lat="46.262" lon="6.86783">
        <ele>1735</ele>
        <time>2010-01-01T02:46:04Z</time>
      </trkpt>
      <trkpt lat="46.26196" lon="6.8678">
        <ele>1735</ele>
        <time>2010-01-01T02:46:06Z</time>
      </trkpt>
      <trkpt lat="46.26193" lon="6.86782">
        <ele>1736</ele>
        <time>2010-01-01T02:46:07Z</time>
      </trkpt>
      <trkpt lat="46.26176" lon="6.86798">
        <ele>1738</ele>
        <time>2010-01-01T02:46:15Z</time>
      </trkpt>
      <trkpt lat="46.26172" lon="6.86805">
        <ele>1740</ele>
        <time>2010-01-01T02:46:18Z</time>
      </trkpt>
      <trkpt lat="46.26168" lon="6.8682">
        <ele>1742</ele>
        <time>2010-01-01T02:46:22Z</time>
      </trkpt>
      <trkpt lat="46.26159" lon="6.86865">
        <ele>1746</ele>
        <time>2010-01-01T02:46:35Z</time>
      </trkpt>
      <trkpt lat="46.26152" lon="6.86913">
        <ele>1747</ele>
        <time>2010-01-01T02:46:49Z</time>
      </trkpt>
      <trkpt lat="46.26143" lon="6.86939">
        <ele>1750</ele>
        <time>2010-01-01T02:46:57Z</time>
      </trkpt>
      <trkpt lat="46.26115" lon="6.86982">
        <ele>1752</ele>
        <time>2010-01-01T02:47:13Z</time>
      </trkpt>
      <trkpt lat="46.26073" lon="6.87038">
        <ele>1757</ele>
        <time>2010-01-01T02:47:36Z</time>
      </trkpt>
      <trkpt lat="46.26068" lon="6.87049">
        <ele>1757</ele>
        <time>2010-01-01T02:47:40Z</time>
      </trkpt>
      <trkpt lat="46.26039" lon="6.87075">
        <ele>1759</ele>
        <time>2010-01-01T02:47:54Z</time>
      </trkpt>
      <trkpt lat="46.26032" lon="6.87077">
        <ele>1760</ele>
        <time>2010-01-01T02:47:56Z</time>
      </trkpt>
      <trkpt lat="46.26019" lon="6.87084">
        <ele>1760</ele>
        <time>2010-01-01T02:48:02Z</time>
      </trkpt>
      <trkpt lat="46.26" lon="6.87084">
        <ele>1761</ele>
        <time>2010-01-01T02:48:09Z</time>
      </trkpt>
      <trkpt lat="46.25972" lon="6.8706">
        <ele>1767</ele>
        <time>2010-01-01T02:48:23Z</time>
      </trkpt>
      <trkpt lat="46.2596" lon="6.87061">
        <ele>1769</ele>
        <time>2010-01-01T02:48:27Z</time>
      </trkpt>
      <trkpt lat="46.25955" lon="6.87064">
        <ele>1770</ele>
        <time>2010-01-01T02:48:29Z</time>
      </trkpt>
      <trkpt lat="46.25946" lon="6.87076">
        <ele>1772</ele>
        <time>2010-01-01T02:48:34Z</time>
      </trkpt>
      <trkpt lat="46.25943" lon="6.87078">
        <ele>1772</ele>
        <time>2010-01-01T02:48:36Z</time>
      </trkpt>
      <trkpt lat="46.25944" lon="6.87077">
        <ele>1773</ele>
        <time>2010-01-01T02:48:36Z</time>
      </trkpt>
      <trkpt lat="46.25946" lon="6.87081">
        <ele>1774</ele>
        <time>2010-01-01T02:48:37Z</time>
      </trkpt>
      <trkpt lat="46.25946" lon="6.87091">
        <ele>1774</ele>
        <time>2010-01-01T02:48:40Z</time>
      </trkpt>
      <trkpt lat="46.25949" lon="6.87102">
        <ele>1775</ele>
        <time>2010-01-01T02:48:43Z</time>
      </trkpt>
      <trkpt lat="46.25956" lon="6.87115">
        <ele>1776</ele>
        <time>2010-01-01T02:48:48Z</time>
      </trkpt>
      <trkpt lat="46.25965" lon="6.87139">
        <ele>1779</ele>
        <time>2010-01-01T02:48:55Z</time>
      </trkpt>
      <trkpt lat="46.25966" lon="6.8715">
        <ele>1779</ele>
        <time>2010-01-01T02:48:58Z</time>
      </trkpt>
      <trkpt lat="46.25964" lon="6.87157">
        <ele>1780</ele>
        <time>2010-01-01T02:49:00Z</time>
      </trkpt>
      <trkpt lat="46.25957" lon="6.87163">
        <ele>1779</ele>
        <time>2010-01-01T02:49:03Z</time>
      </trkpt>
      <trkpt lat="46.2594" lon="6.87168">
        <ele>1780</ele>
        <time>2010-01-01T02:49:10Z</time>
      </trkpt>
      <trkpt lat="46.25918" lon="6.8717">
        <ele>1782</ele>
        <time>2010-01-01T02:49:20Z</time>
      </trkpt>
      <trkpt lat="46.25908" lon="6.87169">
        <ele>1783</ele>
        <time>2010-01-01T02:49:24Z</time>
      </trkpt>
      <trkpt lat="46.25899" lon="6.87166">
        <ele>1784</ele>
        <time>2010-01-01T02:49:27Z</time>
      </trkpt>
      <trkpt lat="46.25899" lon="6.87166">
        <ele>1784</ele>
        <time>2010-01-01T02:49:27Z</time>
      </trkpt>
      <trkpt lat="46.25887" lon="6.87163">
        <ele>1786</ele>
        <time>2010-01-01T02:49:32Z</time>
      </trkpt>
      <trkpt lat="46.25881" lon="6.87164">
        <ele>1786</ele>
        <time>2010-01-01T02:49:34Z</time>
      </trkpt>
      <trkpt lat="46.25874" lon="6.87168">
        <ele>1787</ele>
        <time>2010-01-01T02:49:37Z</time>
      </trkpt>
      <trkpt lat="46.25869" lon="6.87178">
        <ele>1787</ele>
        <time>2010-01-01T02:49:41Z</time>
      </trkpt>
      <trkpt lat="46.25867" lon="6.87184">
        <ele>1787</ele>
        <time>2010-01-01T02:49:43Z</time>
      </trkpt>
      <trkpt lat="46.25868" lon="6.87212">
        <ele>1790</ele>
        <time>2010-01-01T02:49:50Z</time>
      </trkpt>
      <trkpt lat="46.25866" lon="6.87229">
        <ele>1791</ele>
        <time>2010-01-01T02:49:55Z</time>
      </trkpt>
      <trkpt lat="46.25848" lon="6.87274">
        <ele>1797</ele>
        <time>2010-01-01T02:50:09Z</time>
      </trkpt>
      <trkpt lat="46.25831" lon="6.87305">
        <ele>1801</ele>
        <time>2010-01-01T02:50:21Z</time>
      </trkpt>
      <trkpt lat="46.25824" lon="6.87308">
        <ele>1801</ele>
        <time>2010-01-01T02:50:24Z</time>
      </trkpt>
      <trkpt lat="46.25808" lon="6.87306">
        <ele>1804</ele>
        <time>2010-01-01T02:50:30Z</time>
      </trkpt>
      <trkpt lat="46.25803" lon="6.87308">
        <ele>1803</ele>
        <time>2010-01-01T02:50:32Z</time>
      </trkpt>
      <trkpt lat="46.25795" lon="6.87315">
        <ele>1802</ele>
        <time>2010-01-01T02:50:36Z</time>
      </trkpt>
      <trkpt lat="46.25789" lon="6.87317">
        <ele>1801</ele>
        <time>2010-01-01T02:50:38Z</time>
      </trkpt>
      <trkpt lat="46.25773" lon="6.87319">
        <ele>1800</ele>
        <time>2010-01-01T02:50:45Z</time>
      </trkpt>
      <trkpt lat="46.2576" lon="6.87321">
        <ele>1800</ele>
        <time>2010-01-01T02:50:50Z</time>
      </trkpt>
      <trkpt lat="46.25753" lon="6.87325">
        <ele>1800</ele>
        <time>2010-01-01T02:50:53Z</time>
      </trkpt>
      <trkpt lat="46.25747" lon="6.8733">
        <ele>1800</ele>
        <time>2010-01-01T02:50:56Z</time>
      </trkpt>
      <trkpt lat="46.25728" lon="6.87349">
        <ele>1798</ele>
        <time>2010-01-01T02:51:05Z</time>
      </trkpt>
      <trkpt lat="46.25724" lon="6.87348">
        <ele>1797</ele>
        <time>2010-01-01T02:51:07Z</time>
      </trkpt>
      <trkpt lat="46.25716" lon="6.8733">
        <ele>1794</ele>
        <time>2010-01-01T02:51:12Z</time>
      </trkpt>
      <trkpt lat="46.25709" lon="6.87323">
        <ele>1794</ele>
        <time>2010-01-01T02:51:16Z</time>
      </trkpt>
      <trkpt lat="46.25698" lon="6.87319">
        <ele>1793</ele>
        <time>2010-01-01T02:51:20Z</time>
      </trkpt>
      <trkpt lat="46.25678" lon="6.87313">
        <ele>1792</ele>
        <time>2010-01-01T02:51:28Z</time>
      </trkpt>
      <trkpt lat="46.25671" lon="6.87307">
        <ele>1789</ele>
        <time>2010-01-01T02:51:32Z</time>
      </trkpt>
      <trkpt lat="46.25667" lon="6.87306">
        <ele>1789</ele>
        <time>2010-01-01T02:51:33Z</time>
      </trkpt>
      <trkpt lat="46.25655" lon="6.87306">
        <ele>1786</ele>
        <time>2010-01-01T02:51:38Z</time>
      </trkpt>
      <trkpt lat="46.25644" lon="6.8731">
        <ele>1786</ele>
        <time>2010-01-01T02:51:43Z</time>
      </trkpt>
      <trkpt lat="46.25627" lon="6.87307">
        <ele>1781</ele>
        <time>2010-01-01T02:51:49Z</time>
      </trkpt>
      <trkpt lat="46.25616" lon="6.87312">
        <ele>1778</ele>
        <time>2010-01-01T02:51:54Z</time>
      </trkpt>
      <trkpt lat="46.25609" lon="6.87314">
        <ele>1776</ele>
        <time>2010-01-01T02:51:57Z</time>
      </trkpt>
      <trkpt lat="46.25596" lon="6.87311">
        <ele>1775</ele>
        <time>2010-01-01T02:52:02Z</time>
      </trkpt>
      <trkpt lat="46.25588" lon="6.87306">
        <ele>1775</ele>
        <time>2010-01-01T02:52:06Z</time>
      </trkpt>
      <trkpt lat="46.25573" lon="6.87304">
        <ele>1773</ele>
        <time>2010-01-01T02:52:12Z</time>
      </trkpt>
      <trkpt lat="46.25552" lon="6.87304">
        <ele>1771</ele>
        <time>2010-01-01T02:52:20Z</time>
      </trkpt>
      <trkpt lat="46.2553" lon="6.87306">
        <ele>1770</ele>
        <time>2010-01-01T02:52:29Z</time>
      </trkpt>
      <trkpt lat="46.25489" lon="6.87303">
        <ele>1766</ele>
        <time>2010-01-01T02:52:45Z</time>
      </trkpt>
      <trkpt lat="46.25475" lon="6.87307">
        <ele>1765</ele>
        <time>2010-01-01T02:52:51Z</time>
      </trkpt>
      <trkpt lat="46.25458" lon="6.87313">
        <ele>1764</ele>
        <time>2010-01-01T02:52:58Z</time>
      </trkpt>
      <trkpt lat="46.25436" lon="6.87317">
        <ele>1763</ele>
        <time>2010-01-01T02:53:07Z</time>
      </trkpt>
      <trkpt lat="46.25405" lon="6.87329">
        <ele>1762</ele>
        <time>2010-01-01T02:53:20Z</time>
      </trkpt>
      <trkpt lat="46.25375" lon="6.87331">
        <ele>1760</ele>
        <time>2010-01-01T02:53:32Z</time>
      </trkpt>
      <trkpt lat="46.25345" lon="6.87326">
        <ele>1760</ele>
        <time>2010-01-01T02:53:44Z</time>
      </trkpt>
      <trkpt lat="46.25314" lon="6.87313">
        <ele>1757</ele>
        <time>2010-01-01T02:53:57Z</time>
      </trkpt>
      <trkpt lat="46.25295" lon="6.8731">
        <ele>1755</ele>
        <time>2010-01-01T02:54:04Z</time>
      </trkpt>
      <trkpt lat="46.2528" lon="6.87302">
        <ele>1753</ele>
        <time>2010-01-01T02:54:11Z</time>
      </trkpt>
      <trkpt lat="46.25246" lon="6.87289">
        <ele>1751</ele>
        <time>2010-01-01T02:54:25Z</time>
      </trkpt>
      <trkpt lat="46.25238" lon="6.8729">
        <ele>1750</ele>
        <time>2010-01-01T02:54:28Z</time>
      </trkpt>
      <trkpt lat="46.2522" lon="6.873">
        <ele>1747</ele>
        <time>2010-01-01T02:54:36Z</time>
      </trkpt>
      <trkpt lat="46.25191" lon="6.87327">
        <ele>1742</ele>
        <time>2010-01-01T02:54:50Z</time>
      </trkpt>
      <trkpt lat="46.25175" lon="6.87335">
        <ele>1738</ele>
        <time>2010-01-01T02:54:56Z</time>
      </trkpt>
      <trkpt lat="46.25167" lon="6.87337">
        <ele>1737</ele>
        <time>2010-01-01T02:55:00Z</time>
      </trkpt>
      <trkpt lat="46.25158" lon="6.87335">
        <ele>1735</ele>
        <time>2010-01-01T02:55:03Z</time>
      </trkpt>
      <trkpt lat="46.25142" lon="6.87329">
        <ele>1732</ele>
        <time>2010-01-01T02:55:10Z</time>
      </trkpt>
      <trkpt lat="46.25127" lon="6.87315">
        <ele>1727</ele>
        <time>2010-01-01T02:55:17Z</time>
      </trkpt>
      <trkpt lat="46.25119" lon="6.87302">
        <ele>1725</ele>
        <time>2010-01-01T02:55:22Z</time>
      </trkpt>
      <trkpt lat="46.25119" lon="6.87302">
        <ele>1725</ele>
        <time>2010-01-01T02:55:22Z</time>
      </trkpt>
      <trkpt lat="46.25112" lon="6.87288">
        <ele>1722</ele>
        <time>2010-01-01T02:55:27Z</time>
      </trkpt>
      <trkpt lat="46.25105" lon="6.87267">
        <ele>1719</ele>
        <time>2010-01-01T02:55:33Z</time>
      </trkpt>
      <trkpt lat="46.25096" lon="6.87225">
        <ele>1714</ele>
        <time>2010-01-01T02:55:45Z</time>
      </trkpt>
      <trkpt lat="46.25094" lon="6.87221">
        <ele>1713</ele>
        <time>2010-01-01T02:55:47Z</time>
      </trkpt>
      <trkpt lat="46.25086" lon="6.87213">
        <ele>1710</ele>
        <time>2010-01-01T02:55:51Z</time>
      </trkpt>
      <trkpt lat="46.25084" lon="6.87199">
        <ele>1707</ele>
        <time>2010-01-01T02:55:55Z</time>
      </trkpt>
      <trkpt lat="46.25085" lon="6.87189">
        <ele>1705</ele>
        <time>2010-01-01T02:55:57Z</time>
      </trkpt>
      <trkpt lat="46.25091" lon="6.87172">
        <ele>1703</ele>
        <time>2010-01-01T02:56:03Z</time>
      </trkpt>
      <trkpt lat="46.25122" lon="6.87132">
        <ele>1701</ele>
        <time>2010-01-01T02:56:19Z</time>
      </trkpt>
      <trkpt lat="46.25123" lon="6.87125">
        <ele>1701</ele>
        <time>2010-01-01T02:56:21Z</time>
      </trkpt>
      <trkpt lat="46.25123" lon="6.87117">
        <ele>1700</ele>
        <time>2010-01-01T02:56:24Z</time>
      </trkpt>
      <trkpt lat="46.25118" lon="6.87109">
        <ele>1700</ele>
        <time>2010-01-01T02:56:26Z</time>
      </trkpt>
      <trkpt lat="46.25105" lon="6.87097">
        <ele>1700</ele>
        <time>2010-01-01T02:56:32Z</time>
      </trkpt>
      <trkpt lat="46.25091" lon="6.87091">
        <ele>1700</ele>
        <time>2010-01-01T02:56:38Z</time>
      </trkpt>
      <trkpt lat="46.25076" lon="6.87087">
        <ele>1699</ele>
        <time>2010-01-01T02:56:44Z</time>
      </trkpt>
      <trkpt lat="46.25065" lon="6.87073">
        <ele>1698</ele>
        <time>2010-01-01T02:56:51Z</time>
      </trkpt>
      <trkpt lat="46.25053" lon="6.87067">
        <ele>1697</ele>
        <time>2010-01-01T02:56:55Z</time>
      </trkpt>
      <trkpt lat="46.2504" lon="6.87055">
        <ele>1696</ele>
        <time>2010-01-01T02:57:02Z</time>
      </trkpt>
      <trkpt lat="46.2503" lon="6.87045">
        <ele>1696</ele>
        <time>2010-01-01T02:57:06Z</time>
      </trkpt>
      <trkpt lat="46.24983" lon="6.86981">
        <ele>1695</ele>
        <time>2010-01-01T02:57:32Z</time>
      </trkpt>
      <trkpt lat="46.24938" lon="6.86907">
        <ele>1692</ele>
        <time>2010-01-01T02:58:00Z</time>
      </trkpt>
      <trkpt lat="46.24914" lon="6.86881">
        <ele>1689</ele>
        <time>2010-01-01T02:58:12Z</time>
      </trkpt>
      <trkpt lat="46.24901" lon="6.86871">
        <ele>1688</ele>
        <time>2010-01-01T02:58:18Z</time>
      </trkpt>
      <trkpt lat="46.2489" lon="6.86867">
        <ele>1688</ele>
        <time>2010-01-01T02:58:22Z</time>
      </trkpt>
      <trkpt lat="46.24884" lon="6.86862">
        <ele>1688</ele>
        <time>2010-01-01T02:58:25Z</time>
      </trkpt>
      <trkpt lat="46.24878" lon="6.8685">
        <ele>1686</ele>
        <time>2010-01-01T02:58:29Z</time>
      </trkpt>
      <trkpt lat="46.24866" lon="6.86843">
        <ele>1685</ele>
        <time>2010-01-01T02:58:34Z</time>
      </trkpt>
      <trkpt lat="46.24855" lon="6.86848">
        <ele>1682</ele>
        <time>2010-01-01T02:58:39Z</time>
      </trkpt>
      <trkpt lat="46.24838" lon="6.86847">
        <ele>1682</ele>
        <time>2010-01-01T02:58:45Z</time>
      </trkpt>
      <trkpt lat="46.24815" lon="6.86838">
        <ele>1680</ele>
        <time>2010-01-01T02:58:55Z</time>
      </trkpt>
      <trkpt lat="46.24804" lon="6.86837">
        <ele>1679</ele>
        <time>2010-01-01T02:58:59Z</time>
      </trkpt>
      <trkpt lat="46.24783" lon="6.86842">
        <ele>1679</ele>
        <time>2010-01-01T02:59:08Z</time>
      </trkpt>
      <trkpt lat="46.24761" lon="6.86853">
        <ele>1678</ele>
        <time>2010-01-01T02:59:17Z</time>
      </trkpt>
      <trkpt lat="46.24736" lon="6.86872">
        <ele>1677</ele>
        <time>2010-01-01T02:59:29Z</time>
      </trkpt>
      <trkpt lat="46.24732" lon="6.86875">
        <ele>1677</ele>
        <time>2010-01-01T02:59:30Z</time>
      </trkpt>
      <trkpt lat="46.24729" lon="6.86882">
        <ele>1677</ele>
        <time>2010-01-01T02:59:33Z</time>
      </trkpt>
      <trkpt lat="46.24725" lon="6.86886">
        <ele>1677</ele>
        <time>2010-01-01T02:59:35Z</time>
      </trkpt>
      <trkpt lat="46.24717" lon="6.86888">
        <ele>1677</ele>
        <time>2010-01-01T02:59:38Z</time>
      </trkpt>
      <trkpt lat="46.24712" lon="6.86887">
        <ele>1677</ele>
        <time>2010-01-01T02:59:40Z</time>
      </trkpt>
      <trkpt lat="46.24702" lon="6.86883">
        <ele>1676</ele>
        <time>2010-01-01T02:59:44Z</time>
      </trkpt>
      <trkpt lat="46.24692" lon="6.86876">
        <ele>1675</ele>
        <time>2010-01-01T02:59:48Z</time>
      </trkpt>
      <trkpt lat="46.24684" lon="6.86864">
        <ele>1675</ele>
        <time>2010-01-01T02:59:53Z</time>
      </trkpt>
      <trkpt lat="46.24678" lon="6.86845">
        <ele>1674</ele>
        <time>2010-01-01T02:59:59Z</time>
      </trkpt>
      <trkpt lat="46.24673" lon="6.86837">
        <ele>1673</ele>
        <time>2010-01-01T03:00:02Z</time>
      </trkpt>
      <trkpt lat="46.24666" lon="6.86829">
        <ele>1673</ele>
        <time>2010-01-01T03:00:05Z</time>
      </trkpt>
      <trkpt lat="46.24663" lon="6.86821">
        <ele>1672</ele>
        <time>2010-01-01T03:00:08Z</time>
      </trkpt>
      <trkpt lat="46.24655" lon="6.86809">
        <ele>1671</ele>
        <time>2010-01-01T03:00:12Z</time>
      </trkpt>
      <trkpt lat="46.24645" lon="6.86779">
        <ele>1669</ele>
        <time>2010-01-01T03:00:21Z</time>
      </trkpt>
      <trkpt lat="46.24638" lon="6.86733">
        <ele>1665</ele>
        <time>2010-01-01T03:00:35Z</time>
      </trkpt>
      <trkpt lat="46.24635" lon="6.86701">
        <ele>1662</ele>
        <time>2010-01-01T03:00:43Z</time>
      </trkpt>
      <trkpt lat="46.24637" lon="6.86672">
        <ele>1661</ele>
        <time>2010-01-01T03:00:51Z</time>
      </trkpt>
      <trkpt lat="46.24641" lon="6.86637">
        <ele>1659</ele>
        <time>2010-01-01T03:01:01Z</time>
      </trkpt>
      <trkpt lat="46.2464" lon="6.86631">
        <ele>1658</ele>
        <time>2010-01-01T03:01:03Z</time>
      </trkpt>
      <trkpt lat="46.24633" lon="6.86615">
        <ele>1657</ele>
        <time>2010-01-01T03:01:08Z</time>
      </trkpt>
      <trkpt lat="46.24627" lon="6.86599">
        <ele>1655</ele>
        <time>2010-01-01T03:01:13Z</time>
      </trkpt>
      <trkpt lat="46.24627" lon="6.86599">
        <ele>1655</ele>
        <time>2010-01-01T03:01:13Z</time>
      </trkpt>
      <trkpt lat="46.24617" lon="6.86573">
        <ele>1653</ele>
        <time>2010-01-01T03:01:22Z</time>
      </trkpt>
      <trkpt lat="46.24584" lon="6.86524">
        <ele>1650</ele>
        <time>2010-01-01T03:01:41Z</time>
      </trkpt>
      <trkpt lat="46.24577" lon="6.86508">
        <ele>1651</ele>
        <time>2010-01-01T03:01:46Z</time>
      </trkpt>
      <trkpt lat="46.24573" lon="6.86489">
        <ele>1650</ele>
        <time>2010-01-01T03:01:51Z</time>
      </trkpt>
      <trkpt lat="46.24574" lon="6.8647">
        <ele>1651</ele>
        <time>2010-01-01T03:01:56Z</time>
      </trkpt>
      <trkpt lat="46.24582" lon="6.86422">
        <ele>1650</ele>
        <time>2010-01-01T03:02:10Z</time>
      </trkpt>
      <trkpt lat="46.24581" lon="6.86393">
        <ele>1651</ele>
        <time>2010-01-01T03:02:18Z</time>
      </trkpt>
      <trkpt lat="46.24584" lon="6.86365">
        <ele>1651</ele>
        <time>2010-01-01T03:02:26Z</time>
      </trkpt>
      <trkpt lat="46.24593" lon="6.86334">
        <ele>1650</ele>
        <time>2010-01-01T03:02:35Z</time>
      </trkpt>
      <trkpt lat="46.24593" lon="6.8633">
        <ele>1650</ele>
        <time>2010-01-01T03:02:36Z</time>
      </trkpt>
      <trkpt lat="46.24597" lon="6.8632">
        <ele>1651</ele>
        <time>2010-01-01T03:02:40Z</time>
      </trkpt>
      <trkpt lat="46.24599" lon="6.86302">
        <ele>1651</ele>
        <time>2010-01-01T03:02:45Z</time>
      </trkpt>
      <trkpt lat="46.24593" lon="6.86264">
        <ele>1651</ele>
        <time>2010-01-01T03:02:55Z</time>
      </trkpt>
      <trkpt lat="46.24592" lon="6.86233">
        <ele>1651</ele>
        <time>2010-01-01T03:03:04Z</time>
      </trkpt>
      <trkpt lat="46.24599" lon="6.86177">
        <ele>1654</ele>
        <time>2010-01-01T03:03:20Z</time>
      </trkpt>
      <trkpt lat="46.24601" lon="6.86166">
        <ele>1654</ele>
        <time>2010-01-01T03:03:23Z</time>
      </trkpt>
      <trkpt lat="46.24605" lon="6.86161">
        <ele>1654</ele>
        <time>2010-01-01T03:03:25Z</time>
      </trkpt>
      <trkpt lat="46.24607" lon="6.86154">
        <ele>1655</ele>
        <time>2010-01-01T03:03:27Z</time>
      </trkpt>
      <trkpt lat="46.2461" lon="6.86148">
        <ele>1656</ele>
        <time>2010-01-01T03:03:29Z</time>
      </trkpt>
      <trkpt lat="46.24612" lon="6.86123">
        <ele>1655</ele>
        <time>2010-01-01T03:03:36Z</time>
      </trkpt>
      <trkpt lat="46.24619" lon="6.86114">
        <ele>1655</ele>
        <time>2010-01-01T03:03:40Z</time>
      </trkpt>
      <trkpt lat="46.24618" lon="6.86108">
        <ele>1656</ele>
        <time>2010-01-01T03:03:42Z</time>
      </trkpt>
      <trkpt lat="46.24614" lon="6.86103">
        <ele>1656</ele>
        <time>2010-01-01T03:03:44Z</time>
      </trkpt>
      <trkpt lat="46.24609" lon="6.86081">
        <ele>1655</ele>
        <time>2010-01-01T03:03:50Z</time>
      </trkpt>
      <trkpt lat="46.24609" lon="6.86044">
        <ele>1653</ele>
        <time>2010-01-01T03:04:00Z</time>
      </trkpt>
      <trkpt lat="46.24604" lon="6.86017">
        <ele>1653</ele>
        <time>2010-01-01T03:04:08Z</time>
      </trkpt>
      <trkpt lat="46.24601" lon="6.85992">
        <ele>1652</ele>
        <time>2010-01-01T03:04:15Z</time>
      </trkpt>
      <trkpt lat="46.24602" lon="6.85963">
        <ele>1652</ele>
        <time>2010-01-01T03:04:23Z</time>
      </trkpt>
      <trkpt lat="46.24604" lon="6.85953">
        <ele>1651</ele>
        <time>2010-01-01T03:04:26Z</time>
      </trkpt>
      <trkpt lat="46.24612" lon="6.85936">
        <ele>1651</ele>
        <time>2010-01-01T03:04:32Z</time>
      </trkpt>
      <trkpt lat="46.24633" lon="6.85906">
        <ele>1649</ele>
        <time>2010-01-01T03:04:44Z</time>
      </trkpt>
      <trkpt lat="46.24643" lon="6.85887">
        <ele>1648</ele>
        <time>2010-01-01T03:04:50Z</time>
      </trkpt>
      <trkpt lat="46.24656" lon="6.85845">
        <ele>1647</ele>
        <time>2010-01-01T03:05:03Z</time>
      </trkpt>
      <trkpt lat="46.24659" lon="6.85839">
        <ele>1646</ele>
        <time>2010-01-01T03:05:05Z</time>
      </trkpt>
      <trkpt lat="46.2468" lon="6.85814">
        <ele>1646</ele>
        <time>2010-01-01T03:05:16Z</time>
      </trkpt>
      <trkpt lat="46.24686" lon="6.85798">
        <ele>1645</ele>
        <time>2010-01-01T03:05:21Z</time>
      </trkpt>
      <trkpt lat="46.24696" lon="6.8575">
        <ele>1643</ele>
        <time>2010-01-01T03:05:35Z</time>
      </trkpt>
      <trkpt lat="46.247" lon="6.85741">
        <ele>1642</ele>
        <time>2010-01-01T03:05:38Z</time>
      </trkpt>
      <trkpt lat="46.24704" lon="6.85734">
        <ele>1642</ele>
        <time>2010-01-01T03:05:40Z</time>
      </trkpt>
      <trkpt lat="46.2471" lon="6.85731">
        <ele>1642</ele>
        <time>2010-01-01T03:05:43Z</time>
      </trkpt>
      <trkpt lat="46.24724" lon="6.85729">
        <ele>1641</ele>
        <time>2010-01-01T03:05:48Z</time>
      </trkpt>
      <trkpt lat="46.24731" lon="6.85729">
        <ele>1640</ele>
        <time>2010-01-01T03:05:51Z</time>
      </trkpt>
      <trkpt lat="46.24754" lon="6.85734">
        <ele>1639</ele>
        <time>2010-01-01T03:06:01Z</time>
      </trkpt>
      <trkpt lat="46.24763" lon="6.85734">
        <ele>1638</ele>
        <time>2010-01-01T03:06:04Z</time>
      </trkpt>
      <trkpt lat="46.24771" lon="6.8573">
        <ele>1638</ele>
        <time>2010-01-01T03:06:08Z</time>
      </trkpt>
      <trkpt lat="46.24785" lon="6.85721">
        <ele>1636</ele>
        <time>2010-01-01T03:06:14Z</time>
      </trkpt>
      <trkpt lat="46.24799" lon="6.85707">
        <ele>1635</ele>
        <time>2010-01-01T03:06:20Z</time>
      </trkpt>
      <trkpt lat="46.24812" lon="6.85691">
        <ele>1634</ele>
        <time>2010-01-01T03:06:27Z</time>
      </trkpt>
      <trkpt lat="46.24821" lon="6.85669">
        <ele>1633</ele>
        <time>2010-01-01T03:06:34Z</time>
      </trkpt>
      <trkpt lat="46.24837" lon="6.85625">
        <ele>1631</ele>
        <time>2010-01-01T03:06:48Z</time>
      </trkpt>
      <trkpt lat="46.2485" lon="6.85548">
        <ele>1627</ele>
        <time>2010-01-01T03:07:10Z</time>
      </trkpt>
      <trkpt lat="46.2485" lon="6.85548">
        <ele>1627</ele>
        <time>2010-01-01T03:07:10Z</time>
      </trkpt>
      <trkpt lat="46.24855" lon="6.85523">
        <ele>1626</ele>
        <time>2010-01-01T03:07:17Z</time>
      </trkpt>
      <trkpt lat="46.2486" lon="6.85514">
        <ele>1625</ele>
        <time>2010-01-01T03:07:20Z</time>
      </trkpt>
      <trkpt lat="46.24873" lon="6.85504">
        <ele>1624</ele>
        <time>2010-01-01T03:07:26Z</time>
      </trkpt>
      <trkpt lat="46.24892" lon="6.85484">
        <ele>1623</ele>
        <time>2010-01-01T03:07:36Z</time>
      </trkpt>
      <trkpt lat="46.24906" lon="6.85475">
        <ele>1622</ele>
        <time>2010-01-01T03:07:42Z</time>
      </trkpt>
      <trkpt lat="46.24923" lon="6.85473">
        <ele>1620</ele>
        <time>2010-01-01T03:07:49Z</time>
      </trkpt>
      <trkpt lat="46.24941" lon="6.85475">
        <ele>1619</ele>
        <time>2010-01-01T03:07:56Z</time>
      </trkpt>
      <trkpt lat="46.24968" lon="6.85484">
        <ele>1616</ele>
        <time>2010-01-01T03:08:07Z</time>
      </trkpt>
      <trkpt lat="46.24976" lon="6.85486">
        <ele>1615</ele>
        <time>2010-01-01T03:08:10Z</time>
      </trkpt>
      <trkpt lat="46.24984" lon="6.85484">
        <ele>1615</ele>
        <time>2010-01-01T03:08:14Z</time>
      </trkpt>
      <trkpt lat="46.24991" lon="6.85478">
        <ele>1614</ele>
        <time>2010-01-01T03:08:17Z</time>
      </trkpt>
      <trkpt lat="46.25002" lon="6.85461">
        <ele>1613</ele>
        <time>2010-01-01T03:08:23Z</time>
      </trkpt>
      <trkpt lat="46.25013" lon="6.85428">
        <ele>1611</ele>
        <time>2010-01-01T03:08:33Z</time>
      </trkpt>
      <trkpt lat="46.25023" lon="6.85406">
        <ele>1609</ele>
        <time>2010-01-01T03:08:41Z</time>
      </trkpt>
      <trkpt lat="46.25037" lon="6.85388">
        <ele>1607</ele>
        <time>2010-01-01T03:08:48Z</time>
      </trkpt>
      <trkpt lat="46.25052" lon="6.85374">
        <ele>1605</ele>
        <time>2010-01-01T03:08:55Z</time>
      </trkpt>
      <trkpt lat="46.25066" lon="6.85368">
        <ele>1603</ele>
        <time>2010-01-01T03:09:01Z</time>
      </trkpt>
      <trkpt lat="46.25074" lon="6.85369">
        <ele>1601</ele>
        <time>2010-01-01T03:09:04Z</time>
      </trkpt>
      <trkpt lat="46.25081" lon="6.85372">
        <ele>1600</ele>
        <time>2010-01-01T03:09:08Z</time>
      </trkpt>
      <trkpt lat="46.25105" lon="6.85387">
        <ele>1597</ele>
        <time>2010-01-01T03:09:18Z</time>
      </trkpt>
      <trkpt lat="46.25114" lon="6.8539">
        <ele>1597</ele>
        <time>2010-01-01T03:09:21Z</time>
      </trkpt>
      <trkpt lat="46.25123" lon="6.85389">
        <ele>1596</ele>
        <time>2010-01-01T03:09:25Z</time>
      </trkpt>
      <trkpt lat="46.25139" lon="6.85382">
        <ele>1593</ele>
        <time>2010-01-01T03:09:32Z</time>
      </trkpt>
      <trkpt lat="46.25144" lon="6.85377">
        <ele>1592</ele>
        <time>2010-01-01T03:09:34Z</time>
      </trkpt>
      <trkpt lat="46.25147" lon="6.8537">
        <ele>1591</ele>
        <time>2010-01-01T03:09:37Z</time>
      </trkpt>
      <trkpt lat="46.25148" lon="6.8536">
        <ele>1590</ele>
        <time>2010-01-01T03:09:39Z</time>
      </trkpt>
      <trkpt lat="46.25146" lon="6.8535">
        <ele>1589</ele>
        <time>2010-01-01T03:09:42Z</time>
      </trkpt>
      <trkpt lat="46.25137" lon="6.85329">
        <ele>1587</ele>
        <time>2010-01-01T03:09:49Z</time>
      </trkpt>
      <trkpt lat="46.25125" lon="6.85309">
        <ele>1585</ele>
        <time>2010-01-01T03:09:56Z</time>
      </trkpt>
      <trkpt lat="46.2511" lon="6.85291">
        <ele>1583</ele>
        <time>2010-01-01T03:10:04Z</time>
      </trkpt>
      <trkpt lat="46.25079" lon="6.85263">
        <ele>1577</ele>
        <time>2010-01-01T03:10:19Z</time>
      </trkpt>
      <trkpt lat="46.25072" lon="6.8526">
        <ele>1576</ele>
        <time>2010-01-01T03:10:22Z</time>
      </trkpt>
      <trkpt lat="46.25064" lon="6.85259">
        <ele>1576</ele>
        <time>2010-01-01T03:10:25Z</time>
      </trkpt>
      <trkpt lat="46.25048" lon="6.85262">
        <ele>1573</ele>
        <time>2010-01-01T03:10:32Z</time>
      </trkpt>
      <trkpt lat="46.2503" lon="6.85259">
        <ele>1572</ele>
        <time>2010-01-01T03:10:39Z</time>
      </trkpt>
      <trkpt lat="46.25021" lon="6.85259">
        <ele>1571</ele>
        <time>2010-01-01T03:10:42Z</time>
      </trkpt>
      <trkpt lat="46.25012" lon="6.85262">
        <ele>1570</ele>
        <time>2010-01-01T03:10:46Z</time>
      </trkpt>
      <trkpt lat="46.25004" lon="6.85269">
        <ele>1569</ele>
        <time>2010-01-01T03:10:50Z</time>
      </trkpt>
      <trkpt lat="46.24974" lon="6.85301">
        <ele>1565</ele>
        <time>2010-01-01T03:11:05Z</time>
      </trkpt>
      <trkpt lat="46.2496" lon="6.8532">
        <ele>1563</ele>
        <time>2010-01-01T03:11:12Z</time>
      </trkpt>
      <trkpt lat="46.24943" lon="6.85351">
        <ele>1560</ele>
        <time>2010-01-01T03:11:23Z</time>
      </trkpt>
      <trkpt lat="46.24929" lon="6.85364">
        <ele>1558</ele>
        <time>2010-01-01T03:11:30Z</time>
      </trkpt>
      <trkpt lat="46.24921" lon="6.85365">
        <ele>1556</ele>
        <time>2010-01-01T03:11:33Z</time>
      </trkpt>
      <trkpt lat="46.24913" lon="6.85363">
        <ele>1557</ele>
        <time>2010-01-01T03:11:36Z</time>
      </trkpt>
      <trkpt lat="46.2489" lon="6.85349">
        <ele>1556</ele>
        <time>2010-01-01T03:11:46Z</time>
      </trkpt>
      <trkpt lat="46.24872" lon="6.85344">
        <ele>1555</ele>
        <time>2010-01-01T03:11:54Z</time>
      </trkpt>
      <trkpt lat="46.24862" lon="6.85346">
        <ele>1554</ele>
        <time>2010-01-01T03:11:58Z</time>
      </trkpt>
      <trkpt lat="46.24853" lon="6.85349">
        <ele>1553</ele>
        <time>2010-01-01T03:12:02Z</time>
      </trkpt>
      <trkpt lat="46.24825" lon="6.85365">
        <ele>1552</ele>
        <time>2010-01-01T03:12:13Z</time>
      </trkpt>
      <trkpt lat="46.24808" lon="6.85377">
        <ele>1550</ele>
        <time>2010-01-01T03:12:21Z</time>
      </trkpt>
      <trkpt lat="46.24793" lon="6.85394">
        <ele>1549</ele>
        <time>2010-01-01T03:12:29Z</time>
      </trkpt>
      <trkpt lat="46.24782" lon="6.85414">
        <ele>1549</ele>
        <time>2010-01-01T03:12:36Z</time>
      </trkpt>
      <trkpt lat="46.24762" lon="6.85466">
        <ele>1547</ele>
        <time>2010-01-01T03:12:52Z</time>
      </trkpt>
      <trkpt lat="46.24756" lon="6.85474">
        <ele>1546</ele>
        <time>2010-01-01T03:12:55Z</time>
      </trkpt>
      <trkpt lat="46.2473" lon="6.85496">
        <ele>1545</ele>
        <time>2010-01-01T03:13:08Z</time>
      </trkpt>
      <trkpt lat="46.2473" lon="6.85496">
        <ele>1545</ele>
        <time>2010-01-01T03:13:08Z</time>
      </trkpt>
      <trkpt lat="46.24716" lon="6.85504">
        <ele>1545</ele>
        <time>2010-01-01T03:13:14Z</time>
      </trkpt>
      <trkpt lat="46.24696" lon="6.8551">
        <ele>1544</ele>
        <time>2010-01-01T03:13:22Z</time>
      </trkpt>
      <trkpt lat="46.24689" lon="6.85514">
        <ele>1544</ele>
        <time>2010-01-01T03:13:25Z</time>
      </trkpt>
      <trkpt lat="46.24683" lon="6.85519">
        <ele>1544</ele>
        <time>2010-01-01T03:13:28Z</time>
      </trkpt>
      <trkpt lat="46.24672" lon="6.85534">
        <ele>1543</ele>
        <time>2010-01-01T03:13:34Z</time>
      </trkpt>
      <trkpt lat="46.2466" lon="6.8556">
        <ele>1542</ele>
        <time>2010-01-01T03:13:42Z</time>
      </trkpt>
      <trkpt lat="46.2465" lon="6.85575">
        <ele>1542</ele>
        <time>2010-01-01T03:13:48Z</time>
      </trkpt>
      <trkpt lat="46.24644" lon="6.8558">
        <ele>1542</ele>
        <time>2010-01-01T03:13:51Z</time>
      </trkpt>
      <trkpt lat="46.24631" lon="6.85587">
        <ele>1542</ele>
        <time>2010-01-01T03:13:57Z</time>
      </trkpt>
      <trkpt lat="46.24624" lon="6.8559">
        <ele>1542</ele>
        <time>2010-01-01T03:13:59Z</time>
      </trkpt>
      <trkpt lat="46.24611" lon="6.85592">
        <ele>1541</ele>
        <time>2010-01-01T03:14:05Z</time>
      </trkpt>
      <trkpt lat="46.24604" lon="6.85594">
        <ele>1541</ele>
        <time>2010-01-01T03:14:07Z</time>
      </trkpt>
      <trkpt lat="46.24597" lon="6.85599">
        <ele>1541</ele>
        <time>2010-01-01T03:14:10Z</time>
      </trkpt>
      <trkpt lat="46.24583" lon="6.85622">
        <ele>1541</ele>
        <time>2010-01-01T03:14:19Z</time>
      </trkpt>
      <trkpt lat="46.24562" lon="6.85648">
        <ele>1540</ele>
        <time>2010-01-01T03:14:30Z</time>
      </trkpt>
      <trkpt lat="46.24545" lon="6.85679">
        <ele>1540</ele>
        <time>2010-01-01T03:14:41Z</time>
      </trkpt>
      <trkpt lat="46.24539" lon="6.85685">
        <ele>1540</ele>
        <time>2010-01-01T03:14:44Z</time>
      </trkpt>
      <trkpt lat="46.24527" lon="6.85693">
        <ele>1540</ele>
        <time>2010-01-01T03:14:49Z</time>
      </trkpt>
      <trkpt lat="46.24506" lon="6.85699">
        <ele>1539</ele>
        <time>2010-01-01T03:14:58Z</time>
      </trkpt>
      <trkpt lat="46.245" lon="6.85702">
        <ele>1540</ele>
        <time>2010-01-01T03:15:00Z</time>
      </trkpt>
      <trkpt lat="46.24495" lon="6.85709">
        <ele>1540</ele>
        <time>2010-01-01T03:15:03Z</time>
      </trkpt>
      <trkpt lat="46.2447" lon="6.85764">
        <ele>1539</ele>
        <time>2010-01-01T03:15:21Z</time>
      </trkpt>
      <trkpt lat="46.24455" lon="6.85807">
        <ele>1538</ele>
        <time>2010-01-01T03:15:35Z</time>
      </trkpt>
      <trkpt lat="46.24449" lon="6.8583">
        <ele>1537</ele>
        <time>2010-01-01T03:15:41Z</time>
      </trkpt>
      <trkpt lat="46.24442" lon="6.85865">
        <ele>1536</ele>
        <time>2010-01-01T03:15:51Z</time>
      </trkpt>
      <trkpt lat="46.24439" lon="6.85876">
        <ele>1535</ele>
        <time>2010-01-01T03:15:55Z</time>
      </trkpt>
      <trkpt lat="46.24434" lon="6.85886">
        <ele>1535</ele>
        <time>2010-01-01T03:15:58Z</time>
      </trkpt>
      <trkpt lat="46.24427" lon="6.8589">
        <ele>1535</ele>
        <time>2010-01-01T03:16:01Z</time>
      </trkpt>
      <trkpt lat="46.24409" lon="6.85894">
        <ele>1534</ele>
        <time>2010-01-01T03:16:08Z</time>
      </trkpt>
      <trkpt lat="46.244" lon="6.85897">
        <ele>1534</ele>
        <time>2010-01-01T03:16:12Z</time>
      </trkpt>
      <trkpt lat="46.24382" lon="6.8591">
        <ele>1533</ele>
        <time>2010-01-01T03:16:20Z</time>
      </trkpt>
      <trkpt lat="46.24375" lon="6.85918">
        <ele>1533</ele>
        <time>2010-01-01T03:16:24Z</time>
      </trkpt>
      <trkpt lat="46.24369" lon="6.85928">
        <ele>1532</ele>
        <time>2010-01-01T03:16:28Z</time>
      </trkpt>
      <trkpt lat="46.24365" lon="6.85939">
        <ele>1531</ele>
        <time>2010-01-01T03:16:31Z</time>
      </trkpt>
      <trkpt lat="46.24364" lon="6.85959">
        <ele>1530</ele>
        <time>2010-01-01T03:16:37Z</time>
      </trkpt>
      <trkpt lat="46.24363" lon="6.85967">
        <ele>1530</ele>
        <time>2010-01-01T03:16:39Z</time>
      </trkpt>
      <trkpt lat="46.2436" lon="6.8597">
        <ele>1529</ele>
        <time>2010-01-01T03:16:40Z</time>
      </trkpt>
      <trkpt lat="46.24357" lon="6.85969">
        <ele>1528</ele>
        <time>2010-01-01T03:16:42Z</time>
      </trkpt>
      <trkpt lat="46.24353" lon="6.85959">
        <ele>1526</ele>
        <time>2010-01-01T03:16:45Z</time>
      </trkpt>
      <trkpt lat="46.24352" lon="6.85954">
        <ele>1525</ele>
        <time>2010-01-01T03:16:46Z</time>
      </trkpt>
      <trkpt lat="46.24353" lon="6.85942">
        <ele>1525</ele>
        <time>2010-01-01T03:16:50Z</time>
      </trkpt>
      <trkpt lat="46.24351" lon="6.85908">
        <ele>1523</ele>
        <time>2010-01-01T03:16:59Z</time>
      </trkpt>
      <trkpt lat="46.24353" lon="6.85883">
        <ele>1523</ele>
        <time>2010-01-01T03:17:06Z</time>
      </trkpt>
      <trkpt lat="46.2436" lon="6.85845">
        <ele>1520</ele>
        <time>2010-01-01T03:17:17Z</time>
      </trkpt>
      <trkpt lat="46.24365" lon="6.85834">
        <ele>1520</ele>
        <time>2010-01-01T03:17:20Z</time>
      </trkpt>
      <trkpt lat="46.24375" lon="6.85819">
        <ele>1519</ele>
        <time>2010-01-01T03:17:26Z</time>
      </trkpt>
      <trkpt lat="46.24377" lon="6.85811">
        <ele>1518</ele>
        <time>2010-01-01T03:17:29Z</time>
      </trkpt>
      <trkpt lat="46.24377" lon="6.85803">
        <ele>1518</ele>
        <time>2010-01-01T03:17:31Z</time>
      </trkpt>
      <trkpt lat="46.24373" lon="6.85801">
        <ele>1517</ele>
        <time>2010-01-01T03:17:33Z</time>
      </trkpt>
      <trkpt lat="46.24358" lon="6.85811">
        <ele>1517</ele>
        <time>2010-01-01T03:17:39Z</time>
      </trkpt>
      <trkpt lat="46.24342" lon="6.85815">
        <ele>1515</ele>
        <time>2010-01-01T03:17:46Z</time>
      </trkpt>
      <trkpt lat="46.24334" lon="6.85819">
        <ele>1515</ele>
        <time>2010-01-01T03:17:49Z</time>
      </trkpt>
      <trkpt lat="46.24328" lon="6.85829">
        <ele>1514</ele>
        <time>2010-01-01T03:17:53Z</time>
      </trkpt>
      <trkpt lat="46.24319" lon="6.85853">
        <ele>1512</ele>
        <time>2010-01-01T03:18:00Z</time>
      </trkpt>
      <trkpt lat="46.24313" lon="6.85864">
        <ele>1512</ele>
        <time>2010-01-01T03:18:04Z</time>
      </trkpt>
      <trkpt lat="46.243" lon="6.85881">
        <ele>1511</ele>
        <time>2010-01-01T03:18:11Z</time>
      </trkpt>
      <trkpt lat="46.24291" lon="6.85896">
        <ele>1510</ele>
        <time>2010-01-01T03:18:17Z</time>
      </trkpt>
      <trkpt lat="46.24287" lon="6.85898">
        <ele>1509</ele>
        <time>2010-01-01T03:18:18Z</time>
      </trkpt>
      <trkpt lat="46.24284" lon="6.85892">
        <ele>1509</ele>
        <time>2010-01-01T03:18:20Z</time>
      </trkpt>
      <trkpt lat="46.24285" lon="6.85886">
        <ele>1508</ele>
        <time>2010-01-01T03:18:22Z</time>
      </trkpt>
      <trkpt lat="46.24293" lon="6.85866">
        <ele>1506</ele>
        <time>2010-01-01T03:18:28Z</time>
      </trkpt>
      <trkpt lat="46.24297" lon="6.8584">
        <ele>1505</ele>
        <time>2010-01-01T03:18:36Z</time>
      </trkpt>
      <trkpt lat="46.24296" lon="6.85821">
        <ele>1504</ele>
        <time>2010-01-01T03:18:41Z</time>
      </trkpt>
      <trkpt lat="46.24291" lon="6.85792">
        <ele>1503</ele>
        <time>2010-01-01T03:18:49Z</time>
      </trkpt>
      <trkpt lat="46.24292" lon="6.85782">
        <ele>1503</ele>
        <time>2010-01-01T03:18:52Z</time>
      </trkpt>
      <trkpt lat="46.24295" lon="6.85773">
        <ele>1502</ele>
        <time>2010-01-01T03:18:55Z</time>
      </trkpt>
      <trkpt lat="46.243" lon="6.85768">
        <ele>1502</ele>
        <time>2010-01-01T03:18:57Z</time>
      </trkpt>
      <trkpt lat="46.24322" lon="6.8576">
        <ele>1501</ele>
        <time>2010-01-01T03:19:06Z</time>
      </trkpt>
      <trkpt lat="46.24322" lon="6.8576">
        <ele>1501</ele>
        <time>2010-01-01T03:19:06Z</time>
      </trkpt>
      <trkpt lat="46.24329" lon="6.85756">
        <ele>1501</ele>
        <time>2010-01-01T03:19:09Z</time>
      </trkpt>
      <trkpt lat="46.24335" lon="6.8575">
        <ele>1500</ele>
        <time>2010-01-01T03:19:12Z</time>
      </trkpt>
      <trkpt lat="46.24352" lon="6.85728">
        <ele>1498</ele>
        <time>2010-01-01T03:19:21Z</time>
      </trkpt>
      <trkpt lat="46.24387" lon="6.85667">
        <ele>1494</ele>
        <time>2010-01-01T03:19:43Z</time>
      </trkpt>
      <trkpt lat="46.24411" lon="6.8563">
        <ele>1492</ele>
        <time>2010-01-01T03:19:57Z</time>
      </trkpt>
      <trkpt lat="46.24421" lon="6.85606">
        <ele>1490</ele>
        <time>2010-01-01T03:20:05Z</time>
      </trkpt>
      <trkpt lat="46.24449" lon="6.8556">
        <ele>1487</ele>
        <time>2010-01-01T03:20:22Z</time>
      </trkpt>
      <trkpt lat="46.24455" lon="6.85546">
        <ele>1486</ele>
        <time>2010-01-01T03:20:27Z</time>
      </trkpt>
      <trkpt lat="46.2448" lon="6.85468">
        <ele>1480</ele>
        <time>2010-01-01T03:20:51Z</time>
      </trkpt>
      <trkpt lat="46.24493" lon="6.8544">
        <ele>1478</ele>
        <time>2010-01-01T03:21:00Z</time>
      </trkpt>
      <trkpt lat="46.24498" lon="6.85426">
        <ele>1476</ele>
        <time>2010-01-01T03:21:04Z</time>
      </trkpt>
      <trkpt lat="46.24502" lon="6.85377">
        <ele>1472</ele>
        <time>2010-01-01T03:21:18Z</time>
      </trkpt>
      <trkpt lat="46.24508" lon="6.85343">
        <ele>1469</ele>
        <time>2010-01-01T03:21:28Z</time>
      </trkpt>
      <trkpt lat="46.24517" lon="6.85309">
        <ele>1466</ele>
        <time>2010-01-01T03:21:38Z</time>
      </trkpt>
      <trkpt lat="46.24531" lon="6.85278">
        <ele>1463</ele>
        <time>2010-01-01T03:21:48Z</time>
      </trkpt>
      <trkpt lat="46.24559" lon="6.85238">
        <ele>1460</ele>
        <time>2010-01-01T03:22:04Z</time>
      </trkpt>
      <trkpt lat="46.2459" lon="6.85177">
        <ele>1454</ele>
        <time>2010-01-01T03:22:25Z</time>
      </trkpt>
      <trkpt lat="46.246" lon="6.85165">
        <ele>1452</ele>
        <time>2010-01-01T03:22:30Z</time>
      </trkpt>
      <trkpt lat="46.24611" lon="6.85154">
        <ele>1450</ele>
        <time>2010-01-01T03:22:35Z</time>
      </trkpt>
      <trkpt lat="46.24656" lon="6.85116">
        <ele>1444</ele>
        <time>2010-01-01T03:22:56Z</time>
      </trkpt>
      <trkpt lat="46.24667" lon="6.85108">
        <ele>1443</ele>
        <time>2010-01-01T03:23:01Z</time>
      </trkpt>
      <trkpt lat="46.2468" lon="6.85102">
        <ele>1442</ele>
        <time>2010-01-01T03:23:06Z</time>
      </trkpt>
      <trkpt lat="46.24692" lon="6.85099">
        <ele>1441</ele>
        <time>2010-01-01T03:23:11Z</time>
      </trkpt>
      <trkpt lat="46.24718" lon="6.85096">
        <ele>1437</ele>
        <time>2010-01-01T03:23:22Z</time>
      </trkpt>
      <trkpt lat="46.2473" lon="6.8509">
        <ele>1435</ele>
        <time>2010-01-01T03:23:27Z</time>
      </trkpt>
      <trkpt lat="46.24741" lon="6.8508">
        <ele>1434</ele>
        <time>2010-01-01T03:23:32Z</time>
      </trkpt>
      <trkpt lat="46.24749" lon="6.85066">
        <ele>1432</ele>
        <time>2010-01-01T03:23:37Z</time>
      </trkpt>
      <trkpt lat="46.24755" lon="6.85051">
        <ele>1431</ele>
        <time>2010-01-01T03:23:42Z</time>
      </trkpt>
      <trkpt lat="46.24764" lon="6.85">
        <ele>1426</ele>
        <time>2010-01-01T03:23:57Z</time>
      </trkpt>
      <trkpt lat="46.24773" lon="6.84966">
        <ele>1424</ele>
        <time>2010-01-01T03:24:06Z</time>
      </trkpt>
      <trkpt lat="46.2478" lon="6.8495">
        <ele>1422</ele>
        <time>2010-01-01T03:24:12Z</time>
      </trkpt>
      <trkpt lat="46.24804" lon="6.84903">
        <ele>1418</ele>
        <time>2010-01-01T03:24:28Z</time>
      </trkpt>
      <trkpt lat="46.24834" lon="6.84839">
        <ele>1411</ele>
        <time>2010-01-01T03:24:49Z</time>
      </trkpt>
      <trkpt lat="46.24843" lon="6.84826">
        <ele>1410</ele>
        <time>2010-01-01T03:24:54Z</time>
      </trkpt>
      <trkpt lat="46.24853" lon="6.84816">
        <ele>1407</ele>
        <time>2010-01-01T03:24:59Z</time>
      </trkpt>
      <trkpt lat="46.24864" lon="6.84808">
        <ele>1406</ele>
        <time>2010-01-01T03:25:04Z</time>
      </trkpt>
      <trkpt lat="46.24864" lon="6.84808">
        <ele>1406</ele>
        <time>2010-01-01T03:25:04Z</time>
      </trkpt>
      <trkpt lat="46.24877" lon="6.84805">
        <ele>1404</ele>
        <time>2010-01-01T03:25:10Z</time>
      </trkpt>
      <trkpt lat="46.24904" lon="6.84803">
        <ele>1401</ele>
        <time>2010-01-01T03:25:20Z</time>
      </trkpt>
      <trkpt lat="46.24928" lon="6.84796">
        <ele>1398</ele>
        <time>2010-01-01T03:25:30Z</time>
      </trkpt>
      <trkpt lat="46.24938" lon="6.84787">
        <ele>1397</ele>
        <time>2010-01-01T03:25:35Z</time>
      </trkpt>
      <trkpt lat="46.24948" lon="6.84775">
        <ele>1395</ele>
        <time>2010-01-01T03:25:40Z</time>
      </trkpt>
      <trkpt lat="46.24982" lon="6.8472">
        <ele>1390</ele>
        <time>2010-01-01T03:26:01Z</time>
      </trkpt>
      <trkpt lat="46.24985" lon="6.84712">
        <ele>1388</ele>
        <time>2010-01-01T03:26:03Z</time>
      </trkpt>
      <trkpt lat="46.24985" lon="6.84704">
        <ele>1387</ele>
        <time>2010-01-01T03:26:05Z</time>
      </trkpt>
      <trkpt lat="46.24981" lon="6.847">
        <ele>1385</ele>
        <time>2010-01-01T03:26:07Z</time>
      </trkpt>
      <trkpt lat="46.24976" lon="6.84701">
        <ele>1383</ele>
        <time>2010-01-01T03:26:09Z</time>
      </trkpt>
      <trkpt lat="46.24969" lon="6.84709">
        <ele>1383</ele>
        <time>2010-01-01T03:26:12Z</time>
      </trkpt>
      <trkpt lat="46.24959" lon="6.84728">
        <ele>1380</ele>
        <time>2010-01-01T03:26:19Z</time>
      </trkpt>
      <trkpt lat="46.24952" lon="6.84736">
        <ele>1378</ele>
        <time>2010-01-01T03:26:23Z</time>
      </trkpt>
      <trkpt lat="46.24945" lon="6.84742">
        <ele>1378</ele>
        <time>2010-01-01T03:26:26Z</time>
      </trkpt>
      <trkpt lat="46.24938" lon="6.84745">
        <ele>1377</ele>
        <time>2010-01-01T03:26:29Z</time>
      </trkpt>
      <trkpt lat="46.24932" lon="6.84746">
        <ele>1376</ele>
        <time>2010-01-01T03:26:32Z</time>
      </trkpt>
      <trkpt lat="46.24927" lon="6.84742">
        <ele>1375</ele>
        <time>2010-01-01T03:26:34Z</time>
      </trkpt>
      <trkpt lat="46.24923" lon="6.84737">
        <ele>1374</ele>
        <time>2010-01-01T03:26:36Z</time>
      </trkpt>
      <trkpt lat="46.24923" lon="6.84731">
        <ele>1371</ele>
        <time>2010-01-01T03:26:37Z</time>
      </trkpt>
      <trkpt lat="46.24927" lon="6.84717">
        <ele>1371</ele>
        <time>2010-01-01T03:26:41Z</time>
      </trkpt>
      <trkpt lat="46.24933" lon="6.84705">
        <ele>1372</ele>
        <time>2010-01-01T03:26:46Z</time>
      </trkpt>
      <trkpt lat="46.24938" lon="6.84691">
        <ele>1372</ele>
        <time>2010-01-01T03:26:50Z</time>
      </trkpt>
      <trkpt lat="46.24957" lon="6.84617">
        <ele>1375</ele>
        <time>2010-01-01T03:27:12Z</time>
      </trkpt>
      <trkpt lat="46.24958" lon="6.84609">
        <ele>1374</ele>
        <time>2010-01-01T03:27:14Z</time>
      </trkpt>
      <trkpt lat="46.24956" lon="6.846">
        <ele>1374</ele>
        <time>2010-01-01T03:27:17Z</time>
      </trkpt>
      <trkpt lat="46.24953" lon="6.84594">
        <ele>1373</ele>
        <time>2010-01-01T03:27:19Z</time>
      </trkpt>
      <trkpt lat="46.24948" lon="6.8459">
        <ele>1372</ele>
        <time>2010-01-01T03:27:21Z</time>
      </trkpt>
      <trkpt lat="46.24942" lon="6.84588">
        <ele>1371</ele>
        <time>2010-01-01T03:27:23Z</time>
      </trkpt>
      <trkpt lat="46.24936" lon="6.8459">
        <ele>1371</ele>
        <time>2010-01-01T03:27:26Z</time>
      </trkpt>
      <trkpt lat="46.24881" lon="6.84614">
        <ele>1368</ele>
        <time>2010-01-01T03:27:49Z</time>
      </trkpt>
      <trkpt lat="46.24861" lon="6.84621">
        <ele>1367</ele>
        <time>2010-01-01T03:27:57Z</time>
      </trkpt>
      <trkpt lat="46.24835" lon="6.84628">
        <ele>1366</ele>
        <time>2010-01-01T03:28:08Z</time>
      </trkpt>
      <trkpt lat="46.24816" lon="6.84637">
        <ele>1367</ele>
        <time>2010-01-01T03:28:16Z</time>
      </trkpt>
      <trkpt lat="46.24793" lon="6.84646">
        <ele>1368</ele>
        <time>2010-01-01T03:28:25Z</time>
      </trkpt>
      <trkpt lat="46.24737" lon="6.84651">
        <ele>1369</ele>
        <time>2010-01-01T03:28:48Z</time>
      </trkpt>
      <trkpt lat="46.247" lon="6.84666">
        <ele>1371</ele>
        <time>2010-01-01T03:29:03Z</time>
      </trkpt>
      <trkpt lat="46.24669" lon="6.84673">
        <ele>1370</ele>
        <time>2010-01-01T03:29:16Z</time>
      </trkpt>
      <trkpt lat="46.24626" lon="6.84686">
        <ele>1373</ele>
        <time>2010-01-01T03:29:33Z</time>
      </trkpt>
      <trkpt lat="46.24617" lon="6.84691">
        <ele>1374</ele>
        <time>2010-01-01T03:29:37Z</time>
      </trkpt>
      <trkpt lat="46.24602" lon="6.84703">
        <ele>1374</ele>
        <time>2010-01-01T03:29:44Z</time>
      </trkpt>
      <trkpt lat="46.24574" lon="6.8472">
        <ele>1376</ele>
        <time>2010-01-01T03:29:56Z</time>
      </trkpt>
      <trkpt lat="46.24556" lon="6.84727">
        <ele>1377</ele>
        <time>2010-01-01T03:30:03Z</time>
      </trkpt>
      <trkpt lat="46.24534" lon="6.84731">
        <ele>1378</ele>
        <time>2010-01-01T03:30:13Z</time>
      </trkpt>
      <trkpt lat="46.24511" lon="6.84736">
        <ele>1380</ele>
        <time>2010-01-01T03:30:22Z</time>
      </trkpt>
      <trkpt lat="46.24481" lon="6.84749">
        <ele>1381</ele>
        <time>2010-01-01T03:30:34Z</time>
      </trkpt>
      <trkpt lat="46.24472" lon="6.84754">
        <ele>1381</ele>
        <time>2010-01-01T03:30:38Z</time>
      </trkpt>
      <trkpt lat="46.24456" lon="6.8477">
        <ele>1382</ele>
        <time>2010-01-01T03:30:46Z</time>
      </trkpt>
      <trkpt lat="46.24437" lon="6.84793">
        <ele>1382</ele>
        <time>2010-01-01T03:30:56Z</time>
      </trkpt>
      <trkpt lat="46.24429" lon="6.84803">
        <ele>1382</ele>
        <time>2010-01-01T03:31:00Z</time>
      </trkpt>
      <trkpt lat="46.24429" lon="6.84803">
        <ele>1382</ele>
        <time>2010-01-01T03:31:00Z</time>
      </trkpt>
      <trkpt lat="46.24423" lon="6.84816">
        <ele>1383</ele>
        <time>2010-01-01T03:31:04Z</time>
      </trkpt>
      <trkpt lat="46.24419" lon="6.8483">
        <ele>1384</ele>
        <time>2010-01-01T03:31:09Z</time>
      </trkpt>
      <trkpt lat="46.24418" lon="6.84853">
        <ele>1385</ele>
        <time>2010-01-01T03:31:15Z</time>
      </trkpt>
      <trkpt lat="46.2442" lon="6.84885">
        <ele>1385</ele>
        <time>2010-01-01T03:31:24Z</time>
      </trkpt>
      <trkpt lat="46.24416" lon="6.84907">
        <ele>1386</ele>
        <time>2010-01-01T03:31:30Z</time>
      </trkpt>
      <trkpt lat="46.24411" lon="6.84919">
        <ele>1386</ele>
        <time>2010-01-01T03:31:34Z</time>
      </trkpt>
      <trkpt lat="46.24381" lon="6.84956">
        <ele>1386</ele>
        <time>2010-01-01T03:31:50Z</time>
      </trkpt>
      <trkpt lat="46.24355" lon="6.84983">
        <ele>1388</ele>
        <time>2010-01-01T03:32:03Z</time>
      </trkpt>
      <trkpt lat="46.24345" lon="6.84995">
        <ele>1388</ele>
        <time>2010-01-01T03:32:08Z</time>
      </trkpt>
      <trkpt lat="46.24335" lon="6.85017">
        <ele>1388</ele>
        <time>2010-01-01T03:32:15Z</time>
      </trkpt>
      <trkpt lat="46.24326" lon="6.85029">
        <ele>1389</ele>
        <time>2010-01-01T03:32:20Z</time>
      </trkpt>
      <trkpt lat="46.24317" lon="6.85038">
        <ele>1388</ele>
        <time>2010-01-01T03:32:24Z</time>
      </trkpt>
      <trkpt lat="46.24251" lon="6.85076">
        <ele>1386</ele>
        <time>2010-01-01T03:32:53Z</time>
      </trkpt>
      <trkpt lat="46.24212" lon="6.85091">
        <ele>1385</ele>
        <time>2010-01-01T03:33:09Z</time>
      </trkpt>
      <trkpt lat="46.24201" lon="6.85092">
        <ele>1385</ele>
        <time>2010-01-01T03:33:13Z</time>
      </trkpt>
      <trkpt lat="46.2417" lon="6.85091">
        <ele>1386</ele>
        <time>2010-01-01T03:33:26Z</time>
      </trkpt>
      <trkpt lat="46.2413" lon="6.85092">
        <ele>1386</ele>
        <time>2010-01-01T03:33:42Z</time>
      </trkpt>
      <trkpt lat="46.24091" lon="6.85096">
        <ele>1383</ele>
        <time>2010-01-01T03:33:57Z</time>
      </trkpt>
      <trkpt lat="46.24062" lon="6.85101">
        <ele>1383</ele>
        <time>2010-01-01T03:34:09Z</time>
      </trkpt>
      <trkpt lat="46.24023" lon="6.85114">
        <ele>1382</ele>
        <time>2010-01-01T03:34:25Z</time>
      </trkpt>
      <trkpt lat="46.24003" lon="6.85119">
        <ele>1380</ele>
        <time>2010-01-01T03:34:33Z</time>
      </trkpt>
      <trkpt lat="46.23992" lon="6.85119">
        <ele>1380</ele>
        <time>2010-01-01T03:34:38Z</time>
      </trkpt>
      <trkpt lat="46.23982" lon="6.85116">
        <ele>1379</ele>
        <time>2010-01-01T03:34:42Z</time>
      </trkpt>
      <trkpt lat="46.23925" lon="6.85096">
        <ele>1374</ele>
        <time>2010-01-01T03:35:05Z</time>
      </trkpt>
      <trkpt lat="46.23901" lon="6.85092">
        <ele>1373</ele>
        <time>2010-01-01T03:35:15Z</time>
      </trkpt>
      <trkpt lat="46.23889" lon="6.85094">
        <ele>1373</ele>
        <time>2010-01-01T03:35:20Z</time>
      </trkpt>
      <trkpt lat="46.23876" lon="6.85099">
        <ele>1372</ele>
        <time>2010-01-01T03:35:25Z</time>
      </trkpt>
      <trkpt lat="46.23864" lon="6.85105">
        <ele>1371</ele>
        <time>2010-01-01T03:35:30Z</time>
      </trkpt>
      <trkpt lat="46.23853" lon="6.85113">
        <ele>1371</ele>
        <time>2010-01-01T03:35:35Z</time>
      </trkpt>
      <trkpt lat="46.23821" lon="6.8514">
        <ele>1368</ele>
        <time>2010-01-01T03:35:50Z</time>
      </trkpt>
      <trkpt lat="46.2381" lon="6.85147">
        <ele>1367</ele>
        <time>2010-01-01T03:35:55Z</time>
      </trkpt>
      <trkpt lat="46.23766" lon="6.85167">
        <ele>1367</ele>
        <time>2010-01-01T03:36:13Z</time>
      </trkpt>
      <trkpt lat="46.23745" lon="6.85181">
        <ele>1366</ele>
        <time>2010-01-01T03:36:22Z</time>
      </trkpt>
      <trkpt lat="46.23727" lon="6.85201">
        <ele>1364</ele>
        <time>2010-01-01T03:36:31Z</time>
      </trkpt>
      <trkpt lat="46.23719" lon="6.85213">
        <ele>1364</ele>
        <time>2010-01-01T03:36:36Z</time>
      </trkpt>
      <trkpt lat="46.23699" lon="6.85253">
        <ele>1361</ele>
        <time>2010-01-01T03:36:50Z</time>
      </trkpt>
      <trkpt lat="46.23691" lon="6.85264">
        <ele>1361</ele>
        <time>2010-01-01T03:36:54Z</time>
      </trkpt>
      <trkpt lat="46.23681" lon="6.85274">
        <ele>1360</ele>
        <time>2010-01-01T03:36:59Z</time>
      </trkpt>
      <trkpt lat="46.23681" lon="6.85274">
        <ele>1360</ele>
        <time>2010-01-01T03:36:59Z</time>
      </trkpt>
      <trkpt lat="46.2364" lon="6.85302">
        <ele>1358</ele>
        <time>2010-01-01T03:37:17Z</time>
      </trkpt>
      <trkpt lat="46.23631" lon="6.85312">
        <ele>1358</ele>
        <time>2010-01-01T03:37:22Z</time>
      </trkpt>
      <trkpt lat="46.23624" lon="6.85325">
        <ele>1357</ele>
        <time>2010-01-01T03:37:26Z</time>
      </trkpt>
      <trkpt lat="46.2362" lon="6.85339">
        <ele>1357</ele>
        <time>2010-01-01T03:37:31Z</time>
      </trkpt>
      <trkpt lat="46.23619" lon="6.85354">
        <ele>1356</ele>
        <time>2010-01-01T03:37:35Z</time>
      </trkpt>
      <trkpt lat="46.23622" lon="6.85369">
        <ele>1354</ele>
        <time>2010-01-01T03:37:39Z</time>
      </trkpt>
      <trkpt lat="46.2367" lon="6.85414">
        <ele>1348</ele>
        <time>2010-01-01T03:38:02Z</time>
      </trkpt>
      <trkpt lat="46.23678" lon="6.85425">
        <ele>1347</ele>
        <time>2010-01-01T03:38:06Z</time>
      </trkpt>
      <trkpt lat="46.2369" lon="6.85452">
        <ele>1345</ele>
        <time>2010-01-01T03:38:15Z</time>
      </trkpt>
      <trkpt lat="46.23692" lon="6.85467">
        <ele>1345</ele>
        <time>2010-01-01T03:38:20Z</time>
      </trkpt>
      <trkpt lat="46.23694" lon="6.85564">
        <ele>1338</ele>
        <time>2010-01-01T03:38:46Z</time>
      </trkpt>
      <trkpt lat="46.23699" lon="6.85595">
        <ele>1335</ele>
        <time>2010-01-01T03:38:55Z</time>
      </trkpt>
      <trkpt lat="46.2371" lon="6.85643">
        <ele>1332</ele>
        <time>2010-01-01T03:39:09Z</time>
      </trkpt>
      <trkpt lat="46.23711" lon="6.8566">
        <ele>1331</ele>
        <time>2010-01-01T03:39:14Z</time>
      </trkpt>
      <trkpt lat="46.2371" lon="6.85693">
        <ele>1329</ele>
        <time>2010-01-01T03:39:23Z</time>
      </trkpt>
      <trkpt lat="46.23707" lon="6.85737">
        <ele>1327</ele>
        <time>2010-01-01T03:39:35Z</time>
      </trkpt>
      <trkpt lat="46.23702" lon="6.85769">
        <ele>1325</ele>
        <time>2010-01-01T03:39:44Z</time>
      </trkpt>
      <trkpt lat="46.23696" lon="6.85784">
        <ele>1325</ele>
        <time>2010-01-01T03:39:49Z</time>
      </trkpt>
      <trkpt lat="46.2367" lon="6.85813">
        <ele>1324</ele>
        <time>2010-01-01T03:40:02Z</time>
      </trkpt>
      <trkpt lat="46.23669" lon="6.85812">
        <ele>1324</ele>
        <time>2010-01-01T03:40:03Z</time>
      </trkpt>
      <trkpt lat="46.23666" lon="6.85811">
        <ele>1325</ele>
        <time>2010-01-01T03:40:04Z</time>
      </trkpt>
      <trkpt lat="46.23665" lon="6.85813">
        <ele>1325</ele>
        <time>2010-01-01T03:40:05Z</time>
      </trkpt>
      <trkpt lat="46.23666" lon="6.85814">
        <ele>1324</ele>
        <time>2010-01-01T03:40:05Z</time>
      </trkpt>
      <trkpt lat="46.23666" lon="6.85811">
        <ele>1324</ele>
        <time>2010-01-01T03:40:06Z</time>
      </trkpt>
      <trkpt lat="46.23667" lon="6.85814">
        <ele>1323</ele>
        <time>2010-01-01T03:40:07Z</time>
      </trkpt>
      <trkpt lat="46.23665" lon="6.85813">
        <ele>1323</ele>
        <time>2010-01-01T03:40:08Z</time>
      </trkpt>
      <trkpt lat="46.23657" lon="6.8582">
        <ele>1322</ele>
        <time>2010-01-01T03:40:12Z</time>
      </trkpt>
      <trkpt lat="46.23642" lon="6.85821">
        <ele>1325</ele>
        <time>2010-01-01T03:40:17Z</time>
      </trkpt>
      <trkpt lat="46.23602" lon="6.85834">
        <ele>1333</ele>
        <time>2010-01-01T03:40:34Z</time>
      </trkpt>
      <trkpt lat="46.23565" lon="6.85843">
        <ele>1349</ele>
        <time>2010-01-01T03:40:49Z</time>
      </trkpt>
      <trkpt lat="46.23508" lon="6.8586">
        <ele>1372</ele>
        <time>2010-01-01T03:41:12Z</time>
      </trkpt>
      <trkpt lat="46.23479" lon="6.85866">
        <ele>1392</ele>
        <time>2010-01-01T03:41:24Z</time>
      </trkpt>
      <trkpt lat="46.23462" lon="6.85874">
        <ele>1405</ele>
        <time>2010-01-01T03:41:31Z</time>
      </trkpt>
      <trkpt lat="46.23451" lon="6.85876">
        <ele>1414</ele>
        <time>2010-01-01T03:41:35Z</time>
      </trkpt>
      <trkpt lat="46.23437" lon="6.85881">
        <ele>1426</ele>
        <time>2010-01-01T03:41:41Z</time>
      </trkpt>
      <trkpt lat="46.23397" lon="6.85889">
        <ele>1456</ele>
        <time>2010-01-01T03:41:57Z</time>
      </trkpt>
      <trkpt lat="46.2339" lon="6.85889">
        <ele>1462</ele>
        <time>2010-01-01T03:42:00Z</time>
      </trkpt>
      <trkpt lat="46.2332" lon="6.8591">
        <ele>1513</ele>
        <time>2010-01-01T03:42:29Z</time>
      </trkpt>
      <trkpt lat="46.23309" lon="6.85914">
        <ele>1521</ele>
        <time>2010-01-01T03:42:33Z</time>
      </trkpt>
      <trkpt lat="46.23309" lon="6.85914">
        <ele>1521</ele>
        <time>2010-01-01T03:42:33Z</time>
      </trkpt>
      <trkpt lat="46.2327" lon="6.85927">
        <ele>1552</ele>
        <time>2010-01-01T03:42:49Z</time>
      </trkpt>
      <trkpt lat="46.23242" lon="6.85932">
        <ele>1566</ele>
        <time>2010-01-01T03:43:01Z</time>
      </trkpt>
      <trkpt lat="46.23194" lon="6.85943">
        <ele>1590</ele>
        <time>2010-01-01T03:43:20Z</time>
      </trkpt>
      <trkpt lat="46.23148" lon="6.85959">
        <ele>1609</ele>
        <time>2010-01-01T03:43:39Z</time>
      </trkpt>
      <trkpt lat="46.23133" lon="6.85962">
        <ele>1614</ele>
        <time>2010-01-01T03:43:45Z</time>
      </trkpt>
      <trkpt lat="46.23122" lon="6.85963">
        <ele>1618</ele>
        <time>2010-01-01T03:43:49Z</time>
      </trkpt>
      <trkpt lat="46.23113" lon="6.85967">
        <ele>1620</ele>
        <time>2010-01-01T03:43:53Z</time>
      </trkpt>
      <trkpt lat="46.23061" lon="6.85979">
        <ele>1637</ele>
        <time>2010-01-01T03:44:14Z</time>
      </trkpt>
      <trkpt lat="46.23045" lon="6.85984">
        <ele>1643</ele>
        <time>2010-01-01T03:44:21Z</time>
      </trkpt>
      <trkpt lat="46.23034" lon="6.85986">
        <ele>1647</ele>
        <time>2010-01-01T03:44:26Z</time>
      </trkpt>
      <trkpt lat="46.2303" lon="6.85988">
        <ele>1648</ele>
        <time>2010-01-01T03:44:27Z</time>
      </trkpt>
      <trkpt lat="46.23009" lon="6.85995">
        <ele>1656</ele>
        <time>2010-01-01T03:44:36Z</time>
      </trkpt>
      <trkpt lat="46.22991" lon="6.86">
        <ele>1664</ele>
        <time>2010-01-01T03:44:43Z</time>
      </trkpt>
      <trkpt lat="46.2298" lon="6.86001">
        <ele>1666</ele>
        <time>2010-01-01T03:44:48Z</time>
      </trkpt>
      <trkpt lat="46.22969" lon="6.86006">
        <ele>1669</ele>
        <time>2010-01-01T03:44:52Z</time>
      </trkpt>
      <trkpt lat="46.22926" lon="6.86019">
        <ele>1683</ele>
        <time>2010-01-01T03:45:10Z</time>
      </trkpt>
      <trkpt lat="46.22903" lon="6.86023">
        <ele>1691</ele>
        <time>2010-01-01T03:45:19Z</time>
      </trkpt>
      <trkpt lat="46.22871" lon="6.86033">
        <ele>1700</ele>
        <time>2010-01-01T03:45:32Z</time>
      </trkpt>
      <trkpt lat="46.22865" lon="6.86033">
        <ele>1702</ele>
        <time>2010-01-01T03:45:35Z</time>
      </trkpt>
      <trkpt lat="46.22818" lon="6.86049">
        <ele>1714</ele>
        <time>2010-01-01T03:45:54Z</time>
      </trkpt>
      <trkpt lat="46.22748" lon="6.86064">
        <ele>1727</ele>
        <time>2010-01-01T03:46:22Z</time>
      </trkpt>
      <trkpt lat="46.22725" lon="6.86073">
        <ele>1737</ele>
        <time>2010-01-01T03:46:32Z</time>
      </trkpt>
      <trkpt lat="46.22707" lon="6.86075">
        <ele>1746</ele>
        <time>2010-01-01T03:46:39Z</time>
      </trkpt>
      <trkpt lat="46.22667" lon="6.86088">
        <ele>1767</ele>
        <time>2010-01-01T03:46:55Z</time>
      </trkpt>
      <trkpt lat="46.22592" lon="6.86108">
        <ele>1808</ele>
        <time>2010-01-01T03:47:26Z</time>
      </trkpt>
      <trkpt lat="46.22545" lon="6.86124">
        <ele>1826</ele>
        <time>2010-01-01T03:47:45Z</time>
      </trkpt>
      <trkpt lat="46.22518" lon="6.86129">
        <ele>1834</ele>
        <time>2010-01-01T03:47:56Z</time>
      </trkpt>
      <trkpt lat="46.22509" lon="6.86132">
        <ele>1836</ele>
        <time>2010-01-01T03:48:00Z</time>
      </trkpt>
      <trkpt lat="46.22508" lon="6.86131">
        <ele>1838</ele>
        <time>2010-01-01T03:48:00Z</time>
      </trkpt>
      <trkpt lat="46.22506" lon="6.86132">
        <ele>1838</ele>
        <time>2010-01-01T03:48:01Z</time>
      </trkpt>
      <trkpt lat="46.22493" lon="6.86132">
        <ele>1836</ele>
        <time>2010-01-01T03:48:07Z</time>
      </trkpt>
      <trkpt lat="46.22493" lon="6.86132">
        <ele>1836</ele>
        <time>2010-01-01T03:48:07Z</time>
      </trkpt>
      <trkpt lat="46.2248" lon="6.86135">
        <ele>1835</ele>
        <time>2010-01-01T03:48:12Z</time>
      </trkpt>
      <trkpt lat="46.22453" lon="6.86156">
        <ele>1832</ele>
        <time>2010-01-01T03:48:24Z</time>
      </trkpt>
      <trkpt lat="46.22437" lon="6.86164">
        <ele>1831</ele>
        <time>2010-01-01T03:48:31Z</time>
      </trkpt>
      <trkpt lat="46.22424" lon="6.86175">
        <ele>1831</ele>
        <time>2010-01-01T03:48:37Z</time>
      </trkpt>
      <trkpt lat="46.22417" lon="6.8618">
        <ele>1831</ele>
        <time>2010-01-01T03:48:40Z</time>
      </trkpt>
      <trkpt lat="46.2241" lon="6.86182">
        <ele>1830</ele>
        <time>2010-01-01T03:48:43Z</time>
      </trkpt>
      <trkpt lat="46.22394" lon="6.86184">
        <ele>1830</ele>
        <time>2010-01-01T03:48:49Z</time>
      </trkpt>
      <trkpt lat="46.22358" lon="6.8618">
        <ele>1828</ele>
        <time>2010-01-01T03:49:04Z</time>
      </trkpt>
      <trkpt lat="46.2235" lon="6.86177">
        <ele>1828</ele>
        <time>2010-01-01T03:49:07Z</time>
      </trkpt>
      <trkpt lat="46.22326" lon="6.86165">
        <ele>1826</ele>
        <time>2010-01-01T03:49:17Z</time>
      </trkpt>
      <trkpt lat="46.22319" lon="6.86163">
        <ele>1825</ele>
        <time>2010-01-01T03:49:20Z</time>
      </trkpt>
      <trkpt lat="46.22302" lon="6.86166">
        <ele>1823</ele>
        <time>2010-01-01T03:49:27Z</time>
      </trkpt>
      <trkpt lat="46.22293" lon="6.8617">
        <ele>1821</ele>
        <time>2010-01-01T03:49:31Z</time>
      </trkpt>
      <trkpt lat="46.22268" lon="6.86186">
        <ele>1817</ele>
        <time>2010-01-01T03:49:41Z</time>
      </trkpt>
      <trkpt lat="46.22263" lon="6.86189">
        <ele>1816</ele>
        <time>2010-01-01T03:49:44Z</time>
      </trkpt>
      <trkpt lat="46.22251" lon="6.86192">
        <ele>1815</ele>
        <time>2010-01-01T03:49:49Z</time>
      </trkpt>
      <trkpt lat="46.22239" lon="6.86191">
        <ele>1812</ele>
        <time>2010-01-01T03:49:53Z</time>
      </trkpt>
      <trkpt lat="46.22209" lon="6.86182">
        <ele>1804</ele>
        <time>2010-01-01T03:50:06Z</time>
      </trkpt>
      <trkpt lat="46.22197" lon="6.86183">
        <ele>1801</ele>
        <time>2010-01-01T03:50:11Z</time>
      </trkpt>
      <trkpt lat="46.22166" lon="6.86198">
        <ele>1793</ele>
        <time>2010-01-01T03:50:24Z</time>
      </trkpt>
      <trkpt lat="46.22138" lon="6.86225">
        <ele>1785</ele>
        <time>2010-01-01T03:50:37Z</time>
      </trkpt>
      <trkpt lat="46.22134" lon="6.86227">
        <ele>1783</ele>
        <time>2010-01-01T03:50:39Z</time>
      </trkpt>
      <trkpt lat="46.22129" lon="6.86224">
        <ele>1781</ele>
        <time>2010-01-01T03:50:41Z</time>
      </trkpt>
      <trkpt lat="46.2212" lon="6.86195">
        <ele>1774</ele>
        <time>2010-01-01T03:50:50Z</time>
      </trkpt>
      <trkpt lat="46.22112" lon="6.8618">
        <ele>1771</ele>
        <time>2010-01-01T03:50:55Z</time>
      </trkpt>
      <trkpt lat="46.22102" lon="6.86173">
        <ele>1768</ele>
        <time>2010-01-01T03:50:59Z</time>
      </trkpt>
      <trkpt lat="46.22085" lon="6.8617">
        <ele>1763</ele>
        <time>2010-01-01T03:51:06Z</time>
      </trkpt>
      <trkpt lat="46.22078" lon="6.86167">
        <ele>1761</ele>
        <time>2010-01-01T03:51:09Z</time>
      </trkpt>
      <trkpt lat="46.22074" lon="6.86165">
        <ele>1761</ele>
        <time>2010-01-01T03:51:11Z</time>
      </trkpt>
      <trkpt lat="46.22072" lon="6.86161">
        <ele>1760</ele>
        <time>2010-01-01T03:51:12Z</time>
      </trkpt>
      <trkpt lat="46.22067" lon="6.86114">
        <ele>1759</ele>
        <time>2010-01-01T03:51:25Z</time>
      </trkpt>
      <trkpt lat="46.22067" lon="6.86095">
        <ele>1758</ele>
        <time>2010-01-01T03:51:30Z</time>
      </trkpt>
      <trkpt lat="46.22061" lon="6.86071">
        <ele>1758</ele>
        <time>2010-01-01T03:51:38Z</time>
      </trkpt>
      <trkpt lat="46.22049" lon="6.86049">
        <ele>1757</ele>
        <time>2010-01-01T03:51:45Z</time>
      </trkpt>
      <trkpt lat="46.22035" lon="6.86032">
        <ele>1758</ele>
        <time>2010-01-01T03:51:53Z</time>
      </trkpt>
      <trkpt lat="46.22023" lon="6.86016">
        <ele>1758</ele>
        <time>2010-01-01T03:51:59Z</time>
      </trkpt>
      <trkpt lat="46.22017" lon="6.86001">
        <ele>1758</ele>
        <time>2010-01-01T03:52:04Z</time>
      </trkpt>
      <trkpt lat="46.22005" lon="6.85963">
        <ele>1759</ele>
        <time>2010-01-01T03:52:15Z</time>
      </trkpt>
      <trkpt lat="46.22001" lon="6.85957">
        <ele>1759</ele>
        <time>2010-01-01T03:52:18Z</time>
      </trkpt>
      <trkpt lat="46.21993" lon="6.8595">
        <ele>1758</ele>
        <time>2010-01-01T03:52:21Z</time>
      </trkpt>
      <trkpt lat="46.21979" lon="6.85944">
        <ele>1757</ele>
        <time>2010-01-01T03:52:27Z</time>
      </trkpt>
      <trkpt lat="46.21948" lon="6.85927">
        <ele>1756</ele>
        <time>2010-01-01T03:52:41Z</time>
      </trkpt>
      <trkpt lat="46.21943" lon="6.85924">
        <ele>1756</ele>
        <time>2010-01-01T03:52:43Z</time>
      </trkpt>
      <trkpt lat="46.21938" lon="6.85924">
        <ele>1756</ele>
        <time>2010-01-01T03:52:45Z</time>
      </trkpt>
      <trkpt lat="46.21909" lon="6.85937">
        <ele>1757</ele>
        <time>2010-01-01T03:52:57Z</time>
      </trkpt>
      <trkpt lat="46.2189" lon="6.85942">
        <ele>1758</ele>
        <time>2010-01-01T03:53:05Z</time>
      </trkpt>
      <trkpt lat="46.21858" lon="6.85944">
        <ele>1758</ele>
        <time>2010-01-01T03:53:17Z</time>
      </trkpt>
      <trkpt lat="46.21829" lon="6.8595">
        <ele>1758</ele>
        <time>2010-01-01T03:53:29Z</time>
      </trkpt>
      <trkpt lat="46.2181" lon="6.85958">
        <ele>1759</ele>
        <time>2010-01-01T03:53:37Z</time>
      </trkpt>
      <trkpt lat="46.21792" lon="6.85972">
        <ele>1758</ele>
        <time>2010-01-01T03:53:45Z</time>
      </trkpt>
      <trkpt lat="46.21784" lon="6.85982">
        <ele>1758</ele>
        <time>2010-01-01T03:53:50Z</time>
      </trkpt>
      <trkpt lat="46.21777" lon="6.85995">
        <ele>1757</ele>
        <time>2010-01-01T03:53:54Z</time>
      </trkpt>
      <trkpt lat="46.21772" lon="6.86018">
        <ele>1757</ele>
        <time>2010-01-01T03:54:01Z</time>
      </trkpt>
      <trkpt lat="46.21772" lon="6.86018">
        <ele>1757</ele>
        <time>2010-01-01T03:54:01Z</time>
      </trkpt>
      <trkpt lat="46.21769" lon="6.86032">
        <ele>1758</ele>
        <time>2010-01-01T03:54:05Z</time>
      </trkpt>
      <trkpt lat="46.21761" lon="6.86048">
        <ele>1757</ele>
        <time>2010-01-01T03:54:10Z</time>
      </trkpt>
      <trkpt lat="46.21739" lon="6.86074">
        <ele>1757</ele>
        <time>2010-01-01T03:54:22Z</time>
      </trkpt>
      <trkpt lat="46.21724" lon="6.86101">
        <ele>1757</ele>
        <time>2010-01-01T03:54:31Z</time>
      </trkpt>
      <trkpt lat="46.21704" lon="6.86125">
        <ele>1756</ele>
        <time>2010-01-01T03:54:42Z</time>
      </trkpt>
      <trkpt lat="46.217" lon="6.86127">
        <ele>1756</ele>
        <time>2010-01-01T03:54:43Z</time>
      </trkpt>
      <trkpt lat="46.21696" lon="6.86126">
        <ele>1756</ele>
        <time>2010-01-01T03:54:45Z</time>
      </trkpt>
      <trkpt lat="46.21692" lon="6.86123">
        <ele>1756</ele>
        <time>2010-01-01T03:54:47Z</time>
      </trkpt>
      <trkpt lat="46.21675" lon="6.86101">
        <ele>1756</ele>
        <time>2010-01-01T03:54:56Z</time>
      </trkpt>
      <trkpt lat="46.21644" lon="6.86074">
        <ele>1757</ele>
        <time>2010-01-01T03:55:10Z</time>
      </trkpt>
      <trkpt lat="46.21576" lon="6.85964">
        <ele>1761</ele>
        <time>2010-01-01T03:55:52Z</time>
      </trkpt>
      <trkpt lat="46.2155" lon="6.85927">
        <ele>1762</ele>
        <time>2010-01-01T03:56:06Z</time>
      </trkpt>
      <trkpt lat="46.21544" lon="6.85913">
        <ele>1762</ele>
        <time>2010-01-01T03:56:11Z</time>
      </trkpt>
      <trkpt lat="46.21531" lon="6.85863">
        <ele>1764</ele>
        <time>2010-01-01T03:56:25Z</time>
      </trkpt>
      <trkpt lat="46.21514" lon="6.85826">
        <ele>1765</ele>
        <time>2010-01-01T03:56:38Z</time>
      </trkpt>
      <trkpt lat="46.21495" lon="6.85795">
        <ele>1768</ele>
        <time>2010-01-01T03:56:49Z</time>
      </trkpt>
      <trkpt lat="46.2147" lon="6.85761">
        <ele>1769</ele>
        <time>2010-01-01T03:57:03Z</time>
      </trkpt>
      <trkpt lat="46.21434" lon="6.85706">
        <ele>1770</ele>
        <time>2010-01-01T03:57:24Z</time>
      </trkpt>
      <trkpt lat="46.21415" lon="6.8568">
        <ele>1770</ele>
        <time>2010-01-01T03:57:35Z</time>
      </trkpt>
      <trkpt lat="46.21406" lon="6.85671">
        <ele>1770</ele>
        <time>2010-01-01T03:57:39Z</time>
      </trkpt>
      <trkpt lat="46.21351" lon="6.85625">
        <ele>1769</ele>
        <time>2010-01-01T03:58:04Z</time>
      </trkpt>
      <trkpt lat="46.21333" lon="6.856">
        <ele>1770</ele>
        <time>2010-01-01T03:58:14Z</time>
      </trkpt>
      <trkpt lat="46.21321" lon="6.85579">
        <ele>1770</ele>
        <time>2010-01-01T03:58:22Z</time>
      </trkpt>
      <trkpt lat="46.21293" lon="6.85555">
        <ele>1771</ele>
        <time>2010-01-01T03:58:35Z</time>
      </trkpt>
      <trkpt lat="46.21273" lon="6.85536">
        <ele>1770</ele>
        <time>2010-01-01T03:58:44Z</time>
      </trkpt>
      <trkpt lat="46.21269" lon="6.85531">
        <ele>1770</ele>
        <time>2010-01-01T03:58:46Z</time>
      </trkpt>
      <trkpt lat="46.21251" lon="6.85496">
        <ele>1771</ele>
        <time>2010-01-01T03:58:59Z</time>
      </trkpt>
      <trkpt lat="46.21224" lon="6.85459">
        <ele>1770</ele>
        <time>2010-01-01T03:59:13Z</time>
      </trkpt>
      <trkpt lat="46.21204" lon="6.85439">
        <ele>1770</ele>
        <time>2010-01-01T03:59:23Z</time>
      </trkpt>
      <trkpt lat="46.21187" lon="6.85419">
        <ele>1769</ele>
        <time>2010-01-01T03:59:32Z</time>
      </trkpt>
      <trkpt lat="46.21167" lon="6.85409">
        <ele>1768</ele>
        <time>2010-01-01T03:59:41Z</time>
      </trkpt>
      <trkpt lat="46.2116" lon="6.85404">
        <ele>1768</ele>
        <time>2010-01-01T03:59:44Z</time>
      </trkpt>
      <trkpt lat="46.21147" lon="6.85389">
        <ele>1767</ele>
        <time>2010-01-01T03:59:50Z</time>
      </trkpt>
      <trkpt lat="46.21126" lon="6.85363">
        <ele>1766</ele>
        <time>2010-01-01T04:00:01Z</time>
      </trkpt>
      <trkpt lat="46.21126" lon="6.85363">
        <ele>1766</ele>
        <time>2010-01-01T04:00:01Z</time>
      </trkpt>
      <trkpt lat="46.21114" lon="6.85345">
        <ele>1765</ele>
        <time>2010-01-01T04:00:08Z</time>
      </trkpt>
      <trkpt lat="46.21108" lon="6.85329">
        <ele>1762</ele>
        <time>2010-01-01T04:00:13Z</time>
      </trkpt>
      <trkpt lat="46.21106" lon="6.8533">
        <ele>1761</ele>
        <time>2010-01-01T04:00:14Z</time>
      </trkpt>
      <trkpt lat="46.21106" lon="6.85338">
        <ele>1760</ele>
        <time>2010-01-01T04:00:17Z</time>
      </trkpt>
      <trkpt lat="46.21113" lon="6.85361">
        <ele>1756</ele>
        <time>2010-01-01T04:00:24Z</time>
      </trkpt>
      <trkpt lat="46.2113" lon="6.85427">
        <ele>1751</ele>
        <time>2010-01-01T04:00:43Z</time>
      </trkpt>
      <trkpt lat="46.21132" lon="6.85449">
        <ele>1749</ele>
        <time>2010-01-01T04:00:49Z</time>
      </trkpt>
      <trkpt lat="46.21131" lon="6.85467">
        <ele>1747</ele>
        <time>2010-01-01T04:00:54Z</time>
      </trkpt>
      <trkpt lat="46.21127" lon="6.85473">
        <ele>1746</ele>
        <time>2010-01-01T04:00:57Z</time>
      </trkpt>
      <trkpt lat="46.21109" lon="6.85485">
        <ele>1744</ele>
        <time>2010-01-01T04:01:04Z</time>
      </trkpt>
      <trkpt lat="46.21069" lon="6.85525">
        <ele>1738</ele>
        <time>2010-01-01T04:01:24Z</time>
      </trkpt>
      <trkpt lat="46.21029" lon="6.85553">
        <ele>1732</ele>
        <time>2010-01-01T04:01:42Z</time>
      </trkpt>
      <trkpt lat="46.20996" lon="6.85579">
        <ele>1729</ele>
        <time>2010-01-01T04:01:57Z</time>
      </trkpt>
      <trkpt lat="46.20978" lon="6.85602">
        <ele>1727</ele>
        <time>2010-01-01T04:02:07Z</time>
      </trkpt>
      <trkpt lat="46.20954" lon="6.85641">
        <ele>1725</ele>
        <time>2010-01-01T04:02:21Z</time>
      </trkpt>
      <trkpt lat="46.20945" lon="6.85652">
        <ele>1725</ele>
        <time>2010-01-01T04:02:26Z</time>
      </trkpt>
      <trkpt lat="46.20936" lon="6.85661">
        <ele>1724</ele>
        <time>2010-01-01T04:02:30Z</time>
      </trkpt>
      <trkpt lat="46.20915" lon="6.85676">
        <ele>1723</ele>
        <time>2010-01-01T04:02:39Z</time>
      </trkpt>
      <trkpt lat="46.20905" lon="6.8568">
        <ele>1723</ele>
        <time>2010-01-01T04:02:43Z</time>
      </trkpt>
      <trkpt lat="46.20896" lon="6.85681">
        <ele>1723</ele>
        <time>2010-01-01T04:02:47Z</time>
      </trkpt>
      <trkpt lat="46.20887" lon="6.85678">
        <ele>1722</ele>
        <time>2010-01-01T04:02:51Z</time>
      </trkpt>
      <trkpt lat="46.2088" lon="6.85671">
        <ele>1722</ele>
        <time>2010-01-01T04:02:54Z</time>
      </trkpt>
      <trkpt lat="46.20864" lon="6.85646">
        <ele>1720</ele>
        <time>2010-01-01T04:03:04Z</time>
      </trkpt>
      <trkpt lat="46.20858" lon="6.85639">
        <ele>1720</ele>
        <time>2010-01-01T04:03:07Z</time>
      </trkpt>
      <trkpt lat="46.20851" lon="6.85635">
        <ele>1719</ele>
        <time>2010-01-01T04:03:10Z</time>
      </trkpt>
      <trkpt lat="46.20843" lon="6.85636">
        <ele>1718</ele>
        <time>2010-01-01T04:03:13Z</time>
      </trkpt>
      <trkpt lat="46.20835" lon="6.85639">
        <ele>1718</ele>
        <time>2010-01-01T04:03:16Z</time>
      </trkpt>
      <trkpt lat="46.20829" lon="6.85645">
        <ele>1717</ele>
        <time>2010-01-01T04:03:19Z</time>
      </trkpt>
      <trkpt lat="46.20808" lon="6.85681">
        <ele>1718</ele>
        <time>2010-01-01T04:03:32Z</time>
      </trkpt>
      <trkpt lat="46.20797" lon="6.85696">
        <ele>1718</ele>
        <time>2010-01-01T04:03:38Z</time>
      </trkpt>
      <trkpt lat="46.20786" lon="6.85713">
        <ele>1719</ele>
        <time>2010-01-01T04:03:45Z</time>
      </trkpt>
      <trkpt lat="46.20757" lon="6.85747">
        <ele>1720</ele>
        <time>2010-01-01T04:04:00Z</time>
      </trkpt>
      <trkpt lat="46.20748" lon="6.85755">
        <ele>1721</ele>
        <time>2010-01-01T04:04:04Z</time>
      </trkpt>
      <trkpt lat="46.20743" lon="6.85757">
        <ele>1721</ele>
        <time>2010-01-01T04:04:06Z</time>
      </trkpt>
      <trkpt lat="46.20733" lon="6.85761">
        <ele>1722</ele>
        <time>2010-01-01T04:04:10Z</time>
      </trkpt>
      <trkpt lat="46.20716" lon="6.85763">
        <ele>1724</ele>
        <time>2010-01-01T04:04:17Z</time>
      </trkpt>
      <trkpt lat="46.20692" lon="6.85773">
        <ele>1725</ele>
        <time>2010-01-01T04:04:27Z</time>
      </trkpt>
      <trkpt lat="46.20688" lon="6.85776">
        <ele>1724</ele>
        <time>2010-01-01T04:04:29Z</time>
      </trkpt>
      <trkpt lat="46.20674" lon="6.8579">
        <ele>1725</ele>
        <time>2010-01-01T04:04:35Z</time>
      </trkpt>
      <trkpt lat="46.20666" lon="6.858">
        <ele>1724</ele>
        <time>2010-01-01T04:04:40Z</time>
      </trkpt>
      <trkpt lat="46.20661" lon="6.8581">
        <ele>1724</ele>
        <time>2010-01-01T04:04:43Z</time>
      </trkpt>
      <trkpt lat="46.20654" lon="6.85831">
        <ele>1722</ele>
        <time>2010-01-01T04:04:49Z</time>
      </trkpt>
      <trkpt lat="46.20651" lon="6.85837">
        <ele>1722</ele>
        <time>2010-01-01T04:04:52Z</time>
      </trkpt>
      <trkpt lat="46.20646" lon="6.85843">
        <ele>1722</ele>
        <time>2010-01-01T04:04:54Z</time>
      </trkpt>
      <trkpt lat="46.2064" lon="6.85846">
        <ele>1722</ele>
        <time>2010-01-01T04:04:57Z</time>
      </trkpt>
      <trkpt lat="46.20629" lon="6.85848">
        <ele>1722</ele>
        <time>2010-01-01T04:05:01Z</time>
      </trkpt>
      <trkpt lat="46.20608" lon="6.85846">
        <ele>1721</ele>
        <time>2010-01-01T04:05:09Z</time>
      </trkpt>
      <trkpt lat="46.2059" lon="6.8584">
        <ele>1721</ele>
        <time>2010-01-01T04:05:17Z</time>
      </trkpt>
      <trkpt lat="46.20576" lon="6.85838">
        <ele>1722</ele>
        <time>2010-01-01T04:05:22Z</time>
      </trkpt>
      <trkpt lat="46.20562" lon="6.85831">
        <ele>1722</ele>
        <time>2010-01-01T04:05:29Z</time>
      </trkpt>
      <trkpt lat="46.20555" lon="6.8583">
        <ele>1722</ele>
        <time>2010-01-01T04:05:31Z</time>
      </trkpt>
      <trkpt lat="46.2054" lon="6.85831">
        <ele>1721</ele>
        <time>2010-01-01T04:05:37Z</time>
      </trkpt>
      <trkpt lat="46.20521" lon="6.85837">
        <ele>1720</ele>
        <time>2010-01-01T04:05:45Z</time>
      </trkpt>
      <trkpt lat="46.20515" lon="6.85838">
        <ele>1720</ele>
        <time>2010-01-01T04:05:47Z</time>
      </trkpt>
      <trkpt lat="46.20503" lon="6.8583">
        <ele>1719</ele>
        <time>2010-01-01T04:05:53Z</time>
      </trkpt>
      <trkpt lat="46.205" lon="6.85831">
        <ele>1719</ele>
        <time>2010-01-01T04:05:54Z</time>
      </trkpt>
      <trkpt lat="46.20497" lon="6.85835">
        <ele>1719</ele>
        <time>2010-01-01T04:05:55Z</time>
      </trkpt>
      <trkpt lat="46.20497" lon="6.85835">
        <ele>1719</ele>
        <time>2010-01-01T04:05:55Z</time>
      </trkpt>
      <trkpt lat="46.20497" lon="6.85839">
        <ele>1719</ele>
        <time>2010-01-01T04:05:57Z</time>
      </trkpt>
      <trkpt lat="46.20502" lon="6.85851">
        <ele>1718</ele>
        <time>2010-01-01T04:06:01Z</time>
      </trkpt>
      <trkpt lat="46.20513" lon="6.85861">
        <ele>1716</ele>
        <time>2010-01-01T04:06:06Z</time>
      </trkpt>
      <trkpt lat="46.2052" lon="6.85865">
        <ele>1716</ele>
        <time>2010-01-01T04:06:09Z</time>
      </trkpt>
      <trkpt lat="46.20528" lon="6.85867">
        <ele>1715</ele>
        <time>2010-01-01T04:06:12Z</time>
      </trkpt>
      <trkpt lat="46.20543" lon="6.85868">
        <ele>1713</ele>
        <time>2010-01-01T04:06:18Z</time>
      </trkpt>
      <trkpt lat="46.20568" lon="6.85875">
        <ele>1709</ele>
        <time>2010-01-01T04:06:28Z</time>
      </trkpt>
      <trkpt lat="46.20579" lon="6.85885">
        <ele>1708</ele>
        <time>2010-01-01T04:06:34Z</time>
      </trkpt>
      <trkpt lat="46.20588" lon="6.859">
        <ele>1706</ele>
        <time>2010-01-01T04:06:39Z</time>
      </trkpt>
      <trkpt lat="46.20595" lon="6.85906">
        <ele>1704</ele>
        <time>2010-01-01T04:06:42Z</time>
      </trkpt>
      <trkpt lat="46.20648" lon="6.85923">
        <ele>1697</ele>
        <time>2010-01-01T04:07:04Z</time>
      </trkpt>
      <trkpt lat="46.20682" lon="6.85931">
        <ele>1694</ele>
        <time>2010-01-01T04:07:18Z</time>
      </trkpt>
      <trkpt lat="46.20721" lon="6.85948">
        <ele>1689</ele>
        <time>2010-01-01T04:07:34Z</time>
      </trkpt>
      <trkpt lat="46.20732" lon="6.85954">
        <ele>1688</ele>
        <time>2010-01-01T04:07:39Z</time>
      </trkpt>
      <trkpt lat="46.20738" lon="6.85961">
        <ele>1687</ele>
        <time>2010-01-01T04:07:42Z</time>
      </trkpt>
      <trkpt lat="46.2074" lon="6.85965">
        <ele>1686</ele>
        <time>2010-01-01T04:07:43Z</time>
      </trkpt>
      <trkpt lat="46.20739" lon="6.85969">
        <ele>1685</ele>
        <time>2010-01-01T04:07:44Z</time>
      </trkpt>
      <trkpt lat="46.20731" lon="6.8598">
        <ele>1683</ele>
        <time>2010-01-01T04:07:49Z</time>
      </trkpt>
      <trkpt lat="46.20724" lon="6.85992">
        <ele>1681</ele>
        <time>2010-01-01T04:07:53Z</time>
      </trkpt>
      <trkpt lat="46.20708" lon="6.86004">
        <ele>1680</ele>
        <time>2010-01-01T04:08:00Z</time>
      </trkpt>
      <trkpt lat="46.20705" lon="6.86007">
        <ele>1679</ele>
        <time>2010-01-01T04:08:02Z</time>
      </trkpt>
      <trkpt lat="46.20718" lon="6.85998">
        <ele>1679</ele>
        <time>2010-01-01T04:08:08Z</time>
      </trkpt>
      <trkpt lat="46.20732" lon="6.85979">
        <ele>1678</ele>
        <time>2010-01-01T04:08:15Z</time>
      </trkpt>
      <trkpt lat="46.20735" lon="6.85978">
        <ele>1678</ele>
        <time>2010-01-01T04:08:16Z</time>
      </trkpt>
      <trkpt lat="46.20738" lon="6.85979">
        <ele>1678</ele>
        <time>2010-01-01T04:08:18Z</time>
      </trkpt>
      <trkpt lat="46.2074" lon="6.85983">
        <ele>1678</ele>
        <time>2010-01-01T04:08:19Z</time>
      </trkpt>
      <trkpt lat="46.2074" lon="6.85989">
        <ele>1677</ele>
        <time>2010-01-01T04:08:21Z</time>
      </trkpt>
      <trkpt lat="46.20737" lon="6.85995">
        <ele>1677</ele>
        <time>2010-01-01T04:08:23Z</time>
      </trkpt>
      <trkpt lat="46.20728" lon="6.86003">
        <ele>1676</ele>
        <time>2010-01-01T04:08:27Z</time>
      </trkpt>
      <trkpt lat="46.2071" lon="6.86012">
        <ele>1675</ele>
        <time>2010-01-01T04:08:35Z</time>
      </trkpt>
      <trkpt lat="46.20699" lon="6.86013">
        <ele>1674</ele>
        <time>2010-01-01T04:08:39Z</time>
      </trkpt>
      <trkpt lat="46.20687" lon="6.86007">
        <ele>1674</ele>
        <time>2010-01-01T04:08:44Z</time>
      </trkpt>
      <trkpt lat="46.2068" lon="6.86">
        <ele>1674</ele>
        <time>2010-01-01T04:08:47Z</time>
      </trkpt>
      <trkpt lat="46.20677" lon="6.85983">
        <ele>1674</ele>
        <time>2010-01-01T04:08:52Z</time>
      </trkpt>
      <trkpt lat="46.20676" lon="6.85983">
        <ele>1674</ele>
        <time>2010-01-01T04:08:53Z</time>
      </trkpt>
      <trkpt lat="46.20674" lon="6.85985">
        <ele>1674</ele>
        <time>2010-01-01T04:08:54Z</time>
      </trkpt>
      <trkpt lat="46.20675" lon="6.86003">
        <ele>1672</ele>
        <time>2010-01-01T04:08:59Z</time>
      </trkpt>
      <trkpt lat="46.20673" lon="6.86005">
        <ele>1672</ele>
        <time>2010-01-01T04:09:00Z</time>
      </trkpt>
      <trkpt lat="46.20664" lon="6.86008">
        <ele>1672</ele>
        <time>2010-01-01T04:09:04Z</time>
      </trkpt>
      <trkpt lat="46.20665" lon="6.85995">
        <ele>1671</ele>
        <time>2010-01-01T04:09:07Z</time>
      </trkpt>
      <trkpt lat="46.20656" lon="6.85928">
        <ele>1687</ele>
        <time>2010-01-01T04:09:26Z</time>
      </trkpt>
      <trkpt lat="46.20645" lon="6.85873">
        <ele>1706</ele>
        <time>2010-01-01T04:09:42Z</time>
      </trkpt>
      <trkpt lat="46.20637" lon="6.85824">
        <ele>1720</ele>
        <time>2010-01-01T04:09:56Z</time>
      </trkpt>
      <trkpt lat="46.20628" lon="6.85785">
        <ele>1728</ele>
        <time>2010-01-01T04:10:08Z</time>
      </trkpt>
      <trkpt lat="46.20622" lon="6.85733">
        <ele>1733</ele>
        <time>2010-01-01T04:10:22Z</time>
      </trkpt>
      <trkpt lat="46.20611" lon="6.85685">
        <ele>1743</ele>
        <time>2010-01-01T04:10:36Z</time>
      </trkpt>
      <trkpt lat="46.20609" lon="6.8565">
        <ele>1756</ele>
        <time>2010-01-01T04:10:46Z</time>
      </trkpt>
      <trkpt lat="46.20596" lon="6.85589">
        <ele>1783</ele>
        <time>2010-01-01T04:11:04Z</time>
      </trkpt>
      <trkpt lat="46.20593" lon="6.85564">
        <ele>1793</ele>
        <time>2010-01-01T04:11:10Z</time>
      </trkpt>
      <trkpt lat="46.20582" lon="6.85503">
        <ele>1822</ele>
        <time>2010-01-01T04:11:28Z</time>
      </trkpt>
      <trkpt lat="46.20582" lon="6.85503">
        <ele>1822</ele>
        <time>2010-01-01T04:11:28Z</time>
      </trkpt>
      <trkpt lat="46.20573" lon="6.85443">
        <ele>1841</ele>
        <time>2010-01-01T04:11:45Z</time>
      </trkpt>
      <trkpt lat="46.20566" lon="6.85404">
        <ele>1848</ele>
        <time>2010-01-01T04:11:56Z</time>
      </trkpt>
      <trkpt lat="46.20564" lon="6.85384">
        <ele>1852</ele>
        <time>2010-01-01T04:12:02Z</time>
      </trkpt>
      <trkpt lat="46.2056" lon="6.85361">
        <ele>1857</ele>
        <time>2010-01-01T04:12:08Z</time>
      </trkpt>
      <trkpt lat="46.20552" lon="6.85323">
        <ele>1869</ele>
        <time>2010-01-01T04:12:19Z</time>
      </trkpt>
      <trkpt lat="46.20547" lon="6.85306">
        <ele>1876</ele>
        <time>2010-01-01T04:12:25Z</time>
      </trkpt>
      <trkpt lat="46.20544" lon="6.85276">
        <ele>1887</ele>
        <time>2010-01-01T04:12:33Z</time>
      </trkpt>
      <trkpt lat="46.2054" lon="6.85262">
        <ele>1893</ele>
        <time>2010-01-01T04:12:37Z</time>
      </trkpt>
      <trkpt lat="46.20528" lon="6.85183">
        <ele>1928</ele>
        <time>2010-01-01T04:12:59Z</time>
      </trkpt>
      <trkpt lat="46.20522" lon="6.85155">
        <ele>1943</ele>
        <time>2010-01-01T04:13:08Z</time>
      </trkpt>
      <trkpt lat="46.20515" lon="6.85102">
        <ele>1970</ele>
        <time>2010-01-01T04:13:22Z</time>
      </trkpt>
      <trkpt lat="46.20505" lon="6.85057">
        <ele>1991</ele>
        <time>2010-01-01T04:13:36Z</time>
      </trkpt>
      <trkpt lat="46.20505" lon="6.85042">
        <ele>1995</ele>
        <time>2010-01-01T04:13:40Z</time>
      </trkpt>
      <trkpt lat="46.20501" lon="6.85026">
        <ele>1999</ele>
        <time>2010-01-01T04:13:44Z</time>
      </trkpt>
      <trkpt lat="46.205" lon="6.85011">
        <ele>2002</ele>
        <time>2010-01-01T04:13:49Z</time>
      </trkpt>
      <trkpt lat="46.2049" lon="6.84966">
        <ele>2012</ele>
        <time>2010-01-01T04:14:02Z</time>
      </trkpt>
      <trkpt lat="46.20487" lon="6.84933">
        <ele>2020</ele>
        <time>2010-01-01T04:14:11Z</time>
      </trkpt>
      <trkpt lat="46.20471" lon="6.84853">
        <ele>2031</ele>
        <time>2010-01-01T04:14:34Z</time>
      </trkpt>
      <trkpt lat="46.20472" lon="6.8484">
        <ele>2033</ele>
        <time>2010-01-01T04:14:38Z</time>
      </trkpt>
      <trkpt lat="46.2047" lon="6.8482">
        <ele>2036</ele>
        <time>2010-01-01T04:14:43Z</time>
      </trkpt>
      <trkpt lat="46.20463" lon="6.8478">
        <ele>2035</ele>
        <time>2010-01-01T04:14:55Z</time>
      </trkpt>
      <trkpt lat="46.20454" lon="6.84764">
        <ele>2036</ele>
        <time>2010-01-01T04:15:00Z</time>
      </trkpt>
      <trkpt lat="46.20454" lon="6.84751">
        <ele>2037</ele>
        <time>2010-01-01T04:15:04Z</time>
      </trkpt>
      <trkpt lat="46.20439" lon="6.84724">
        <ele>2038</ele>
        <time>2010-01-01T04:15:13Z</time>
      </trkpt>
      <trkpt lat="46.2043" lon="6.84704">
        <ele>2040</ele>
        <time>2010-01-01T04:15:20Z</time>
      </trkpt>
      <trkpt lat="46.20416" lon="6.8469">
        <ele>2043</ele>
        <time>2010-01-01T04:15:27Z</time>
      </trkpt>
      <trkpt lat="46.20409" lon="6.84677">
        <ele>2045</ele>
        <time>2010-01-01T04:15:31Z</time>
      </trkpt>
      <trkpt lat="46.20404" lon="6.84673">
        <ele>2046</ele>
        <time>2010-01-01T04:15:34Z</time>
      </trkpt>
      <trkpt lat="46.20393" lon="6.84651">
        <ele>2047</ele>
        <time>2010-01-01T04:15:41Z</time>
      </trkpt>
      <trkpt lat="46.20345" lon="6.84595">
        <ele>2048</ele>
        <time>2010-01-01T04:16:06Z</time>
      </trkpt>
      <trkpt lat="46.20319" lon="6.84571">
        <ele>2045</ele>
        <time>2010-01-01T04:16:18Z</time>
      </trkpt>
      <trkpt lat="46.20301" lon="6.84557">
        <ele>2043</ele>
        <time>2010-01-01T04:16:26Z</time>
      </trkpt>
      <trkpt lat="46.20272" lon="6.8454">
        <ele>2042</ele>
        <time>2010-01-01T04:16:39Z</time>
      </trkpt>
      <trkpt lat="46.2024" lon="6.84517">
        <ele>2041</ele>
        <time>2010-01-01T04:16:53Z</time>
      </trkpt>
      <trkpt lat="46.2024" lon="6.84517">
        <ele>2041</ele>
        <time>2010-01-01T04:16:53Z</time>
      </trkpt>
      <trkpt lat="46.20229" lon="6.84508">
        <ele>2041</ele>
        <time>2010-01-01T04:16:58Z</time>
      </trkpt>
      <trkpt lat="46.20208" lon="6.84489">
        <ele>2041</ele>
        <time>2010-01-01T04:17:08Z</time>
      </trkpt>
      <trkpt lat="46.2019" lon="6.84465">
        <ele>2042</ele>
        <time>2010-01-01T04:17:18Z</time>
      </trkpt>
      <trkpt lat="46.20184" lon="6.84464">
        <ele>2042</ele>
        <time>2010-01-01T04:17:20Z</time>
      </trkpt>
      <trkpt lat="46.20176" lon="6.84455">
        <ele>2045</ele>
        <time>2010-01-01T04:17:24Z</time>
      </trkpt>
      <trkpt lat="46.20172" lon="6.84452">
        <ele>2045</ele>
        <time>2010-01-01T04:17:26Z</time>
      </trkpt>
      <trkpt lat="46.20166" lon="6.84451">
        <ele>2046</ele>
        <time>2010-01-01T04:17:29Z</time>
      </trkpt>
      <trkpt lat="46.20155" lon="6.84439">
        <ele>2048</ele>
        <time>2010-01-01T04:17:34Z</time>
      </trkpt>
      <trkpt lat="46.20152" lon="6.84433">
        <ele>2049</ele>
        <time>2010-01-01T04:17:36Z</time>
      </trkpt>
      <trkpt lat="46.20148" lon="6.84428">
        <ele>2050</ele>
        <time>2010-01-01T04:17:39Z</time>
      </trkpt>
      <trkpt lat="46.20141" lon="6.84426">
        <ele>2049</ele>
        <time>2010-01-01T04:17:41Z</time>
      </trkpt>
      <trkpt lat="46.2013" lon="6.8442">
        <ele>2049</ele>
        <time>2010-01-01T04:17:46Z</time>
      </trkpt>
      <trkpt lat="46.20116" lon="6.84418">
        <ele>2050</ele>
        <time>2010-01-01T04:17:52Z</time>
      </trkpt>
      <trkpt lat="46.20098" lon="6.84409">
        <ele>2050</ele>
        <time>2010-01-01T04:17:59Z</time>
      </trkpt>
      <trkpt lat="46.20081" lon="6.84403">
        <ele>2051</ele>
        <time>2010-01-01T04:18:06Z</time>
      </trkpt>
      <trkpt lat="46.2006" lon="6.84391">
        <ele>2054</ele>
        <time>2010-01-01T04:18:15Z</time>
      </trkpt>
      <trkpt lat="46.20056" lon="6.84387">
        <ele>2054</ele>
        <time>2010-01-01T04:18:17Z</time>
      </trkpt>
      <trkpt lat="46.20052" lon="6.84382">
        <ele>2054</ele>
        <time>2010-01-01T04:18:19Z</time>
      </trkpt>
      <trkpt lat="46.20049" lon="6.84381">
        <ele>2054</ele>
        <time>2010-01-01T04:18:21Z</time>
      </trkpt>
      <trkpt lat="46.20046" lon="6.84382">
        <ele>2054</ele>
        <time>2010-01-01T04:18:22Z</time>
      </trkpt>
      <trkpt lat="46.20038" lon="6.84394">
        <ele>2055</ele>
        <time>2010-01-01T04:18:26Z</time>
      </trkpt>
      <trkpt lat="46.20027" lon="6.84398">
        <ele>2055</ele>
        <time>2010-01-01T04:18:31Z</time>
      </trkpt>
      <trkpt lat="46.20013" lon="6.84397">
        <ele>2055</ele>
        <time>2010-01-01T04:18:37Z</time>
      </trkpt>
      <trkpt lat="46.19997" lon="6.844">
        <ele>2056</ele>
        <time>2010-01-01T04:18:43Z</time>
      </trkpt>
      <trkpt lat="46.19984" lon="6.84394">
        <ele>2056</ele>
        <time>2010-01-01T04:18:48Z</time>
      </trkpt>
      <trkpt lat="46.19976" lon="6.84378">
        <ele>2056</ele>
        <time>2010-01-01T04:18:54Z</time>
      </trkpt>
      <trkpt lat="46.19961" lon="6.84364">
        <ele>2058</ele>
        <time>2010-01-01T04:19:01Z</time>
      </trkpt>
      <trkpt lat="46.19952" lon="6.84353">
        <ele>2058</ele>
        <time>2010-01-01T04:19:06Z</time>
      </trkpt>
      <trkpt lat="46.19938" lon="6.84347">
        <ele>2059</ele>
        <time>2010-01-01T04:19:12Z</time>
      </trkpt>
      <trkpt lat="46.19922" lon="6.84337">
        <ele>2059</ele>
        <time>2010-01-01T04:19:19Z</time>
      </trkpt>
      <trkpt lat="46.19911" lon="6.84319">
        <ele>2061</ele>
        <time>2010-01-01T04:19:25Z</time>
      </trkpt>
      <trkpt lat="46.19907" lon="6.84314">
        <ele>2061</ele>
        <time>2010-01-01T04:19:27Z</time>
      </trkpt>
      <trkpt lat="46.19893" lon="6.8428">
        <ele>2061</ele>
        <time>2010-01-01T04:19:38Z</time>
      </trkpt>
      <trkpt lat="46.19869" lon="6.84271">
        <ele>2061</ele>
        <time>2010-01-01T04:19:48Z</time>
      </trkpt>
      <trkpt lat="46.19856" lon="6.84261">
        <ele>2060</ele>
        <time>2010-01-01T04:19:54Z</time>
      </trkpt>
      <trkpt lat="46.19847" lon="6.84257">
        <ele>2060</ele>
        <time>2010-01-01T04:19:58Z</time>
      </trkpt>
      <trkpt lat="46.19833" lon="6.84248">
        <ele>2060</ele>
        <time>2010-01-01T04:20:04Z</time>
      </trkpt>
      <trkpt lat="46.19828" lon="6.84246">
        <ele>2060</ele>
        <time>2010-01-01T04:20:06Z</time>
      </trkpt>
      <trkpt lat="46.19813" lon="6.84247">
        <ele>2060</ele>
        <time>2010-01-01T04:20:12Z</time>
      </trkpt>
      <trkpt lat="46.19808" lon="6.84246">
        <ele>2059</ele>
        <time>2010-01-01T04:20:14Z</time>
      </trkpt>
      <trkpt lat="46.19793" lon="6.8424">
        <ele>2059</ele>
        <time>2010-01-01T04:20:20Z</time>
      </trkpt>
      <trkpt lat="46.19785" lon="6.84234">
        <ele>2059</ele>
        <time>2010-01-01T04:20:24Z</time>
      </trkpt>
      <trkpt lat="46.19777" lon="6.84232">
        <ele>2059</ele>
        <time>2010-01-01T04:20:27Z</time>
      </trkpt>
      <trkpt lat="46.1975" lon="6.84235">
        <ele>2057</ele>
        <time>2010-01-01T04:20:38Z</time>
      </trkpt>
      <trkpt lat="46.19729" lon="6.84241">
        <ele>2056</ele>
        <time>2010-01-01T04:20:47Z</time>
      </trkpt>
      <trkpt lat="46.19707" lon="6.84242">
        <ele>2055</ele>
        <time>2010-01-01T04:20:55Z</time>
      </trkpt>
      <trkpt lat="46.197" lon="6.84237">
        <ele>2053</ele>
        <time>2010-01-01T04:20:59Z</time>
      </trkpt>
      <trkpt lat="46.19699" lon="6.84235">
        <ele>2053</ele>
        <time>2010-01-01T04:20:59Z</time>
      </trkpt>
      <trkpt lat="46.197" lon="6.84219">
        <ele>2050</ele>
        <time>2010-01-01T04:21:04Z</time>
      </trkpt>
      <trkpt lat="46.19699" lon="6.84209">
        <ele>2050</ele>
        <time>2010-01-01T04:21:06Z</time>
      </trkpt>
      <trkpt lat="46.19685" lon="6.84197">
        <ele>2049</ele>
        <time>2010-01-01T04:21:13Z</time>
      </trkpt>
      <trkpt lat="46.19679" lon="6.84198">
        <ele>2049</ele>
        <time>2010-01-01T04:21:15Z</time>
      </trkpt>
      <trkpt lat="46.19672" lon="6.84201">
        <ele>2049</ele>
        <time>2010-01-01T04:21:18Z</time>
      </trkpt>
      <trkpt lat="46.1965" lon="6.84226">
        <ele>2047</ele>
        <time>2010-01-01T04:21:29Z</time>
      </trkpt>
      <trkpt lat="46.19637" lon="6.84237">
        <ele>2046</ele>
        <time>2010-01-01T04:21:35Z</time>
      </trkpt>
      <trkpt lat="46.19631" lon="6.8424">
        <ele>2046</ele>
        <time>2010-01-01T04:21:38Z</time>
      </trkpt>
      <trkpt lat="46.19617" lon="6.84246">
        <ele>2045</ele>
        <time>2010-01-01T04:21:44Z</time>
      </trkpt>
      <trkpt lat="46.19607" lon="6.84248">
        <ele>2045</ele>
        <time>2010-01-01T04:21:48Z</time>
      </trkpt>
      <trkpt lat="46.19587" lon="6.84247">
        <ele>2044</ele>
        <time>2010-01-01T04:21:56Z</time>
      </trkpt>
      <trkpt lat="46.19578" lon="6.84244">
        <ele>2044</ele>
        <time>2010-01-01T04:22:00Z</time>
      </trkpt>
      <trkpt lat="46.19571" lon="6.84238">
        <ele>2043</ele>
        <time>2010-01-01T04:22:03Z</time>
      </trkpt>
      <trkpt lat="46.19568" lon="6.84229">
        <ele>2041</ele>
        <time>2010-01-01T04:22:05Z</time>
      </trkpt>
      <trkpt lat="46.19561" lon="6.84199">
        <ele>2040</ele>
        <time>2010-01-01T04:22:14Z</time>
      </trkpt>
      <trkpt lat="46.19557" lon="6.8418">
        <ele>2037</ele>
        <time>2010-01-01T04:22:20Z</time>
      </trkpt>
      <trkpt lat="46.19551" lon="6.84122">
        <ele>2029</ele>
        <time>2010-01-01T04:22:36Z</time>
      </trkpt>
      <trkpt lat="46.19544" lon="6.84084">
        <ele>2025</ele>
        <time>2010-01-01T04:22:47Z</time>
      </trkpt>
      <trkpt lat="46.19544" lon="6.84084">
        <ele>2025</ele>
        <time>2010-01-01T04:22:47Z</time>
      </trkpt>
      <trkpt lat="46.19529" lon="6.84027">
        <ele>2017</ele>
        <time>2010-01-01T04:23:04Z</time>
      </trkpt>
      <trkpt lat="46.19529" lon="6.84006">
        <ele>2010</ele>
        <time>2010-01-01T04:23:10Z</time>
      </trkpt>
      <trkpt lat="46.1953" lon="6.84">
        <ele>2008</ele>
        <time>2010-01-01T04:23:11Z</time>
      </trkpt>
      <trkpt lat="46.19526" lon="6.83961">
        <ele>2006</ele>
        <time>2010-01-01T04:23:22Z</time>
      </trkpt>
      <trkpt lat="46.19522" lon="6.83941">
        <ele>2004</ele>
        <time>2010-01-01T04:23:28Z</time>
      </trkpt>
      <trkpt lat="46.19524" lon="6.83925">
        <ele>2001</ele>
        <time>2010-01-01T04:23:32Z</time>
      </trkpt>
      <trkpt lat="46.1952" lon="6.83893">
        <ele>1999</ele>
        <time>2010-01-01T04:23:41Z</time>
      </trkpt>
      <trkpt lat="46.19519" lon="6.83861">
        <ele>1996</ele>
        <time>2010-01-01T04:23:50Z</time>
      </trkpt>
      <trkpt lat="46.19517" lon="6.83844">
        <ele>1993</ele>
        <time>2010-01-01T04:23:55Z</time>
      </trkpt>
      <trkpt lat="46.19513" lon="6.83837">
        <ele>1992</ele>
        <time>2010-01-01T04:23:58Z</time>
      </trkpt>
      <trkpt lat="46.19511" lon="6.83836">
        <ele>1991</ele>
        <time>2010-01-01T04:23:59Z</time>
      </trkpt>
      <trkpt lat="46.19509" lon="6.83838">
        <ele>1990</ele>
        <time>2010-01-01T04:24:00Z</time>
      </trkpt>
      <trkpt lat="46.19506" lon="6.83856">
        <ele>1988</ele>
        <time>2010-01-01T04:24:05Z</time>
      </trkpt>
      <trkpt lat="46.19495" lon="6.83889">
        <ele>1984</ele>
        <time>2010-01-01T04:24:15Z</time>
      </trkpt>
      <trkpt lat="46.19491" lon="6.83894">
        <ele>1984</ele>
        <time>2010-01-01T04:24:17Z</time>
      </trkpt>
      <trkpt lat="46.19473" lon="6.83913">
        <ele>1979</ele>
        <time>2010-01-01T04:24:26Z</time>
      </trkpt>
      <trkpt lat="46.1947" lon="6.83919">
        <ele>1978</ele>
        <time>2010-01-01T04:24:28Z</time>
      </trkpt>
      <trkpt lat="46.19455" lon="6.83955">
        <ele>1973</ele>
        <time>2010-01-01T04:24:39Z</time>
      </trkpt>
      <trkpt lat="46.19443" lon="6.83978">
        <ele>1970</ele>
        <time>2010-01-01T04:24:47Z</time>
      </trkpt>
      <trkpt lat="46.19439" lon="6.83983">
        <ele>1969</ele>
        <time>2010-01-01T04:24:50Z</time>
      </trkpt>
      <trkpt lat="46.19433" lon="6.83984">
        <ele>1968</ele>
        <time>2010-01-01T04:24:52Z</time>
      </trkpt>
      <trkpt lat="46.19419" lon="6.83979">
        <ele>1966</ele>
        <time>2010-01-01T04:24:58Z</time>
      </trkpt>
      <trkpt lat="46.19407" lon="6.83967">
        <ele>1964</ele>
        <time>2010-01-01T04:25:04Z</time>
      </trkpt>
      <trkpt lat="46.19402" lon="6.83959">
        <ele>1963</ele>
        <time>2010-01-01T04:25:07Z</time>
      </trkpt>
      <trkpt lat="46.19371" lon="6.83885">
        <ele>1952</ele>
        <time>2010-01-01T04:25:31Z</time>
      </trkpt>
      <trkpt lat="46.19351" lon="6.83831">
        <ele>1945</ele>
        <time>2010-01-01T04:25:48Z</time>
      </trkpt>
      <trkpt lat="46.19341" lon="6.83812">
        <ele>1942</ele>
        <time>2010-01-01T04:25:54Z</time>
      </trkpt>
      <trkpt lat="46.19339" lon="6.83802">
        <ele>1940</ele>
        <time>2010-01-01T04:25:57Z</time>
      </trkpt>
      <trkpt lat="46.19343" lon="6.83769">
        <ele>1936</ele>
        <time>2010-01-01T04:26:06Z</time>
      </trkpt>
      <trkpt lat="46.19346" lon="6.83754">
        <ele>1935</ele>
        <time>2010-01-01T04:26:11Z</time>
      </trkpt>
      <trkpt lat="46.1936" lon="6.83724">
        <ele>1932</ele>
        <time>2010-01-01T04:26:21Z</time>
      </trkpt>
      <trkpt lat="46.19371" lon="6.83706">
        <ele>1930</ele>
        <time>2010-01-01T04:26:27Z</time>
      </trkpt>
      <trkpt lat="46.19375" lon="6.83689">
        <ele>1928</ele>
        <time>2010-01-01T04:26:32Z</time>
      </trkpt>
      <trkpt lat="46.19374" lon="6.83676">
        <ele>1925</ele>
        <time>2010-01-01T04:26:36Z</time>
      </trkpt>
      <trkpt lat="46.1937" lon="6.83673">
        <ele>1924</ele>
        <time>2010-01-01T04:26:38Z</time>
      </trkpt>
      <trkpt lat="46.19363" lon="6.83675">
        <ele>1922</ele>
        <time>2010-01-01T04:26:41Z</time>
      </trkpt>
      <trkpt lat="46.19348" lon="6.83694">
        <ele>1919</ele>
        <time>2010-01-01T04:26:49Z</time>
      </trkpt>
      <trkpt lat="46.19323" lon="6.83717">
        <ele>1914</ele>
        <time>2010-01-01T04:27:00Z</time>
      </trkpt>
      <trkpt lat="46.19309" lon="6.83727">
        <ele>1912</ele>
        <time>2010-01-01T04:27:07Z</time>
      </trkpt>
      <trkpt lat="46.1929" lon="6.83737">
        <ele>1909</ele>
        <time>2010-01-01T04:27:15Z</time>
      </trkpt>
      <trkpt lat="46.19285" lon="6.83742">
        <ele>1908</ele>
        <time>2010-01-01T04:27:17Z</time>
      </trkpt>
      <trkpt lat="46.19282" lon="6.83749">
        <ele>1908</ele>
        <time>2010-01-01T04:27:19Z</time>
      </trkpt>
      <trkpt lat="46.19281" lon="6.83758">
        <ele>1906</ele>
        <time>2010-01-01T04:27:22Z</time>
      </trkpt>
      <trkpt lat="46.19281" lon="6.83788">
        <ele>1903</ele>
        <time>2010-01-01T04:27:30Z</time>
      </trkpt>
      <trkpt lat="46.19278" lon="6.83798">
        <ele>1902</ele>
        <time>2010-01-01T04:27:33Z</time>
      </trkpt>
      <trkpt lat="46.19259" lon="6.8383">
        <ele>1898</ele>
        <time>2010-01-01T04:27:45Z</time>
      </trkpt>
      <trkpt lat="46.19255" lon="6.83836">
        <ele>1898</ele>
        <time>2010-01-01T04:27:47Z</time>
      </trkpt>
      <trkpt lat="46.19252" lon="6.83838">
        <ele>1897</ele>
        <time>2010-01-01T04:27:49Z</time>
      </trkpt>
      <trkpt lat="46.19244" lon="6.83834">
        <ele>1895</ele>
        <time>2010-01-01T04:27:52Z</time>
      </trkpt>
      <trkpt lat="46.19239" lon="6.8383">
        <ele>1894</ele>
        <time>2010-01-01T04:27:54Z</time>
      </trkpt>
      <trkpt lat="46.19219" lon="6.83799">
        <ele>1890</ele>
        <time>2010-01-01T04:28:06Z</time>
      </trkpt>
      <trkpt lat="46.19214" lon="6.83792">
        <ele>1889</ele>
        <time>2010-01-01T04:28:09Z</time>
      </trkpt>
      <trkpt lat="46.19212" lon="6.83784">
        <ele>1889</ele>
        <time>2010-01-01T04:28:11Z</time>
      </trkpt>
      <trkpt lat="46.1922" lon="6.83745">
        <ele>1884</ele>
        <time>2010-01-01T04:28:22Z</time>
      </trkpt>
      <trkpt lat="46.19219" lon="6.83721">
        <ele>1882</ele>
        <time>2010-01-01T04:28:29Z</time>
      </trkpt>
      <trkpt lat="46.19216" lon="6.83696">
        <ele>1880</ele>
        <time>2010-01-01T04:28:36Z</time>
      </trkpt>
      <trkpt lat="46.19217" lon="6.83671">
        <ele>1878</ele>
        <time>2010-01-01T04:28:43Z</time>
      </trkpt>
      <trkpt lat="46.19217" lon="6.83671">
        <ele>1878</ele>
        <time>2010-01-01T04:28:43Z</time>
      </trkpt>
      <trkpt lat="46.1922" lon="6.83605">
        <ele>1871</ele>
        <time>2010-01-01T04:29:01Z</time>
      </trkpt>
      <trkpt lat="46.1923" lon="6.83567">
        <ele>1866</ele>
        <time>2010-01-01T04:29:13Z</time>
      </trkpt>
      <trkpt lat="46.19229" lon="6.83558">
        <ele>1864</ele>
        <time>2010-01-01T04:29:15Z</time>
      </trkpt>
      <trkpt lat="46.19226" lon="6.83553">
        <ele>1863</ele>
        <time>2010-01-01T04:29:17Z</time>
      </trkpt>
      <trkpt lat="46.19216" lon="6.83555">
        <ele>1862</ele>
        <time>2010-01-01T04:29:21Z</time>
      </trkpt>
      <trkpt lat="46.19211" lon="6.83559">
        <ele>1860</ele>
        <time>2010-01-01T04:29:23Z</time>
      </trkpt>
      <trkpt lat="46.19173" lon="6.83566">
        <ele>1858</ele>
        <time>2010-01-01T04:29:39Z</time>
      </trkpt>
      <trkpt lat="46.19146" lon="6.83563">
        <ele>1856</ele>
        <time>2010-01-01T04:29:49Z</time>
      </trkpt>
      <trkpt lat="46.19127" lon="6.83559">
        <ele>1855</ele>
        <time>2010-01-01T04:29:57Z</time>
      </trkpt>
      <trkpt lat="46.19118" lon="6.83559">
        <ele>1854</ele>
        <time>2010-01-01T04:30:01Z</time>
      </trkpt>
      <trkpt lat="46.19111" lon="6.83563">
        <ele>1852</ele>
        <time>2010-01-01T04:30:04Z</time>
      </trkpt>
      <trkpt lat="46.19106" lon="6.83569">
        <ele>1851</ele>
        <time>2010-01-01T04:30:07Z</time>
      </trkpt>
      <trkpt lat="46.19094" lon="6.83589">
        <ele>1848</ele>
        <time>2010-01-01T04:30:14Z</time>
      </trkpt>
      <trkpt lat="46.19079" lon="6.8361">
        <ele>1845</ele>
        <time>2010-01-01T04:30:22Z</time>
      </trkpt>
      <trkpt lat="46.19066" lon="6.83639">
        <ele>1840</ele>
        <time>2010-01-01T04:30:32Z</time>
      </trkpt>
      <trkpt lat="46.19062" lon="6.83645">
        <ele>1838</ele>
        <time>2010-01-01T04:30:34Z</time>
      </trkpt>
      <trkpt lat="46.19056" lon="6.83649">
        <ele>1837</ele>
        <time>2010-01-01T04:30:37Z</time>
      </trkpt>
      <trkpt lat="46.1905" lon="6.83651">
        <ele>1835</ele>
        <time>2010-01-01T04:30:39Z</time>
      </trkpt>
      <trkpt lat="46.19043" lon="6.8365">
        <ele>1834</ele>
        <time>2010-01-01T04:30:42Z</time>
      </trkpt>
      <trkpt lat="46.19034" lon="6.83645">
        <ele>1832</ele>
        <time>2010-01-01T04:30:46Z</time>
      </trkpt>
      <trkpt lat="46.19017" lon="6.83615">
        <ele>1831</ele>
        <time>2010-01-01T04:30:57Z</time>
      </trkpt>
      <trkpt lat="46.18998" lon="6.83607">
        <ele>1831</ele>
        <time>2010-01-01T04:31:05Z</time>
      </trkpt>
      <trkpt lat="46.18989" lon="6.836">
        <ele>1831</ele>
        <time>2010-01-01T04:31:09Z</time>
      </trkpt>
      <trkpt lat="46.18981" lon="6.83591">
        <ele>1830</ele>
        <time>2010-01-01T04:31:13Z</time>
      </trkpt>
      <trkpt lat="46.18973" lon="6.83572">
        <ele>1829</ele>
        <time>2010-01-01T04:31:19Z</time>
      </trkpt>
      <trkpt lat="46.18961" lon="6.83515">
        <ele>1827</ele>
        <time>2010-01-01T04:31:35Z</time>
      </trkpt>
      <trkpt lat="46.18952" lon="6.8348">
        <ele>1825</ele>
        <time>2010-01-01T04:31:46Z</time>
      </trkpt>
      <trkpt lat="46.18938" lon="6.8346">
        <ele>1824</ele>
        <time>2010-01-01T04:31:54Z</time>
      </trkpt>
      <trkpt lat="46.18912" lon="6.83436">
        <ele>1823</ele>
        <time>2010-01-01T04:32:06Z</time>
      </trkpt>
      <trkpt lat="46.18891" lon="6.83411">
        <ele>1823</ele>
        <time>2010-01-01T04:32:17Z</time>
      </trkpt>
      <trkpt lat="46.18858" lon="6.83385">
        <ele>1823</ele>
        <time>2010-01-01T04:32:32Z</time>
      </trkpt>
      <trkpt lat="46.18852" lon="6.83377">
        <ele>1822</ele>
        <time>2010-01-01T04:32:35Z</time>
      </trkpt>
      <trkpt lat="46.1885" lon="6.83371">
        <ele>1821</ele>
        <time>2010-01-01T04:32:37Z</time>
      </trkpt>
      <trkpt lat="46.18838" lon="6.83319">
        <ele>1820</ele>
        <time>2010-01-01T04:32:52Z</time>
      </trkpt>
      <trkpt lat="46.18811" lon="6.83244">
        <ele>1817</ele>
        <time>2010-01-01T04:33:16Z</time>
      </trkpt>
      <trkpt lat="46.18802" lon="6.83228">
        <ele>1817</ele>
        <time>2010-01-01T04:33:21Z</time>
      </trkpt>
      <trkpt lat="46.18796" lon="6.83223">
        <ele>1816</ele>
        <time>2010-01-01T04:33:24Z</time>
      </trkpt>
      <trkpt lat="46.1878" lon="6.83213">
        <ele>1816</ele>
        <time>2010-01-01T04:33:31Z</time>
      </trkpt>
      <trkpt lat="46.18775" lon="6.83208">
        <ele>1816</ele>
        <time>2010-01-01T04:33:33Z</time>
      </trkpt>
      <trkpt lat="46.18772" lon="6.83202">
        <ele>1816</ele>
        <time>2010-01-01T04:33:36Z</time>
      </trkpt>
      <trkpt lat="46.18761" lon="6.83172">
        <ele>1816</ele>
        <time>2010-01-01T04:33:45Z</time>
      </trkpt>
      <trkpt lat="46.18732" lon="6.83118">
        <ele>1816</ele>
        <time>2010-01-01T04:34:04Z</time>
      </trkpt>
      <trkpt lat="46.18727" lon="6.83102">
        <ele>1816</ele>
        <time>2010-01-01T04:34:09Z</time>
      </trkpt>
      <trkpt lat="46.18729" lon="6.83026">
        <ele>1818</ele>
        <time>2010-01-01T04:34:30Z</time>
      </trkpt>
      <trkpt lat="46.18729" lon="6.83017">
        <ele>1819</ele>
        <time>2010-01-01T04:34:32Z</time>
      </trkpt>
      <trkpt lat="46.18726" lon="6.83007">
        <ele>1819</ele>
        <time>2010-01-01T04:34:35Z</time>
      </trkpt>
      <trkpt lat="46.18726" lon="6.83007">
        <ele>1819</ele>
        <time>2010-01-01T04:34:35Z</time>
      </trkpt>
      <trkpt lat="46.18713" lon="6.82976">
        <ele>1820</ele>
        <time>2010-01-01T04:34:45Z</time>
      </trkpt>
      <trkpt lat="46.18708" lon="6.82956">
        <ele>1821</ele>
        <time>2010-01-01T04:34:51Z</time>
      </trkpt>
      <trkpt lat="46.18709" lon="6.82947">
        <ele>1821</ele>
        <time>2010-01-01T04:34:54Z</time>
      </trkpt>
      <trkpt lat="46.18708" lon="6.82937">
        <ele>1822</ele>
        <time>2010-01-01T04:34:57Z</time>
      </trkpt>
      <trkpt lat="46.18715" lon="6.82881">
        <ele>1824</ele>
        <time>2010-01-01T04:35:12Z</time>
      </trkpt>
      <trkpt lat="46.18715" lon="6.8286">
        <ele>1826</ele>
        <time>2010-01-01T04:35:18Z</time>
      </trkpt>
      <trkpt lat="46.18708" lon="6.82808">
        <ele>1829</ele>
        <time>2010-01-01T04:35:33Z</time>
      </trkpt>
      <trkpt lat="46.18705" lon="6.82795">
        <ele>1829</ele>
        <time>2010-01-01T04:35:37Z</time>
      </trkpt>
      <trkpt lat="46.18704" lon="6.82776">
        <ele>1830</ele>
        <time>2010-01-01T04:35:42Z</time>
      </trkpt>
      <trkpt lat="46.1871" lon="6.82731">
        <ele>1832</ele>
        <time>2010-01-01T04:35:55Z</time>
      </trkpt>
      <trkpt lat="46.18708" lon="6.82704">
        <ele>1833</ele>
        <time>2010-01-01T04:36:02Z</time>
      </trkpt>
      <trkpt lat="46.18709" lon="6.82671">
        <ele>1833</ele>
        <time>2010-01-01T04:36:11Z</time>
      </trkpt>
      <trkpt lat="46.18708" lon="6.82663">
        <ele>1833</ele>
        <time>2010-01-01T04:36:13Z</time>
      </trkpt>
      <trkpt lat="46.18701" lon="6.82644">
        <ele>1833</ele>
        <time>2010-01-01T04:36:19Z</time>
      </trkpt>
      <trkpt lat="46.18698" lon="6.82624">
        <ele>1833</ele>
        <time>2010-01-01T04:36:25Z</time>
      </trkpt>
      <trkpt lat="46.18691" lon="6.82611">
        <ele>1833</ele>
        <time>2010-01-01T04:36:30Z</time>
      </trkpt>
      <trkpt lat="46.18674" lon="6.82595">
        <ele>1833</ele>
        <time>2010-01-01T04:36:38Z</time>
      </trkpt>
      <trkpt lat="46.18659" lon="6.82576">
        <ele>1833</ele>
        <time>2010-01-01T04:36:46Z</time>
      </trkpt>
      <trkpt lat="46.18653" lon="6.8257">
        <ele>1833</ele>
        <time>2010-01-01T04:36:49Z</time>
      </trkpt>
      <trkpt lat="46.18638" lon="6.82564">
        <ele>1834</ele>
        <time>2010-01-01T04:36:55Z</time>
      </trkpt>
      <trkpt lat="46.18602" lon="6.8254">
        <ele>1836</ele>
        <time>2010-01-01T04:37:11Z</time>
      </trkpt>
      <trkpt lat="46.18579" lon="6.82531">
        <ele>1837</ele>
        <time>2010-01-01T04:37:20Z</time>
      </trkpt>
      <trkpt lat="46.18559" lon="6.82522">
        <ele>1837</ele>
        <time>2010-01-01T04:37:29Z</time>
      </trkpt>
      <trkpt lat="46.18523" lon="6.82508">
        <ele>1838</ele>
        <time>2010-01-01T04:37:44Z</time>
      </trkpt>
      <trkpt lat="46.18506" lon="6.82499">
        <ele>1838</ele>
        <time>2010-01-01T04:37:51Z</time>
      </trkpt>
      <trkpt lat="46.18493" lon="6.82489">
        <ele>1839</ele>
        <time>2010-01-01T04:37:57Z</time>
      </trkpt>
      <trkpt lat="46.18474" lon="6.82473">
        <ele>1839</ele>
        <time>2010-01-01T04:38:06Z</time>
      </trkpt>
      <trkpt lat="46.18468" lon="6.82467">
        <ele>1840</ele>
        <time>2010-01-01T04:38:09Z</time>
      </trkpt>
      <trkpt lat="46.18461" lon="6.82456">
        <ele>1840</ele>
        <time>2010-01-01T04:38:13Z</time>
      </trkpt>
      <trkpt lat="46.1845" lon="6.8243">
        <ele>1840</ele>
        <time>2010-01-01T04:38:21Z</time>
      </trkpt>
      <trkpt lat="46.18441" lon="6.82422">
        <ele>1840</ele>
        <time>2010-01-01T04:38:25Z</time>
      </trkpt>
      <trkpt lat="46.18434" lon="6.82421">
        <ele>1840</ele>
        <time>2010-01-01T04:38:28Z</time>
      </trkpt>
      <trkpt lat="46.18427" lon="6.82426">
        <ele>1840</ele>
        <time>2010-01-01T04:38:31Z</time>
      </trkpt>
      <trkpt lat="46.18422" lon="6.82435">
        <ele>1841</ele>
        <time>2010-01-01T04:38:34Z</time>
      </trkpt>
      <trkpt lat="46.18415" lon="6.82459">
        <ele>1842</ele>
        <time>2010-01-01T04:38:42Z</time>
      </trkpt>
      <trkpt lat="46.18409" lon="6.82466">
        <ele>1842</ele>
        <time>2010-01-01T04:38:44Z</time>
      </trkpt>
      <trkpt lat="46.184" lon="6.82469">
        <ele>1842</ele>
        <time>2010-01-01T04:38:48Z</time>
      </trkpt>
      <trkpt lat="46.18385" lon="6.82469">
        <ele>1844</ele>
        <time>2010-01-01T04:38:54Z</time>
      </trkpt>
      <trkpt lat="46.18373" lon="6.82466">
        <ele>1845</ele>
        <time>2010-01-01T04:38:59Z</time>
      </trkpt>
      <trkpt lat="46.18362" lon="6.8246">
        <ele>1846</ele>
        <time>2010-01-01T04:39:04Z</time>
      </trkpt>
      <trkpt lat="46.18344" lon="6.82438">
        <ele>1847</ele>
        <time>2010-01-01T04:39:13Z</time>
      </trkpt>
      <trkpt lat="46.18327" lon="6.8242">
        <ele>1848</ele>
        <time>2010-01-01T04:39:22Z</time>
      </trkpt>
      <trkpt lat="46.18319" lon="6.82414">
        <ele>1848</ele>
        <time>2010-01-01T04:39:25Z</time>
      </trkpt>
      <trkpt lat="46.18294" lon="6.82399">
        <ele>1850</ele>
        <time>2010-01-01T04:39:36Z</time>
      </trkpt>
      <trkpt lat="46.18269" lon="6.82379">
        <ele>1851</ele>
        <time>2010-01-01T04:39:48Z</time>
      </trkpt>
      <trkpt lat="46.18259" lon="6.82375">
        <ele>1852</ele>
        <time>2010-01-01T04:39:52Z</time>
      </trkpt>
      <trkpt lat="46.18247" lon="6.82374">
        <ele>1852</ele>
        <time>2010-01-01T04:39:57Z</time>
      </trkpt>
      <trkpt lat="46.18241" lon="6.82371">
        <ele>1852</ele>
        <time>2010-01-01T04:39:59Z</time>
      </trkpt>
      <trkpt lat="46.18232" lon="6.82362">
        <ele>1851</ele>
        <time>2010-01-01T04:40:03Z</time>
      </trkpt>
      <trkpt lat="46.18215" lon="6.82331">
        <ele>1851</ele>
        <time>2010-01-01T04:40:15Z</time>
      </trkpt>
      <trkpt lat="46.18206" lon="6.82323">
        <ele>1850</ele>
        <time>2010-01-01T04:40:19Z</time>
      </trkpt>
      <trkpt lat="46.18201" lon="6.82321">
        <ele>1850</ele>
        <time>2010-01-01T04:40:21Z</time>
      </trkpt>
      <trkpt lat="46.18196" lon="6.82321">
        <ele>1850</ele>
        <time>2010-01-01T04:40:23Z</time>
      </trkpt>
      <trkpt lat="46.18192" lon="6.82324">
        <ele>1850</ele>
        <time>2010-01-01T04:40:25Z</time>
      </trkpt>
      <trkpt lat="46.1818" lon="6.82349">
        <ele>1849</ele>
        <time>2010-01-01T04:40:33Z</time>
      </trkpt>
      <trkpt lat="46.1818" lon="6.82349">
        <ele>1849</ele>
        <time>2010-01-01T04:40:33Z</time>
      </trkpt>
      <trkpt lat="46.18175" lon="6.82356">
        <ele>1849</ele>
        <time>2010-01-01T04:40:36Z</time>
      </trkpt>
      <trkpt lat="46.18156" lon="6.82379">
        <ele>1847</ele>
        <time>2010-01-01T04:40:46Z</time>
      </trkpt>
      <trkpt lat="46.1815" lon="6.82389">
        <ele>1847</ele>
        <time>2010-01-01T04:40:50Z</time>
      </trkpt>
      <trkpt lat="46.18136" lon="6.82424">
        <ele>1846</ele>
        <time>2010-01-01T04:41:01Z</time>
      </trkpt>
      <trkpt lat="46.18128" lon="6.82431">
        <ele>1846</ele>
        <time>2010-01-01T04:41:04Z</time>
      </trkpt>
      <trkpt lat="46.1812" lon="6.82435">
        <ele>1845</ele>
        <time>2010-01-01T04:41:08Z</time>
      </trkpt>
      <trkpt lat="46.1809" lon="6.8244">
        <ele>1843</ele>
        <time>2010-01-01T04:41:20Z</time>
      </trkpt>
      <trkpt lat="46.18058" lon="6.82453">
        <ele>1839</ele>
        <time>2010-01-01T04:41:33Z</time>
      </trkpt>
      <trkpt lat="46.18036" lon="6.82455">
        <ele>1837</ele>
        <time>2010-01-01T04:41:42Z</time>
      </trkpt>
      <trkpt lat="46.18026" lon="6.82458">
        <ele>1836</ele>
        <time>2010-01-01T04:41:46Z</time>
      </trkpt>
      <trkpt lat="46.18016" lon="6.82464">
        <ele>1836</ele>
        <time>2010-01-01T04:41:50Z</time>
      </trkpt>
      <trkpt lat="46.17966" lon="6.82499">
        <ele>1838</ele>
        <time>2010-01-01T04:42:13Z</time>
      </trkpt>
      <trkpt lat="46.17958" lon="6.82511">
        <ele>1838</ele>
        <time>2010-01-01T04:42:17Z</time>
      </trkpt>
      <trkpt lat="46.17948" lon="6.82537">
        <ele>1838</ele>
        <time>2010-01-01T04:42:25Z</time>
      </trkpt>
      <trkpt lat="46.17922" lon="6.82571">
        <ele>1836</ele>
        <time>2010-01-01T04:42:40Z</time>
      </trkpt>
      <trkpt lat="46.17917" lon="6.82577">
        <ele>1835</ele>
        <time>2010-01-01T04:42:42Z</time>
      </trkpt>
      <trkpt lat="46.17912" lon="6.82557">
        <ele>1834</ele>
        <time>2010-01-01T04:42:48Z</time>
      </trkpt>
      <trkpt lat="46.17907" lon="6.8255">
        <ele>1834</ele>
        <time>2010-01-01T04:42:51Z</time>
      </trkpt>
      <trkpt lat="46.17891" lon="6.82523">
        <ele>1835</ele>
        <time>2010-01-01T04:43:00Z</time>
      </trkpt>
      <trkpt lat="46.17888" lon="6.82513">
        <ele>1836</ele>
        <time>2010-01-01T04:43:04Z</time>
      </trkpt>
      <trkpt lat="46.17887" lon="6.82501">
        <ele>1836</ele>
        <time>2010-01-01T04:43:07Z</time>
      </trkpt>
      <trkpt lat="46.17889" lon="6.82466">
        <ele>1838</ele>
        <time>2010-01-01T04:43:17Z</time>
      </trkpt>
      <trkpt lat="46.17879" lon="6.82419">
        <ele>1841</ele>
        <time>2010-01-01T04:43:30Z</time>
      </trkpt>
      <trkpt lat="46.17879" lon="6.82398">
        <ele>1842</ele>
        <time>2010-01-01T04:43:36Z</time>
      </trkpt>
      <trkpt lat="46.17875" lon="6.82378">
        <ele>1842</ele>
        <time>2010-01-01T04:43:42Z</time>
      </trkpt>
      <trkpt lat="46.17874" lon="6.82368">
        <ele>1843</ele>
        <time>2010-01-01T04:43:45Z</time>
      </trkpt>
      <trkpt lat="46.17876" lon="6.82344">
        <ele>1844</ele>
        <time>2010-01-01T04:43:52Z</time>
      </trkpt>
      <trkpt lat="46.17876" lon="6.823">
        <ele>1845</ele>
        <time>2010-01-01T04:44:04Z</time>
      </trkpt>
      <trkpt lat="46.17868" lon="6.82274">
        <ele>1845</ele>
        <time>2010-01-01T04:44:12Z</time>
      </trkpt>
      <trkpt lat="46.17864" lon="6.82247">
        <ele>1846</ele>
        <time>2010-01-01T04:44:19Z</time>
      </trkpt>
      <trkpt lat="46.17856" lon="6.82223">
        <ele>1847</ele>
        <time>2010-01-01T04:44:26Z</time>
      </trkpt>
      <trkpt lat="46.17854" lon="6.82197">
        <ele>1847</ele>
        <time>2010-01-01T04:44:34Z</time>
      </trkpt>
      <trkpt lat="46.17846" lon="6.82168">
        <ele>1847</ele>
        <time>2010-01-01T04:44:42Z</time>
      </trkpt>
      <trkpt lat="46.1783" lon="6.82125">
        <ele>1848</ele>
        <time>2010-01-01T04:44:56Z</time>
      </trkpt>
      <trkpt lat="46.17817" lon="6.82095">
        <ele>1848</ele>
        <time>2010-01-01T04:45:06Z</time>
      </trkpt>
      <trkpt lat="46.17798" lon="6.82062">
        <ele>1849</ele>
        <time>2010-01-01T04:45:18Z</time>
      </trkpt>
      <trkpt lat="46.17795" lon="6.82051">
        <ele>1849</ele>
        <time>2010-01-01T04:45:21Z</time>
      </trkpt>
      <trkpt lat="46.17794" lon="6.82039">
        <ele>1849</ele>
        <time>2010-01-01T04:45:24Z</time>
      </trkpt>
      <trkpt lat="46.17796" lon="6.82019">
        <ele>1849</ele>
        <time>2010-01-01T04:45:30Z</time>
      </trkpt>
      <trkpt lat="46.17795" lon="6.81999">
        <ele>1850</ele>
        <time>2010-01-01T04:45:35Z</time>
      </trkpt>
      <trkpt lat="46.17791" lon="6.81977">
        <ele>1850</ele>
        <time>2010-01-01T04:45:42Z</time>
      </trkpt>
      <trkpt lat="46.17779" lon="6.81938">
        <ele>1850</ele>
        <time>2010-01-01T04:45:53Z</time>
      </trkpt>
      <trkpt lat="46.17778" lon="6.8193">
        <ele>1850</ele>
        <time>2010-01-01T04:45:56Z</time>
      </trkpt>
      <trkpt lat="46.17783" lon="6.81875">
        <ele>1849</ele>
        <time>2010-01-01T04:46:11Z</time>
      </trkpt>
      <trkpt lat="46.17781" lon="6.81857">
        <ele>1849</ele>
        <time>2010-01-01T04:46:16Z</time>
      </trkpt>
      <trkpt lat="46.17775" lon="6.81834">
        <ele>1849</ele>
        <time>2010-01-01T04:46:23Z</time>
      </trkpt>
      <trkpt lat="46.17775" lon="6.81826">
        <ele>1849</ele>
        <time>2010-01-01T04:46:25Z</time>
      </trkpt>
      <trkpt lat="46.17778" lon="6.81811">
        <ele>1849</ele>
        <time>2010-01-01T04:46:29Z</time>
      </trkpt>
      <trkpt lat="46.17778" lon="6.81811">
        <ele>1849</ele>
        <time>2010-01-01T04:46:29Z</time>
      </trkpt>
      <trkpt lat="46.17786" lon="6.81784">
        <ele>1849</ele>
        <time>2010-01-01T04:46:38Z</time>
      </trkpt>
      <trkpt lat="46.17785" lon="6.81771">
        <ele>1849</ele>
        <time>2010-01-01T04:46:41Z</time>
      </trkpt>
      <trkpt lat="46.17778" lon="6.81754">
        <ele>1849</ele>
        <time>2010-01-01T04:46:47Z</time>
      </trkpt>
      <trkpt lat="46.17764" lon="6.81725">
        <ele>1849</ele>
        <time>2010-01-01T04:46:57Z</time>
      </trkpt>
      <trkpt lat="46.17734" lon="6.81678">
        <ele>1849</ele>
        <time>2010-01-01T04:47:14Z</time>
      </trkpt>
      <trkpt lat="46.1773" lon="6.81665">
        <ele>1849</ele>
        <time>2010-01-01T04:47:18Z</time>
      </trkpt>
      <trkpt lat="46.17726" lon="6.81647">
        <ele>1848</ele>
        <time>2010-01-01T04:47:23Z</time>
      </trkpt>
      <trkpt lat="46.17726" lon="6.81619">
        <ele>1848</ele>
        <time>2010-01-01T04:47:31Z</time>
      </trkpt>
      <trkpt lat="46.17735" lon="6.81579">
        <ele>1846</ele>
        <time>2010-01-01T04:47:43Z</time>
      </trkpt>
      <trkpt lat="46.17737" lon="6.81556">
        <ele>1845</ele>
        <time>2010-01-01T04:47:49Z</time>
      </trkpt>
      <trkpt lat="46.17747" lon="6.81516">
        <ele>1845</ele>
        <time>2010-01-01T04:48:01Z</time>
      </trkpt>
      <trkpt lat="46.17753" lon="6.81466">
        <ele>1843</ele>
        <time>2010-01-01T04:48:15Z</time>
      </trkpt>
      <trkpt lat="46.1775" lon="6.81447">
        <ele>1843</ele>
        <time>2010-01-01T04:48:20Z</time>
      </trkpt>
      <trkpt lat="46.17735" lon="6.81409">
        <ele>1842</ele>
        <time>2010-01-01T04:48:32Z</time>
      </trkpt>
      <trkpt lat="46.17731" lon="6.81402">
        <ele>1842</ele>
        <time>2010-01-01T04:48:35Z</time>
      </trkpt>
      <trkpt lat="46.17726" lon="6.81398">
        <ele>1842</ele>
        <time>2010-01-01T04:48:37Z</time>
      </trkpt>
      <trkpt lat="46.17688" lon="6.8138">
        <ele>1841</ele>
        <time>2010-01-01T04:48:53Z</time>
      </trkpt>
      <trkpt lat="46.1764" lon="6.81348">
        <ele>1842</ele>
        <time>2010-01-01T04:49:14Z</time>
      </trkpt>
      <trkpt lat="46.17622" lon="6.81325">
        <ele>1843</ele>
        <time>2010-01-01T04:49:24Z</time>
      </trkpt>
      <trkpt lat="46.17615" lon="6.81318">
        <ele>1843</ele>
        <time>2010-01-01T04:49:27Z</time>
      </trkpt>
      <trkpt lat="46.17593" lon="6.81307">
        <ele>1844</ele>
        <time>2010-01-01T04:49:37Z</time>
      </trkpt>
      <trkpt lat="46.17579" lon="6.81302">
        <ele>1844</ele>
        <time>2010-01-01T04:49:43Z</time>
      </trkpt>
      <trkpt lat="46.17556" lon="6.8129">
        <ele>1845</ele>
        <time>2010-01-01T04:49:52Z</time>
      </trkpt>
      <trkpt lat="46.1754" lon="6.81285">
        <ele>1844</ele>
        <time>2010-01-01T04:49:59Z</time>
      </trkpt>
      <trkpt lat="46.17527" lon="6.81287">
        <ele>1844</ele>
        <time>2010-01-01T04:50:04Z</time>
      </trkpt>
      <trkpt lat="46.17506" lon="6.81296">
        <ele>1844</ele>
        <time>2010-01-01T04:50:13Z</time>
      </trkpt>
      <trkpt lat="46.17492" lon="6.81307">
        <ele>1843</ele>
        <time>2010-01-01T04:50:19Z</time>
      </trkpt>
      <trkpt lat="46.1748" lon="6.81322">
        <ele>1843</ele>
        <time>2010-01-01T04:50:25Z</time>
      </trkpt>
      <trkpt lat="46.17466" lon="6.81346">
        <ele>1843</ele>
        <time>2010-01-01T04:50:34Z</time>
      </trkpt>
      <trkpt lat="46.17426" lon="6.81403">
        <ele>1840</ele>
        <time>2010-01-01T04:50:57Z</time>
      </trkpt>
      <trkpt lat="46.17403" lon="6.81447">
        <ele>1837</ele>
        <time>2010-01-01T04:51:12Z</time>
      </trkpt>
      <trkpt lat="46.17389" lon="6.8147">
        <ele>1836</ele>
        <time>2010-01-01T04:51:20Z</time>
      </trkpt>
      <trkpt lat="46.17382" lon="6.81478">
        <ele>1836</ele>
        <time>2010-01-01T04:51:24Z</time>
      </trkpt>
      <trkpt lat="46.17346" lon="6.81505">
        <ele>1831</ele>
        <time>2010-01-01T04:51:40Z</time>
      </trkpt>
      <trkpt lat="46.17329" lon="6.81524">
        <ele>1829</ele>
        <time>2010-01-01T04:51:49Z</time>
      </trkpt>
      <trkpt lat="46.17316" lon="6.81548">
        <ele>1828</ele>
        <time>2010-01-01T04:51:57Z</time>
      </trkpt>
      <trkpt lat="46.17308" lon="6.81572">
        <ele>1826</ele>
        <time>2010-01-01T04:52:05Z</time>
      </trkpt>
      <trkpt lat="46.17304" lon="6.81583">
        <ele>1825</ele>
        <time>2010-01-01T04:52:08Z</time>
      </trkpt>
      <trkpt lat="46.17298" lon="6.81591">
        <ele>1824</ele>
        <time>2010-01-01T04:52:12Z</time>
      </trkpt>
      <trkpt lat="46.17291" lon="6.81595">
        <ele>1823</ele>
        <time>2010-01-01T04:52:14Z</time>
      </trkpt>
      <trkpt lat="46.17265" lon="6.8159">
        <ele>1820</ele>
        <time>2010-01-01T04:52:25Z</time>
      </trkpt>
      <trkpt lat="46.17256" lon="6.8159">
        <ele>1820</ele>
        <time>2010-01-01T04:52:28Z</time>
      </trkpt>
      <trkpt lat="46.17256" lon="6.8159">
        <ele>1820</ele>
        <time>2010-01-01T04:52:28Z</time>
      </trkpt>
      <trkpt lat="46.17228" lon="6.81593">
        <ele>1821</ele>
        <time>2010-01-01T04:52:40Z</time>
      </trkpt>
      <trkpt lat="46.17219" lon="6.81592">
        <ele>1822</ele>
        <time>2010-01-01T04:52:43Z</time>
      </trkpt>
      <trkpt lat="46.17186" lon="6.81587">
        <ele>1823</ele>
        <time>2010-01-01T04:52:57Z</time>
      </trkpt>
      <trkpt lat="46.17166" lon="6.81582">
        <ele>1823</ele>
        <time>2010-01-01T04:53:05Z</time>
      </trkpt>
      <trkpt lat="46.1716" lon="6.81585">
        <ele>1823</ele>
        <time>2010-01-01T04:53:07Z</time>
      </trkpt>
      <trkpt lat="46.17155" lon="6.81592">
        <ele>1823</ele>
        <time>2010-01-01T04:53:10Z</time>
      </trkpt>
      <trkpt lat="46.17151" lon="6.81618">
        <ele>1823</ele>
        <time>2010-01-01T04:53:18Z</time>
      </trkpt>
      <trkpt lat="46.17147" lon="6.81626">
        <ele>1823</ele>
        <time>2010-01-01T04:53:20Z</time>
      </trkpt>
      <trkpt lat="46.17138" lon="6.81637">
        <ele>1823</ele>
        <time>2010-01-01T04:53:25Z</time>
      </trkpt>
      <trkpt lat="46.17115" lon="6.81651">
        <ele>1823</ele>
        <time>2010-01-01T04:53:35Z</time>
      </trkpt>
      <trkpt lat="46.17083" lon="6.81665">
        <ele>1824</ele>
        <time>2010-01-01T04:53:48Z</time>
      </trkpt>
      <trkpt lat="46.1705" lon="6.81674">
        <ele>1824</ele>
        <time>2010-01-01T04:54:02Z</time>
      </trkpt>
      <trkpt lat="46.17026" lon="6.81677">
        <ele>1825</ele>
        <time>2010-01-01T04:54:11Z</time>
      </trkpt>
      <trkpt lat="46.17015" lon="6.81674">
        <ele>1825</ele>
        <time>2010-01-01T04:54:16Z</time>
      </trkpt>
      <trkpt lat="46.17011" lon="6.8167">
        <ele>1825</ele>
        <time>2010-01-01T04:54:18Z</time>
      </trkpt>
      <trkpt lat="46.17003" lon="6.81661">
        <ele>1825</ele>
        <time>2010-01-01T04:54:22Z</time>
      </trkpt>
      <trkpt lat="46.16976" lon="6.8162">
        <ele>1825</ele>
        <time>2010-01-01T04:54:37Z</time>
      </trkpt>
      <trkpt lat="46.16959" lon="6.81587">
        <ele>1824</ele>
        <time>2010-01-01T04:54:49Z</time>
      </trkpt>
      <trkpt lat="46.16956" lon="6.81577">
        <ele>1824</ele>
        <time>2010-01-01T04:54:52Z</time>
      </trkpt>
      <trkpt lat="46.16955" lon="6.81567">
        <ele>1824</ele>
        <time>2010-01-01T04:54:55Z</time>
      </trkpt>
      <trkpt lat="46.16959" lon="6.81536">
        <ele>1822</ele>
        <time>2010-01-01T04:55:03Z</time>
      </trkpt>
      <trkpt lat="46.16959" lon="6.81526">
        <ele>1822</ele>
        <time>2010-01-01T04:55:06Z</time>
      </trkpt>
      <trkpt lat="46.16954" lon="6.81505">
        <ele>1821</ele>
        <time>2010-01-01T04:55:12Z</time>
      </trkpt>
      <trkpt lat="46.16947" lon="6.81486">
        <ele>1820</ele>
        <time>2010-01-01T04:55:18Z</time>
      </trkpt>
      <trkpt lat="46.16918" lon="6.8143">
        <ele>1817</ele>
        <time>2010-01-01T04:55:38Z</time>
      </trkpt>
      <trkpt lat="46.16887" lon="6.81379">
        <ele>1814</ele>
        <time>2010-01-01T04:55:57Z</time>
      </trkpt>
      <trkpt lat="46.16875" lon="6.81347">
        <ele>1812</ele>
        <time>2010-01-01T04:56:07Z</time>
      </trkpt>
      <trkpt lat="46.1687" lon="6.81338">
        <ele>1812</ele>
        <time>2010-01-01T04:56:10Z</time>
      </trkpt>
      <trkpt lat="46.16846" lon="6.81305">
        <ele>1810</ele>
        <time>2010-01-01T04:56:23Z</time>
      </trkpt>
      <trkpt lat="46.1683" lon="6.81272">
        <ele>1808</ele>
        <time>2010-01-01T04:56:34Z</time>
      </trkpt>
      <trkpt lat="46.16815" lon="6.81238">
        <ele>1806</ele>
        <time>2010-01-01T04:56:46Z</time>
      </trkpt>
      <trkpt lat="46.16809" lon="6.81229">
        <ele>1805</ele>
        <time>2010-01-01T04:56:49Z</time>
      </trkpt>
      <trkpt lat="46.16787" lon="6.81219">
        <ele>1803</ele>
        <time>2010-01-01T04:56:58Z</time>
      </trkpt>
      <trkpt lat="46.1678" lon="6.81212">
        <ele>1803</ele>
        <time>2010-01-01T04:57:02Z</time>
      </trkpt>
      <trkpt lat="46.16768" lon="6.81194">
        <ele>1801</ele>
        <time>2010-01-01T04:57:08Z</time>
      </trkpt>
      <trkpt lat="46.16761" lon="6.81188">
        <ele>1801</ele>
        <time>2010-01-01T04:57:12Z</time>
      </trkpt>
      <trkpt lat="46.16745" lon="6.81178">
        <ele>1799</ele>
        <time>2010-01-01T04:57:19Z</time>
      </trkpt>
      <trkpt lat="46.16716" lon="6.81153">
        <ele>1796</ele>
        <time>2010-01-01T04:57:32Z</time>
      </trkpt>
      <trkpt lat="46.16705" lon="6.81136">
        <ele>1794</ele>
        <time>2010-01-01T04:57:39Z</time>
      </trkpt>
      <trkpt lat="46.16687" lon="6.81097">
        <ele>1791</ele>
        <time>2010-01-01T04:57:52Z</time>
      </trkpt>
      <trkpt lat="46.16673" lon="6.81073">
        <ele>1789</ele>
        <time>2010-01-01T04:58:00Z</time>
      </trkpt>
      <trkpt lat="46.16656" lon="6.81054">
        <ele>1789</ele>
        <time>2010-01-01T04:58:09Z</time>
      </trkpt>
      <trkpt lat="46.16651" lon="6.81051">
        <ele>1788</ele>
        <time>2010-01-01T04:58:11Z</time>
      </trkpt>
      <trkpt lat="46.16648" lon="6.81051">
        <ele>1788</ele>
        <time>2010-01-01T04:58:13Z</time>
      </trkpt>
      <trkpt lat="46.16645" lon="6.81055">
        <ele>1787</ele>
        <time>2010-01-01T04:58:14Z</time>
      </trkpt>
      <trkpt lat="46.16645" lon="6.81061">
        <ele>1787</ele>
        <time>2010-01-01T04:58:16Z</time>
      </trkpt>
      <trkpt lat="46.16647" lon="6.81067">
        <ele>1785</ele>
        <time>2010-01-01T04:58:18Z</time>
      </trkpt>
      <trkpt lat="46.16667" lon="6.81086">
        <ele>1783</ele>
        <time>2010-01-01T04:58:27Z</time>
      </trkpt>
      <trkpt lat="46.16667" lon="6.81086">
        <ele>1783</ele>
        <time>2010-01-01T04:58:27Z</time>
      </trkpt>
      <trkpt lat="46.16674" lon="6.81103">
        <ele>1782</ele>
        <time>2010-01-01T04:58:33Z</time>
      </trkpt>
      <trkpt lat="46.16677" lon="6.81114">
        <ele>1781</ele>
        <time>2010-01-01T04:58:36Z</time>
      </trkpt>
      <trkpt lat="46.16684" lon="6.81172">
        <ele>1778</ele>
        <time>2010-01-01T04:58:52Z</time>
      </trkpt>
      <trkpt lat="46.16687" lon="6.81215">
        <ele>1775</ele>
        <time>2010-01-01T04:59:04Z</time>
      </trkpt>
      <trkpt lat="46.16689" lon="6.81228">
        <ele>1774</ele>
        <time>2010-01-01T04:59:08Z</time>
      </trkpt>
      <trkpt lat="46.16703" lon="6.81264">
        <ele>1771</ele>
        <time>2010-01-01T04:59:20Z</time>
      </trkpt>
      <trkpt lat="46.16704" lon="6.81278">
        <ele>1770</ele>
        <time>2010-01-01T04:59:23Z</time>
      </trkpt>
      <trkpt lat="46.16702" lon="6.81303">
        <ele>1769</ele>
        <time>2010-01-01T04:59:30Z</time>
      </trkpt>
      <trkpt lat="46.16703" lon="6.81314">
        <ele>1769</ele>
        <time>2010-01-01T04:59:34Z</time>
      </trkpt>
      <trkpt lat="46.16714" lon="6.81344">
        <ele>1767</ele>
        <time>2010-01-01T04:59:43Z</time>
      </trkpt>
      <trkpt lat="46.16702" lon="6.81398">
        <ele>1767</ele>
        <time>2010-01-01T04:59:59Z</time>
      </trkpt>
      <trkpt lat="46.16702" lon="6.81409">
        <ele>1766</ele>
        <time>2010-01-01T05:00:02Z</time>
      </trkpt>
      <trkpt lat="46.16706" lon="6.81443">
        <ele>1765</ele>
        <time>2010-01-01T05:00:11Z</time>
      </trkpt>
      <trkpt lat="46.16706" lon="6.81455">
        <ele>1764</ele>
        <time>2010-01-01T05:00:15Z</time>
      </trkpt>
      <trkpt lat="46.16701" lon="6.8151">
        <ele>1759</ele>
        <time>2010-01-01T05:00:30Z</time>
      </trkpt>
      <trkpt lat="46.16687" lon="6.81573">
        <ele>1755</ele>
        <time>2010-01-01T05:00:48Z</time>
      </trkpt>
      <trkpt lat="46.16684" lon="6.81582">
        <ele>1755</ele>
        <time>2010-01-01T05:00:51Z</time>
      </trkpt>
      <trkpt lat="46.16679" lon="6.81587">
        <ele>1755</ele>
        <time>2010-01-01T05:00:54Z</time>
      </trkpt>
      <trkpt lat="46.16661" lon="6.81598">
        <ele>1752</ele>
        <time>2010-01-01T05:01:01Z</time>
      </trkpt>
      <trkpt lat="46.16654" lon="6.816">
        <ele>1751</ele>
        <time>2010-01-01T05:01:04Z</time>
      </trkpt>
      <trkpt lat="46.16647" lon="6.816">
        <ele>1751</ele>
        <time>2010-01-01T05:01:07Z</time>
      </trkpt>
      <trkpt lat="46.16639" lon="6.81598">
        <ele>1751</ele>
        <time>2010-01-01T05:01:10Z</time>
      </trkpt>
      <trkpt lat="46.16632" lon="6.81594">
        <ele>1750</ele>
        <time>2010-01-01T05:01:13Z</time>
      </trkpt>
      <trkpt lat="46.16626" lon="6.81588">
        <ele>1749</ele>
        <time>2010-01-01T05:01:16Z</time>
      </trkpt>
      <trkpt lat="46.1662" lon="6.8158">
        <ele>1749</ele>
        <time>2010-01-01T05:01:19Z</time>
      </trkpt>
      <trkpt lat="46.16617" lon="6.81571">
        <ele>1748</ele>
        <time>2010-01-01T05:01:22Z</time>
      </trkpt>
      <trkpt lat="46.16616" lon="6.81562">
        <ele>1748</ele>
        <time>2010-01-01T05:01:25Z</time>
      </trkpt>
      <trkpt lat="46.16625" lon="6.8154">
        <ele>1745</ele>
        <time>2010-01-01T05:01:32Z</time>
      </trkpt>
      <trkpt lat="46.16626" lon="6.81532">
        <ele>1744</ele>
        <time>2010-01-01T05:01:34Z</time>
      </trkpt>
      <trkpt lat="46.16623" lon="6.81528">
        <ele>1745</ele>
        <time>2010-01-01T05:01:36Z</time>
      </trkpt>
      <trkpt lat="46.16617" lon="6.81525">
        <ele>1745</ele>
        <time>2010-01-01T05:01:38Z</time>
      </trkpt>
      <trkpt lat="46.16612" lon="6.8152">
        <ele>1745</ele>
        <time>2010-01-01T05:01:41Z</time>
      </trkpt>
      <trkpt lat="46.16609" lon="6.81514">
        <ele>1744</ele>
        <time>2010-01-01T05:01:43Z</time>
      </trkpt>
      <trkpt lat="46.16602" lon="6.81499">
        <ele>1743</ele>
        <time>2010-01-01T05:01:48Z</time>
      </trkpt>
      <trkpt lat="46.166" lon="6.8148">
        <ele>1741</ele>
        <time>2010-01-01T05:01:53Z</time>
      </trkpt>
      <trkpt lat="46.16603" lon="6.81472">
        <ele>1740</ele>
        <time>2010-01-01T05:01:56Z</time>
      </trkpt>
      <trkpt lat="46.1661" lon="6.81459">
        <ele>1738</ele>
        <time>2010-01-01T05:02:00Z</time>
      </trkpt>
      <trkpt lat="46.16613" lon="6.81452">
        <ele>1738</ele>
        <time>2010-01-01T05:02:02Z</time>
      </trkpt>
      <trkpt lat="46.16612" lon="6.81446">
        <ele>1737</ele>
        <time>2010-01-01T05:02:04Z</time>
      </trkpt>
      <trkpt lat="46.16608" lon="6.81443">
        <ele>1737</ele>
        <time>2010-01-01T05:02:06Z</time>
      </trkpt>
      <trkpt lat="46.16594" lon="6.81438">
        <ele>1737</ele>
        <time>2010-01-01T05:02:12Z</time>
      </trkpt>
      <trkpt lat="46.16588" lon="6.81427">
        <ele>1736</ele>
        <time>2010-01-01T05:02:16Z</time>
      </trkpt>
      <trkpt lat="46.16587" lon="6.8142">
        <ele>1736</ele>
        <time>2010-01-01T05:02:18Z</time>
      </trkpt>
      <trkpt lat="46.16596" lon="6.81397">
        <ele>1734</ele>
        <time>2010-01-01T05:02:25Z</time>
      </trkpt>
      <trkpt lat="46.16598" lon="6.8138">
        <ele>1734</ele>
        <time>2010-01-01T05:02:30Z</time>
      </trkpt>
      <trkpt lat="46.16593" lon="6.81345">
        <ele>1734</ele>
        <time>2010-01-01T05:02:40Z</time>
      </trkpt>
      <trkpt lat="46.16595" lon="6.81337">
        <ele>1734</ele>
        <time>2010-01-01T05:02:42Z</time>
      </trkpt>
      <trkpt lat="46.16605" lon="6.81316">
        <ele>1733</ele>
        <time>2010-01-01T05:02:49Z</time>
      </trkpt>
      <trkpt lat="46.16607" lon="6.81309">
        <ele>1733</ele>
        <time>2010-01-01T05:02:51Z</time>
      </trkpt>
      <trkpt lat="46.16607" lon="6.81301">
        <ele>1732</ele>
        <time>2010-01-01T05:02:54Z</time>
      </trkpt>
      <trkpt lat="46.16606" lon="6.81295">
        <ele>1732</ele>
        <time>2010-01-01T05:02:55Z</time>
      </trkpt>
      <trkpt lat="46.16588" lon="6.81284">
        <ele>1731</ele>
        <time>2010-01-01T05:03:03Z</time>
      </trkpt>
      <trkpt lat="46.16573" lon="6.81269">
        <ele>1730</ele>
        <time>2010-01-01T05:03:10Z</time>
      </trkpt>
      <trkpt lat="46.16565" lon="6.81255">
        <ele>1730</ele>
        <time>2010-01-01T05:03:15Z</time>
      </trkpt>
      <trkpt lat="46.16555" lon="6.81226">
        <ele>1729</ele>
        <time>2010-01-01T05:03:24Z</time>
      </trkpt>
      <trkpt lat="46.16549" lon="6.81218">
        <ele>1728</ele>
        <time>2010-01-01T05:03:27Z</time>
      </trkpt>
      <trkpt lat="46.16543" lon="6.81212">
        <ele>1728</ele>
        <time>2010-01-01T05:03:31Z</time>
      </trkpt>
      <trkpt lat="46.16535" lon="6.81208">
        <ele>1728</ele>
        <time>2010-01-01T05:03:34Z</time>
      </trkpt>
      <trkpt lat="46.16528" lon="6.81207">
        <ele>1727</ele>
        <time>2010-01-01T05:03:37Z</time>
      </trkpt>
      <trkpt lat="46.16513" lon="6.8121">
        <ele>1726</ele>
        <time>2010-01-01T05:03:43Z</time>
      </trkpt>
      <trkpt lat="46.16497" lon="6.81209">
        <ele>1725</ele>
        <time>2010-01-01T05:03:49Z</time>
      </trkpt>
      <trkpt lat="46.16482" lon="6.81203">
        <ele>1725</ele>
        <time>2010-01-01T05:03:55Z</time>
      </trkpt>
      <trkpt lat="46.16468" lon="6.81194">
        <ele>1724</ele>
        <time>2010-01-01T05:04:01Z</time>
      </trkpt>
      <trkpt lat="46.16436" lon="6.81168">
        <ele>1722</ele>
        <time>2010-01-01T05:04:16Z</time>
      </trkpt>
      <trkpt lat="46.16431" lon="6.81161">
        <ele>1722</ele>
        <time>2010-01-01T05:04:19Z</time>
      </trkpt>
      <trkpt lat="46.16423" lon="6.81142">
        <ele>1721</ele>
        <time>2010-01-01T05:04:25Z</time>
      </trkpt>
      <trkpt lat="46.16423" lon="6.81142">
        <ele>1721</ele>
        <time>2010-01-01T05:04:25Z</time>
      </trkpt>
      <trkpt lat="46.16417" lon="6.81109">
        <ele>1720</ele>
        <time>2010-01-01T05:04:35Z</time>
      </trkpt>
      <trkpt lat="46.16419" lon="6.81098">
        <ele>1720</ele>
        <time>2010-01-01T05:04:37Z</time>
      </trkpt>
      <trkpt lat="46.16425" lon="6.81079">
        <ele>1719</ele>
        <time>2010-01-01T05:04:43Z</time>
      </trkpt>
      <trkpt lat="46.16426" lon="6.81055">
        <ele>1718</ele>
        <time>2010-01-01T05:04:50Z</time>
      </trkpt>
      <trkpt lat="46.16424" lon="6.8103">
        <ele>1717</ele>
        <time>2010-01-01T05:04:57Z</time>
      </trkpt>
      <trkpt lat="46.16419" lon="6.81006">
        <ele>1716</ele>
        <time>2010-01-01T05:05:04Z</time>
      </trkpt>
      <trkpt lat="46.16407" lon="6.80972">
        <ele>1714</ele>
        <time>2010-01-01T05:05:15Z</time>
      </trkpt>
      <trkpt lat="46.16405" lon="6.80959">
        <ele>1714</ele>
        <time>2010-01-01T05:05:18Z</time>
      </trkpt>
      <trkpt lat="46.16402" lon="6.80919">
        <ele>1711</ele>
        <time>2010-01-01T05:05:29Z</time>
      </trkpt>
      <trkpt lat="46.16393" lon="6.80894">
        <ele>1709</ele>
        <time>2010-01-01T05:05:37Z</time>
      </trkpt>
      <trkpt lat="46.1639" lon="6.80881">
        <ele>1709</ele>
        <time>2010-01-01T05:05:41Z</time>
      </trkpt>
      <trkpt lat="46.16388" lon="6.80868">
        <ele>1707</ele>
        <time>2010-01-01T05:05:45Z</time>
      </trkpt>
      <trkpt lat="46.1639" lon="6.80818">
        <ele>1703</ele>
        <time>2010-01-01T05:05:59Z</time>
      </trkpt>
      <trkpt lat="46.16393" lon="6.8081">
        <ele>1702</ele>
        <time>2010-01-01T05:06:01Z</time>
      </trkpt>
      <trkpt lat="46.16409" lon="6.80789">
        <ele>1699</ele>
        <time>2010-01-01T05:06:10Z</time>
      </trkpt>
      <trkpt lat="46.16415" lon="6.80775">
        <ele>1698</ele>
        <time>2010-01-01T05:06:14Z</time>
      </trkpt>
      <trkpt lat="46.16403" lon="6.80757">
        <ele>1696</ele>
        <time>2010-01-01T05:06:21Z</time>
      </trkpt>
      <trkpt lat="46.16401" lon="6.80748">
        <ele>1695</ele>
        <time>2010-01-01T05:06:24Z</time>
      </trkpt>
      <trkpt lat="46.16399" lon="6.80727">
        <ele>1694</ele>
        <time>2010-01-01T05:06:30Z</time>
      </trkpt>
      <trkpt lat="46.164" lon="6.80716">
        <ele>1693</ele>
        <time>2010-01-01T05:06:33Z</time>
      </trkpt>
      <trkpt lat="46.16408" lon="6.8069">
        <ele>1690</ele>
        <time>2010-01-01T05:06:41Z</time>
      </trkpt>
      <trkpt lat="46.16409" lon="6.80682">
        <ele>1689</ele>
        <time>2010-01-01T05:06:43Z</time>
      </trkpt>
      <trkpt lat="46.16403" lon="6.80668">
        <ele>1689</ele>
        <time>2010-01-01T05:06:48Z</time>
      </trkpt>
      <trkpt lat="46.164" lon="6.80649">
        <ele>1687</ele>
        <time>2010-01-01T05:06:53Z</time>
      </trkpt>
      <trkpt lat="46.16398" lon="6.80608">
        <ele>1684</ele>
        <time>2010-01-01T05:07:05Z</time>
      </trkpt>
      <trkpt lat="46.164" lon="6.80565">
        <ele>1680</ele>
        <time>2010-01-01T05:07:17Z</time>
      </trkpt>
      <trkpt lat="46.16397" lon="6.80554">
        <ele>1679</ele>
        <time>2010-01-01T05:07:20Z</time>
      </trkpt>
      <trkpt lat="46.16384" lon="6.80526">
        <ele>1678</ele>
        <time>2010-01-01T05:07:29Z</time>
      </trkpt>
      <trkpt lat="46.16375" lon="6.80494">
        <ele>1677</ele>
        <time>2010-01-01T05:07:39Z</time>
      </trkpt>
      <trkpt lat="46.16363" lon="6.80465">
        <ele>1674</ele>
        <time>2010-01-01T05:07:48Z</time>
      </trkpt>
      <trkpt lat="46.16356" lon="6.80432">
        <ele>1672</ele>
        <time>2010-01-01T05:07:57Z</time>
      </trkpt>
      <trkpt lat="46.16335" lon="6.80402">
        <ele>1670</ele>
        <time>2010-01-01T05:08:09Z</time>
      </trkpt>
      <trkpt lat="46.16326" lon="6.80373">
        <ele>1669</ele>
        <time>2010-01-01T05:08:18Z</time>
      </trkpt>
      <trkpt lat="46.16322" lon="6.8037">
        <ele>1669</ele>
        <time>2010-01-01T05:08:20Z</time>
      </trkpt>
      <trkpt lat="46.16315" lon="6.80357">
        <ele>1671</ele>
        <time>2010-01-01T05:08:24Z</time>
      </trkpt>
      <trkpt lat="46.1629" lon="6.80341">
        <ele>1673</ele>
        <time>2010-01-01T05:08:35Z</time>
      </trkpt>
      <trkpt lat="46.16266" lon="6.80298">
        <ele>1674</ele>
        <time>2010-01-01T05:08:51Z</time>
      </trkpt>
      <trkpt lat="46.16259" lon="6.80291">
        <ele>1675</ele>
        <time>2010-01-01T05:08:54Z</time>
      </trkpt>
      <trkpt lat="46.16238" lon="6.80258">
        <ele>1675</ele>
        <time>2010-01-01T05:09:06Z</time>
      </trkpt>
      <trkpt lat="46.16228" lon="6.80249">
        <ele>1675</ele>
        <time>2010-01-01T05:09:11Z</time>
      </trkpt>
      <trkpt lat="46.16209" lon="6.80237">
        <ele>1676</ele>
        <time>2010-01-01T05:09:20Z</time>
      </trkpt>
      <trkpt lat="46.16181" lon="6.80212">
        <ele>1677</ele>
        <time>2010-01-01T05:09:32Z</time>
      </trkpt>
      <trkpt lat="46.16171" lon="6.80198">
        <ele>1676</ele>
        <time>2010-01-01T05:09:38Z</time>
      </trkpt>
      <trkpt lat="46.16166" lon="6.80194">
        <ele>1676</ele>
        <time>2010-01-01T05:09:40Z</time>
      </trkpt>
      <trkpt lat="46.16143" lon="6.80181">
        <ele>1676</ele>
        <time>2010-01-01T05:09:50Z</time>
      </trkpt>
      <trkpt lat="46.16118" lon="6.8018">
        <ele>1676</ele>
        <time>2010-01-01T05:10:00Z</time>
      </trkpt>
      <trkpt lat="46.16106" lon="6.80181">
        <ele>1675</ele>
        <time>2010-01-01T05:10:05Z</time>
      </trkpt>
      <trkpt lat="46.16089" lon="6.80185">
        <ele>1675</ele>
        <time>2010-01-01T05:10:12Z</time>
      </trkpt>
      <trkpt lat="46.16078" lon="6.8019">
        <ele>1675</ele>
        <time>2010-01-01T05:10:17Z</time>
      </trkpt>
      <trkpt lat="46.16068" lon="6.80197">
        <ele>1674</ele>
        <time>2010-01-01T05:10:21Z</time>
      </trkpt>
      <trkpt lat="46.16068" lon="6.80197">
        <ele>1674</ele>
        <time>2010-01-01T05:10:21Z</time>
      </trkpt>
      <trkpt lat="46.16039" lon="6.80221">
        <ele>1673</ele>
        <time>2010-01-01T05:10:34Z</time>
      </trkpt>
      <trkpt lat="46.16018" lon="6.80248">
        <ele>1670</ele>
        <time>2010-01-01T05:10:46Z</time>
      </trkpt>
      <trkpt lat="46.16011" lon="6.80251">
        <ele>1670</ele>
        <time>2010-01-01T05:10:48Z</time>
      </trkpt>
      <trkpt lat="46.15995" lon="6.80241">
        <ele>1668</ele>
        <time>2010-01-01T05:10:55Z</time>
      </trkpt>
      <trkpt lat="46.15956" lon="6.80231">
        <ele>1664</ele>
        <time>2010-01-01T05:11:11Z</time>
      </trkpt>
      <trkpt lat="46.15941" lon="6.80219">
        <ele>1663</ele>
        <time>2010-01-01T05:11:18Z</time>
      </trkpt>
      <trkpt lat="46.15924" lon="6.80217">
        <ele>1662</ele>
        <time>2010-01-01T05:11:25Z</time>
      </trkpt>
      <trkpt lat="46.15902" lon="6.80217">
        <ele>1661</ele>
        <time>2010-01-01T05:11:34Z</time>
      </trkpt>
      <trkpt lat="46.15893" lon="6.80216">
        <ele>1660</ele>
        <time>2010-01-01T05:11:37Z</time>
      </trkpt>
      <trkpt lat="46.15886" lon="6.8021">
        <ele>1660</ele>
        <time>2010-01-01T05:11:41Z</time>
      </trkpt>
      <trkpt lat="46.15869" lon="6.80176">
        <ele>1657</ele>
        <time>2010-01-01T05:11:52Z</time>
      </trkpt>
      <trkpt lat="46.15818" lon="6.80102">
        <ele>1653</ele>
        <time>2010-01-01T05:12:21Z</time>
      </trkpt>
      <trkpt lat="46.15809" lon="6.80094">
        <ele>1652</ele>
        <time>2010-01-01T05:12:25Z</time>
      </trkpt>
      <trkpt lat="46.15806" lon="6.80094">
        <ele>1652</ele>
        <time>2010-01-01T05:12:26Z</time>
      </trkpt>
      <trkpt lat="46.15802" lon="6.80097">
        <ele>1651</ele>
        <time>2010-01-01T05:12:28Z</time>
      </trkpt>
      <trkpt lat="46.15802" lon="6.801">
        <ele>1650</ele>
        <time>2010-01-01T05:12:29Z</time>
      </trkpt>
      <trkpt lat="46.15805" lon="6.80114">
        <ele>1649</ele>
        <time>2010-01-01T05:12:33Z</time>
      </trkpt>
      <trkpt lat="46.15811" lon="6.80157">
        <ele>1648</ele>
        <time>2010-01-01T05:12:45Z</time>
      </trkpt>
      <trkpt lat="46.15818" lon="6.80184">
        <ele>1647</ele>
        <time>2010-01-01T05:12:53Z</time>
      </trkpt>
      <trkpt lat="46.15822" lon="6.80215">
        <ele>1646</ele>
        <time>2010-01-01T05:13:02Z</time>
      </trkpt>
      <trkpt lat="46.15826" lon="6.80289">
        <ele>1643</ele>
        <time>2010-01-01T05:13:23Z</time>
      </trkpt>
      <trkpt lat="46.15825" lon="6.80305">
        <ele>1642</ele>
        <time>2010-01-01T05:13:27Z</time>
      </trkpt>
      <trkpt lat="46.1582" lon="6.80342">
        <ele>1639</ele>
        <time>2010-01-01T05:13:38Z</time>
      </trkpt>
      <trkpt lat="46.15821" lon="6.80352">
        <ele>1637</ele>
        <time>2010-01-01T05:13:40Z</time>
      </trkpt>
      <trkpt lat="46.15824" lon="6.80361">
        <ele>1637</ele>
        <time>2010-01-01T05:13:43Z</time>
      </trkpt>
      <trkpt lat="46.15829" lon="6.80369">
        <ele>1635</ele>
        <time>2010-01-01T05:13:46Z</time>
      </trkpt>
      <trkpt lat="46.15855" lon="6.80398">
        <ele>1631</ele>
        <time>2010-01-01T05:14:00Z</time>
      </trkpt>
      <trkpt lat="46.15878" lon="6.8043">
        <ele>1625</ele>
        <time>2010-01-01T05:14:12Z</time>
      </trkpt>
      <trkpt lat="46.15895" lon="6.80457">
        <ele>1620</ele>
        <time>2010-01-01T05:14:22Z</time>
      </trkpt>
      <trkpt lat="46.15907" lon="6.80467">
        <ele>1617</ele>
        <time>2010-01-01T05:14:28Z</time>
      </trkpt>
      <trkpt lat="46.15911" lon="6.80473">
        <ele>1615</ele>
        <time>2010-01-01T05:14:30Z</time>
      </trkpt>
      <trkpt lat="46.15919" lon="6.80488">
        <ele>1611</ele>
        <time>2010-01-01T05:14:35Z</time>
      </trkpt>
      <trkpt lat="46.15924" lon="6.80494">
        <ele>1610</ele>
        <time>2010-01-01T05:14:38Z</time>
      </trkpt>
      <trkpt lat="46.15936" lon="6.80504">
        <ele>1607</ele>
        <time>2010-01-01T05:14:44Z</time>
      </trkpt>
      <trkpt lat="46.15958" lon="6.80511">
        <ele>1602</ele>
        <time>2010-01-01T05:14:53Z</time>
      </trkpt>
      <trkpt lat="46.15969" lon="6.80521">
        <ele>1600</ele>
        <time>2010-01-01T05:14:58Z</time>
      </trkpt>
      <trkpt lat="46.15985" lon="6.80529">
        <ele>1596</ele>
        <time>2010-01-01T05:15:05Z</time>
      </trkpt>
      <trkpt lat="46.1599" lon="6.80534">
        <ele>1595</ele>
        <time>2010-01-01T05:15:07Z</time>
      </trkpt>
      <trkpt lat="46.15991" lon="6.80536">
        <ele>1594</ele>
        <time>2010-01-01T05:15:08Z</time>
      </trkpt>
      <trkpt lat="46.15989" lon="6.80539">
        <ele>1591</ele>
        <time>2010-01-01T05:15:09Z</time>
      </trkpt>
      <trkpt lat="46.15978" lon="6.80538">
        <ele>1589</ele>
        <time>2010-01-01T05:15:14Z</time>
      </trkpt>
      <trkpt lat="46.15961" lon="6.80539">
        <ele>1587</ele>
        <time>2010-01-01T05:15:20Z</time>
      </trkpt>
      <trkpt lat="46.15955" lon="6.80537">
        <ele>1586</ele>
        <time>2010-01-01T05:15:23Z</time>
      </trkpt>
      <trkpt lat="46.15948" lon="6.80532">
        <ele>1584</ele>
        <time>2010-01-01T05:15:26Z</time>
      </trkpt>
      <trkpt lat="46.15947" lon="6.80529">
        <ele>1584</ele>
        <time>2010-01-01T05:15:27Z</time>
      </trkpt>
      <trkpt lat="46.15941" lon="6.80535">
        <ele>1583</ele>
        <time>2010-01-01T05:15:30Z</time>
      </trkpt>
      <trkpt lat="46.15932" lon="6.80538">
        <ele>1583</ele>
        <time>2010-01-01T05:15:33Z</time>
      </trkpt>
      <trkpt lat="46.15921" lon="6.80537">
        <ele>1582</ele>
        <time>2010-01-01T05:15:38Z</time>
      </trkpt>
      <trkpt lat="46.15914" lon="6.80534">
        <ele>1582</ele>
        <time>2010-01-01T05:15:41Z</time>
      </trkpt>
      <trkpt lat="46.15903" lon="6.80522">
        <ele>1582</ele>
        <time>2010-01-01T05:15:46Z</time>
      </trkpt>
      <trkpt lat="46.15888" lon="6.80513">
        <ele>1581</ele>
        <time>2010-01-01T05:15:52Z</time>
      </trkpt>
      <trkpt lat="46.15869" lon="6.80505">
        <ele>1580</ele>
        <time>2010-01-01T05:16:00Z</time>
      </trkpt>
      <trkpt lat="46.15861" lon="6.80503">
        <ele>1579</ele>
        <time>2010-01-01T05:16:04Z</time>
      </trkpt>
      <trkpt lat="46.15855" lon="6.80504">
        <ele>1579</ele>
        <time>2010-01-01T05:16:06Z</time>
      </trkpt>
      <trkpt lat="46.15841" lon="6.80498">
        <ele>1578</ele>
        <time>2010-01-01T05:16:12Z</time>
      </trkpt>
      <trkpt lat="46.15837" lon="6.80497">
        <ele>1578</ele>
        <time>2010-01-01T05:16:14Z</time>
      </trkpt>
      <trkpt lat="46.15837" lon="6.80497">
        <ele>1578</ele>
        <time>2010-01-01T05:16:14Z</time>
      </trkpt>
      <trkpt lat="46.15833" lon="6.80499">
        <ele>1578</ele>
        <time>2010-01-01T05:16:15Z</time>
      </trkpt>
      <trkpt lat="46.15829" lon="6.80508">
        <ele>1577</ele>
        <time>2010-01-01T05:16:18Z</time>
      </trkpt>
      <trkpt lat="46.15861" lon="6.80539">
        <ele>1574</ele>
        <time>2010-01-01T05:16:34Z</time>
      </trkpt>
      <trkpt lat="46.15866" lon="6.80549">
        <ele>1573</ele>
        <time>2010-01-01T05:16:37Z</time>
      </trkpt>
      <trkpt lat="46.15879" lon="6.80586">
        <ele>1571</ele>
        <time>2010-01-01T05:16:49Z</time>
      </trkpt>
      <trkpt lat="46.15891" lon="6.80636">
        <ele>1567</ele>
        <time>2010-01-01T05:17:03Z</time>
      </trkpt>
      <trkpt lat="46.15906" lon="6.80666">
        <ele>1564</ele>
        <time>2010-01-01T05:17:13Z</time>
      </trkpt>
      <trkpt lat="46.15913" lon="6.80704">
        <ele>1557</ele>
        <time>2010-01-01T05:17:24Z</time>
      </trkpt>
      <trkpt lat="46.15922" lon="6.80714">
        <ele>1554</ele>
        <time>2010-01-01T05:17:29Z</time>
      </trkpt>
      <trkpt lat="46.15937" lon="6.80737">
        <ele>1550</ele>
        <time>2010-01-01T05:17:38Z</time>
      </trkpt>
      <trkpt lat="46.15943" lon="6.80743">
        <ele>1549</ele>
        <time>2010-01-01T05:17:40Z</time>
      </trkpt>
      <trkpt lat="46.15957" lon="6.80751">
        <ele>1544</ele>
        <time>2010-01-01T05:17:46Z</time>
      </trkpt>
      <trkpt lat="46.1596" lon="6.80756">
        <ele>1542</ele>
        <time>2010-01-01T05:17:49Z</time>
      </trkpt>
      <trkpt lat="46.15963" lon="6.80765">
        <ele>1541</ele>
        <time>2010-01-01T05:17:51Z</time>
      </trkpt>
      <trkpt lat="46.15964" lon="6.80786">
        <ele>1539</ele>
        <time>2010-01-01T05:17:57Z</time>
      </trkpt>
      <trkpt lat="46.15962" lon="6.80824">
        <ele>1533</ele>
        <time>2010-01-01T05:18:07Z</time>
      </trkpt>
      <trkpt lat="46.15965" lon="6.8087">
        <ele>1529</ele>
        <time>2010-01-01T05:18:20Z</time>
      </trkpt>
      <trkpt lat="46.15961" lon="6.80934">
        <ele>1523</ele>
        <time>2010-01-01T05:18:38Z</time>
      </trkpt>
      <trkpt lat="46.15964" lon="6.80992">
        <ele>1516</ele>
        <time>2010-01-01T05:18:54Z</time>
      </trkpt>
      <trkpt lat="46.15963" lon="6.8104">
        <ele>1511</ele>
        <time>2010-01-01T05:19:07Z</time>
      </trkpt>
      <trkpt lat="46.15977" lon="6.81122">
        <ele>1502</ele>
        <time>2010-01-01T05:19:31Z</time>
      </trkpt>
      <trkpt lat="46.15978" lon="6.81155">
        <ele>1498</ele>
        <time>2010-01-01T05:19:40Z</time>
      </trkpt>
      <trkpt lat="46.15978" lon="6.81229">
        <ele>1486</ele>
        <time>2010-01-01T05:20:01Z</time>
      </trkpt>
      <trkpt lat="46.15982" lon="6.81287">
        <ele>1477</ele>
        <time>2010-01-01T05:20:17Z</time>
      </trkpt>
      <trkpt lat="46.15981" lon="6.813">
        <ele>1474</ele>
        <time>2010-01-01T05:20:20Z</time>
      </trkpt>
      <trkpt lat="46.15972" lon="6.81343">
        <ele>1467</ele>
        <time>2010-01-01T05:20:33Z</time>
      </trkpt>
      <trkpt lat="46.15971" lon="6.81375">
        <ele>1462</ele>
        <time>2010-01-01T05:20:42Z</time>
      </trkpt>
      <trkpt lat="46.15963" lon="6.81459">
        <ele>1450</ele>
        <time>2010-01-01T05:21:05Z</time>
      </trkpt>
      <trkpt lat="46.15957" lon="6.81501">
        <ele>1445</ele>
        <time>2010-01-01T05:21:17Z</time>
      </trkpt>
      <trkpt lat="46.15958" lon="6.81567">
        <ele>1436</ele>
        <time>2010-01-01T05:21:36Z</time>
      </trkpt>
      <trkpt lat="46.15959" lon="6.81569">
        <ele>1434</ele>
        <time>2010-01-01T05:21:36Z</time>
      </trkpt>
      <trkpt lat="46.1596" lon="6.81567">
        <ele>1434</ele>
        <time>2010-01-01T05:21:37Z</time>
      </trkpt>
      <trkpt lat="46.15958" lon="6.81572">
        <ele>1433</ele>
        <time>2010-01-01T05:21:38Z</time>
      </trkpt>
      <trkpt lat="46.15956" lon="6.81586">
        <ele>1432</ele>
        <time>2010-01-01T05:21:42Z</time>
      </trkpt>
      <trkpt lat="46.15956" lon="6.81608">
        <ele>1432</ele>
        <time>2010-01-01T05:21:48Z</time>
      </trkpt>
      <trkpt lat="46.15963" lon="6.81654">
        <ele>1430</ele>
        <time>2010-01-01T05:22:01Z</time>
      </trkpt>
      <trkpt lat="46.15962" lon="6.81678">
        <ele>1429</ele>
        <time>2010-01-01T05:22:08Z</time>
      </trkpt>
      <trkpt lat="46.15962" lon="6.81678">
        <ele>1429</ele>
        <time>2010-01-01T05:22:08Z</time>
      </trkpt>
      <trkpt lat="46.15964" lon="6.81708">
        <ele>1428</ele>
        <time>2010-01-01T05:22:16Z</time>
      </trkpt>
      <trkpt lat="46.15976" lon="6.81767">
        <ele>1427</ele>
        <time>2010-01-01T05:22:33Z</time>
      </trkpt>
      <trkpt lat="46.15979" lon="6.81793">
        <ele>1425</ele>
        <time>2010-01-01T05:22:41Z</time>
      </trkpt>
      <trkpt lat="46.15978" lon="6.81814">
        <ele>1423</ele>
        <time>2010-01-01T05:22:46Z</time>
      </trkpt>
      <trkpt lat="46.15969" lon="6.81877">
        <ele>1419</ele>
        <time>2010-01-01T05:23:04Z</time>
      </trkpt>
      <trkpt lat="46.15969" lon="6.81891">
        <ele>1418</ele>
        <time>2010-01-01T05:23:08Z</time>
      </trkpt>
      <trkpt lat="46.15977" lon="6.8197">
        <ele>1409</ele>
        <time>2010-01-01T05:23:30Z</time>
      </trkpt>
      <trkpt lat="46.15977" lon="6.82021">
        <ele>1406</ele>
        <time>2010-01-01T05:23:44Z</time>
      </trkpt>
      <trkpt lat="46.15982" lon="6.82049">
        <ele>1406</ele>
        <time>2010-01-01T05:23:52Z</time>
      </trkpt>
      <trkpt lat="46.1599" lon="6.82089">
        <ele>1404</ele>
        <time>2010-01-01T05:24:04Z</time>
      </trkpt>
      <trkpt lat="46.15993" lon="6.82134">
        <ele>1401</ele>
        <time>2010-01-01T05:24:16Z</time>
      </trkpt>
      <trkpt lat="46.16001" lon="6.82183">
        <ele>1395</ele>
        <time>2010-01-01T05:24:31Z</time>
      </trkpt>
      <trkpt lat="46.16004" lon="6.82217">
        <ele>1393</ele>
        <time>2010-01-01T05:24:40Z</time>
      </trkpt>
      <trkpt lat="46.16003" lon="6.82234">
        <ele>1392</ele>
        <time>2010-01-01T05:24:45Z</time>
      </trkpt>
      <trkpt lat="46.15995" lon="6.82285">
        <ele>1387</ele>
        <time>2010-01-01T05:24:59Z</time>
      </trkpt>
      <trkpt lat="46.15993" lon="6.8232">
        <ele>1384</ele>
        <time>2010-01-01T05:25:09Z</time>
      </trkpt>
      <trkpt lat="46.15996" lon="6.82375">
        <ele>1381</ele>
        <time>2010-01-01T05:25:24Z</time>
      </trkpt>
      <trkpt lat="46.15998" lon="6.82449">
        <ele>1378</ele>
        <time>2010-01-01T05:25:45Z</time>
      </trkpt>
      <trkpt lat="46.15995" lon="6.82501">
        <ele>1375</ele>
        <time>2010-01-01T05:25:59Z</time>
      </trkpt>
      <trkpt lat="46.15996" lon="6.82517">
        <ele>1374</ele>
        <time>2010-01-01T05:26:04Z</time>
      </trkpt>
      <trkpt lat="46.15998" lon="6.8253">
        <ele>1374</ele>
        <time>2010-01-01T05:26:08Z</time>
      </trkpt>
      <trkpt lat="46.16003" lon="6.8254">
        <ele>1373</ele>
        <time>2010-01-01T05:26:11Z</time>
      </trkpt>
      <trkpt lat="46.1602" lon="6.82567">
        <ele>1371</ele>
        <time>2010-01-01T05:26:21Z</time>
      </trkpt>
      <trkpt lat="46.16046" lon="6.82603">
        <ele>1369</ele>
        <time>2010-01-01T05:26:35Z</time>
      </trkpt>
      <trkpt lat="46.16059" lon="6.82623">
        <ele>1368</ele>
        <time>2010-01-01T05:26:43Z</time>
      </trkpt>
      <trkpt lat="46.16079" lon="6.8266">
        <ele>1364</ele>
        <time>2010-01-01T05:26:56Z</time>
      </trkpt>
      <trkpt lat="46.16089" lon="6.82688">
        <ele>1362</ele>
        <time>2010-01-01T05:27:05Z</time>
      </trkpt>
      <trkpt lat="46.16093" lon="6.8272">
        <ele>1360</ele>
        <time>2010-01-01T05:27:14Z</time>
      </trkpt>
      <trkpt lat="46.16094" lon="6.82752">
        <ele>1359</ele>
        <time>2010-01-01T05:27:23Z</time>
      </trkpt>
      <trkpt lat="46.16092" lon="6.82798">
        <ele>1358</ele>
        <time>2010-01-01T05:27:36Z</time>
      </trkpt>
      <trkpt lat="46.16094" lon="6.82828">
        <ele>1356</ele>
        <time>2010-01-01T05:27:44Z</time>
      </trkpt>
      <trkpt lat="46.16092" lon="6.82886">
        <ele>1354</ele>
        <time>2010-01-01T05:28:00Z</time>
      </trkpt>
      <trkpt lat="46.16089" lon="6.82913">
        <ele>1353</ele>
        <time>2010-01-01T05:28:08Z</time>
      </trkpt>
      <trkpt lat="46.16089" lon="6.82913">
        <ele>1353</ele>
        <time>2010-01-01T05:28:08Z</time>
      </trkpt>
      <trkpt lat="46.16087" lon="6.82954">
        <ele>1351</ele>
        <time>2010-01-01T05:28:19Z</time>
      </trkpt>
      <trkpt lat="46.1608" lon="6.83008">
        <ele>1350</ele>
        <time>2010-01-01T05:28:34Z</time>
      </trkpt>
      <trkpt lat="46.1608" lon="6.83022">
        <ele>1349</ele>
        <time>2010-01-01T05:28:38Z</time>
      </trkpt>
      <trkpt lat="46.16085" lon="6.83077">
        <ele>1346</ele>
        <time>2010-01-01T05:28:54Z</time>
      </trkpt>
      <trkpt lat="46.16092" lon="6.83103">
        <ele>1344</ele>
        <time>2010-01-01T05:29:01Z</time>
      </trkpt>
      <trkpt lat="46.16109" lon="6.83142">
        <ele>1340</ele>
        <time>2010-01-01T05:29:14Z</time>
      </trkpt>
      <trkpt lat="46.16137" lon="6.83225">
        <ele>1338</ele>
        <time>2010-01-01T05:29:40Z</time>
      </trkpt>
      <trkpt lat="46.16142" lon="6.83236">
        <ele>1339</ele>
        <time>2010-01-01T05:29:43Z</time>
      </trkpt>
      <trkpt lat="46.16193" lon="6.83339">
        <ele>1341</ele>
        <time>2010-01-01T05:30:18Z</time>
      </trkpt>
      <trkpt lat="46.16213" lon="6.83369">
        <ele>1341</ele>
        <time>2010-01-01T05:30:30Z</time>
      </trkpt>
      <trkpt lat="46.16244" lon="6.83408">
        <ele>1339</ele>
        <time>2010-01-01T05:30:46Z</time>
      </trkpt>
      <trkpt lat="46.16266" lon="6.83442">
        <ele>1340</ele>
        <time>2010-01-01T05:30:59Z</time>
      </trkpt>
      <trkpt lat="46.16291" lon="6.83485">
        <ele>1342</ele>
        <time>2010-01-01T05:31:15Z</time>
      </trkpt>
      <trkpt lat="46.16304" lon="6.835">
        <ele>1342</ele>
        <time>2010-01-01T05:31:22Z</time>
      </trkpt>
      <trkpt lat="46.16325" lon="6.83537">
        <ele>1341</ele>
        <time>2010-01-01T05:31:35Z</time>
      </trkpt>
      <trkpt lat="46.16337" lon="6.83551">
        <ele>1342</ele>
        <time>2010-01-01T05:31:41Z</time>
      </trkpt>
      <trkpt lat="46.1635" lon="6.83563">
        <ele>1341</ele>
        <time>2010-01-01T05:31:47Z</time>
      </trkpt>
      <trkpt lat="46.16359" lon="6.83567">
        <ele>1342</ele>
        <time>2010-01-01T05:31:51Z</time>
      </trkpt>
      <trkpt lat="46.16379" lon="6.83568">
        <ele>1341</ele>
        <time>2010-01-01T05:31:59Z</time>
      </trkpt>
      <trkpt lat="46.16386" lon="6.83572">
        <ele>1341</ele>
        <time>2010-01-01T05:32:02Z</time>
      </trkpt>
      <trkpt lat="46.16393" lon="6.83579">
        <ele>1341</ele>
        <time>2010-01-01T05:32:05Z</time>
      </trkpt>
      <trkpt lat="46.16398" lon="6.83591">
        <ele>1342</ele>
        <time>2010-01-01T05:32:09Z</time>
      </trkpt>
      <trkpt lat="46.16398" lon="6.83604">
        <ele>1342</ele>
        <time>2010-01-01T05:32:13Z</time>
      </trkpt>
      <trkpt lat="46.16393" lon="6.83631">
        <ele>1341</ele>
        <time>2010-01-01T05:32:20Z</time>
      </trkpt>
      <trkpt lat="46.16382" lon="6.83628">
        <ele>1340</ele>
        <time>2010-01-01T05:32:25Z</time>
      </trkpt>
      <trkpt lat="46.16374" lon="6.8363">
        <ele>1340</ele>
        <time>2010-01-01T05:32:28Z</time>
      </trkpt>
      <trkpt lat="46.16367" lon="6.83638">
        <ele>1340</ele>
        <time>2010-01-01T05:32:32Z</time>
      </trkpt>
      <trkpt lat="46.16366" lon="6.83644">
        <ele>1340</ele>
        <time>2010-01-01T05:32:34Z</time>
      </trkpt>
      <trkpt lat="46.16362" lon="6.8365">
        <ele>1340</ele>
        <time>2010-01-01T05:32:36Z</time>
      </trkpt>
      <trkpt lat="46.16353" lon="6.83683">
        <ele>1340</ele>
        <time>2010-01-01T05:32:46Z</time>
      </trkpt>
      <trkpt lat="46.16353" lon="6.83691">
        <ele>1340</ele>
        <time>2010-01-01T05:32:48Z</time>
      </trkpt>
      <trkpt lat="46.16335" lon="6.83772">
        <ele>1337</ele>
        <time>2010-01-01T05:33:12Z</time>
      </trkpt>
      <trkpt lat="46.16333" lon="6.83796">
        <ele>1337</ele>
        <time>2010-01-01T05:33:18Z</time>
      </trkpt>
      <trkpt lat="46.1632" lon="6.83851">
        <ele>1335</ele>
        <time>2010-01-01T05:33:34Z</time>
      </trkpt>
      <trkpt lat="46.16312" lon="6.83874">
        <ele>1335</ele>
        <time>2010-01-01T05:33:41Z</time>
      </trkpt>
      <trkpt lat="46.16308" lon="6.83881">
        <ele>1334</ele>
        <time>2010-01-01T05:33:44Z</time>
      </trkpt>
      <trkpt lat="46.16302" lon="6.83911">
        <ele>1334</ele>
        <time>2010-01-01T05:33:52Z</time>
      </trkpt>
      <trkpt lat="46.16298" lon="6.83924">
        <ele>1334</ele>
        <time>2010-01-01T05:33:57Z</time>
      </trkpt>
      <trkpt lat="46.16292" lon="6.83935">
        <ele>1334</ele>
        <time>2010-01-01T05:34:00Z</time>
      </trkpt>
      <trkpt lat="46.16285" lon="6.83945">
        <ele>1333</ele>
        <time>2010-01-01T05:34:04Z</time>
      </trkpt>
      <trkpt lat="46.16285" lon="6.83945">
        <ele>1333</ele>
        <time>2010-01-01T05:34:04Z</time>
      </trkpt>
      <trkpt lat="46.16278" lon="6.83956">
        <ele>1333</ele>
        <time>2010-01-01T05:34:09Z</time>
      </trkpt>
      <trkpt lat="46.16272" lon="6.8398">
        <ele>1333</ele>
        <time>2010-01-01T05:34:16Z</time>
      </trkpt>
      <trkpt lat="46.16264" lon="6.83999">
        <ele>1332</ele>
        <time>2010-01-01T05:34:22Z</time>
      </trkpt>
      <trkpt lat="46.1625" lon="6.84048">
        <ele>1330</ele>
        <time>2010-01-01T05:34:36Z</time>
      </trkpt>
      <trkpt lat="46.16244" lon="6.8409">
        <ele>1330</ele>
        <time>2010-01-01T05:34:48Z</time>
      </trkpt>
      <trkpt lat="46.16232" lon="6.84142">
        <ele>1330</ele>
        <time>2010-01-01T05:35:04Z</time>
      </trkpt>
      <trkpt lat="46.16229" lon="6.84175">
        <ele>1330</ele>
        <time>2010-01-01T05:35:13Z</time>
      </trkpt>
      <trkpt lat="46.16229" lon="6.84201">
        <ele>1329</ele>
        <time>2010-01-01T05:35:20Z</time>
      </trkpt>
      <trkpt lat="46.16231" lon="6.84217">
        <ele>1329</ele>
        <time>2010-01-01T05:35:25Z</time>
      </trkpt>
      <trkpt lat="46.1624" lon="6.84259">
        <ele>1329</ele>
        <time>2010-01-01T05:35:37Z</time>
      </trkpt>
      <trkpt lat="46.16238" lon="6.84267">
        <ele>1328</ele>
        <time>2010-01-01T05:35:39Z</time>
      </trkpt>
      <trkpt lat="46.16226" lon="6.84289">
        <ele>1328</ele>
        <time>2010-01-01T05:35:47Z</time>
      </trkpt>
      <trkpt lat="46.16223" lon="6.8431">
        <ele>1327</ele>
        <time>2010-01-01T05:35:53Z</time>
      </trkpt>
      <trkpt lat="46.16222" lon="6.84419">
        <ele>1324</ele>
        <time>2010-01-01T05:36:23Z</time>
      </trkpt>
      <trkpt lat="46.16211" lon="6.84565">
        <ele>1318</ele>
        <time>2010-01-01T05:37:04Z</time>
      </trkpt>
      <trkpt lat="46.16211" lon="6.84614">
        <ele>1315</ele>
        <time>2010-01-01T05:37:17Z</time>
      </trkpt>
      <trkpt lat="46.16221" lon="6.84726">
        <ele>1308</ele>
        <time>2010-01-01T05:37:49Z</time>
      </trkpt>
      <trkpt lat="46.16222" lon="6.84779">
        <ele>1303</ele>
        <time>2010-01-01T05:38:03Z</time>
      </trkpt>
      <trkpt lat="46.16223" lon="6.84798">
        <ele>1301</ele>
        <time>2010-01-01T05:38:09Z</time>
      </trkpt>
      <trkpt lat="46.16233" lon="6.84853">
        <ele>1296</ele>
        <time>2010-01-01T05:38:24Z</time>
      </trkpt>
      <trkpt lat="46.16252" lon="6.84921">
        <ele>1290</ele>
        <time>2010-01-01T05:38:45Z</time>
      </trkpt>
      <trkpt lat="46.16258" lon="6.8497">
        <ele>1285</ele>
        <time>2010-01-01T05:38:58Z</time>
      </trkpt>
      <trkpt lat="46.16262" lon="6.84983">
        <ele>1284</ele>
        <time>2010-01-01T05:39:02Z</time>
      </trkpt>
      <trkpt lat="46.16281" lon="6.85041">
        <ele>1279</ele>
        <time>2010-01-01T05:39:20Z</time>
      </trkpt>
      <trkpt lat="46.16321" lon="6.85129">
        <ele>1275</ele>
        <time>2010-01-01T05:39:49Z</time>
      </trkpt>
      <trkpt lat="46.16334" lon="6.85172">
        <ele>1273</ele>
        <time>2010-01-01T05:40:02Z</time>
      </trkpt>
      <trkpt lat="46.16334" lon="6.85172">
        <ele>1273</ele>
        <time>2010-01-01T05:40:02Z</time>
      </trkpt>
      <trkpt lat="46.16339" lon="6.85182">
        <ele>1273</ele>
        <time>2010-01-01T05:40:06Z</time>
      </trkpt>
      <trkpt lat="46.16351" lon="6.852">
        <ele>1271</ele>
        <time>2010-01-01T05:40:13Z</time>
      </trkpt>
      <trkpt lat="46.16381" lon="6.85229">
        <ele>1268</ele>
        <time>2010-01-01T05:40:27Z</time>
      </trkpt>
      <trkpt lat="46.16398" lon="6.85252">
        <ele>1267</ele>
        <time>2010-01-01T05:40:36Z</time>
      </trkpt>
      <trkpt lat="46.16406" lon="6.85266">
        <ele>1264</ele>
        <time>2010-01-01T05:40:41Z</time>
      </trkpt>
      <trkpt lat="46.16414" lon="6.85276">
        <ele>1262</ele>
        <time>2010-01-01T05:40:46Z</time>
      </trkpt>
      <trkpt lat="46.16426" lon="6.85299">
        <ele>1260</ele>
        <time>2010-01-01T05:40:54Z</time>
      </trkpt>
      <trkpt lat="46.16437" lon="6.85332">
        <ele>1256</ele>
        <time>2010-01-01T05:41:04Z</time>
      </trkpt>
      <trkpt lat="46.16443" lon="6.85343">
        <ele>1255</ele>
        <time>2010-01-01T05:41:08Z</time>
      </trkpt>
      <trkpt lat="46.1645" lon="6.85354">
        <ele>1254</ele>
        <time>2010-01-01T05:41:12Z</time>
      </trkpt>
      <trkpt lat="46.16467" lon="6.85376">
        <ele>1251</ele>
        <time>2010-01-01T05:41:21Z</time>
      </trkpt>
      <trkpt lat="46.16475" lon="6.85389">
        <ele>1249</ele>
        <time>2010-01-01T05:41:26Z</time>
      </trkpt>
      <trkpt lat="46.16501" lon="6.8545">
        <ele>1241</ele>
        <time>2010-01-01T05:41:46Z</time>
      </trkpt>
      <trkpt lat="46.16507" lon="6.85462">
        <ele>1240</ele>
        <time>2010-01-01T05:41:50Z</time>
      </trkpt>
      <trkpt lat="46.16513" lon="6.8547">
        <ele>1239</ele>
        <time>2010-01-01T05:41:53Z</time>
      </trkpt>
      <trkpt lat="46.16526" lon="6.85482">
        <ele>1237</ele>
        <time>2010-01-01T05:41:59Z</time>
      </trkpt>
      <trkpt lat="46.16546" lon="6.85494">
        <ele>1232</ele>
        <time>2010-01-01T05:42:08Z</time>
      </trkpt>
      <trkpt lat="46.16569" lon="6.8551">
        <ele>1228</ele>
        <time>2010-01-01T05:42:18Z</time>
      </trkpt>
      <trkpt lat="46.16579" lon="6.85521">
        <ele>1225</ele>
        <time>2010-01-01T05:42:23Z</time>
      </trkpt>
      <trkpt lat="46.16583" lon="6.85527">
        <ele>1224</ele>
        <time>2010-01-01T05:42:25Z</time>
      </trkpt>
      <trkpt lat="46.16594" lon="6.85561">
        <ele>1220</ele>
        <time>2010-01-01T05:42:36Z</time>
      </trkpt>
      <trkpt lat="46.16598" lon="6.85596">
        <ele>1219</ele>
        <time>2010-01-01T05:42:46Z</time>
      </trkpt>
      <trkpt lat="46.16605" lon="6.85613">
        <ele>1218</ele>
        <time>2010-01-01T05:42:51Z</time>
      </trkpt>
      <trkpt lat="46.16627" lon="6.85616">
        <ele>1212</ele>
        <time>2010-01-01T05:43:00Z</time>
      </trkpt>
      <trkpt lat="46.16634" lon="6.85618">
        <ele>1211</ele>
        <time>2010-01-01T05:43:03Z</time>
      </trkpt>
      <trkpt lat="46.16639" lon="6.85624">
        <ele>1211</ele>
        <time>2010-01-01T05:43:05Z</time>
      </trkpt>
      <trkpt lat="46.16643" lon="6.85631">
        <ele>1209</ele>
        <time>2010-01-01T05:43:08Z</time>
      </trkpt>
      <trkpt lat="46.16645" lon="6.8564">
        <ele>1208</ele>
        <time>2010-01-01T05:43:11Z</time>
      </trkpt>
      <trkpt lat="46.16649" lon="6.85667">
        <ele>1206</ele>
        <time>2010-01-01T05:43:18Z</time>
      </trkpt>
      <trkpt lat="46.16657" lon="6.85696">
        <ele>1204</ele>
        <time>2010-01-01T05:43:27Z</time>
      </trkpt>
      <trkpt lat="46.16672" lon="6.85723">
        <ele>1201</ele>
        <time>2010-01-01T05:43:37Z</time>
      </trkpt>
      <trkpt lat="46.1669" lon="6.85748">
        <ele>1199</ele>
        <time>2010-01-01T05:43:46Z</time>
      </trkpt>
      <trkpt lat="46.16716" lon="6.85791">
        <ele>1196</ele>
        <time>2010-01-01T05:44:02Z</time>
      </trkpt>
      <trkpt lat="46.16761" lon="6.85852">
        <ele>1190</ele>
        <time>2010-01-01T05:44:27Z</time>
      </trkpt>
      <trkpt lat="46.16791" lon="6.85883">
        <ele>1189</ele>
        <time>2010-01-01T05:44:42Z</time>
      </trkpt>
      <trkpt lat="46.168" lon="6.85891">
        <ele>1188</ele>
        <time>2010-01-01T05:44:46Z</time>
      </trkpt>
      <trkpt lat="46.16811" lon="6.85898">
        <ele>1189</ele>
        <time>2010-01-01T05:44:51Z</time>
      </trkpt>
      <trkpt lat="46.16831" lon="6.85903">
        <ele>1187</ele>
        <time>2010-01-01T05:44:59Z</time>
      </trkpt>
      <trkpt lat="46.16836" lon="6.85906">
        <ele>1186</ele>
        <time>2010-01-01T05:45:01Z</time>
      </trkpt>
      <trkpt lat="46.16841" lon="6.85913">
        <ele>1185</ele>
        <time>2010-01-01T05:45:04Z</time>
      </trkpt>
      <trkpt lat="46.16835" lon="6.85927">
        <ele>1183</ele>
        <time>2010-01-01T05:45:08Z</time>
      </trkpt>
      <trkpt lat="46.16835" lon="6.8595">
        <ele>1181</ele>
        <time>2010-01-01T05:45:15Z</time>
      </trkpt>
      <trkpt lat="46.1684" lon="6.85978">
        <ele>1180</ele>
        <time>2010-01-01T05:45:23Z</time>
      </trkpt>
      <trkpt lat="46.16845" lon="6.8599">
        <ele>1178</ele>
        <time>2010-01-01T05:45:27Z</time>
      </trkpt>
      <trkpt lat="46.16851" lon="6.86001">
        <ele>1177</ele>
        <time>2010-01-01T05:45:31Z</time>
      </trkpt>
      <trkpt lat="46.1686" lon="6.86008">
        <ele>1177</ele>
        <time>2010-01-01T05:45:35Z</time>
      </trkpt>
      <trkpt lat="46.16904" lon="6.86036">
        <ele>1168</ele>
        <time>2010-01-01T05:45:54Z</time>
      </trkpt>
      <trkpt lat="46.16915" lon="6.86045">
        <ele>1166</ele>
        <time>2010-01-01T05:45:59Z</time>
      </trkpt>
      <trkpt lat="46.16915" lon="6.86045">
        <ele>1166</ele>
        <time>2010-01-01T05:45:59Z</time>
      </trkpt>
      <trkpt lat="46.16964" lon="6.86085">
        <ele>1158</ele>
        <time>2010-01-01T05:46:22Z</time>
      </trkpt>
      <trkpt lat="46.16992" lon="6.86103">
        <ele>1154</ele>
        <time>2010-01-01T05:46:34Z</time>
      </trkpt>
      <trkpt lat="46.17037" lon="6.86128">
        <ele>1148</ele>
        <time>2010-01-01T05:46:53Z</time>
      </trkpt>
      <trkpt lat="46.17063" lon="6.86149">
        <ele>1145</ele>
        <time>2010-01-01T05:47:05Z</time>
      </trkpt>
      <trkpt lat="46.17109" lon="6.86221">
        <ele>1137</ele>
        <time>2010-01-01T05:47:32Z</time>
      </trkpt>
      <trkpt lat="46.17124" lon="6.86241">
        <ele>1135</ele>
        <time>2010-01-01T05:47:40Z</time>
      </trkpt>
      <trkpt lat="46.17132" lon="6.86248">
        <ele>1133</ele>
        <time>2010-01-01T05:47:44Z</time>
      </trkpt>
      <trkpt lat="46.17142" lon="6.86254">
        <ele>1132</ele>
        <time>2010-01-01T05:47:48Z</time>
      </trkpt>
      <trkpt lat="46.17172" lon="6.86268">
        <ele>1128</ele>
        <time>2010-01-01T05:48:01Z</time>
      </trkpt>
      <trkpt lat="46.17183" lon="6.86268">
        <ele>1127</ele>
        <time>2010-01-01T05:48:06Z</time>
      </trkpt>
      <trkpt lat="46.17205" lon="6.86264">
        <ele>1123</ele>
        <time>2010-01-01T05:48:14Z</time>
      </trkpt>
      <trkpt lat="46.17215" lon="6.86265">
        <ele>1122</ele>
        <time>2010-01-01T05:48:18Z</time>
      </trkpt>
      <trkpt lat="46.17257" lon="6.86306">
        <ele>1115</ele>
        <time>2010-01-01T05:48:39Z</time>
      </trkpt>
      <trkpt lat="46.17284" lon="6.86338">
        <ele>1110</ele>
        <time>2010-01-01T05:48:53Z</time>
      </trkpt>
      <trkpt lat="46.17292" lon="6.86349">
        <ele>1108</ele>
        <time>2010-01-01T05:48:57Z</time>
      </trkpt>
      <trkpt lat="46.17307" lon="6.86386">
        <ele>1104</ele>
        <time>2010-01-01T05:49:09Z</time>
      </trkpt>
      <trkpt lat="46.17314" lon="6.86395">
        <ele>1103</ele>
        <time>2010-01-01T05:49:13Z</time>
      </trkpt>
      <trkpt lat="46.17344" lon="6.86408">
        <ele>1100</ele>
        <time>2010-01-01T05:49:25Z</time>
      </trkpt>
      <trkpt lat="46.17358" lon="6.86419">
        <ele>1097</ele>
        <time>2010-01-01T05:49:31Z</time>
      </trkpt>
      <trkpt lat="46.17362" lon="6.86426">
        <ele>1096</ele>
        <time>2010-01-01T05:49:34Z</time>
      </trkpt>
      <trkpt lat="46.17362" lon="6.86451">
        <ele>1092</ele>
        <time>2010-01-01T05:49:41Z</time>
      </trkpt>
      <trkpt lat="46.1736" lon="6.86452">
        <ele>1092</ele>
        <time>2010-01-01T05:49:42Z</time>
      </trkpt>
      <trkpt lat="46.17368" lon="6.86494">
        <ele>1091</ele>
        <time>2010-01-01T05:49:54Z</time>
      </trkpt>
      <trkpt lat="46.17386" lon="6.86559">
        <ele>1090</ele>
        <time>2010-01-01T05:50:13Z</time>
      </trkpt>
      <trkpt lat="46.17397" lon="6.86595">
        <ele>1089</ele>
        <time>2010-01-01T05:50:24Z</time>
      </trkpt>
      <trkpt lat="46.17403" lon="6.86605">
        <ele>1088</ele>
        <time>2010-01-01T05:50:28Z</time>
      </trkpt>
      <trkpt lat="46.17419" lon="6.86618">
        <ele>1088</ele>
        <time>2010-01-01T05:50:35Z</time>
      </trkpt>
      <trkpt lat="46.17459" lon="6.86639">
        <ele>1085</ele>
        <time>2010-01-01T05:50:52Z</time>
      </trkpt>
      <trkpt lat="46.17478" lon="6.86647">
        <ele>1083</ele>
        <time>2010-01-01T05:51:00Z</time>
      </trkpt>
      <trkpt lat="46.17506" lon="6.86654">
        <ele>1079</ele>
        <time>2010-01-01T05:51:12Z</time>
      </trkpt>
      <trkpt lat="46.17519" lon="6.86659">
        <ele>1077</ele>
        <time>2010-01-01T05:51:17Z</time>
      </trkpt>
      <trkpt lat="46.17524" lon="6.86663">
        <ele>1076</ele>
        <time>2010-01-01T05:51:19Z</time>
      </trkpt>
      <trkpt lat="46.17526" lon="6.86669">
        <ele>1074</ele>
        <time>2010-01-01T05:51:21Z</time>
      </trkpt>
      <trkpt lat="46.17528" lon="6.86675">
        <ele>1073</ele>
        <time>2010-01-01T05:51:23Z</time>
      </trkpt>
      <trkpt lat="46.17527" lon="6.86681">
        <ele>1073</ele>
        <time>2010-01-01T05:51:25Z</time>
      </trkpt>
      <trkpt lat="46.17522" lon="6.8669">
        <ele>1071</ele>
        <time>2010-01-01T05:51:28Z</time>
      </trkpt>
      <trkpt lat="46.17498" lon="6.86718">
        <ele>1065</ele>
        <time>2010-01-01T05:51:40Z</time>
      </trkpt>
      <trkpt lat="46.17468" lon="6.86745">
        <ele>1060</ele>
        <time>2010-01-01T05:51:54Z</time>
      </trkpt>
      <trkpt lat="46.17468" lon="6.86745">
        <ele>1060</ele>
        <time>2010-01-01T05:51:54Z</time>
      </trkpt>
      <trkpt lat="46.17444" lon="6.86768">
        <ele>1057</ele>
        <time>2010-01-01T05:52:06Z</time>
      </trkpt>
      <trkpt lat="46.17437" lon="6.86779">
        <ele>1055</ele>
        <time>2010-01-01T05:52:10Z</time>
      </trkpt>
      <trkpt lat="46.17434" lon="6.86792">
        <ele>1054</ele>
        <time>2010-01-01T05:52:14Z</time>
      </trkpt>
      <trkpt lat="46.17445" lon="6.86818">
        <ele>1052</ele>
        <time>2010-01-01T05:52:22Z</time>
      </trkpt>
      <trkpt lat="46.17466" lon="6.86848">
        <ele>1050</ele>
        <time>2010-01-01T05:52:34Z</time>
      </trkpt>
      <trkpt lat="46.17496" lon="6.86886">
        <ele>1048</ele>
        <time>2010-01-01T05:52:50Z</time>
      </trkpt>
      <trkpt lat="46.17522" lon="6.86925">
        <ele>1046</ele>
        <time>2010-01-01T05:53:05Z</time>
      </trkpt>
      <trkpt lat="46.17527" lon="6.86935">
        <ele>1045</ele>
        <time>2010-01-01T05:53:09Z</time>
      </trkpt>
      <trkpt lat="46.1753" lon="6.86947">
        <ele>1044</ele>
        <time>2010-01-01T05:53:12Z</time>
      </trkpt>
      <trkpt lat="46.1753" lon="6.8696">
        <ele>1044</ele>
        <time>2010-01-01T05:53:16Z</time>
      </trkpt>
      <trkpt lat="46.17528" lon="6.86974">
        <ele>1043</ele>
        <time>2010-01-01T05:53:20Z</time>
      </trkpt>
      <trkpt lat="46.17514" lon="6.8703">
        <ele>1038</ele>
        <time>2010-01-01T05:53:36Z</time>
      </trkpt>
      <trkpt lat="46.17511" lon="6.8704">
        <ele>1037</ele>
        <time>2010-01-01T05:53:39Z</time>
      </trkpt>
      <trkpt lat="46.17514" lon="6.87067">
        <ele>1036</ele>
        <time>2010-01-01T05:53:47Z</time>
      </trkpt>
      <trkpt lat="46.17505" lon="6.87126">
        <ele>1035</ele>
        <time>2010-01-01T05:54:04Z</time>
      </trkpt>
      <trkpt lat="46.17501" lon="6.87137">
        <ele>1035</ele>
        <time>2010-01-01T05:54:07Z</time>
      </trkpt>
      <trkpt lat="46.17499" lon="6.87139">
        <ele>1035</ele>
        <time>2010-01-01T05:54:08Z</time>
      </trkpt>
      <trkpt lat="46.17494" lon="6.87141">
        <ele>1035</ele>
        <time>2010-01-01T05:54:10Z</time>
      </trkpt>
      <trkpt lat="46.1748" lon="6.87144">
        <ele>1035</ele>
        <time>2010-01-01T05:54:16Z</time>
      </trkpt>
      <trkpt lat="46.17478" lon="6.87144">
        <ele>1035</ele>
        <time>2010-01-01T05:54:16Z</time>
      </trkpt>
      <trkpt lat="46.17477" lon="6.87141">
        <ele>1035</ele>
        <time>2010-01-01T05:54:17Z</time>
      </trkpt>
      <trkpt lat="46.17474" lon="6.87138">
        <ele>1035</ele>
        <time>2010-01-01T05:54:19Z</time>
      </trkpt>
      <trkpt lat="46.17474" lon="6.87142">
        <ele>1035</ele>
        <time>2010-01-01T05:54:20Z</time>
      </trkpt>
      <trkpt lat="46.17475" lon="6.87143">
        <ele>1035</ele>
        <time>2010-01-01T05:54:20Z</time>
      </trkpt>
      <trkpt lat="46.17489" lon="6.87142">
        <ele>1038</ele>
        <time>2010-01-01T05:54:26Z</time>
      </trkpt>
      <trkpt lat="46.1749" lon="6.87142">
        <ele>1038</ele>
        <time>2010-01-01T05:54:26Z</time>
      </trkpt>
      <trkpt lat="46.1749" lon="6.87137">
        <ele>1037</ele>
        <time>2010-01-01T05:54:27Z</time>
      </trkpt>
      <trkpt lat="46.17493" lon="6.87141">
        <ele>1035</ele>
        <time>2010-01-01T05:54:29Z</time>
      </trkpt>
      <trkpt lat="46.17475" lon="6.8713">
        <ele>1012</ele>
        <time>2010-01-01T05:54:37Z</time>
      </trkpt>
      <trkpt lat="46.17471" lon="6.87131">
        <ele>1010</ele>
        <time>2010-01-01T05:54:39Z</time>
      </trkpt>
      <trkpt lat="46.17472" lon="6.87133">
        <ele>1010</ele>
        <time>2010-01-01T05:54:39Z</time>
      </trkpt>
      <trkpt lat="46.1748" lon="6.87135">
        <ele>1011</ele>
        <time>2010-01-01T05:54:43Z</time>
      </trkpt>
      <trkpt lat="46.1748" lon="6.87135">
        <ele>1010</ele>
        <time>2010-01-01T05:54:43Z</time>
      </trkpt>
      <trkpt lat="46.17483" lon="6.8714">
        <ele>1012</ele>
        <time>2010-01-01T05:54:45Z</time>
      </trkpt>
      <trkpt lat="46.17497" lon="6.87152">
        <ele>1018</ele>
        <time>2010-01-01T05:54:51Z</time>
      </trkpt>
      <trkpt lat="46.17501" lon="6.87157">
        <ele>1020</ele>
        <time>2010-01-01T05:54:54Z</time>
      </trkpt>
      <trkpt lat="46.17499" lon="6.8716">
        <ele>1023</ele>
        <time>2010-01-01T05:54:55Z</time>
      </trkpt>
      <trkpt lat="46.17495" lon="6.87158">
        <ele>1030</ele>
        <time>2010-01-01T05:54:56Z</time>
      </trkpt>
      <trkpt lat="46.17494" lon="6.87156">
        <ele>1032</ele>
        <time>2010-01-01T05:54:57Z</time>
      </trkpt>
      <trkpt lat="46.17495" lon="6.8715">
        <ele>1033</ele>
        <time>2010-01-01T05:54:59Z</time>
      </trkpt>
      <trkpt lat="46.17504" lon="6.87137">
        <ele>1033</ele>
        <time>2010-01-01T05:55:04Z</time>
      </trkpt>
      <trkpt lat="46.17504" lon="6.87122">
        <ele>1032</ele>
        <time>2010-01-01T05:55:08Z</time>
      </trkpt>
      <trkpt lat="46.17502" lon="6.8713">
        <ele>1033</ele>
        <time>2010-01-01T05:55:10Z</time>
      </trkpt>
      <trkpt lat="46.175" lon="6.87133">
        <ele>1033</ele>
        <time>2010-01-01T05:55:11Z</time>
      </trkpt>
      <trkpt lat="46.17497" lon="6.87135">
        <ele>1033</ele>
        <time>2010-01-01T05:55:13Z</time>
      </trkpt>
      <trkpt lat="46.17493" lon="6.87135">
        <ele>1034</ele>
        <time>2010-01-01T05:55:14Z</time>
      </trkpt>
      <trkpt lat="46.17479" lon="6.87116">
        <ele>1036</ele>
        <time>2010-01-01T05:55:22Z</time>
      </trkpt>
      <trkpt lat="46.17481" lon="6.87114">
        <ele>1036</ele>
        <time>2010-01-01T05:55:23Z</time>
      </trkpt>
      <trkpt lat="46.17483" lon="6.87115">
        <ele>1035</ele>
        <time>2010-01-01T05:55:23Z</time>
      </trkpt>
      <trkpt lat="46.17484" lon="6.87113">
        <ele>1035</ele>
        <time>2010-01-01T05:55:24Z</time>
      </trkpt>
      <trkpt lat="46.17485" lon="6.87102">
        <ele>1033</ele>
        <time>2010-01-01T05:55:27Z</time>
      </trkpt>
      <trkpt lat="46.1749" lon="6.87093">
        <ele>1031</ele>
        <time>2010-01-01T05:55:30Z</time>
      </trkpt>
      <trkpt lat="46.17489" lon="6.87091">
        <ele>1031</ele>
        <time>2010-01-01T05:55:31Z</time>
      </trkpt>
      <trkpt lat="46.17491" lon="6.87094">
        <ele>1031</ele>
        <time>2010-01-01T05:55:32Z</time>
      </trkpt>
      <trkpt lat="46.17491" lon="6.87092">
        <ele>1032</ele>
        <time>2010-01-01T05:55:33Z</time>
      </trkpt>
      <trkpt lat="46.17494" lon="6.87092">
        <ele>1032</ele>
        <time>2010-01-01T05:55:34Z</time>
      </trkpt>
      <trkpt lat="46.17493" lon="6.87091">
        <ele>1032</ele>
        <time>2010-01-01T05:55:34Z</time>
      </trkpt>
      <trkpt lat="46.17501" lon="6.87091">
        <ele>1031</ele>
        <time>2010-01-01T05:55:38Z</time>
      </trkpt>
      <trkpt lat="46.17503" lon="6.87088">
        <ele>1032</ele>
        <time>2010-01-01T05:55:39Z</time>
      </trkpt>
      <trkpt lat="46.17501" lon="6.87087">
        <ele>1033</ele>
        <time>2010-01-01T05:55:39Z</time>
      </trkpt>
      <trkpt lat="46.17503" lon="6.87087">
        <ele>1033</ele>
        <time>2010-01-01T05:55:40Z</time>
      </trkpt>
      <trkpt lat="46.175" lon="6.87084">
        <ele>1033</ele>
        <time>2010-01-01T05:55:41Z</time>
      </trkpt>
      <trkpt lat="46.17502" lon="6.87084">
        <ele>1034</ele>
        <time>2010-01-01T05:55:42Z</time>
      </trkpt>
      <trkpt lat="46.17503" lon="6.87082">
        <ele>1034</ele>
        <time>2010-01-01T05:55:43Z</time>
      </trkpt>
      <trkpt lat="46.17498" lon="6.8708">
        <ele>1029</ele>
        <time>2010-01-01T05:55:45Z</time>
      </trkpt>
      <trkpt lat="46.17493" lon="6.87072">
        <ele>1030</ele>
        <time>2010-01-01T05:55:48Z</time>
      </trkpt>
      <trkpt lat="46.17488" lon="6.87049">
        <ele>1029</ele>
        <time>2010-01-01T05:55:55Z</time>
      </trkpt>
      <trkpt lat="46.1749" lon="6.86869">
        <ele>1060</ele>
        <time>2010-01-01T05:56:44Z</time>
      </trkpt>
      <trkpt lat="46.17487" lon="6.86687">
        <ele>1080</ele>
        <time>2010-01-01T05:57:35Z</time>
      </trkpt>
      <trkpt lat="46.17487" lon="6.86687">
        <ele>1080</ele>
        <time>2010-01-01T05:57:35Z</time>
      </trkpt>
      <trkpt lat="46.17485" lon="6.86572">
        <ele>1097</ele>
        <time>2010-01-01T05:58:07Z</time>
      </trkpt>
      <trkpt lat="46.17481" lon="6.86534">
        <ele>1102</ele>
        <time>2010-01-01T05:58:17Z</time>
      </trkpt>
      <trkpt lat="46.17479" lon="6.86483">
        <ele>1109</ele>
        <time>2010-01-01T05:58:31Z</time>
      </trkpt>
      <trkpt lat="46.1748" lon="6.86422">
        <ele>1122</ele>
        <time>2010-01-01T05:58:49Z</time>
      </trkpt>
      <trkpt lat="46.17477" lon="6.86126">
        <ele>1184</ele>
        <time>2010-01-01T06:00:10Z</time>
      </trkpt>
      <trkpt lat="46.17484" lon="6.86101">
        <ele>1207</ele>
        <time>2010-01-01T06:00:18Z</time>
      </trkpt>
      <trkpt lat="46.1749" lon="6.86068">
        <ele>1228</ele>
        <time>2010-01-01T06:00:27Z</time>
      </trkpt>
      <trkpt lat="46.17495" lon="6.86016">
        <ele>1258</ele>
        <time>2010-01-01T06:00:42Z</time>
      </trkpt>
      <trkpt lat="46.17498" lon="6.85942">
        <ele>1289</ele>
        <time>2010-01-01T06:01:03Z</time>
      </trkpt>
      <trkpt lat="46.175" lon="6.85788">
        <ele>1350</ele>
        <time>2010-01-01T06:01:45Z</time>
      </trkpt>
      <trkpt lat="46.17504" lon="6.85729">
        <ele>1380</ele>
        <time>2010-01-01T06:02:02Z</time>
      </trkpt>
      <trkpt lat="46.17505" lon="6.85614">
        <ele>1438</ele>
        <time>2010-01-01T06:02:33Z</time>
      </trkpt>
      <trkpt lat="46.1751" lon="6.85536">
        <ele>1483</ele>
        <time>2010-01-01T06:02:55Z</time>
      </trkpt>
      <trkpt lat="46.1751" lon="6.85536">
        <ele>1483</ele>
        <time>2010-01-01T06:02:55Z</time>
      </trkpt>
      <trkpt lat="46.17514" lon="6.85271">
        <ele>1590</ele>
        <time>2010-01-01T06:04:09Z</time>
      </trkpt>
      <trkpt lat="46.17512" lon="6.84972">
        <ele>1704</ele>
        <time>2010-01-01T06:05:32Z</time>
      </trkpt>
      <trkpt lat="46.17506" lon="6.8468">
        <ele>1829</ele>
        <time>2010-01-01T06:06:52Z</time>
      </trkpt>
      <trkpt lat="46.17508" lon="6.84623">
        <ele>1869</ele>
        <time>2010-01-01T06:07:08Z</time>
      </trkpt>
      <trkpt lat="46.17512" lon="6.84616">
        <ele>1897</ele>
        <time>2010-01-01T06:07:11Z</time>
      </trkpt>
      <trkpt lat="46.17515" lon="6.84617">
        <ele>1909</ele>
        <time>2010-01-01T06:07:12Z</time>
      </trkpt>
      <trkpt lat="46.17503" lon="6.84629">
        <ele>1910</ele>
        <time>2010-01-01T06:07:18Z</time>
      </trkpt>
      <trkpt lat="46.1751" lon="6.84616">
        <ele>1910</ele>
        <time>2010-01-01T06:07:22Z</time>
      </trkpt>
      <trkpt lat="46.1751" lon="6.84613">
        <ele>1910</ele>
        <time>2010-01-01T06:07:23Z</time>
      </trkpt>
      <trkpt lat="46.17511" lon="6.84613">
        <ele>1910</ele>
        <time>2010-01-01T06:07:24Z</time>
      </trkpt>
      <trkpt lat="46.17511" lon="6.84617">
        <ele>1912</ele>
        <time>2010-01-01T06:07:25Z</time>
      </trkpt>
      <trkpt lat="46.17511" lon="6.84615">
        <ele>1911</ele>
        <time>2010-01-01T06:07:25Z</time>
      </trkpt>
      <trkpt lat="46.17514" lon="6.84614">
        <ele>1913</ele>
        <time>2010-01-01T06:07:27Z</time>
      </trkpt>
      <trkpt lat="46.17515" lon="6.84609">
        <ele>1910</ele>
        <time>2010-01-01T06:07:28Z</time>
      </trkpt>
      <trkpt lat="46.17514" lon="6.84603">
        <ele>1910</ele>
        <time>2010-01-01T06:07:30Z</time>
      </trkpt>
      <trkpt lat="46.17513" lon="6.84604">
        <ele>1911</ele>
        <time>2010-01-01T06:07:30Z</time>
      </trkpt>
      <trkpt lat="46.17511" lon="6.84603">
        <ele>1911</ele>
        <time>2010-01-01T06:07:31Z</time>
      </trkpt>
      <trkpt lat="46.17509" lon="6.84597">
        <ele>1910</ele>
        <time>2010-01-01T06:07:33Z</time>
      </trkpt>
      <trkpt lat="46.17505" lon="6.84593">
        <ele>1910</ele>
        <time>2010-01-01T06:07:35Z</time>
      </trkpt>
      <trkpt lat="46.17501" lon="6.84583">
        <ele>1912</ele>
        <time>2010-01-01T06:07:38Z</time>
      </trkpt>
      <trkpt lat="46.17515" lon="6.84561">
        <ele>1904</ele>
        <time>2010-01-01T06:07:47Z</time>
      </trkpt>
      <trkpt lat="46.1752" lon="6.84543">
        <ele>1900</ele>
        <time>2010-01-01T06:07:52Z</time>
      </trkpt>
      <trkpt lat="46.17524" lon="6.84536">
        <ele>1899</ele>
        <time>2010-01-01T06:07:54Z</time>
      </trkpt>
      <trkpt lat="46.17526" lon="6.84524">
        <ele>1900</ele>
        <time>2010-01-01T06:07:58Z</time>
      </trkpt>
      <trkpt lat="46.17526" lon="6.84524">
        <ele>1900</ele>
        <time>2010-01-01T06:07:58Z</time>
      </trkpt>
      <trkpt lat="46.17535" lon="6.84519">
        <ele>1898</ele>
        <time>2010-01-01T06:08:02Z</time>
      </trkpt>
      <trkpt lat="46.17527" lon="6.84523">
        <ele>1900</ele>
        <time>2010-01-01T06:08:05Z</time>
      </trkpt>
      <trkpt lat="46.17541" lon="6.84513">
        <ele>1898</ele>
        <time>2010-01-01T06:08:11Z</time>
      </trkpt>
      <trkpt lat="46.17542" lon="6.84496">
        <ele>1904</ele>
        <time>2010-01-01T06:08:16Z</time>
      </trkpt>
      <trkpt lat="46.1755" lon="6.84457">
        <ele>1924</ele>
        <time>2010-01-01T06:08:27Z</time>
      </trkpt>
      <trkpt lat="46.17563" lon="6.84443">
        <ele>1926</ele>
        <time>2010-01-01T06:08:34Z</time>
      </trkpt>
      <trkpt lat="46.17568" lon="6.84431">
        <ele>1927</ele>
        <time>2010-01-01T06:08:38Z</time>
      </trkpt>
      <trkpt lat="46.17568" lon="6.84405">
        <ele>1926</ele>
        <time>2010-01-01T06:08:45Z</time>
      </trkpt>
      <trkpt lat="46.17574" lon="6.84377">
        <ele>1923</ele>
        <time>2010-01-01T06:08:53Z</time>
      </trkpt>
      <trkpt lat="46.17576" lon="6.84358">
        <ele>1923</ele>
        <time>2010-01-01T06:08:58Z</time>
      </trkpt>
      <trkpt lat="46.17581" lon="6.84326">
        <ele>1920</ele>
        <time>2010-01-01T06:09:07Z</time>
      </trkpt>
      <trkpt lat="46.17578" lon="6.84295">
        <ele>1919</ele>
        <time>2010-01-01T06:09:16Z</time>
      </trkpt>
      <trkpt lat="46.17578" lon="6.8427">
        <ele>1917</ele>
        <time>2010-01-01T06:09:23Z</time>
      </trkpt>
      <trkpt lat="46.17573" lon="6.84255">
        <ele>1915</ele>
        <time>2010-01-01T06:09:28Z</time>
      </trkpt>
      <trkpt lat="46.17571" lon="6.84242">
        <ele>1914</ele>
        <time>2010-01-01T06:09:31Z</time>
      </trkpt>
      <trkpt lat="46.1757" lon="6.84206">
        <ele>1912</ele>
        <time>2010-01-01T06:09:41Z</time>
      </trkpt>
      <trkpt lat="46.17572" lon="6.84195">
        <ele>1911</ele>
        <time>2010-01-01T06:09:44Z</time>
      </trkpt>
      <trkpt lat="46.17576" lon="6.84171">
        <ele>1910</ele>
        <time>2010-01-01T06:09:51Z</time>
      </trkpt>
      <trkpt lat="46.17586" lon="6.84132">
        <ele>1908</ele>
        <time>2010-01-01T06:10:03Z</time>
      </trkpt>
      <trkpt lat="46.17597" lon="6.84055">
        <ele>1905</ele>
        <time>2010-01-01T06:10:25Z</time>
      </trkpt>
      <trkpt lat="46.17618" lon="6.83967">
        <ele>1901</ele>
        <time>2010-01-01T06:10:50Z</time>
      </trkpt>
      <trkpt lat="46.17629" lon="6.83878">
        <ele>1895</ele>
        <time>2010-01-01T06:11:15Z</time>
      </trkpt>
      <trkpt lat="46.17633" lon="6.83853">
        <ele>1893</ele>
        <time>2010-01-01T06:11:22Z</time>
      </trkpt>
      <trkpt lat="46.1764" lon="6.8383">
        <ele>1890</ele>
        <time>2010-01-01T06:11:29Z</time>
      </trkpt>
      <trkpt lat="46.17649" lon="6.83807">
        <ele>1888</ele>
        <time>2010-01-01T06:11:37Z</time>
      </trkpt>
      <trkpt lat="46.17665" lon="6.83775">
        <ele>1884</ele>
        <time>2010-01-01T06:11:48Z</time>
      </trkpt>
      <trkpt lat="46.17675" lon="6.8376">
        <ele>1881</ele>
        <time>2010-01-01T06:11:53Z</time>
      </trkpt>
      <trkpt lat="46.1768" lon="6.83754">
        <ele>1880</ele>
        <time>2010-01-01T06:11:56Z</time>
      </trkpt>
      <trkpt lat="46.17694" lon="6.83746">
        <ele>1878</ele>
        <time>2010-01-01T06:12:02Z</time>
      </trkpt>
      <trkpt lat="46.1772" lon="6.83738">
        <ele>1873</ele>
        <time>2010-01-01T06:12:13Z</time>
      </trkpt>
      <trkpt lat="46.17739" lon="6.83737">
        <ele>1870</ele>
        <time>2010-01-01T06:12:21Z</time>
      </trkpt>
      <trkpt lat="46.17744" lon="6.83735">
        <ele>1869</ele>
        <time>2010-01-01T06:12:22Z</time>
      </trkpt>
      <trkpt lat="46.17757" lon="6.83723">
        <ele>1866</ele>
        <time>2010-01-01T06:12:29Z</time>
      </trkpt>
      <trkpt lat="46.17764" lon="6.83714">
        <ele>1863</ele>
        <time>2010-01-01T06:12:32Z</time>
      </trkpt>
      <trkpt lat="46.17767" lon="6.83693">
        <ele>1859</ele>
        <time>2010-01-01T06:12:38Z</time>
      </trkpt>
      <trkpt lat="46.17766" lon="6.83666">
        <ele>1853</ele>
        <time>2010-01-01T06:12:46Z</time>
      </trkpt>
      <trkpt lat="46.17764" lon="6.83661">
        <ele>1852</ele>
        <time>2010-01-01T06:12:47Z</time>
      </trkpt>
      <trkpt lat="46.17755" lon="6.83651">
        <ele>1849</ele>
        <time>2010-01-01T06:12:52Z</time>
      </trkpt>
      <trkpt lat="46.17745" lon="6.83635">
        <ele>1845</ele>
        <time>2010-01-01T06:12:58Z</time>
      </trkpt>
      <trkpt lat="46.17741" lon="6.8362">
        <ele>1843</ele>
        <time>2010-01-01T06:13:02Z</time>
      </trkpt>
      <trkpt lat="46.1774" lon="6.83603">
        <ele>1841</ele>
        <time>2010-01-01T06:13:07Z</time>
      </trkpt>
      <trkpt lat="46.17744" lon="6.83586">
        <ele>1839</ele>
        <time>2010-01-01T06:13:12Z</time>
      </trkpt>
      <trkpt lat="46.17767" lon="6.83518">
        <ele>1833</ele>
        <time>2010-01-01T06:13:33Z</time>
      </trkpt>
      <trkpt lat="46.17775" lon="6.83468">
        <ele>1829</ele>
        <time>2010-01-01T06:13:47Z</time>
      </trkpt>
      <trkpt lat="46.17779" lon="6.8345">
        <ele>1827</ele>
        <time>2010-01-01T06:13:52Z</time>
      </trkpt>
      <trkpt lat="46.17779" lon="6.8345">
        <ele>1827</ele>
        <time>2010-01-01T06:13:52Z</time>
      </trkpt>
      <trkpt lat="46.1778" lon="6.83441">
        <ele>1827</ele>
        <time>2010-01-01T06:13:55Z</time>
      </trkpt>
      <trkpt lat="46.1778" lon="6.83431">
        <ele>1826</ele>
        <time>2010-01-01T06:13:58Z</time>
      </trkpt>
      <trkpt lat="46.17776" lon="6.83409">
        <ele>1824</ele>
        <time>2010-01-01T06:14:04Z</time>
      </trkpt>
      <trkpt lat="46.17765" lon="6.83377">
        <ele>1820</ele>
        <time>2010-01-01T06:14:14Z</time>
      </trkpt>
      <trkpt lat="46.17753" lon="6.83356">
        <ele>1817</ele>
        <time>2010-01-01T06:14:22Z</time>
      </trkpt>
      <trkpt lat="46.17752" lon="6.83351">
        <ele>1816</ele>
        <time>2010-01-01T06:14:23Z</time>
      </trkpt>
      <trkpt lat="46.17753" lon="6.83346">
        <ele>1815</ele>
        <time>2010-01-01T06:14:25Z</time>
      </trkpt>
      <trkpt lat="46.17763" lon="6.8333">
        <ele>1813</ele>
        <time>2010-01-01T06:14:30Z</time>
      </trkpt>
      <trkpt lat="46.1777" lon="6.83313">
        <ele>1812</ele>
        <time>2010-01-01T06:14:36Z</time>
      </trkpt>
      <trkpt lat="46.17785" lon="6.83268">
        <ele>1808</ele>
        <time>2010-01-01T06:14:50Z</time>
      </trkpt>
      <trkpt lat="46.17799" lon="6.83237">
        <ele>1809</ele>
        <time>2010-01-01T06:15:00Z</time>
      </trkpt>
      <trkpt lat="46.17804" lon="6.83221">
        <ele>1809</ele>
        <time>2010-01-01T06:15:05Z</time>
      </trkpt>
      <trkpt lat="46.17819" lon="6.83143">
        <ele>1810</ele>
        <time>2010-01-01T06:15:27Z</time>
      </trkpt>
      <trkpt lat="46.17834" lon="6.83083">
        <ele>1810</ele>
        <time>2010-01-01T06:15:45Z</time>
      </trkpt>
      <trkpt lat="46.17842" lon="6.8306">
        <ele>1809</ele>
        <time>2010-01-01T06:15:52Z</time>
      </trkpt>
      <trkpt lat="46.17844" lon="6.83053">
        <ele>1809</ele>
        <time>2010-01-01T06:15:54Z</time>
      </trkpt>
      <trkpt lat="46.17848" lon="6.83049">
        <ele>1809</ele>
        <time>2010-01-01T06:15:56Z</time>
      </trkpt>
      <trkpt lat="46.17863" lon="6.83046">
        <ele>1809</ele>
        <time>2010-01-01T06:16:02Z</time>
      </trkpt>
      <trkpt lat="46.1787" lon="6.83037">
        <ele>1809</ele>
        <time>2010-01-01T06:16:06Z</time>
      </trkpt>
      <trkpt lat="46.17891" lon="6.82991">
        <ele>1807</ele>
        <time>2010-01-01T06:16:21Z</time>
      </trkpt>
      <trkpt lat="46.17899" lon="6.8295">
        <ele>1806</ele>
        <time>2010-01-01T06:16:33Z</time>
      </trkpt>
      <trkpt lat="46.17901" lon="6.82946">
        <ele>1806</ele>
        <time>2010-01-01T06:16:34Z</time>
      </trkpt>
      <trkpt lat="46.17905" lon="6.82944">
        <ele>1805</ele>
        <time>2010-01-01T06:16:36Z</time>
      </trkpt>
      <trkpt lat="46.17908" lon="6.82945">
        <ele>1805</ele>
        <time>2010-01-01T06:16:37Z</time>
      </trkpt>
      <trkpt lat="46.17912" lon="6.82949">
        <ele>1805</ele>
        <time>2010-01-01T06:16:39Z</time>
      </trkpt>
      <trkpt lat="46.17927" lon="6.82996">
        <ele>1803</ele>
        <time>2010-01-01T06:16:53Z</time>
      </trkpt>
      <trkpt lat="46.17931" lon="6.83019">
        <ele>1802</ele>
        <time>2010-01-01T06:17:00Z</time>
      </trkpt>
      <trkpt lat="46.17932" lon="6.83099">
        <ele>1798</ele>
        <time>2010-01-01T06:17:22Z</time>
      </trkpt>
      <trkpt lat="46.17936" lon="6.83101">
        <ele>1797</ele>
        <time>2010-01-01T06:17:24Z</time>
      </trkpt>
      <trkpt lat="46.17939" lon="6.83101">
        <ele>1797</ele>
        <time>2010-01-01T06:17:26Z</time>
      </trkpt>
      <trkpt lat="46.17944" lon="6.83093">
        <ele>1796</ele>
        <time>2010-01-01T06:17:28Z</time>
      </trkpt>
      <trkpt lat="46.17951" lon="6.83052">
        <ele>1793</ele>
        <time>2010-01-01T06:17:40Z</time>
      </trkpt>
      <trkpt lat="46.17967" lon="6.82997">
        <ele>1789</ele>
        <time>2010-01-01T06:17:57Z</time>
      </trkpt>
      <trkpt lat="46.17979" lon="6.82941">
        <ele>1787</ele>
        <time>2010-01-01T06:18:13Z</time>
      </trkpt>
      <trkpt lat="46.17987" lon="6.82927">
        <ele>1786</ele>
        <time>2010-01-01T06:18:18Z</time>
      </trkpt>
      <trkpt lat="46.17992" lon="6.82922">
        <ele>1785</ele>
        <time>2010-01-01T06:18:20Z</time>
      </trkpt>
      <trkpt lat="46.18006" lon="6.82926">
        <ele>1784</ele>
        <time>2010-01-01T06:18:26Z</time>
      </trkpt>
      <trkpt lat="46.18048" lon="6.82922">
        <ele>1780</ele>
        <time>2010-01-01T06:18:43Z</time>
      </trkpt>
      <trkpt lat="46.18056" lon="6.8292">
        <ele>1780</ele>
        <time>2010-01-01T06:18:46Z</time>
      </trkpt>
      <trkpt lat="46.18071" lon="6.82904">
        <ele>1778</ele>
        <time>2010-01-01T06:18:53Z</time>
      </trkpt>
      <trkpt lat="46.18077" lon="6.829">
        <ele>1777</ele>
        <time>2010-01-01T06:18:56Z</time>
      </trkpt>
      <trkpt lat="46.18084" lon="6.82898">
        <ele>1776</ele>
        <time>2010-01-01T06:18:59Z</time>
      </trkpt>
      <trkpt lat="46.18105" lon="6.82896">
        <ele>1774</ele>
        <time>2010-01-01T06:19:07Z</time>
      </trkpt>
      <trkpt lat="46.1813" lon="6.82887">
        <ele>1771</ele>
        <time>2010-01-01T06:19:18Z</time>
      </trkpt>
      <trkpt lat="46.1814" lon="6.82882">
        <ele>1769</ele>
        <time>2010-01-01T06:19:22Z</time>
      </trkpt>
      <trkpt lat="46.18146" lon="6.82883">
        <ele>1767</ele>
        <time>2010-01-01T06:19:24Z</time>
      </trkpt>
      <trkpt lat="46.18149" lon="6.82893">
        <ele>1766</ele>
        <time>2010-01-01T06:19:27Z</time>
      </trkpt>
      <trkpt lat="46.18147" lon="6.82909">
        <ele>1764</ele>
        <time>2010-01-01T06:19:32Z</time>
      </trkpt>
      <trkpt lat="46.18144" lon="6.82916">
        <ele>1763</ele>
        <time>2010-01-01T06:19:34Z</time>
      </trkpt>
      <trkpt lat="46.18128" lon="6.82935">
        <ele>1759</ele>
        <time>2010-01-01T06:19:42Z</time>
      </trkpt>
      <trkpt lat="46.18117" lon="6.82953">
        <ele>1756</ele>
        <time>2010-01-01T06:19:49Z</time>
      </trkpt>
      <trkpt lat="46.18117" lon="6.82953">
        <ele>1756</ele>
        <time>2010-01-01T06:19:49Z</time>
      </trkpt>
      <trkpt lat="46.18086" lon="6.83012">
        <ele>1750</ele>
        <time>2010-01-01T06:20:09Z</time>
      </trkpt>
      <trkpt lat="46.18078" lon="6.83046">
        <ele>1746</ele>
        <time>2010-01-01T06:20:19Z</time>
      </trkpt>
      <trkpt lat="46.18078" lon="6.83053">
        <ele>1746</ele>
        <time>2010-01-01T06:20:22Z</time>
      </trkpt>
      <trkpt lat="46.18095" lon="6.83088">
        <ele>1741</ele>
        <time>2010-01-01T06:20:33Z</time>
      </trkpt>
      <trkpt lat="46.18103" lon="6.83121">
        <ele>1738</ele>
        <time>2010-01-01T06:20:43Z</time>
      </trkpt>
      <trkpt lat="46.18118" lon="6.83144">
        <ele>1734</ele>
        <time>2010-01-01T06:20:52Z</time>
      </trkpt>
      <trkpt lat="46.18147" lon="6.83171">
        <ele>1731</ele>
        <time>2010-01-01T06:21:06Z</time>
      </trkpt>
      <trkpt lat="46.1816" lon="6.83189">
        <ele>1729</ele>
        <time>2010-01-01T06:21:13Z</time>
      </trkpt>
      <trkpt lat="46.18167" lon="6.83195">
        <ele>1729</ele>
        <time>2010-01-01T06:21:16Z</time>
      </trkpt>
      <trkpt lat="46.18191" lon="6.83202">
        <ele>1726</ele>
        <time>2010-01-01T06:21:26Z</time>
      </trkpt>
      <trkpt lat="46.18198" lon="6.83206">
        <ele>1725</ele>
        <time>2010-01-01T06:21:29Z</time>
      </trkpt>
      <trkpt lat="46.18211" lon="6.83221">
        <ele>1722</ele>
        <time>2010-01-01T06:21:35Z</time>
      </trkpt>
      <trkpt lat="46.18215" lon="6.83222">
        <ele>1721</ele>
        <time>2010-01-01T06:21:37Z</time>
      </trkpt>
      <trkpt lat="46.18218" lon="6.8322">
        <ele>1721</ele>
        <time>2010-01-01T06:21:38Z</time>
      </trkpt>
      <trkpt lat="46.18219" lon="6.83215">
        <ele>1720</ele>
        <time>2010-01-01T06:21:40Z</time>
      </trkpt>
      <trkpt lat="46.18208" lon="6.83174">
        <ele>1716</ele>
        <time>2010-01-01T06:21:52Z</time>
      </trkpt>
      <trkpt lat="46.18208" lon="6.83168">
        <ele>1715</ele>
        <time>2010-01-01T06:21:54Z</time>
      </trkpt>
      <trkpt lat="46.18211" lon="6.83162">
        <ele>1713</ele>
        <time>2010-01-01T06:21:56Z</time>
      </trkpt>
      <trkpt lat="46.18218" lon="6.83152">
        <ele>1711</ele>
        <time>2010-01-01T06:22:00Z</time>
      </trkpt>
      <trkpt lat="46.18242" lon="6.83131">
        <ele>1707</ele>
        <time>2010-01-01T06:22:11Z</time>
      </trkpt>
      <trkpt lat="46.18256" lon="6.83126">
        <ele>1705</ele>
        <time>2010-01-01T06:22:17Z</time>
      </trkpt>
      <trkpt lat="46.18263" lon="6.83127">
        <ele>1703</ele>
        <time>2010-01-01T06:22:20Z</time>
      </trkpt>
      <trkpt lat="46.18267" lon="6.83128">
        <ele>1702</ele>
        <time>2010-01-01T06:22:21Z</time>
      </trkpt>
      <trkpt lat="46.18268" lon="6.83133">
        <ele>1701</ele>
        <time>2010-01-01T06:22:23Z</time>
      </trkpt>
      <trkpt lat="46.18265" lon="6.8315">
        <ele>1699</ele>
        <time>2010-01-01T06:22:27Z</time>
      </trkpt>
      <trkpt lat="46.18268" lon="6.8318">
        <ele>1697</ele>
        <time>2010-01-01T06:22:36Z</time>
      </trkpt>
      <trkpt lat="46.18275" lon="6.83205">
        <ele>1696</ele>
        <time>2010-01-01T06:22:43Z</time>
      </trkpt>
      <trkpt lat="46.18286" lon="6.83231">
        <ele>1692</ele>
        <time>2010-01-01T06:22:52Z</time>
      </trkpt>
      <trkpt lat="46.18292" lon="6.83252">
        <ele>1691</ele>
        <time>2010-01-01T06:22:58Z</time>
      </trkpt>
      <trkpt lat="46.18308" lon="6.83286">
        <ele>1688</ele>
        <time>2010-01-01T06:23:10Z</time>
      </trkpt>
      <trkpt lat="46.18329" lon="6.83306">
        <ele>1686</ele>
        <time>2010-01-01T06:23:20Z</time>
      </trkpt>
      <trkpt lat="46.18344" lon="6.83328">
        <ele>1684</ele>
        <time>2010-01-01T06:23:28Z</time>
      </trkpt>
      <trkpt lat="46.18345" lon="6.83341">
        <ele>1683</ele>
        <time>2010-01-01T06:23:32Z</time>
      </trkpt>
      <trkpt lat="46.1834" lon="6.83374">
        <ele>1682</ele>
        <time>2010-01-01T06:23:41Z</time>
      </trkpt>
      <trkpt lat="46.18342" lon="6.83382">
        <ele>1682</ele>
        <time>2010-01-01T06:23:43Z</time>
      </trkpt>
      <trkpt lat="46.1835" lon="6.83404">
        <ele>1682</ele>
        <time>2010-01-01T06:23:50Z</time>
      </trkpt>
      <trkpt lat="46.18357" lon="6.8342">
        <ele>1681</ele>
        <time>2010-01-01T06:23:56Z</time>
      </trkpt>
      <trkpt lat="46.18362" lon="6.83426">
        <ele>1681</ele>
        <time>2010-01-01T06:23:58Z</time>
      </trkpt>
      <trkpt lat="46.18367" lon="6.83427">
        <ele>1680</ele>
        <time>2010-01-01T06:24:00Z</time>
      </trkpt>
      <trkpt lat="46.18374" lon="6.83423">
        <ele>1681</ele>
        <time>2010-01-01T06:24:03Z</time>
      </trkpt>
      <trkpt lat="46.18375" lon="6.83422">
        <ele>1681</ele>
        <time>2010-01-01T06:24:04Z</time>
      </trkpt>
      <trkpt lat="46.18376" lon="6.83417">
        <ele>1681</ele>
        <time>2010-01-01T06:24:05Z</time>
      </trkpt>
      <trkpt lat="46.18375" lon="6.83416">
        <ele>1680</ele>
        <time>2010-01-01T06:24:06Z</time>
      </trkpt>
      <trkpt lat="46.18372" lon="6.83418">
        <ele>1681</ele>
        <time>2010-01-01T06:24:07Z</time>
      </trkpt>
      <trkpt lat="46.18374" lon="6.83424">
        <ele>1680</ele>
        <time>2010-01-01T06:24:09Z</time>
      </trkpt>
      <trkpt lat="46.1838" lon="6.83419">
        <ele>1681</ele>
        <time>2010-01-01T06:24:11Z</time>
      </trkpt>
      <trkpt lat="46.1838" lon="6.83413">
        <ele>1681</ele>
        <time>2010-01-01T06:24:13Z</time>
      </trkpt>
      <trkpt lat="46.18383" lon="6.83417">
        <ele>1680</ele>
        <time>2010-01-01T06:24:15Z</time>
      </trkpt>
      <trkpt lat="46.18382" lon="6.8342">
        <ele>1679</ele>
        <time>2010-01-01T06:24:16Z</time>
      </trkpt>
      <trkpt lat="46.18381" lon="6.8342">
        <ele>1679</ele>
        <time>2010-01-01T06:24:16Z</time>
      </trkpt>
      <trkpt lat="46.18383" lon="6.83412">
        <ele>1679</ele>
        <time>2010-01-01T06:24:19Z</time>
      </trkpt>
      <trkpt lat="46.18423" lon="6.83317">
        <ele>1698</ele>
        <time>2010-01-01T06:24:49Z</time>
      </trkpt>
      <trkpt lat="46.18441" lon="6.83278">
        <ele>1703</ele>
        <time>2010-01-01T06:25:02Z</time>
      </trkpt>
      <trkpt lat="46.1849" lon="6.83166">
        <ele>1720</ele>
        <time>2010-01-01T06:25:39Z</time>
      </trkpt>
      <trkpt lat="46.1849" lon="6.83166">
        <ele>1720</ele>
        <time>2010-01-01T06:25:39Z</time>
      </trkpt>
      <trkpt lat="46.18622" lon="6.82863">
        <ele>1781</ele>
        <time>2010-01-01T06:27:18Z</time>
      </trkpt>
      <trkpt lat="46.18659" lon="6.82785">
        <ele>1804</ele>
        <time>2010-01-01T06:27:45Z</time>
      </trkpt>
      <trkpt lat="46.18728" lon="6.82626">
        <ele>1853</ele>
        <time>2010-01-01T06:28:36Z</time>
      </trkpt>
      <trkpt lat="46.18774" lon="6.82528">
        <ele>1896</ele>
        <time>2010-01-01T06:29:09Z</time>
      </trkpt>
      <trkpt lat="46.18838" lon="6.82376">
        <ele>1963</ele>
        <time>2010-01-01T06:29:59Z</time>
      </trkpt>
      <trkpt lat="46.18883" lon="6.82279">
        <ele>1987</ele>
        <time>2010-01-01T06:30:31Z</time>
      </trkpt>
      <trkpt lat="46.18943" lon="6.82139">
        <ele>2012</ele>
        <time>2010-01-01T06:31:17Z</time>
      </trkpt>
      <trkpt lat="46.18943" lon="6.82139">
        <ele>2012</ele>
        <time>2010-01-01T06:31:17Z</time>
      </trkpt>
      <trkpt lat="46.19013" lon="6.81984">
        <ele>2072</ele>
        <time>2010-01-01T06:32:08Z</time>
      </trkpt>
      <trkpt lat="46.19045" lon="6.81908">
        <ele>2118</ele>
        <time>2010-01-01T06:32:33Z</time>
      </trkpt>
      <trkpt lat="46.19106" lon="6.81775">
        <ele>2194</ele>
        <time>2010-01-01T06:33:17Z</time>
      </trkpt>
      <trkpt lat="46.19142" lon="6.81688">
        <ele>2226</ele>
        <time>2010-01-01T06:33:45Z</time>
      </trkpt>
      <trkpt lat="46.19152" lon="6.81669">
        <ele>2233</ele>
        <time>2010-01-01T06:33:51Z</time>
      </trkpt>
      <trkpt lat="46.19152" lon="6.81668">
        <ele>2234</ele>
        <time>2010-01-01T06:33:52Z</time>
      </trkpt>
      <trkpt lat="46.19153" lon="6.81669">
        <ele>2237</ele>
        <time>2010-01-01T06:33:52Z</time>
      </trkpt>
      <trkpt lat="46.19157" lon="6.81662">
        <ele>2238</ele>
        <time>2010-01-01T06:33:55Z</time>
      </trkpt>
      <trkpt lat="46.19185" lon="6.81594">
        <ele>2243</ele>
        <time>2010-01-01T06:34:17Z</time>
      </trkpt>
      <trkpt lat="46.19187" lon="6.81583">
        <ele>2244</ele>
        <time>2010-01-01T06:34:20Z</time>
      </trkpt>
      <trkpt lat="46.19186" lon="6.81574">
        <ele>2245</ele>
        <time>2010-01-01T06:34:22Z</time>
      </trkpt>
      <trkpt lat="46.19182" lon="6.81558">
        <ele>2243</ele>
        <time>2010-01-01T06:34:27Z</time>
      </trkpt>
      <trkpt lat="46.19179" lon="6.8152">
        <ele>2241</ele>
        <time>2010-01-01T06:34:38Z</time>
      </trkpt>
      <trkpt lat="46.19175" lon="6.81502">
        <ele>2240</ele>
        <time>2010-01-01T06:34:43Z</time>
      </trkpt>
      <trkpt lat="46.19172" lon="6.81497">
        <ele>2240</ele>
        <time>2010-01-01T06:34:45Z</time>
      </trkpt>
      <trkpt lat="46.19164" lon="6.81488">
        <ele>2239</ele>
        <time>2010-01-01T06:34:49Z</time>
      </trkpt>
      <trkpt lat="46.19155" lon="6.81479">
        <ele>2239</ele>
        <time>2010-01-01T06:34:53Z</time>
      </trkpt>
      <trkpt lat="46.19144" lon="6.81473">
        <ele>2239</ele>
        <time>2010-01-01T06:34:58Z</time>
      </trkpt>
      <trkpt lat="46.19125" lon="6.81469">
        <ele>2237</ele>
        <time>2010-01-01T06:35:05Z</time>
      </trkpt>
      <trkpt lat="46.19112" lon="6.81468">
        <ele>2236</ele>
        <time>2010-01-01T06:35:11Z</time>
      </trkpt>
      <trkpt lat="46.19095" lon="6.8147">
        <ele>2235</ele>
        <time>2010-01-01T06:35:17Z</time>
      </trkpt>
      <trkpt lat="46.19085" lon="6.81473">
        <ele>2234</ele>
        <time>2010-01-01T06:35:21Z</time>
      </trkpt>
      <trkpt lat="46.19069" lon="6.8149">
        <ele>2232</ele>
        <time>2010-01-01T06:35:29Z</time>
      </trkpt>
      <trkpt lat="46.19049" lon="6.81519">
        <ele>2228</ele>
        <time>2010-01-01T06:35:41Z</time>
      </trkpt>
      <trkpt lat="46.1904" lon="6.81536">
        <ele>2227</ele>
        <time>2010-01-01T06:35:47Z</time>
      </trkpt>
      <trkpt lat="46.19024" lon="6.81577">
        <ele>2224</ele>
        <time>2010-01-01T06:36:00Z</time>
      </trkpt>
      <trkpt lat="46.19011" lon="6.81598">
        <ele>2222</ele>
        <time>2010-01-01T06:36:07Z</time>
      </trkpt>
      <trkpt lat="46.18958" lon="6.81663">
        <ele>2212</ele>
        <time>2010-01-01T06:36:35Z</time>
      </trkpt>
      <trkpt lat="46.18937" lon="6.81681">
        <ele>2205</ele>
        <time>2010-01-01T06:36:45Z</time>
      </trkpt>
      <trkpt lat="46.18926" lon="6.81689">
        <ele>2202</ele>
        <time>2010-01-01T06:36:50Z</time>
      </trkpt>
      <trkpt lat="46.18926" lon="6.81689">
        <ele>2202</ele>
        <time>2010-01-01T06:36:50Z</time>
      </trkpt>
      <trkpt lat="46.18913" lon="6.81695">
        <ele>2198</ele>
        <time>2010-01-01T06:36:56Z</time>
      </trkpt>
      <trkpt lat="46.18898" lon="6.817">
        <ele>2194</ele>
        <time>2010-01-01T06:37:02Z</time>
      </trkpt>
      <trkpt lat="46.18882" lon="6.81702">
        <ele>2190</ele>
        <time>2010-01-01T06:37:08Z</time>
      </trkpt>
      <trkpt lat="46.1886" lon="6.81702">
        <ele>2186</ele>
        <time>2010-01-01T06:37:17Z</time>
      </trkpt>
      <trkpt lat="46.18854" lon="6.81704">
        <ele>2185</ele>
        <time>2010-01-01T06:37:19Z</time>
      </trkpt>
      <trkpt lat="46.18848" lon="6.81706">
        <ele>2184</ele>
        <time>2010-01-01T06:37:22Z</time>
      </trkpt>
      <trkpt lat="46.18846" lon="6.81713">
        <ele>2181</ele>
        <time>2010-01-01T06:37:24Z</time>
      </trkpt>
      <trkpt lat="46.18847" lon="6.81717">
        <ele>2180</ele>
        <time>2010-01-01T06:37:25Z</time>
      </trkpt>
      <trkpt lat="46.1885" lon="6.81718">
        <ele>2178</ele>
        <time>2010-01-01T06:37:26Z</time>
      </trkpt>
      <trkpt lat="46.1886" lon="6.81719">
        <ele>2175</ele>
        <time>2010-01-01T06:37:30Z</time>
      </trkpt>
      <trkpt lat="46.18868" lon="6.81717">
        <ele>2172</ele>
        <time>2010-01-01T06:37:33Z</time>
      </trkpt>
      <trkpt lat="46.18888" lon="6.81714">
        <ele>2168</ele>
        <time>2010-01-01T06:37:42Z</time>
      </trkpt>
      <trkpt lat="46.18897" lon="6.81718">
        <ele>2166</ele>
        <time>2010-01-01T06:37:45Z</time>
      </trkpt>
      <trkpt lat="46.1891" lon="6.81731">
        <ele>2163</ele>
        <time>2010-01-01T06:37:52Z</time>
      </trkpt>
      <trkpt lat="46.18915" lon="6.81733">
        <ele>2162</ele>
        <time>2010-01-01T06:37:54Z</time>
      </trkpt>
      <trkpt lat="46.18931" lon="6.81731">
        <ele>2159</ele>
        <time>2010-01-01T06:38:00Z</time>
      </trkpt>
      <trkpt lat="46.18936" lon="6.81734">
        <ele>2158</ele>
        <time>2010-01-01T06:38:02Z</time>
      </trkpt>
      <trkpt lat="46.18941" lon="6.81739">
        <ele>2157</ele>
        <time>2010-01-01T06:38:05Z</time>
      </trkpt>
      <trkpt lat="46.18952" lon="6.81758">
        <ele>2154</ele>
        <time>2010-01-01T06:38:12Z</time>
      </trkpt>
      <trkpt lat="46.18958" lon="6.81762">
        <ele>2153</ele>
        <time>2010-01-01T06:38:14Z</time>
      </trkpt>
      <trkpt lat="46.18964" lon="6.81762">
        <ele>2152</ele>
        <time>2010-01-01T06:38:16Z</time>
      </trkpt>
      <trkpt lat="46.18976" lon="6.81758">
        <ele>2150</ele>
        <time>2010-01-01T06:38:21Z</time>
      </trkpt>
      <trkpt lat="46.18982" lon="6.81758">
        <ele>2149</ele>
        <time>2010-01-01T06:38:24Z</time>
      </trkpt>
      <trkpt lat="46.18995" lon="6.81763">
        <ele>2147</ele>
        <time>2010-01-01T06:38:29Z</time>
      </trkpt>
      <trkpt lat="46.19001" lon="6.81767">
        <ele>2146</ele>
        <time>2010-01-01T06:38:32Z</time>
      </trkpt>
      <trkpt lat="46.19006" lon="6.81774">
        <ele>2145</ele>
        <time>2010-01-01T06:38:35Z</time>
      </trkpt>
      <trkpt lat="46.19014" lon="6.81802">
        <ele>2142</ele>
        <time>2010-01-01T06:38:43Z</time>
      </trkpt>
      <trkpt lat="46.19018" lon="6.81808">
        <ele>2141</ele>
        <time>2010-01-01T06:38:46Z</time>
      </trkpt>
      <trkpt lat="46.19025" lon="6.8181">
        <ele>2140</ele>
        <time>2010-01-01T06:38:48Z</time>
      </trkpt>
      <trkpt lat="46.19038" lon="6.81805">
        <ele>2138</ele>
        <time>2010-01-01T06:38:54Z</time>
      </trkpt>
      <trkpt lat="46.19051" lon="6.81804">
        <ele>2137</ele>
        <time>2010-01-01T06:38:59Z</time>
      </trkpt>
      <trkpt lat="46.19061" lon="6.81811">
        <ele>2135</ele>
        <time>2010-01-01T06:39:04Z</time>
      </trkpt>
      <trkpt lat="46.1907" lon="6.81822">
        <ele>2133</ele>
        <time>2010-01-01T06:39:08Z</time>
      </trkpt>
      <trkpt lat="46.19073" lon="6.8183">
        <ele>2133</ele>
        <time>2010-01-01T06:39:11Z</time>
      </trkpt>
      <trkpt lat="46.19077" lon="6.81853">
        <ele>2131</ele>
        <time>2010-01-01T06:39:17Z</time>
      </trkpt>
      <trkpt lat="46.19101" lon="6.81896">
        <ele>2125</ele>
        <time>2010-01-01T06:39:33Z</time>
      </trkpt>
      <trkpt lat="46.19106" lon="6.81902">
        <ele>2123</ele>
        <time>2010-01-01T06:39:35Z</time>
      </trkpt>
      <trkpt lat="46.19124" lon="6.81919">
        <ele>2118</ele>
        <time>2010-01-01T06:39:44Z</time>
      </trkpt>
      <trkpt lat="46.19132" lon="6.8193">
        <ele>2117</ele>
        <time>2010-01-01T06:39:48Z</time>
      </trkpt>
      <trkpt lat="46.19149" lon="6.81936">
        <ele>2116</ele>
        <time>2010-01-01T06:39:55Z</time>
      </trkpt>
      <trkpt lat="46.19157" lon="6.81943">
        <ele>2114</ele>
        <time>2010-01-01T06:39:59Z</time>
      </trkpt>
      <trkpt lat="46.19163" lon="6.81959">
        <ele>2112</ele>
        <time>2010-01-01T06:40:04Z</time>
      </trkpt>
      <trkpt lat="46.19164" lon="6.81975">
        <ele>2110</ele>
        <time>2010-01-01T06:40:08Z</time>
      </trkpt>
      <trkpt lat="46.19163" lon="6.81992">
        <ele>2108</ele>
        <time>2010-01-01T06:40:13Z</time>
      </trkpt>
      <trkpt lat="46.19166" lon="6.81992">
        <ele>2107</ele>
        <time>2010-01-01T06:40:14Z</time>
      </trkpt>
      <trkpt lat="46.19175" lon="6.81984">
        <ele>2105</ele>
        <time>2010-01-01T06:40:19Z</time>
      </trkpt>
      <trkpt lat="46.19188" lon="6.81965">
        <ele>2103</ele>
        <time>2010-01-01T06:40:26Z</time>
      </trkpt>
      <trkpt lat="46.19195" lon="6.81952">
        <ele>2101</ele>
        <time>2010-01-01T06:40:31Z</time>
      </trkpt>
      <trkpt lat="46.19195" lon="6.81958">
        <ele>2100</ele>
        <time>2010-01-01T06:40:32Z</time>
      </trkpt>
      <trkpt lat="46.19186" lon="6.81994">
        <ele>2099</ele>
        <time>2010-01-01T06:40:43Z</time>
      </trkpt>
      <trkpt lat="46.1918" lon="6.8201">
        <ele>2098</ele>
        <time>2010-01-01T06:40:48Z</time>
      </trkpt>
      <trkpt lat="46.19173" lon="6.82022">
        <ele>2097</ele>
        <time>2010-01-01T06:40:52Z</time>
      </trkpt>
      <trkpt lat="46.19171" lon="6.82029">
        <ele>2096</ele>
        <time>2010-01-01T06:40:54Z</time>
      </trkpt>
      <trkpt lat="46.19177" lon="6.82059">
        <ele>2094</ele>
        <time>2010-01-01T06:41:03Z</time>
      </trkpt>
      <trkpt lat="46.19182" lon="6.82096">
        <ele>2091</ele>
        <time>2010-01-01T06:41:13Z</time>
      </trkpt>
      <trkpt lat="46.19183" lon="6.82104">
        <ele>2090</ele>
        <time>2010-01-01T06:41:16Z</time>
      </trkpt>
      <trkpt lat="46.19187" lon="6.82112">
        <ele>2090</ele>
        <time>2010-01-01T06:41:18Z</time>
      </trkpt>
      <trkpt lat="46.19196" lon="6.82116">
        <ele>2089</ele>
        <time>2010-01-01T06:41:22Z</time>
      </trkpt>
      <trkpt lat="46.19208" lon="6.82118">
        <ele>2089</ele>
        <time>2010-01-01T06:41:27Z</time>
      </trkpt>
      <trkpt lat="46.1922" lon="6.82126">
        <ele>2088</ele>
        <time>2010-01-01T06:41:32Z</time>
      </trkpt>
      <trkpt lat="46.19225" lon="6.82127">
        <ele>2088</ele>
        <time>2010-01-01T06:41:34Z</time>
      </trkpt>
      <trkpt lat="46.19228" lon="6.82124">
        <ele>2088</ele>
        <time>2010-01-01T06:41:36Z</time>
      </trkpt>
      <trkpt lat="46.19229" lon="6.82113">
        <ele>2088</ele>
        <time>2010-01-01T06:41:39Z</time>
      </trkpt>
      <trkpt lat="46.19225" lon="6.82094">
        <ele>2086</ele>
        <time>2010-01-01T06:41:44Z</time>
      </trkpt>
      <trkpt lat="46.19223" lon="6.82067">
        <ele>2084</ele>
        <time>2010-01-01T06:41:52Z</time>
      </trkpt>
      <trkpt lat="46.19224" lon="6.82061">
        <ele>2083</ele>
        <time>2010-01-01T06:41:53Z</time>
      </trkpt>
      <trkpt lat="46.19226" lon="6.82057">
        <ele>2082</ele>
        <time>2010-01-01T06:41:55Z</time>
      </trkpt>
      <trkpt lat="46.1923" lon="6.82056">
        <ele>2082</ele>
        <time>2010-01-01T06:41:56Z</time>
      </trkpt>
      <trkpt lat="46.19236" lon="6.82064">
        <ele>2081</ele>
        <time>2010-01-01T06:42:00Z</time>
      </trkpt>
      <trkpt lat="46.19245" lon="6.82081">
        <ele>2078</ele>
        <time>2010-01-01T06:42:06Z</time>
      </trkpt>
      <trkpt lat="46.19255" lon="6.82091">
        <ele>2077</ele>
        <time>2010-01-01T06:42:10Z</time>
      </trkpt>
      <trkpt lat="46.19266" lon="6.82098">
        <ele>2075</ele>
        <time>2010-01-01T06:42:15Z</time>
      </trkpt>
      <trkpt lat="46.19278" lon="6.82101">
        <ele>2072</ele>
        <time>2010-01-01T06:42:20Z</time>
      </trkpt>
      <trkpt lat="46.19285" lon="6.82101">
        <ele>2071</ele>
        <time>2010-01-01T06:42:23Z</time>
      </trkpt>
      <trkpt lat="46.1931" lon="6.82093">
        <ele>2067</ele>
        <time>2010-01-01T06:42:33Z</time>
      </trkpt>
      <trkpt lat="46.19338" lon="6.82094">
        <ele>2061</ele>
        <time>2010-01-01T06:42:44Z</time>
      </trkpt>
      <trkpt lat="46.19338" lon="6.82094">
        <ele>2061</ele>
        <time>2010-01-01T06:42:44Z</time>
      </trkpt>
      <trkpt lat="46.19349" lon="6.82093">
        <ele>2059</ele>
        <time>2010-01-01T06:42:49Z</time>
      </trkpt>
      <trkpt lat="46.19378" lon="6.82079">
        <ele>2052</ele>
        <time>2010-01-01T06:43:01Z</time>
      </trkpt>
      <trkpt lat="46.19403" lon="6.82068">
        <ele>2048</ele>
        <time>2010-01-01T06:43:11Z</time>
      </trkpt>
      <trkpt lat="46.19437" lon="6.82058">
        <ele>2043</ele>
        <time>2010-01-01T06:43:25Z</time>
      </trkpt>
      <trkpt lat="46.19464" lon="6.82048">
        <ele>2037</ele>
        <time>2010-01-01T06:43:36Z</time>
      </trkpt>
      <trkpt lat="46.1948" lon="6.82044">
        <ele>2034</ele>
        <time>2010-01-01T06:43:43Z</time>
      </trkpt>
      <trkpt lat="46.19502" lon="6.82035">
        <ele>2030</ele>
        <time>2010-01-01T06:43:52Z</time>
      </trkpt>
      <trkpt lat="46.19539" lon="6.82009">
        <ele>2021</ele>
        <time>2010-01-01T06:44:09Z</time>
      </trkpt>
      <trkpt lat="46.19559" lon="6.8199">
        <ele>2018</ele>
        <time>2010-01-01T06:44:18Z</time>
      </trkpt>
      <trkpt lat="46.1961" lon="6.81959">
        <ele>2010</ele>
        <time>2010-01-01T06:44:40Z</time>
      </trkpt>
      <trkpt lat="46.19624" lon="6.81944">
        <ele>2009</ele>
        <time>2010-01-01T06:44:47Z</time>
      </trkpt>
      <trkpt lat="46.19635" lon="6.81926">
        <ele>2007</ele>
        <time>2010-01-01T06:44:54Z</time>
      </trkpt>
      <trkpt lat="46.1964" lon="6.81916">
        <ele>2006</ele>
        <time>2010-01-01T06:44:57Z</time>
      </trkpt>
      <trkpt lat="46.19655" lon="6.81871">
        <ele>2003</ele>
        <time>2010-01-01T06:45:11Z</time>
      </trkpt>
      <trkpt lat="46.19685" lon="6.81801">
        <ele>1998</ele>
        <time>2010-01-01T06:45:34Z</time>
      </trkpt>
      <trkpt lat="46.19703" lon="6.8173">
        <ele>1992</ele>
        <time>2010-01-01T06:45:55Z</time>
      </trkpt>
      <trkpt lat="46.19709" lon="6.81697">
        <ele>1990</ele>
        <time>2010-01-01T06:46:04Z</time>
      </trkpt>
      <trkpt lat="46.19708" lon="6.8167">
        <ele>1988</ele>
        <time>2010-01-01T06:46:12Z</time>
      </trkpt>
      <trkpt lat="46.1971" lon="6.81655">
        <ele>1985</ele>
        <time>2010-01-01T06:46:16Z</time>
      </trkpt>
      <trkpt lat="46.1971" lon="6.81618">
        <ele>1984</ele>
        <time>2010-01-01T06:46:26Z</time>
      </trkpt>
      <trkpt lat="46.19713" lon="6.81576">
        <ele>1980</ele>
        <time>2010-01-01T06:46:38Z</time>
      </trkpt>
      <trkpt lat="46.19711" lon="6.8156">
        <ele>1979</ele>
        <time>2010-01-01T06:46:42Z</time>
      </trkpt>
      <trkpt lat="46.19698" lon="6.81528">
        <ele>1976</ele>
        <time>2010-01-01T06:46:53Z</time>
      </trkpt>
      <trkpt lat="46.19692" lon="6.81485">
        <ele>1973</ele>
        <time>2010-01-01T06:47:05Z</time>
      </trkpt>
      <trkpt lat="46.19681" lon="6.81453">
        <ele>1972</ele>
        <time>2010-01-01T06:47:15Z</time>
      </trkpt>
      <trkpt lat="46.1968" lon="6.81445">
        <ele>1972</ele>
        <time>2010-01-01T06:47:17Z</time>
      </trkpt>
      <trkpt lat="46.19684" lon="6.81424">
        <ele>1972</ele>
        <time>2010-01-01T06:47:23Z</time>
      </trkpt>
      <trkpt lat="46.19683" lon="6.81412">
        <ele>1973</ele>
        <time>2010-01-01T06:47:27Z</time>
      </trkpt>
      <trkpt lat="46.19673" lon="6.81381">
        <ele>1974</ele>
        <time>2010-01-01T06:47:36Z</time>
      </trkpt>
      <trkpt lat="46.19656" lon="6.81337">
        <ele>1975</ele>
        <time>2010-01-01T06:47:50Z</time>
      </trkpt>
      <trkpt lat="46.19652" lon="6.8132">
        <ele>1976</ele>
        <time>2010-01-01T06:47:55Z</time>
      </trkpt>
      <trkpt lat="46.19652" lon="6.81311">
        <ele>1976</ele>
        <time>2010-01-01T06:47:57Z</time>
      </trkpt>
      <trkpt lat="46.19656" lon="6.81306">
        <ele>1976</ele>
        <time>2010-01-01T06:47:59Z</time>
      </trkpt>
      <trkpt lat="46.19661" lon="6.81302">
        <ele>1976</ele>
        <time>2010-01-01T06:48:02Z</time>
      </trkpt>
      <trkpt lat="46.19669" lon="6.81291">
        <ele>1976</ele>
        <time>2010-01-01T06:48:06Z</time>
      </trkpt>
      <trkpt lat="46.19673" lon="6.81289">
        <ele>1976</ele>
        <time>2010-01-01T06:48:08Z</time>
      </trkpt>
      <trkpt lat="46.19682" lon="6.8129">
        <ele>1975</ele>
        <time>2010-01-01T06:48:11Z</time>
      </trkpt>
      <trkpt lat="46.197" lon="6.81287">
        <ele>1976</ele>
        <time>2010-01-01T06:48:19Z</time>
      </trkpt>
      <trkpt lat="46.19724" lon="6.81289">
        <ele>1976</ele>
        <time>2010-01-01T06:48:28Z</time>
      </trkpt>
      <trkpt lat="46.19747" lon="6.81288">
        <ele>1975</ele>
        <time>2010-01-01T06:48:37Z</time>
      </trkpt>
      <trkpt lat="46.19752" lon="6.81287">
        <ele>1975</ele>
        <time>2010-01-01T06:48:39Z</time>
      </trkpt>
      <trkpt lat="46.19756" lon="6.81283">
        <ele>1975</ele>
        <time>2010-01-01T06:48:41Z</time>
      </trkpt>
      <trkpt lat="46.19756" lon="6.81283">
        <ele>1975</ele>
        <time>2010-01-01T06:48:41Z</time>
      </trkpt>
      <trkpt lat="46.19804" lon="6.81204">
        <ele>1973</ele>
        <time>2010-01-01T06:49:11Z</time>
      </trkpt>
      <trkpt lat="46.19817" lon="6.81179">
        <ele>1972</ele>
        <time>2010-01-01T06:49:19Z</time>
      </trkpt>
      <trkpt lat="46.1982" lon="6.81165">
        <ele>1972</ele>
        <time>2010-01-01T06:49:23Z</time>
      </trkpt>
      <trkpt lat="46.19818" lon="6.81154">
        <ele>1972</ele>
        <time>2010-01-01T06:49:27Z</time>
      </trkpt>
      <trkpt lat="46.19807" lon="6.81136">
        <ele>1972</ele>
        <time>2010-01-01T06:49:33Z</time>
      </trkpt>
      <trkpt lat="46.19803" lon="6.81129">
        <ele>1972</ele>
        <time>2010-01-01T06:49:36Z</time>
      </trkpt>
      <trkpt lat="46.1979" lon="6.81117">
        <ele>1971</ele>
        <time>2010-01-01T06:49:42Z</time>
      </trkpt>
      <trkpt lat="46.19787" lon="6.81107">
        <ele>1971</ele>
        <time>2010-01-01T06:49:45Z</time>
      </trkpt>
      <trkpt lat="46.19786" lon="6.81094">
        <ele>1971</ele>
        <time>2010-01-01T06:49:48Z</time>
      </trkpt>
      <trkpt lat="46.19772" lon="6.81078">
        <ele>1971</ele>
        <time>2010-01-01T06:49:55Z</time>
      </trkpt>
      <trkpt lat="46.19769" lon="6.81072">
        <ele>1971</ele>
        <time>2010-01-01T06:49:57Z</time>
      </trkpt>
      <trkpt lat="46.19769" lon="6.81061">
        <ele>1971</ele>
        <time>2010-01-01T06:50:00Z</time>
      </trkpt>
      <trkpt lat="46.19777" lon="6.81029">
        <ele>1972</ele>
        <time>2010-01-01T06:50:10Z</time>
      </trkpt>
      <trkpt lat="46.19779" lon="6.81024">
        <ele>1971</ele>
        <time>2010-01-01T06:50:12Z</time>
      </trkpt>
      <trkpt lat="46.19801" lon="6.81002">
        <ele>1971</ele>
        <time>2010-01-01T06:50:22Z</time>
      </trkpt>
      <trkpt lat="46.19803" lon="6.80994">
        <ele>1970</ele>
        <time>2010-01-01T06:50:24Z</time>
      </trkpt>
      <trkpt lat="46.19801" lon="6.80978">
        <ele>1969</ele>
        <time>2010-01-01T06:50:29Z</time>
      </trkpt>
      <trkpt lat="46.19797" lon="6.80965">
        <ele>1969</ele>
        <time>2010-01-01T06:50:33Z</time>
      </trkpt>
      <trkpt lat="46.19794" lon="6.80944">
        <ele>1970</ele>
        <time>2010-01-01T06:50:39Z</time>
      </trkpt>
      <trkpt lat="46.19789" lon="6.8094">
        <ele>1970</ele>
        <time>2010-01-01T06:50:41Z</time>
      </trkpt>
      <trkpt lat="46.19771" lon="6.80905">
        <ele>1973</ele>
        <time>2010-01-01T06:50:53Z</time>
      </trkpt>
      <trkpt lat="46.19772" lon="6.809">
        <ele>1973</ele>
        <time>2010-01-01T06:50:55Z</time>
      </trkpt>
      <trkpt lat="46.19777" lon="6.80895">
        <ele>1973</ele>
        <time>2010-01-01T06:50:57Z</time>
      </trkpt>
      <trkpt lat="46.1978" lon="6.80879">
        <ele>1973</ele>
        <time>2010-01-01T06:51:01Z</time>
      </trkpt>
      <trkpt lat="46.19784" lon="6.80869">
        <ele>1973</ele>
        <time>2010-01-01T06:51:05Z</time>
      </trkpt>
      <trkpt lat="46.19782" lon="6.80855">
        <ele>1974</ele>
        <time>2010-01-01T06:51:09Z</time>
      </trkpt>
      <trkpt lat="46.19779" lon="6.80847">
        <ele>1974</ele>
        <time>2010-01-01T06:51:11Z</time>
      </trkpt>
      <trkpt lat="46.19776" lon="6.80842">
        <ele>1975</ele>
        <time>2010-01-01T06:51:13Z</time>
      </trkpt>
      <trkpt lat="46.19769" lon="6.80837">
        <ele>1975</ele>
        <time>2010-01-01T06:51:16Z</time>
      </trkpt>
      <trkpt lat="46.1976" lon="6.80836">
        <ele>1976</ele>
        <time>2010-01-01T06:51:20Z</time>
      </trkpt>
      <trkpt lat="46.19757" lon="6.80832">
        <ele>1976</ele>
        <time>2010-01-01T06:51:21Z</time>
      </trkpt>
      <trkpt lat="46.19756" lon="6.80789">
        <ele>1979</ele>
        <time>2010-01-01T06:51:33Z</time>
      </trkpt>
      <trkpt lat="46.19746" lon="6.80773">
        <ele>1980</ele>
        <time>2010-01-01T06:51:39Z</time>
      </trkpt>
      <trkpt lat="46.19742" lon="6.80761">
        <ele>1982</ele>
        <time>2010-01-01T06:51:43Z</time>
      </trkpt>
      <trkpt lat="46.19738" lon="6.80756">
        <ele>1982</ele>
        <time>2010-01-01T06:51:45Z</time>
      </trkpt>
      <trkpt lat="46.19727" lon="6.8072">
        <ele>1983</ele>
        <time>2010-01-01T06:51:56Z</time>
      </trkpt>
      <trkpt lat="46.1972" lon="6.80711">
        <ele>1984</ele>
        <time>2010-01-01T06:52:00Z</time>
      </trkpt>
      <trkpt lat="46.19714" lon="6.8071">
        <ele>1984</ele>
        <time>2010-01-01T06:52:02Z</time>
      </trkpt>
      <trkpt lat="46.19707" lon="6.80705">
        <ele>1985</ele>
        <time>2010-01-01T06:52:05Z</time>
      </trkpt>
      <trkpt lat="46.19699" lon="6.80694">
        <ele>1985</ele>
        <time>2010-01-01T06:52:10Z</time>
      </trkpt>
      <trkpt lat="46.19698" lon="6.80691">
        <ele>1986</ele>
        <time>2010-01-01T06:52:11Z</time>
      </trkpt>
      <trkpt lat="46.19697" lon="6.80638">
        <ele>1992</ele>
        <time>2010-01-01T06:52:25Z</time>
      </trkpt>
      <trkpt lat="46.19699" lon="6.80629">
        <ele>1993</ele>
        <time>2010-01-01T06:52:28Z</time>
      </trkpt>
      <trkpt lat="46.1969" lon="6.80587">
        <ele>1998</ele>
        <time>2010-01-01T06:52:40Z</time>
      </trkpt>
      <trkpt lat="46.19687" lon="6.8056">
        <ele>1999</ele>
        <time>2010-01-01T06:52:48Z</time>
      </trkpt>
      <trkpt lat="46.19688" lon="6.80546">
        <ele>1999</ele>
        <time>2010-01-01T06:52:52Z</time>
      </trkpt>
      <trkpt lat="46.19696" lon="6.80522">
        <ele>1999</ele>
        <time>2010-01-01T06:52:59Z</time>
      </trkpt>
      <trkpt lat="46.19696" lon="6.80499">
        <ele>2000</ele>
        <time>2010-01-01T06:53:05Z</time>
      </trkpt>
      <trkpt lat="46.19702" lon="6.80478">
        <ele>2000</ele>
        <time>2010-01-01T06:53:12Z</time>
      </trkpt>
      <trkpt lat="46.19718" lon="6.80458">
        <ele>1999</ele>
        <time>2010-01-01T06:53:20Z</time>
      </trkpt>
      <trkpt lat="46.19753" lon="6.80406">
        <ele>1996</ele>
        <time>2010-01-01T06:53:40Z</time>
      </trkpt>
      <trkpt lat="46.19762" lon="6.8038">
        <ele>1996</ele>
        <time>2010-01-01T06:53:48Z</time>
      </trkpt>
      <trkpt lat="46.19782" lon="6.80345">
        <ele>1994</ele>
        <time>2010-01-01T06:54:01Z</time>
      </trkpt>
      <trkpt lat="46.19797" lon="6.80311">
        <ele>1993</ele>
        <time>2010-01-01T06:54:12Z</time>
      </trkpt>
      <trkpt lat="46.19804" lon="6.8029">
        <ele>1992</ele>
        <time>2010-01-01T06:54:18Z</time>
      </trkpt>
      <trkpt lat="46.19807" lon="6.80268">
        <ele>1991</ele>
        <time>2010-01-01T06:54:25Z</time>
      </trkpt>
      <trkpt lat="46.1981" lon="6.80258">
        <ele>1991</ele>
        <time>2010-01-01T06:54:28Z</time>
      </trkpt>
      <trkpt lat="46.19819" lon="6.80238">
        <ele>1990</ele>
        <time>2010-01-01T06:54:34Z</time>
      </trkpt>
      <trkpt lat="46.19819" lon="6.80238">
        <ele>1990</ele>
        <time>2010-01-01T06:54:34Z</time>
      </trkpt>
      <trkpt lat="46.19826" lon="6.80204">
        <ele>1989</ele>
        <time>2010-01-01T06:54:44Z</time>
      </trkpt>
      <trkpt lat="46.19833" lon="6.80139">
        <ele>1986</ele>
        <time>2010-01-01T06:55:02Z</time>
      </trkpt>
      <trkpt lat="46.19847" lon="6.80087">
        <ele>1983</ele>
        <time>2010-01-01T06:55:18Z</time>
      </trkpt>
      <trkpt lat="46.1986" lon="6.80057">
        <ele>1980</ele>
        <time>2010-01-01T06:55:27Z</time>
      </trkpt>
      <trkpt lat="46.19873" lon="6.80039">
        <ele>1979</ele>
        <time>2010-01-01T06:55:35Z</time>
      </trkpt>
      <trkpt lat="46.19887" lon="6.8001">
        <ele>1977</ele>
        <time>2010-01-01T06:55:44Z</time>
      </trkpt>
      <trkpt lat="46.19898" lon="6.79991">
        <ele>1976</ele>
        <time>2010-01-01T06:55:51Z</time>
      </trkpt>
      <trkpt lat="46.19918" lon="6.79941">
        <ele>1973</ele>
        <time>2010-01-01T06:56:07Z</time>
      </trkpt>
      <trkpt lat="46.19932" lon="6.79923">
        <ele>1972</ele>
        <time>2010-01-01T06:56:15Z</time>
      </trkpt>
      <trkpt lat="46.19939" lon="6.79915">
        <ele>1971</ele>
        <time>2010-01-01T06:56:18Z</time>
      </trkpt>
      <trkpt lat="46.19946" lon="6.79909">
        <ele>1970</ele>
        <time>2010-01-01T06:56:22Z</time>
      </trkpt>
      <trkpt lat="46.19978" lon="6.79892">
        <ele>1964</ele>
        <time>2010-01-01T06:56:35Z</time>
      </trkpt>
      <trkpt lat="46.19986" lon="6.79886">
        <ele>1963</ele>
        <time>2010-01-01T06:56:39Z</time>
      </trkpt>
      <trkpt lat="46.20003" lon="6.79871">
        <ele>1960</ele>
        <time>2010-01-01T06:56:47Z</time>
      </trkpt>
      <trkpt lat="46.20027" lon="6.79845">
        <ele>1958</ele>
        <time>2010-01-01T06:56:59Z</time>
      </trkpt>
      <trkpt lat="46.20033" lon="6.79836">
        <ele>1958</ele>
        <time>2010-01-01T06:57:02Z</time>
      </trkpt>
      <trkpt lat="46.20042" lon="6.79804">
        <ele>1954</ele>
        <time>2010-01-01T06:57:12Z</time>
      </trkpt>
      <trkpt lat="46.2006" lon="6.79761">
        <ele>1948</ele>
        <time>2010-01-01T06:57:26Z</time>
      </trkpt>
      <trkpt lat="46.20066" lon="6.79758">
        <ele>1947</ele>
        <time>2010-01-01T06:57:28Z</time>
      </trkpt>
      <trkpt lat="46.20086" lon="6.79754">
        <ele>1945</ele>
        <time>2010-01-01T06:57:36Z</time>
      </trkpt>
      <trkpt lat="46.20092" lon="6.7975">
        <ele>1945</ele>
        <time>2010-01-01T06:57:39Z</time>
      </trkpt>
      <trkpt lat="46.20097" lon="6.79745">
        <ele>1944</ele>
        <time>2010-01-01T06:57:42Z</time>
      </trkpt>
      <trkpt lat="46.20102" lon="6.79732">
        <ele>1941</ele>
        <time>2010-01-01T06:57:46Z</time>
      </trkpt>
      <trkpt lat="46.20097" lon="6.7972">
        <ele>1940</ele>
        <time>2010-01-01T06:57:49Z</time>
      </trkpt>
      <trkpt lat="46.20102" lon="6.79715">
        <ele>1939</ele>
        <time>2010-01-01T06:57:52Z</time>
      </trkpt>
      <trkpt lat="46.20108" lon="6.79715">
        <ele>1938</ele>
        <time>2010-01-01T06:57:54Z</time>
      </trkpt>
      <trkpt lat="46.20109" lon="6.79711">
        <ele>1938</ele>
        <time>2010-01-01T06:57:55Z</time>
      </trkpt>
      <trkpt lat="46.20108" lon="6.79706">
        <ele>1938</ele>
        <time>2010-01-01T06:57:57Z</time>
      </trkpt>
      <trkpt lat="46.20101" lon="6.79703">
        <ele>1938</ele>
        <time>2010-01-01T06:58:00Z</time>
      </trkpt>
      <trkpt lat="46.20093" lon="6.79693">
        <ele>1937</ele>
        <time>2010-01-01T06:58:04Z</time>
      </trkpt>
      <trkpt lat="46.20083" lon="6.79686">
        <ele>1935</ele>
        <time>2010-01-01T06:58:08Z</time>
      </trkpt>
      <trkpt lat="46.20082" lon="6.79681">
        <ele>1935</ele>
        <time>2010-01-01T06:58:09Z</time>
      </trkpt>
      <trkpt lat="46.20083" lon="6.79678">
        <ele>1935</ele>
        <time>2010-01-01T06:58:10Z</time>
      </trkpt>
      <trkpt lat="46.20086" lon="6.79676">
        <ele>1934</ele>
        <time>2010-01-01T06:58:12Z</time>
      </trkpt>
      <trkpt lat="46.20102" lon="6.79681">
        <ele>1932</ele>
        <time>2010-01-01T06:58:18Z</time>
      </trkpt>
      <trkpt lat="46.20105" lon="6.79676">
        <ele>1932</ele>
        <time>2010-01-01T06:58:20Z</time>
      </trkpt>
      <trkpt lat="46.20108" lon="6.79669">
        <ele>1931</ele>
        <time>2010-01-01T06:58:22Z</time>
      </trkpt>
      <trkpt lat="46.20109" lon="6.79642">
        <ele>1928</ele>
        <time>2010-01-01T06:58:30Z</time>
      </trkpt>
      <trkpt lat="46.2011" lon="6.79638">
        <ele>1928</ele>
        <time>2010-01-01T06:58:31Z</time>
      </trkpt>
      <trkpt lat="46.20118" lon="6.79632">
        <ele>1923</ele>
        <time>2010-01-01T06:58:35Z</time>
      </trkpt>
      <trkpt lat="46.20132" lon="6.79614">
        <ele>1917</ele>
        <time>2010-01-01T06:58:42Z</time>
      </trkpt>
      <trkpt lat="46.20138" lon="6.79601">
        <ele>1916</ele>
        <time>2010-01-01T06:58:47Z</time>
      </trkpt>
      <trkpt lat="46.20142" lon="6.79575">
        <ele>1913</ele>
        <time>2010-01-01T06:58:54Z</time>
      </trkpt>
      <trkpt lat="46.20155" lon="6.79553">
        <ele>1911</ele>
        <time>2010-01-01T06:59:02Z</time>
      </trkpt>
      <trkpt lat="46.2016" lon="6.79536">
        <ele>1909</ele>
        <time>2010-01-01T06:59:07Z</time>
      </trkpt>
      <trkpt lat="46.20174" lon="6.79512">
        <ele>1906</ele>
        <time>2010-01-01T06:59:16Z</time>
      </trkpt>
      <trkpt lat="46.20189" lon="6.79493">
        <ele>1903</ele>
        <time>2010-01-01T06:59:24Z</time>
      </trkpt>
      <trkpt lat="46.20202" lon="6.79471">
        <ele>1900</ele>
        <time>2010-01-01T06:59:32Z</time>
      </trkpt>
      <trkpt lat="46.20227" lon="6.79447">
        <ele>1896</ele>
        <time>2010-01-01T06:59:44Z</time>
      </trkpt>
      <trkpt lat="46.20245" lon="6.79424">
        <ele>1893</ele>
        <time>2010-01-01T06:59:53Z</time>
      </trkpt>
      <trkpt lat="46.20254" lon="6.79408">
        <ele>1892</ele>
        <time>2010-01-01T06:59:59Z</time>
      </trkpt>
      <trkpt lat="46.20268" lon="6.79389">
        <ele>1891</ele>
        <time>2010-01-01T07:00:07Z</time>
      </trkpt>
      <trkpt lat="46.20279" lon="6.79378">
        <ele>1890</ele>
        <time>2010-01-01T07:00:12Z</time>
      </trkpt>
      <trkpt lat="46.20284" lon="6.7937">
        <ele>1889</ele>
        <time>2010-01-01T07:00:15Z</time>
      </trkpt>
      <trkpt lat="46.2029" lon="6.79353">
        <ele>1887</ele>
        <time>2010-01-01T07:00:20Z</time>
      </trkpt>
      <trkpt lat="46.20307" lon="6.79328">
        <ele>1884</ele>
        <time>2010-01-01T07:00:30Z</time>
      </trkpt>
      <trkpt lat="46.20307" lon="6.79328">
        <ele>1884</ele>
        <time>2010-01-01T07:00:30Z</time>
      </trkpt>
      <trkpt lat="46.20311" lon="6.79321">
        <ele>1883</ele>
        <time>2010-01-01T07:00:33Z</time>
      </trkpt>
      <trkpt lat="46.20327" lon="6.79302">
        <ele>1881</ele>
        <time>2010-01-01T07:00:41Z</time>
      </trkpt>
      <trkpt lat="46.20339" lon="6.7927">
        <ele>1878</ele>
        <time>2010-01-01T07:00:51Z</time>
      </trkpt>
      <trkpt lat="46.20342" lon="6.79263">
        <ele>1878</ele>
        <time>2010-01-01T07:00:54Z</time>
      </trkpt>
      <trkpt lat="46.20347" lon="6.79257">
        <ele>1878</ele>
        <time>2010-01-01T07:00:56Z</time>
      </trkpt>
      <trkpt lat="46.20354" lon="6.79254">
        <ele>1877</ele>
        <time>2010-01-01T07:00:59Z</time>
      </trkpt>
      <trkpt lat="46.20373" lon="6.79252">
        <ele>1875</ele>
        <time>2010-01-01T07:01:07Z</time>
      </trkpt>
      <trkpt lat="46.20386" lon="6.79248">
        <ele>1874</ele>
        <time>2010-01-01T07:01:12Z</time>
      </trkpt>
      <trkpt lat="46.20408" lon="6.79246">
        <ele>1873</ele>
        <time>2010-01-01T07:01:20Z</time>
      </trkpt>
      <trkpt lat="46.20423" lon="6.79237">
        <ele>1870</ele>
        <time>2010-01-01T07:01:27Z</time>
      </trkpt>
      <trkpt lat="46.20434" lon="6.79228">
        <ele>1869</ele>
        <time>2010-01-01T07:01:32Z</time>
      </trkpt>
      <trkpt lat="46.20465" lon="6.79215">
        <ele>1865</ele>
        <time>2010-01-01T07:01:45Z</time>
      </trkpt>
      <trkpt lat="46.20491" lon="6.79195">
        <ele>1862</ele>
        <time>2010-01-01T07:01:57Z</time>
      </trkpt>
      <trkpt lat="46.20516" lon="6.79186">
        <ele>1859</ele>
        <time>2010-01-01T07:02:07Z</time>
      </trkpt>
      <trkpt lat="46.20523" lon="6.79181">
        <ele>1858</ele>
        <time>2010-01-01T07:02:10Z</time>
      </trkpt>
      <trkpt lat="46.2054" lon="6.79155">
        <ele>1856</ele>
        <time>2010-01-01T07:02:20Z</time>
      </trkpt>
      <trkpt lat="46.20553" lon="6.7914">
        <ele>1854</ele>
        <time>2010-01-01T07:02:27Z</time>
      </trkpt>
      <trkpt lat="46.2056" lon="6.79133">
        <ele>1853</ele>
        <time>2010-01-01T07:02:30Z</time>
      </trkpt>
      <trkpt lat="46.20576" lon="6.79125">
        <ele>1851</ele>
        <time>2010-01-01T07:02:37Z</time>
      </trkpt>
      <trkpt lat="46.20582" lon="6.79114">
        <ele>1850</ele>
        <time>2010-01-01T07:02:41Z</time>
      </trkpt>
      <trkpt lat="46.20599" lon="6.79093">
        <ele>1849</ele>
        <time>2010-01-01T07:02:50Z</time>
      </trkpt>
      <trkpt lat="46.20626" lon="6.79042">
        <ele>1845</ele>
        <time>2010-01-01T07:03:08Z</time>
      </trkpt>
      <trkpt lat="46.20632" lon="6.79035">
        <ele>1844</ele>
        <time>2010-01-01T07:03:11Z</time>
      </trkpt>
      <trkpt lat="46.20645" lon="6.79024">
        <ele>1842</ele>
        <time>2010-01-01T07:03:17Z</time>
      </trkpt>
      <trkpt lat="46.20663" lon="6.79012">
        <ele>1840</ele>
        <time>2010-01-01T07:03:25Z</time>
      </trkpt>
      <trkpt lat="46.2067" lon="6.78988">
        <ele>1837</ele>
        <time>2010-01-01T07:03:32Z</time>
      </trkpt>
      <trkpt lat="46.20674" lon="6.78981">
        <ele>1836</ele>
        <time>2010-01-01T07:03:34Z</time>
      </trkpt>
      <trkpt lat="46.20686" lon="6.78969">
        <ele>1833</ele>
        <time>2010-01-01T07:03:40Z</time>
      </trkpt>
      <trkpt lat="46.20697" lon="6.78962">
        <ele>1831</ele>
        <time>2010-01-01T07:03:45Z</time>
      </trkpt>
      <trkpt lat="46.207" lon="6.78958">
        <ele>1830</ele>
        <time>2010-01-01T07:03:47Z</time>
      </trkpt>
      <trkpt lat="46.207" lon="6.78942">
        <ele>1827</ele>
        <time>2010-01-01T07:03:51Z</time>
      </trkpt>
      <trkpt lat="46.20702" lon="6.78934">
        <ele>1827</ele>
        <time>2010-01-01T07:03:54Z</time>
      </trkpt>
      <trkpt lat="46.20703" lon="6.78923">
        <ele>1826</ele>
        <time>2010-01-01T07:03:56Z</time>
      </trkpt>
      <trkpt lat="46.20712" lon="6.78894">
        <ele>1824</ele>
        <time>2010-01-01T07:04:05Z</time>
      </trkpt>
      <trkpt lat="46.20734" lon="6.78844">
        <ele>1823</ele>
        <time>2010-01-01T07:04:22Z</time>
      </trkpt>
      <trkpt lat="46.20741" lon="6.78837">
        <ele>1822</ele>
        <time>2010-01-01T07:04:25Z</time>
      </trkpt>
      <trkpt lat="46.20744" lon="6.78832">
        <ele>1821</ele>
        <time>2010-01-01T07:04:27Z</time>
      </trkpt>
      <trkpt lat="46.20742" lon="6.78825">
        <ele>1820</ele>
        <time>2010-01-01T07:04:29Z</time>
      </trkpt>
      <trkpt lat="46.20748" lon="6.78808">
        <ele>1819</ele>
        <time>2010-01-01T07:04:34Z</time>
      </trkpt>
      <trkpt lat="46.2075" lon="6.78794">
        <ele>1818</ele>
        <time>2010-01-01T07:04:38Z</time>
      </trkpt>
      <trkpt lat="46.20749" lon="6.78774">
        <ele>1814</ele>
        <time>2010-01-01T07:04:44Z</time>
      </trkpt>
      <trkpt lat="46.20748" lon="6.78775">
        <ele>1814</ele>
        <time>2010-01-01T07:04:44Z</time>
      </trkpt>
      <trkpt lat="46.20783" lon="6.78751">
        <ele>1812</ele>
        <time>2010-01-01T07:05:00Z</time>
      </trkpt>
      <trkpt lat="46.20812" lon="6.78737">
        <ele>1809</ele>
        <time>2010-01-01T07:05:12Z</time>
      </trkpt>
      <trkpt lat="46.20834" lon="6.78724">
        <ele>1806</ele>
        <time>2010-01-01T07:05:21Z</time>
      </trkpt>
      <trkpt lat="46.20854" lon="6.78716">
        <ele>1803</ele>
        <time>2010-01-01T07:05:30Z</time>
      </trkpt>
      <trkpt lat="46.2087" lon="6.78706">
        <ele>1801</ele>
        <time>2010-01-01T07:05:37Z</time>
      </trkpt>
      <trkpt lat="46.20879" lon="6.787">
        <ele>1800</ele>
        <time>2010-01-01T07:05:41Z</time>
      </trkpt>
      <trkpt lat="46.20902" lon="6.78678">
        <ele>1796</ele>
        <time>2010-01-01T07:05:52Z</time>
      </trkpt>
      <trkpt lat="46.20908" lon="6.78674">
        <ele>1795</ele>
        <time>2010-01-01T07:05:54Z</time>
      </trkpt>
      <trkpt lat="46.20921" lon="6.78668">
        <ele>1793</ele>
        <time>2010-01-01T07:06:00Z</time>
      </trkpt>
      <trkpt lat="46.20927" lon="6.78667">
        <ele>1792</ele>
        <time>2010-01-01T07:06:02Z</time>
      </trkpt>
      <trkpt lat="46.20938" lon="6.78672">
        <ele>1789</ele>
        <time>2010-01-01T07:06:07Z</time>
      </trkpt>
      <trkpt lat="46.20941" lon="6.7867">
        <ele>1788</ele>
        <time>2010-01-01T07:06:08Z</time>
      </trkpt>
      <trkpt lat="46.20943" lon="6.78668">
        <ele>1788</ele>
        <time>2010-01-01T07:06:09Z</time>
      </trkpt>
      <trkpt lat="46.20937" lon="6.78643">
        <ele>1785</ele>
        <time>2010-01-01T07:06:16Z</time>
      </trkpt>
      <trkpt lat="46.20937" lon="6.78636">
        <ele>1784</ele>
        <time>2010-01-01T07:06:18Z</time>
      </trkpt>
      <trkpt lat="46.20948" lon="6.78605">
        <ele>1780</ele>
        <time>2010-01-01T07:06:28Z</time>
      </trkpt>
      <trkpt lat="46.20948" lon="6.78605">
        <ele>1780</ele>
        <time>2010-01-01T07:06:28Z</time>
      </trkpt>
      <trkpt lat="46.20957" lon="6.78587">
        <ele>1778</ele>
        <time>2010-01-01T07:06:34Z</time>
      </trkpt>
      <trkpt lat="46.20963" lon="6.7858">
        <ele>1777</ele>
        <time>2010-01-01T07:06:37Z</time>
      </trkpt>
      <trkpt lat="46.20979" lon="6.78572">
        <ele>1774</ele>
        <time>2010-01-01T07:06:44Z</time>
      </trkpt>
      <trkpt lat="46.21006" lon="6.78565">
        <ele>1770</ele>
        <time>2010-01-01T07:06:55Z</time>
      </trkpt>
      <trkpt lat="46.21015" lon="6.78559">
        <ele>1768</ele>
        <time>2010-01-01T07:06:59Z</time>
      </trkpt>
      <trkpt lat="46.21035" lon="6.78531">
        <ele>1763</ele>
        <time>2010-01-01T07:07:10Z</time>
      </trkpt>
      <trkpt lat="46.21049" lon="6.78498">
        <ele>1759</ele>
        <time>2010-01-01T07:07:21Z</time>
      </trkpt>
      <trkpt lat="46.21065" lon="6.78455">
        <ele>1757</ele>
        <time>2010-01-01T07:07:34Z</time>
      </trkpt>
      <trkpt lat="46.2107" lon="6.78436">
        <ele>1755</ele>
        <time>2010-01-01T07:07:40Z</time>
      </trkpt>
      <trkpt lat="46.21075" lon="6.7839">
        <ele>1749</ele>
        <time>2010-01-01T07:07:53Z</time>
      </trkpt>
      <trkpt lat="46.21085" lon="6.7835">
        <ele>1745</ele>
        <time>2010-01-01T07:08:05Z</time>
      </trkpt>
      <trkpt lat="46.21087" lon="6.78296">
        <ele>1740</ele>
        <time>2010-01-01T07:08:19Z</time>
      </trkpt>
      <trkpt lat="46.21092" lon="6.78277">
        <ele>1738</ele>
        <time>2010-01-01T07:08:25Z</time>
      </trkpt>
      <trkpt lat="46.21101" lon="6.7825">
        <ele>1735</ele>
        <time>2010-01-01T07:08:34Z</time>
      </trkpt>
      <trkpt lat="46.21114" lon="6.78221">
        <ele>1730</ele>
        <time>2010-01-01T07:08:43Z</time>
      </trkpt>
      <trkpt lat="46.21115" lon="6.78214">
        <ele>1729</ele>
        <time>2010-01-01T07:08:45Z</time>
      </trkpt>
      <trkpt lat="46.21114" lon="6.78185">
        <ele>1724</ele>
        <time>2010-01-01T07:08:53Z</time>
      </trkpt>
      <trkpt lat="46.21116" lon="6.78163">
        <ele>1721</ele>
        <time>2010-01-01T07:08:59Z</time>
      </trkpt>
      <trkpt lat="46.21121" lon="6.78133">
        <ele>1716</ele>
        <time>2010-01-01T07:09:08Z</time>
      </trkpt>
      <trkpt lat="46.21131" lon="6.78093">
        <ele>1710</ele>
        <time>2010-01-01T07:09:19Z</time>
      </trkpt>
      <trkpt lat="46.21133" lon="6.78063">
        <ele>1704</ele>
        <time>2010-01-01T07:09:28Z</time>
      </trkpt>
      <trkpt lat="46.21137" lon="6.78045">
        <ele>1700</ele>
        <time>2010-01-01T07:09:33Z</time>
      </trkpt>
      <trkpt lat="46.21157" lon="6.77983">
        <ele>1687</ele>
        <time>2010-01-01T07:09:52Z</time>
      </trkpt>
      <trkpt lat="46.21168" lon="6.77927">
        <ele>1683</ele>
        <time>2010-01-01T07:10:08Z</time>
      </trkpt>
      <trkpt lat="46.21175" lon="6.77907">
        <ele>1682</ele>
        <time>2010-01-01T07:10:14Z</time>
      </trkpt>
      <trkpt lat="46.21187" lon="6.7788">
        <ele>1680</ele>
        <time>2010-01-01T07:10:23Z</time>
      </trkpt>
      <trkpt lat="46.21224" lon="6.77817">
        <ele>1675</ele>
        <time>2010-01-01T07:10:46Z</time>
      </trkpt>
      <trkpt lat="46.21256" lon="6.77769">
        <ele>1669</ele>
        <time>2010-01-01T07:11:05Z</time>
      </trkpt>
      <trkpt lat="46.21262" lon="6.77755">
        <ele>1667</ele>
        <time>2010-01-01T07:11:09Z</time>
      </trkpt>
      <trkpt lat="46.21263" lon="6.77748">
        <ele>1666</ele>
        <time>2010-01-01T07:11:11Z</time>
      </trkpt>
      <trkpt lat="46.21258" lon="6.77738">
        <ele>1664</ele>
        <time>2010-01-01T07:11:15Z</time>
      </trkpt>
      <trkpt lat="46.21253" lon="6.77736">
        <ele>1663</ele>
        <time>2010-01-01T07:11:17Z</time>
      </trkpt>
      <trkpt lat="46.21245" lon="6.77737">
        <ele>1660</ele>
        <time>2010-01-01T07:11:20Z</time>
      </trkpt>
      <trkpt lat="46.21234" lon="6.77735">
        <ele>1658</ele>
        <time>2010-01-01T07:11:25Z</time>
      </trkpt>
      <trkpt lat="46.21227" lon="6.77737">
        <ele>1656</ele>
        <time>2010-01-01T07:11:27Z</time>
      </trkpt>
      <trkpt lat="46.21197" lon="6.77756">
        <ele>1648</ele>
        <time>2010-01-01T07:11:41Z</time>
      </trkpt>
      <trkpt lat="46.21162" lon="6.77772">
        <ele>1641</ele>
        <time>2010-01-01T07:11:55Z</time>
      </trkpt>
      <trkpt lat="46.2113" lon="6.77796">
        <ele>1635</ele>
        <time>2010-01-01T07:12:10Z</time>
      </trkpt>
      <trkpt lat="46.21106" lon="6.77811">
        <ele>1630</ele>
        <time>2010-01-01T07:12:20Z</time>
      </trkpt>
      <trkpt lat="46.21106" lon="6.77811">
        <ele>1630</ele>
        <time>2010-01-01T07:12:20Z</time>
      </trkpt>
      <trkpt lat="46.21093" lon="6.77819">
        <ele>1628</ele>
        <time>2010-01-01T07:12:26Z</time>
      </trkpt>
      <trkpt lat="46.21074" lon="6.77838">
        <ele>1624</ele>
        <time>2010-01-01T07:12:35Z</time>
      </trkpt>
      <trkpt lat="46.2104" lon="6.77855">
        <ele>1618</ele>
        <time>2010-01-01T07:12:49Z</time>
      </trkpt>
      <trkpt lat="46.21028" lon="6.77864">
        <ele>1614</ele>
        <time>2010-01-01T07:12:55Z</time>
      </trkpt>
      <trkpt lat="46.20995" lon="6.77904">
        <ele>1607</ele>
        <time>2010-01-01T07:13:12Z</time>
      </trkpt>
      <trkpt lat="46.20953" lon="6.77968">
        <ele>1595</ele>
        <time>2010-01-01T07:13:37Z</time>
      </trkpt>
      <trkpt lat="46.20938" lon="6.77983">
        <ele>1592</ele>
        <time>2010-01-01T07:13:44Z</time>
      </trkpt>
      <trkpt lat="46.20905" lon="6.78007">
        <ele>1585</ele>
        <time>2010-01-01T07:13:58Z</time>
      </trkpt>
      <trkpt lat="46.20857" lon="6.78035">
        <ele>1574</ele>
        <time>2010-01-01T07:14:19Z</time>
      </trkpt>
      <trkpt lat="46.20834" lon="6.78044">
        <ele>1569</ele>
        <time>2010-01-01T07:14:29Z</time>
      </trkpt>
      <trkpt lat="46.20809" lon="6.78047">
        <ele>1563</ele>
        <time>2010-01-01T07:14:39Z</time>
      </trkpt>
      <trkpt lat="46.20784" lon="6.78043">
        <ele>1558</ele>
        <time>2010-01-01T07:14:49Z</time>
      </trkpt>
      <trkpt lat="46.2076" lon="6.78042">
        <ele>1552</ele>
        <time>2010-01-01T07:14:59Z</time>
      </trkpt>
      <trkpt lat="46.20752" lon="6.78044">
        <ele>1551</ele>
        <time>2010-01-01T07:15:02Z</time>
      </trkpt>
      <trkpt lat="46.20737" lon="6.78049">
        <ele>1547</ele>
        <time>2010-01-01T07:15:08Z</time>
      </trkpt>
      <trkpt lat="46.20731" lon="6.7805">
        <ele>1545</ele>
        <time>2010-01-01T07:15:10Z</time>
      </trkpt>
      <trkpt lat="46.20727" lon="6.78048">
        <ele>1544</ele>
        <time>2010-01-01T07:15:12Z</time>
      </trkpt>
      <trkpt lat="46.20723" lon="6.78028">
        <ele>1538</ele>
        <time>2010-01-01T07:15:18Z</time>
      </trkpt>
      <trkpt lat="46.20725" lon="6.78004">
        <ele>1532</ele>
        <time>2010-01-01T07:15:24Z</time>
      </trkpt>
      <trkpt lat="46.2073" lon="6.77974">
        <ele>1526</ele>
        <time>2010-01-01T07:15:33Z</time>
      </trkpt>
      <trkpt lat="46.20736" lon="6.77957">
        <ele>1524</ele>
        <time>2010-01-01T07:15:38Z</time>
      </trkpt>
      <trkpt lat="46.20745" lon="6.77916">
        <ele>1518</ele>
        <time>2010-01-01T07:15:50Z</time>
      </trkpt>
      <trkpt lat="46.20745" lon="6.779">
        <ele>1516</ele>
        <time>2010-01-01T07:15:55Z</time>
      </trkpt>
      <trkpt lat="46.20741" lon="6.77867">
        <ele>1510</ele>
        <time>2010-01-01T07:16:04Z</time>
      </trkpt>
      <trkpt lat="46.20736" lon="6.77848">
        <ele>1507</ele>
        <time>2010-01-01T07:16:10Z</time>
      </trkpt>
      <trkpt lat="46.20699" lon="6.77772">
        <ele>1500</ele>
        <time>2010-01-01T07:16:35Z</time>
      </trkpt>
      <trkpt lat="46.20734" lon="6.77711">
        <ele>1490</ele>
        <time>2010-01-01T07:16:57Z</time>
      </trkpt>
      <trkpt lat="46.20761" lon="6.77685">
        <ele>1495</ele>
        <time>2010-01-01T07:17:10Z</time>
      </trkpt>
      <trkpt lat="46.20784" lon="6.77642">
        <ele>1495</ele>
        <time>2010-01-01T07:17:25Z</time>
      </trkpt>
      <trkpt lat="46.20796" lon="6.77624">
        <ele>1495</ele>
        <time>2010-01-01T07:17:32Z</time>
      </trkpt>
      <trkpt lat="46.20802" lon="6.77619">
        <ele>1495</ele>
        <time>2010-01-01T07:17:35Z</time>
      </trkpt>
      <trkpt lat="46.20816" lon="6.7761">
        <ele>1496</ele>
        <time>2010-01-01T07:17:41Z</time>
      </trkpt>
      <trkpt lat="46.20823" lon="6.77597">
        <ele>1496</ele>
        <time>2010-01-01T07:17:46Z</time>
      </trkpt>
      <trkpt lat="46.20826" lon="6.77596">
        <ele>1496</ele>
        <time>2010-01-01T07:17:47Z</time>
      </trkpt>
      <trkpt lat="46.20834" lon="6.77597">
        <ele>1496</ele>
        <time>2010-01-01T07:17:50Z</time>
      </trkpt>
      <trkpt lat="46.20841" lon="6.77594">
        <ele>1496</ele>
        <time>2010-01-01T07:17:53Z</time>
      </trkpt>
      <trkpt lat="46.20859" lon="6.77565">
        <ele>1496</ele>
        <time>2010-01-01T07:18:04Z</time>
      </trkpt>
      <trkpt lat="46.20869" lon="6.77552">
        <ele>1496</ele>
        <time>2010-01-01T07:18:09Z</time>
      </trkpt>
      <trkpt lat="46.2088" lon="6.77545">
        <ele>1495</ele>
        <time>2010-01-01T07:18:14Z</time>
      </trkpt>
      <trkpt lat="46.2088" lon="6.77545">
        <ele>1495</ele>
        <time>2010-01-01T07:18:14Z</time>
      </trkpt>
      <trkpt lat="46.20892" lon="6.77538">
        <ele>1495</ele>
        <time>2010-01-01T07:18:19Z</time>
      </trkpt>
      <trkpt lat="46.20904" lon="6.77527">
        <ele>1495</ele>
        <time>2010-01-01T07:18:25Z</time>
      </trkpt>
      <trkpt lat="46.20908" lon="6.77522">
        <ele>1494</ele>
        <time>2010-01-01T07:18:27Z</time>
      </trkpt>
      <trkpt lat="46.2091" lon="6.77514">
        <ele>1494</ele>
        <time>2010-01-01T07:18:29Z</time>
      </trkpt>
      <trkpt lat="46.20913" lon="6.77491">
        <ele>1493</ele>
        <time>2010-01-01T07:18:36Z</time>
      </trkpt>
      <trkpt lat="46.20923" lon="6.77476">
        <ele>1491</ele>
        <time>2010-01-01T07:18:41Z</time>
      </trkpt>
      <trkpt lat="46.20942" lon="6.77456">
        <ele>1490</ele>
        <time>2010-01-01T07:18:51Z</time>
      </trkpt>
      <trkpt lat="46.20956" lon="6.77434">
        <ele>1489</ele>
        <time>2010-01-01T07:18:59Z</time>
      </trkpt>
      <trkpt lat="46.2096" lon="6.7743">
        <ele>1488</ele>
        <time>2010-01-01T07:19:01Z</time>
      </trkpt>
      <trkpt lat="46.20965" lon="6.77429">
        <ele>1488</ele>
        <time>2010-01-01T07:19:03Z</time>
      </trkpt>
      <trkpt lat="46.2097" lon="6.7743">
        <ele>1487</ele>
        <time>2010-01-01T07:19:05Z</time>
      </trkpt>
      <trkpt lat="46.20985" lon="6.77436">
        <ele>1486</ele>
        <time>2010-01-01T07:19:11Z</time>
      </trkpt>
      <trkpt lat="46.21004" lon="6.77439">
        <ele>1485</ele>
        <time>2010-01-01T07:19:19Z</time>
      </trkpt>
      <trkpt lat="46.21042" lon="6.77428">
        <ele>1483</ele>
        <time>2010-01-01T07:19:34Z</time>
      </trkpt>
      <trkpt lat="46.21071" lon="6.77413">
        <ele>1482</ele>
        <time>2010-01-01T07:19:47Z</time>
      </trkpt>
      <trkpt lat="46.21082" lon="6.77404">
        <ele>1481</ele>
        <time>2010-01-01T07:19:52Z</time>
      </trkpt>
      <trkpt lat="46.21087" lon="6.77398">
        <ele>1481</ele>
        <time>2010-01-01T07:19:54Z</time>
      </trkpt>
      <trkpt lat="46.21091" lon="6.7739">
        <ele>1481</ele>
        <time>2010-01-01T07:19:57Z</time>
      </trkpt>
      <trkpt lat="46.21097" lon="6.77381">
        <ele>1480</ele>
        <time>2010-01-01T07:20:01Z</time>
      </trkpt>
      <trkpt lat="46.21099" lon="6.77376">
        <ele>1480</ele>
        <time>2010-01-01T07:20:02Z</time>
      </trkpt>
      <trkpt lat="46.21098" lon="6.77363">
        <ele>1479</ele>
        <time>2010-01-01T07:20:06Z</time>
      </trkpt>
      <trkpt lat="46.21093" lon="6.77352">
        <ele>1479</ele>
        <time>2010-01-01T07:20:09Z</time>
      </trkpt>
      <trkpt lat="46.2109" lon="6.77348">
        <ele>1479</ele>
        <time>2010-01-01T07:20:11Z</time>
      </trkpt>
      <trkpt lat="46.21085" lon="6.77346">
        <ele>1478</ele>
        <time>2010-01-01T07:20:13Z</time>
      </trkpt>
      <trkpt lat="46.21066" lon="6.77346">
        <ele>1477</ele>
        <time>2010-01-01T07:20:21Z</time>
      </trkpt>
      <trkpt lat="46.21046" lon="6.77349">
        <ele>1476</ele>
        <time>2010-01-01T07:20:29Z</time>
      </trkpt>
      <trkpt lat="46.21034" lon="6.7735">
        <ele>1475</ele>
        <time>2010-01-01T07:20:34Z</time>
      </trkpt>
      <trkpt lat="46.21018" lon="6.77341">
        <ele>1473</ele>
        <time>2010-01-01T07:20:41Z</time>
      </trkpt>
      <trkpt lat="46.21009" lon="6.77332">
        <ele>1471</ele>
        <time>2010-01-01T07:20:45Z</time>
      </trkpt>
      <trkpt lat="46.21007" lon="6.77326">
        <ele>1470</ele>
        <time>2010-01-01T07:20:47Z</time>
      </trkpt>
      <trkpt lat="46.21006" lon="6.77319">
        <ele>1470</ele>
        <time>2010-01-01T07:20:49Z</time>
      </trkpt>
      <trkpt lat="46.21009" lon="6.77314">
        <ele>1469</ele>
        <time>2010-01-01T07:20:51Z</time>
      </trkpt>
      <trkpt lat="46.21013" lon="6.7731">
        <ele>1469</ele>
        <time>2010-01-01T07:20:53Z</time>
      </trkpt>
      <trkpt lat="46.21031" lon="6.77298">
        <ele>1467</ele>
        <time>2010-01-01T07:21:00Z</time>
      </trkpt>
      <trkpt lat="46.21045" lon="6.77291">
        <ele>1466</ele>
        <time>2010-01-01T07:21:07Z</time>
      </trkpt>
      <trkpt lat="46.21054" lon="6.7729">
        <ele>1465</ele>
        <time>2010-01-01T07:21:10Z</time>
      </trkpt>
      <trkpt lat="46.21062" lon="6.77291">
        <ele>1464</ele>
        <time>2010-01-01T07:21:13Z</time>
      </trkpt>
      <trkpt lat="46.2108" lon="6.77295">
        <ele>1463</ele>
        <time>2010-01-01T07:21:21Z</time>
      </trkpt>
      <trkpt lat="46.2109" lon="6.77295">
        <ele>1463</ele>
        <time>2010-01-01T07:21:24Z</time>
      </trkpt>
      <trkpt lat="46.21099" lon="6.77289">
        <ele>1462</ele>
        <time>2010-01-01T07:21:28Z</time>
      </trkpt>
      <trkpt lat="46.21159" lon="6.77217">
        <ele>1455</ele>
        <time>2010-01-01T07:22:00Z</time>
      </trkpt>
      <trkpt lat="46.21179" lon="6.77197">
        <ele>1452</ele>
        <time>2010-01-01T07:22:09Z</time>
      </trkpt>
      <trkpt lat="46.21201" lon="6.77179">
        <ele>1450</ele>
        <time>2010-01-01T07:22:19Z</time>
      </trkpt>
      <trkpt lat="46.21212" lon="6.77171">
        <ele>1449</ele>
        <time>2010-01-01T07:22:25Z</time>
      </trkpt>
      <trkpt lat="46.21238" lon="6.77162">
        <ele>1446</ele>
        <time>2010-01-01T07:22:35Z</time>
      </trkpt>
      <trkpt lat="46.21251" lon="6.77158">
        <ele>1445</ele>
        <time>2010-01-01T07:22:40Z</time>
      </trkpt>
      <trkpt lat="46.21292" lon="6.77155">
        <ele>1441</ele>
        <time>2010-01-01T07:22:57Z</time>
      </trkpt>
      <trkpt lat="46.21319" lon="6.77147">
        <ele>1438</ele>
        <time>2010-01-01T07:23:08Z</time>
      </trkpt>
      <trkpt lat="46.21347" lon="6.77136">
        <ele>1436</ele>
        <time>2010-01-01T07:23:20Z</time>
      </trkpt>
      <trkpt lat="46.2136" lon="6.77128">
        <ele>1434</ele>
        <time>2010-01-01T07:23:25Z</time>
      </trkpt>
      <trkpt lat="46.2137" lon="6.77118">
        <ele>1433</ele>
        <time>2010-01-01T07:23:30Z</time>
      </trkpt>
      <trkpt lat="46.21387" lon="6.77093">
        <ele>1431</ele>
        <time>2010-01-01T07:23:40Z</time>
      </trkpt>
      <trkpt lat="46.21396" lon="6.77086">
        <ele>1429</ele>
        <time>2010-01-01T07:23:44Z</time>
      </trkpt>
      <trkpt lat="46.21417" lon="6.77076">
        <ele>1426</ele>
        <time>2010-01-01T07:23:53Z</time>
      </trkpt>
      <trkpt lat="46.21436" lon="6.77063">
        <ele>1425</ele>
        <time>2010-01-01T07:24:01Z</time>
      </trkpt>
      <trkpt lat="46.21445" lon="6.77059">
        <ele>1422</ele>
        <time>2010-01-01T07:24:05Z</time>
      </trkpt>
      <trkpt lat="46.21452" lon="6.77053">
        <ele>1420</ele>
        <time>2010-01-01T07:24:08Z</time>
      </trkpt>
      <trkpt lat="46.21455" lon="6.77046">
        <ele>1419</ele>
        <time>2010-01-01T07:24:10Z</time>
      </trkpt>
      <trkpt lat="46.21455" lon="6.77046">
        <ele>1419</ele>
        <time>2010-01-01T07:24:10Z</time>
      </trkpt>
      <trkpt lat="46.21454" lon="6.77037">
        <ele>1418</ele>
        <time>2010-01-01T07:24:13Z</time>
      </trkpt>
      <trkpt lat="46.21451" lon="6.77029">
        <ele>1417</ele>
        <time>2010-01-01T07:24:16Z</time>
      </trkpt>
      <trkpt lat="46.21441" lon="6.77033">
        <ele>1414</ele>
        <time>2010-01-01T07:24:20Z</time>
      </trkpt>
      <trkpt lat="46.21416" lon="6.77047">
        <ele>1411</ele>
        <time>2010-01-01T07:24:30Z</time>
      </trkpt>
      <trkpt lat="46.21407" lon="6.77051">
        <ele>1410</ele>
        <time>2010-01-01T07:24:34Z</time>
      </trkpt>
      <trkpt lat="46.21385" lon="6.77054">
        <ele>1410</ele>
        <time>2010-01-01T07:24:43Z</time>
      </trkpt>
      <trkpt lat="46.21365" lon="6.77061">
        <ele>1407</ele>
        <time>2010-01-01T07:24:52Z</time>
      </trkpt>
      <trkpt lat="46.21356" lon="6.77069">
        <ele>1407</ele>
        <time>2010-01-01T07:24:56Z</time>
      </trkpt>
      <trkpt lat="46.21344" lon="6.77086">
        <ele>1405</ele>
        <time>2010-01-01T07:25:02Z</time>
      </trkpt>
      <trkpt lat="46.21339" lon="6.77089">
        <ele>1404</ele>
        <time>2010-01-01T07:25:05Z</time>
      </trkpt>
      <trkpt lat="46.21331" lon="6.77081">
        <ele>1402</ele>
        <time>2010-01-01T07:25:09Z</time>
      </trkpt>
      <trkpt lat="46.21329" lon="6.77077">
        <ele>1401</ele>
        <time>2010-01-01T07:25:10Z</time>
      </trkpt>
      <trkpt lat="46.2133" lon="6.77073">
        <ele>1401</ele>
        <time>2010-01-01T07:25:11Z</time>
      </trkpt>
      <trkpt lat="46.21357" lon="6.77041">
        <ele>1398</ele>
        <time>2010-01-01T07:25:25Z</time>
      </trkpt>
      <trkpt lat="46.21383" lon="6.77022">
        <ele>1394</ele>
        <time>2010-01-01T07:25:37Z</time>
      </trkpt>
      <trkpt lat="46.214" lon="6.77004">
        <ele>1392</ele>
        <time>2010-01-01T07:25:45Z</time>
      </trkpt>
      <trkpt lat="46.21406" lon="6.76992">
        <ele>1391</ele>
        <time>2010-01-01T07:25:49Z</time>
      </trkpt>
      <trkpt lat="46.21418" lon="6.76946">
        <ele>1387</ele>
        <time>2010-01-01T07:26:03Z</time>
      </trkpt>
      <trkpt lat="46.21424" lon="6.76932">
        <ele>1385</ele>
        <time>2010-01-01T07:26:07Z</time>
      </trkpt>
      <trkpt lat="46.21439" lon="6.76906">
        <ele>1382</ele>
        <time>2010-01-01T07:26:17Z</time>
      </trkpt>
      <trkpt lat="46.21461" lon="6.76882">
        <ele>1380</ele>
        <time>2010-01-01T07:26:28Z</time>
      </trkpt>
      <trkpt lat="46.21465" lon="6.76877">
        <ele>1379</ele>
        <time>2010-01-01T07:26:30Z</time>
      </trkpt>
      <trkpt lat="46.21466" lon="6.76869">
        <ele>1378</ele>
        <time>2010-01-01T07:26:32Z</time>
      </trkpt>
      <trkpt lat="46.21463" lon="6.76862">
        <ele>1376</ele>
        <time>2010-01-01T07:26:35Z</time>
      </trkpt>
      <trkpt lat="46.21458" lon="6.76859">
        <ele>1375</ele>
        <time>2010-01-01T07:26:37Z</time>
      </trkpt>
      <trkpt lat="46.21451" lon="6.76861">
        <ele>1373</ele>
        <time>2010-01-01T07:26:40Z</time>
      </trkpt>
      <trkpt lat="46.21401" lon="6.76901">
        <ele>1366</ele>
        <time>2010-01-01T07:27:02Z</time>
      </trkpt>
      <trkpt lat="46.21372" lon="6.76927">
        <ele>1363</ele>
        <time>2010-01-01T07:27:16Z</time>
      </trkpt>
      <trkpt lat="46.21367" lon="6.76929">
        <ele>1362</ele>
        <time>2010-01-01T07:27:18Z</time>
      </trkpt>
      <trkpt lat="46.21359" lon="6.76919">
        <ele>1360</ele>
        <time>2010-01-01T07:27:22Z</time>
      </trkpt>
      <trkpt lat="46.21358" lon="6.76914">
        <ele>1359</ele>
        <time>2010-01-01T07:27:24Z</time>
      </trkpt>
      <trkpt lat="46.21369" lon="6.76901">
        <ele>1359</ele>
        <time>2010-01-01T07:27:30Z</time>
      </trkpt>
      <trkpt lat="46.21375" lon="6.76892">
        <ele>1358</ele>
        <time>2010-01-01T07:27:33Z</time>
      </trkpt>
      <trkpt lat="46.21406" lon="6.76819">
        <ele>1352</ele>
        <time>2010-01-01T07:27:57Z</time>
      </trkpt>
      <trkpt lat="46.21435" lon="6.76764">
        <ele>1347</ele>
        <time>2010-01-01T07:28:16Z</time>
      </trkpt>
      <trkpt lat="46.21444" lon="6.76752">
        <ele>1347</ele>
        <time>2010-01-01T07:28:21Z</time>
      </trkpt>
      <trkpt lat="46.21454" lon="6.76743">
        <ele>1346</ele>
        <time>2010-01-01T07:28:26Z</time>
      </trkpt>
      <trkpt lat="46.21481" lon="6.76727">
        <ele>1343</ele>
        <time>2010-01-01T07:28:37Z</time>
      </trkpt>
      <trkpt lat="46.21488" lon="6.76721">
        <ele>1343</ele>
        <time>2010-01-01T07:28:41Z</time>
      </trkpt>
      <trkpt lat="46.21493" lon="6.76714">
        <ele>1341</ele>
        <time>2010-01-01T07:28:43Z</time>
      </trkpt>
      <trkpt lat="46.21493" lon="6.76704">
        <ele>1341</ele>
        <time>2010-01-01T07:28:46Z</time>
      </trkpt>
      <trkpt lat="46.2149" lon="6.76696">
        <ele>1339</ele>
        <time>2010-01-01T07:28:49Z</time>
      </trkpt>
      <trkpt lat="46.21484" lon="6.7669">
        <ele>1338</ele>
        <time>2010-01-01T07:28:52Z</time>
      </trkpt>
      <trkpt lat="46.21468" lon="6.76681">
        <ele>1336</ele>
        <time>2010-01-01T07:28:59Z</time>
      </trkpt>
      <trkpt lat="46.2146" lon="6.76674">
        <ele>1335</ele>
        <time>2010-01-01T07:29:02Z</time>
      </trkpt>
      <trkpt lat="46.2145" lon="6.76656">
        <ele>1334</ele>
        <time>2010-01-01T07:29:09Z</time>
      </trkpt>
      <trkpt lat="46.21448" lon="6.76648">
        <ele>1333</ele>
        <time>2010-01-01T07:29:11Z</time>
      </trkpt>
      <trkpt lat="46.21463" lon="6.76615">
        <ele>1331</ele>
        <time>2010-01-01T07:29:22Z</time>
      </trkpt>
      <trkpt lat="46.21465" lon="6.76601">
        <ele>1330</ele>
        <time>2010-01-01T07:29:26Z</time>
      </trkpt>
      <trkpt lat="46.21465" lon="6.76572">
        <ele>1328</ele>
        <time>2010-01-01T07:29:34Z</time>
      </trkpt>
      <trkpt lat="46.2146" lon="6.76562">
        <ele>1327</ele>
        <time>2010-01-01T07:29:37Z</time>
      </trkpt>
      <trkpt lat="46.21458" lon="6.76553">
        <ele>1327</ele>
        <time>2010-01-01T07:29:40Z</time>
      </trkpt>
      <trkpt lat="46.21461" lon="6.7654">
        <ele>1325</ele>
        <time>2010-01-01T07:29:44Z</time>
      </trkpt>
      <trkpt lat="46.21464" lon="6.76535">
        <ele>1324</ele>
        <time>2010-01-01T07:29:46Z</time>
      </trkpt>
      <trkpt lat="46.21473" lon="6.76532">
        <ele>1323</ele>
        <time>2010-01-01T07:29:49Z</time>
      </trkpt>
      <trkpt lat="46.21482" lon="6.76554">
        <ele>1321</ele>
        <time>2010-01-01T07:29:56Z</time>
      </trkpt>
      <trkpt lat="46.21493" lon="6.76567">
        <ele>1320</ele>
        <time>2010-01-01T07:30:02Z</time>
      </trkpt>
      <trkpt lat="46.21498" lon="6.76543">
        <ele>1317</ele>
        <time>2010-01-01T07:30:09Z</time>
      </trkpt>
      <trkpt lat="46.21498" lon="6.76543">
        <ele>1317</ele>
        <time>2010-01-01T07:30:09Z</time>
      </trkpt>
      <trkpt lat="46.21497" lon="6.76535">
        <ele>1315</ele>
        <time>2010-01-01T07:30:11Z</time>
      </trkpt>
      <trkpt lat="46.21488" lon="6.76522">
        <ele>1312</ele>
        <time>2010-01-01T07:30:16Z</time>
      </trkpt>
      <trkpt lat="46.21485" lon="6.76514">
        <ele>1311</ele>
        <time>2010-01-01T07:30:19Z</time>
      </trkpt>
      <trkpt lat="46.21484" lon="6.76506">
        <ele>1312</ele>
        <time>2010-01-01T07:30:21Z</time>
      </trkpt>
      <trkpt lat="46.21485" lon="6.76499">
        <ele>1312</ele>
        <time>2010-01-01T07:30:23Z</time>
      </trkpt>
      <trkpt lat="46.21512" lon="6.76504">
        <ele>1306</ele>
        <time>2010-01-01T07:30:33Z</time>
      </trkpt>
      <trkpt lat="46.2152" lon="6.76501">
        <ele>1305</ele>
        <time>2010-01-01T07:30:37Z</time>
      </trkpt>
      <trkpt lat="46.21527" lon="6.76492">
        <ele>1303</ele>
        <time>2010-01-01T07:30:40Z</time>
      </trkpt>
      <trkpt lat="46.21557" lon="6.76407">
        <ele>1295</ele>
        <time>2010-01-01T07:31:07Z</time>
      </trkpt>
      <trkpt lat="46.21576" lon="6.76359">
        <ele>1290</ele>
        <time>2010-01-01T07:31:22Z</time>
      </trkpt>
      <trkpt lat="46.21576" lon="6.7635">
        <ele>1289</ele>
        <time>2010-01-01T07:31:25Z</time>
      </trkpt>
      <trkpt lat="46.2157" lon="6.76336">
        <ele>1286</ele>
        <time>2010-01-01T07:31:29Z</time>
      </trkpt>
      <trkpt lat="46.21565" lon="6.76347">
        <ele>1285</ele>
        <time>2010-01-01T07:31:33Z</time>
      </trkpt>
      <trkpt lat="46.21554" lon="6.76377">
        <ele>1279</ele>
        <time>2010-01-01T07:31:42Z</time>
      </trkpt>
      <trkpt lat="46.21549" lon="6.76388">
        <ele>1278</ele>
        <time>2010-01-01T07:31:46Z</time>
      </trkpt>
      <trkpt lat="46.21536" lon="6.7641">
        <ele>1275</ele>
        <time>2010-01-01T07:31:54Z</time>
      </trkpt>
      <trkpt lat="46.21519" lon="6.76432">
        <ele>1271</ele>
        <time>2010-01-01T07:32:03Z</time>
      </trkpt>
      <trkpt lat="46.21509" lon="6.7644">
        <ele>1270</ele>
        <time>2010-01-01T07:32:08Z</time>
      </trkpt>
      <trkpt lat="46.21475" lon="6.76462">
        <ele>1266</ele>
        <time>2010-01-01T07:32:23Z</time>
      </trkpt>
      <trkpt lat="46.21463" lon="6.76471">
        <ele>1265</ele>
        <time>2010-01-01T07:32:28Z</time>
      </trkpt>
      <trkpt lat="46.21395" lon="6.76533">
        <ele>1260</ele>
        <time>2010-01-01T07:33:00Z</time>
      </trkpt>
      <trkpt lat="46.21367" lon="6.76566">
        <ele>1258</ele>
        <time>2010-01-01T07:33:15Z</time>
      </trkpt>
      <trkpt lat="46.21355" lon="6.76577">
        <ele>1256</ele>
        <time>2010-01-01T07:33:20Z</time>
      </trkpt>
      <trkpt lat="46.21348" lon="6.7658">
        <ele>1255</ele>
        <time>2010-01-01T07:33:23Z</time>
      </trkpt>
      <trkpt lat="46.21344" lon="6.76579">
        <ele>1254</ele>
        <time>2010-01-01T07:33:25Z</time>
      </trkpt>
      <trkpt lat="46.21341" lon="6.76575">
        <ele>1253</ele>
        <time>2010-01-01T07:33:27Z</time>
      </trkpt>
      <trkpt lat="46.21345" lon="6.7657">
        <ele>1251</ele>
        <time>2010-01-01T07:33:28Z</time>
      </trkpt>
      <trkpt lat="46.21365" lon="6.76559">
        <ele>1249</ele>
        <time>2010-01-01T07:33:37Z</time>
      </trkpt>
      <trkpt lat="46.21372" lon="6.76553">
        <ele>1248</ele>
        <time>2010-01-01T07:33:40Z</time>
      </trkpt>
      <trkpt lat="46.21391" lon="6.76524">
        <ele>1249</ele>
        <time>2010-01-01T07:33:51Z</time>
      </trkpt>
      <trkpt lat="46.21428" lon="6.76473">
        <ele>1246</ele>
        <time>2010-01-01T07:34:12Z</time>
      </trkpt>
      <trkpt lat="46.21449" lon="6.76436">
        <ele>1244</ele>
        <time>2010-01-01T07:34:25Z</time>
      </trkpt>
      <trkpt lat="46.21467" lon="6.76389">
        <ele>1242</ele>
        <time>2010-01-01T07:34:40Z</time>
      </trkpt>
      <trkpt lat="46.21474" lon="6.76373">
        <ele>1240</ele>
        <time>2010-01-01T07:34:45Z</time>
      </trkpt>
      <trkpt lat="46.215" lon="6.76331">
        <ele>1237</ele>
        <time>2010-01-01T07:35:01Z</time>
      </trkpt>
      <trkpt lat="46.21512" lon="6.76298">
        <ele>1234</ele>
        <time>2010-01-01T07:35:11Z</time>
      </trkpt>
      <trkpt lat="46.21516" lon="6.7628">
        <ele>1233</ele>
        <time>2010-01-01T07:35:16Z</time>
      </trkpt>
      <trkpt lat="46.21521" lon="6.76262">
        <ele>1232</ele>
        <time>2010-01-01T07:35:22Z</time>
      </trkpt>
      <trkpt lat="46.2153" lon="6.76205">
        <ele>1229</ele>
        <time>2010-01-01T07:35:38Z</time>
      </trkpt>
      <trkpt lat="46.21555" lon="6.76138">
        <ele>1225</ele>
        <time>2010-01-01T07:35:59Z</time>
      </trkpt>
      <trkpt lat="46.21558" lon="6.76119">
        <ele>1224</ele>
        <time>2010-01-01T07:36:04Z</time>
      </trkpt>
      <trkpt lat="46.21557" lon="6.76102">
        <ele>1224</ele>
        <time>2010-01-01T07:36:09Z</time>
      </trkpt>
      <trkpt lat="46.21557" lon="6.76102">
        <ele>1224</ele>
        <time>2010-01-01T07:36:09Z</time>
      </trkpt>
      <trkpt lat="46.21554" lon="6.76068">
        <ele>1223</ele>
        <time>2010-01-01T07:36:18Z</time>
      </trkpt>
      <trkpt lat="46.21558" lon="6.76053">
        <ele>1223</ele>
        <time>2010-01-01T07:36:23Z</time>
      </trkpt>
      <trkpt lat="46.21569" lon="6.76023">
        <ele>1222</ele>
        <time>2010-01-01T07:36:32Z</time>
      </trkpt>
      <trkpt lat="46.21577" lon="6.7595">
        <ele>1221</ele>
        <time>2010-01-01T07:36:53Z</time>
      </trkpt>
      <trkpt lat="46.21576" lon="6.75911">
        <ele>1220</ele>
        <time>2010-01-01T07:37:04Z</time>
      </trkpt>
      <trkpt lat="46.21573" lon="6.75893">
        <ele>1218</ele>
        <time>2010-01-01T07:37:09Z</time>
      </trkpt>
      <trkpt lat="46.21558" lon="6.75837">
        <ele>1214</ele>
        <time>2010-01-01T07:37:25Z</time>
      </trkpt>
      <trkpt lat="46.21538" lon="6.75782">
        <ele>1211</ele>
        <time>2010-01-01T07:37:43Z</time>
      </trkpt>
      <trkpt lat="46.21527" lon="6.75745">
        <ele>1208</ele>
        <time>2010-01-01T07:37:54Z</time>
      </trkpt>
      <trkpt lat="46.21508" lon="6.75692">
        <ele>1204</ele>
        <time>2010-01-01T07:38:10Z</time>
      </trkpt>
      <trkpt lat="46.21493" lon="6.75623">
        <ele>1203</ele>
        <time>2010-01-01T07:38:30Z</time>
      </trkpt>
      <trkpt lat="46.21487" lon="6.75575">
        <ele>1202</ele>
        <time>2010-01-01T07:38:44Z</time>
      </trkpt>
      <trkpt lat="46.21488" lon="6.75546">
        <ele>1201</ele>
        <time>2010-01-01T07:38:52Z</time>
      </trkpt>
      <trkpt lat="46.2149" lon="6.75533">
        <ele>1199</ele>
        <time>2010-01-01T07:38:55Z</time>
      </trkpt>
      <trkpt lat="46.21497" lon="6.75494">
        <ele>1198</ele>
        <time>2010-01-01T07:39:07Z</time>
      </trkpt>
      <trkpt lat="46.21507" lon="6.75459">
        <ele>1198</ele>
        <time>2010-01-01T07:39:17Z</time>
      </trkpt>
      <trkpt lat="46.21509" lon="6.75447">
        <ele>1199</ele>
        <time>2010-01-01T07:39:21Z</time>
      </trkpt>
      <trkpt lat="46.21509" lon="6.75359">
        <ele>1200</ele>
        <time>2010-01-01T07:39:45Z</time>
      </trkpt>
      <trkpt lat="46.21511" lon="6.7534">
        <ele>1201</ele>
        <time>2010-01-01T07:39:50Z</time>
      </trkpt>
      <trkpt lat="46.21515" lon="6.75329">
        <ele>1201</ele>
        <time>2010-01-01T07:39:54Z</time>
      </trkpt>
      <trkpt lat="46.21515" lon="6.75319">
        <ele>1202</ele>
        <time>2010-01-01T07:39:57Z</time>
      </trkpt>
      <trkpt lat="46.21512" lon="6.75333">
        <ele>1200</ele>
        <time>2010-01-01T07:40:01Z</time>
      </trkpt>
      <trkpt lat="46.2151" lon="6.75358">
        <ele>1197</ele>
        <time>2010-01-01T07:40:08Z</time>
      </trkpt>
      <trkpt lat="46.21512" lon="6.75386">
        <ele>1191</ele>
        <time>2010-01-01T07:40:15Z</time>
      </trkpt>
      <trkpt lat="46.2151" lon="6.754">
        <ele>1193</ele>
        <time>2010-01-01T07:40:20Z</time>
      </trkpt>
      <trkpt lat="46.21514" lon="6.75357">
        <ele>1196</ele>
        <time>2010-01-01T07:40:32Z</time>
      </trkpt>
      <trkpt lat="46.2153" lon="6.75288">
        <ele>1196</ele>
        <time>2010-01-01T07:40:52Z</time>
      </trkpt>
      <trkpt lat="46.21531" lon="6.75267">
        <ele>1196</ele>
        <time>2010-01-01T07:40:58Z</time>
      </trkpt>
      <trkpt lat="46.21529" lon="6.75237">
        <ele>1196</ele>
        <time>2010-01-01T07:41:06Z</time>
      </trkpt>
      <trkpt lat="46.21518" lon="6.75142">
        <ele>1197</ele>
        <time>2010-01-01T07:41:33Z</time>
      </trkpt>
      <trkpt lat="46.21507" lon="6.75097">
        <ele>1196</ele>
        <time>2010-01-01T07:41:46Z</time>
      </trkpt>
      <trkpt lat="46.21498" lon="6.75065">
        <ele>1196</ele>
        <time>2010-01-01T07:41:55Z</time>
      </trkpt>
      <trkpt lat="46.2149" lon="6.7505">
        <ele>1195</ele>
        <time>2010-01-01T07:42:01Z</time>
      </trkpt>
      <trkpt lat="46.2148" lon="6.7504">
        <ele>1194</ele>
        <time>2010-01-01T07:42:06Z</time>
      </trkpt>
      <trkpt lat="46.2148" lon="6.7504">
        <ele>1194</ele>
        <time>2010-01-01T07:42:06Z</time>
      </trkpt>
      <trkpt lat="46.21463" lon="6.75011">
        <ele>1191</ele>
        <time>2010-01-01T07:42:16Z</time>
      </trkpt>
      <trkpt lat="46.21457" lon="6.74996">
        <ele>1190</ele>
        <time>2010-01-01T07:42:21Z</time>
      </trkpt>
      <trkpt lat="46.21445" lon="6.74966">
        <ele>1187</ele>
        <time>2010-01-01T07:42:30Z</time>
      </trkpt>
      <trkpt lat="46.21425" lon="6.74905">
        <ele>1182</ele>
        <time>2010-01-01T07:42:49Z</time>
      </trkpt>
      <trkpt lat="46.21364" lon="6.74772">
        <ele>1175</ele>
        <time>2010-01-01T07:43:33Z</time>
      </trkpt>
      <trkpt lat="46.21357" lon="6.74759">
        <ele>1173</ele>
        <time>2010-01-01T07:43:38Z</time>
      </trkpt>
      <trkpt lat="46.21321" lon="6.74712">
        <ele>1165</ele>
        <time>2010-01-01T07:43:57Z</time>
      </trkpt>
      <trkpt lat="46.21304" lon="6.74687">
        <ele>1162</ele>
        <time>2010-01-01T07:44:07Z</time>
      </trkpt>
      <trkpt lat="46.21296" lon="6.74672">
        <ele>1160</ele>
        <time>2010-01-01T07:44:12Z</time>
      </trkpt>
      <trkpt lat="46.21285" lon="6.74639">
        <ele>1157</ele>
        <time>2010-01-01T07:44:22Z</time>
      </trkpt>
      <trkpt lat="46.21254" lon="6.74522">
        <ele>1152</ele>
        <time>2010-01-01T07:44:57Z</time>
      </trkpt>
      <trkpt lat="46.21252" lon="6.74506">
        <ele>1150</ele>
        <time>2010-01-01T07:45:02Z</time>
      </trkpt>
      <trkpt lat="46.21253" lon="6.74453">
        <ele>1149</ele>
        <time>2010-01-01T07:45:16Z</time>
      </trkpt>
      <trkpt lat="46.21248" lon="6.7442">
        <ele>1147</ele>
        <time>2010-01-01T07:45:26Z</time>
      </trkpt>
      <trkpt lat="46.21232" lon="6.74353">
        <ele>1145</ele>
        <time>2010-01-01T07:45:45Z</time>
      </trkpt>
      <trkpt lat="46.21228" lon="6.74301">
        <ele>1143</ele>
        <time>2010-01-01T07:46:00Z</time>
      </trkpt>
      <trkpt lat="46.21223" lon="6.74286">
        <ele>1143</ele>
        <time>2010-01-01T07:46:04Z</time>
      </trkpt>
      <trkpt lat="46.21216" lon="6.74272">
        <ele>1142</ele>
        <time>2010-01-01T07:46:09Z</time>
      </trkpt>
      <trkpt lat="46.21209" lon="6.74259">
        <ele>1142</ele>
        <time>2010-01-01T07:46:14Z</time>
      </trkpt>
      <trkpt lat="46.2119" lon="6.74239">
        <ele>1141</ele>
        <time>2010-01-01T07:46:23Z</time>
      </trkpt>
      <trkpt lat="46.21182" lon="6.74226">
        <ele>1140</ele>
        <time>2010-01-01T07:46:28Z</time>
      </trkpt>
      <trkpt lat="46.21178" lon="6.7421">
        <ele>1139</ele>
        <time>2010-01-01T07:46:33Z</time>
      </trkpt>
      <trkpt lat="46.21172" lon="6.74177">
        <ele>1137</ele>
        <time>2010-01-01T07:46:42Z</time>
      </trkpt>
      <trkpt lat="46.21165" lon="6.74093">
        <ele>1134</ele>
        <time>2010-01-01T07:47:05Z</time>
      </trkpt>
      <trkpt lat="46.2114" lon="6.73945">
        <ele>1129</ele>
        <time>2010-01-01T07:47:48Z</time>
      </trkpt>
      <trkpt lat="46.21133" lon="6.73896">
        <ele>1127</ele>
        <time>2010-01-01T07:48:02Z</time>
      </trkpt>
      <trkpt lat="46.21133" lon="6.73896">
        <ele>1127</ele>
        <time>2010-01-01T07:48:02Z</time>
      </trkpt>
      <trkpt lat="46.21128" lon="6.73845">
        <ele>1125</ele>
        <time>2010-01-01T07:48:16Z</time>
      </trkpt>
      <trkpt lat="46.21123" lon="6.73811">
        <ele>1124</ele>
        <time>2010-01-01T07:48:25Z</time>
      </trkpt>
      <trkpt lat="46.21105" lon="6.73749">
        <ele>1121</ele>
        <time>2010-01-01T07:48:44Z</time>
      </trkpt>
      <trkpt lat="46.21102" lon="6.73733">
        <ele>1121</ele>
        <time>2010-01-01T07:48:49Z</time>
      </trkpt>
      <trkpt lat="46.21099" lon="6.73699">
        <ele>1119</ele>
        <time>2010-01-01T07:48:58Z</time>
      </trkpt>
      <trkpt lat="46.21099" lon="6.73646">
        <ele>1116</ele>
        <time>2010-01-01T07:49:13Z</time>
      </trkpt>
      <trkpt lat="46.21078" lon="6.73523">
        <ele>1114</ele>
        <time>2010-01-01T07:49:48Z</time>
      </trkpt>
      <trkpt lat="46.21072" lon="6.73447">
        <ele>1112</ele>
        <time>2010-01-01T07:50:09Z</time>
      </trkpt>
      <trkpt lat="46.21069" lon="6.73445">
        <ele>1112</ele>
        <time>2010-01-01T07:50:10Z</time>
      </trkpt>
      <trkpt lat="46.21067" lon="6.73446">
        <ele>1111</ele>
        <time>2010-01-01T07:50:11Z</time>
      </trkpt>
      <trkpt lat="46.21067" lon="6.7345">
        <ele>1111</ele>
        <time>2010-01-01T07:50:12Z</time>
      </trkpt>
      <trkpt lat="46.21067" lon="6.73473">
        <ele>1108</ele>
        <time>2010-01-01T07:50:19Z</time>
      </trkpt>
      <trkpt lat="46.21072" lon="6.73526">
        <ele>1096</ele>
        <time>2010-01-01T07:50:33Z</time>
      </trkpt>
      <trkpt lat="46.21073" lon="6.7359">
        <ele>1085</ele>
        <time>2010-01-01T07:50:51Z</time>
      </trkpt>
      <trkpt lat="46.21069" lon="6.73624">
        <ele>1080</ele>
        <time>2010-01-01T07:51:01Z</time>
      </trkpt>
      <trkpt lat="46.21062" lon="6.73644">
        <ele>1079</ele>
        <time>2010-01-01T07:51:07Z</time>
      </trkpt>
      <trkpt lat="46.21051" lon="6.7366">
        <ele>1077</ele>
        <time>2010-01-01T07:51:13Z</time>
      </trkpt>
      <trkpt lat="46.21038" lon="6.7367">
        <ele>1077</ele>
        <time>2010-01-01T07:51:19Z</time>
      </trkpt>
      <trkpt lat="46.21013" lon="6.73681">
        <ele>1076</ele>
        <time>2010-01-01T07:51:30Z</time>
      </trkpt>
      <trkpt lat="46.20985" lon="6.7369">
        <ele>1077</ele>
        <time>2010-01-01T07:51:41Z</time>
      </trkpt>
      <trkpt lat="46.20968" lon="6.73699">
        <ele>1078</ele>
        <time>2010-01-01T07:51:48Z</time>
      </trkpt>
      <trkpt lat="46.20949" lon="6.73701">
        <ele>1076</ele>
        <time>2010-01-01T07:51:56Z</time>
      </trkpt>
      <trkpt lat="46.20937" lon="6.73699">
        <ele>1077</ele>
        <time>2010-01-01T07:52:00Z</time>
      </trkpt>
      <trkpt lat="46.20938" lon="6.73703">
        <ele>1076</ele>
        <time>2010-01-01T07:52:02Z</time>
      </trkpt>
      <trkpt lat="46.20938" lon="6.73697">
        <ele>1076</ele>
        <time>2010-01-01T07:52:03Z</time>
      </trkpt>
      <trkpt lat="46.20937" lon="6.73695">
        <ele>1076</ele>
        <time>2010-01-01T07:52:04Z</time>
      </trkpt>
      <trkpt lat="46.20926" lon="6.73689">
        <ele>1075</ele>
        <time>2010-01-01T07:52:09Z</time>
      </trkpt>
      <trkpt lat="46.20906" lon="6.73655">
        <ele>1076</ele>
        <time>2010-01-01T07:52:21Z</time>
      </trkpt>
      <trkpt lat="46.20889" lon="6.73643">
        <ele>1077</ele>
        <time>2010-01-01T07:52:28Z</time>
      </trkpt>
      <trkpt lat="46.20879" lon="6.7363">
        <ele>1077</ele>
        <time>2010-01-01T07:52:34Z</time>
      </trkpt>
      <trkpt lat="46.20863" lon="6.73586">
        <ele>1079</ele>
        <time>2010-01-01T07:52:48Z</time>
      </trkpt>
      <trkpt lat="46.20849" lon="6.73564">
        <ele>1079</ele>
        <time>2010-01-01T07:52:56Z</time>
      </trkpt>
      <trkpt lat="46.20831" lon="6.7354">
        <ele>1080</ele>
        <time>2010-01-01T07:53:06Z</time>
      </trkpt>
      <trkpt lat="46.20829" lon="6.73533">
        <ele>1080</ele>
        <time>2010-01-01T07:53:08Z</time>
      </trkpt>
      <trkpt lat="46.20826" lon="6.73485">
        <ele>1080</ele>
        <time>2010-01-01T07:53:21Z</time>
      </trkpt>
      <trkpt lat="46.20821" lon="6.73466">
        <ele>1080</ele>
        <time>2010-01-01T07:53:27Z</time>
      </trkpt>
      <trkpt lat="46.20808" lon="6.73435">
        <ele>1081</ele>
        <time>2010-01-01T07:53:37Z</time>
      </trkpt>
      <trkpt lat="46.20806" lon="6.73421">
        <ele>1081</ele>
        <time>2010-01-01T07:53:41Z</time>
      </trkpt>
      <trkpt lat="46.20807" lon="6.73398">
        <ele>1081</ele>
        <time>2010-01-01T07:53:47Z</time>
      </trkpt>
      <trkpt lat="46.20813" lon="6.73367">
        <ele>1082</ele>
        <time>2010-01-01T07:53:56Z</time>
      </trkpt>
      <trkpt lat="46.20813" lon="6.73367">
        <ele>1082</ele>
        <time>2010-01-01T07:53:56Z</time>
      </trkpt>
      <trkpt lat="46.20817" lon="6.7335">
        <ele>1081</ele>
        <time>2010-01-01T07:54:01Z</time>
      </trkpt>
      <trkpt lat="46.20819" lon="6.73325">
        <ele>1080</ele>
        <time>2010-01-01T07:54:08Z</time>
      </trkpt>
      <trkpt lat="46.20816" lon="6.73299">
        <ele>1080</ele>
        <time>2010-01-01T07:54:15Z</time>
      </trkpt>
      <trkpt lat="46.20807" lon="6.73267">
        <ele>1079</ele>
        <time>2010-01-01T07:54:25Z</time>
      </trkpt>
      <trkpt lat="46.20797" lon="6.73234">
        <ele>1081</ele>
        <time>2010-01-01T07:54:35Z</time>
      </trkpt>
      <trkpt lat="46.20758" lon="6.73172">
        <ele>1082</ele>
        <time>2010-01-01T07:54:58Z</time>
      </trkpt>
      <trkpt lat="46.20751" lon="6.73153">
        <ele>1083</ele>
        <time>2010-01-01T07:55:04Z</time>
      </trkpt>
      <trkpt lat="46.20749" lon="6.7314">
        <ele>1083</ele>
        <time>2010-01-01T07:55:08Z</time>
      </trkpt>
      <trkpt lat="46.2075" lon="6.73107">
        <ele>1086</ele>
        <time>2010-01-01T07:55:17Z</time>
      </trkpt>
      <trkpt lat="46.20757" lon="6.73075">
        <ele>1084</ele>
        <time>2010-01-01T07:55:26Z</time>
      </trkpt>
      <trkpt lat="46.20765" lon="6.73047">
        <ele>1084</ele>
        <time>2010-01-01T07:55:35Z</time>
      </trkpt>
      <trkpt lat="46.20766" lon="6.73025">
        <ele>1084</ele>
        <time>2010-01-01T07:55:41Z</time>
      </trkpt>
      <trkpt lat="46.20762" lon="6.72962">
        <ele>1082</ele>
        <time>2010-01-01T07:55:58Z</time>
      </trkpt>
      <trkpt lat="46.20756" lon="6.72906">
        <ele>1082</ele>
        <time>2010-01-01T07:56:14Z</time>
      </trkpt>
      <trkpt lat="46.20751" lon="6.72885">
        <ele>1080</ele>
        <time>2010-01-01T07:56:20Z</time>
      </trkpt>
      <trkpt lat="46.20752" lon="6.72862">
        <ele>1082</ele>
        <time>2010-01-01T07:56:27Z</time>
      </trkpt>
      <trkpt lat="46.2075" lon="6.72845">
        <ele>1080</ele>
        <time>2010-01-01T07:56:31Z</time>
      </trkpt>
      <trkpt lat="46.20752" lon="6.7282">
        <ele>1080</ele>
        <time>2010-01-01T07:56:38Z</time>
      </trkpt>
      <trkpt lat="46.20748" lon="6.72782">
        <ele>1079</ele>
        <time>2010-01-01T07:56:49Z</time>
      </trkpt>
      <trkpt lat="46.20749" lon="6.72764">
        <ele>1079</ele>
        <time>2010-01-01T07:56:54Z</time>
      </trkpt>
      <trkpt lat="46.20751" lon="6.72749">
        <ele>1080</ele>
        <time>2010-01-01T07:56:58Z</time>
      </trkpt>
      <trkpt lat="46.2075" lon="6.72675">
        <ele>1078</ele>
        <time>2010-01-01T07:57:19Z</time>
      </trkpt>
      <trkpt lat="46.20739" lon="6.72635">
        <ele>1078</ele>
        <time>2010-01-01T07:57:30Z</time>
      </trkpt>
      <trkpt lat="46.20736" lon="6.72609">
        <ele>1078</ele>
        <time>2010-01-01T07:57:38Z</time>
      </trkpt>
      <trkpt lat="46.20735" lon="6.72554">
        <ele>1078</ele>
        <time>2010-01-01T07:57:53Z</time>
      </trkpt>
      <trkpt lat="46.20743" lon="6.72492">
        <ele>1077</ele>
        <time>2010-01-01T07:58:10Z</time>
      </trkpt>
      <trkpt lat="46.20753" lon="6.72457">
        <ele>1077</ele>
        <time>2010-01-01T07:58:21Z</time>
      </trkpt>
      <trkpt lat="46.20765" lon="6.72401">
        <ele>1077</ele>
        <time>2010-01-01T07:58:37Z</time>
      </trkpt>
      <trkpt lat="46.20763" lon="6.72387">
        <ele>1076</ele>
        <time>2010-01-01T07:58:41Z</time>
      </trkpt>
      <trkpt lat="46.20763" lon="6.72327">
        <ele>1077</ele>
        <time>2010-01-01T07:58:58Z</time>
      </trkpt>
      <trkpt lat="46.20753" lon="6.72285">
        <ele>1080</ele>
        <time>2010-01-01T07:59:10Z</time>
      </trkpt>
      <trkpt lat="46.2075" lon="6.72265">
        <ele>1080</ele>
        <time>2010-01-01T07:59:16Z</time>
      </trkpt>
      <trkpt lat="46.20749" lon="6.72247">
        <ele>1080</ele>
        <time>2010-01-01T07:59:21Z</time>
      </trkpt>
      <trkpt lat="46.20751" lon="6.72222">
        <ele>1077</ele>
        <time>2010-01-01T07:59:28Z</time>
      </trkpt>
      <trkpt lat="46.2075" lon="6.72199">
        <ele>1073</ele>
        <time>2010-01-01T07:59:34Z</time>
      </trkpt>
      <trkpt lat="46.20746" lon="6.72174">
        <ele>1071</ele>
        <time>2010-01-01T07:59:41Z</time>
      </trkpt>
      <trkpt lat="46.20746" lon="6.72158">
        <ele>1071</ele>
        <time>2010-01-01T07:59:46Z</time>
      </trkpt>
      <trkpt lat="46.20741" lon="6.72137">
        <ele>1071</ele>
        <time>2010-01-01T07:59:52Z</time>
      </trkpt>
      <trkpt lat="46.20741" lon="6.72131">
        <ele>1072</ele>
        <time>2010-01-01T07:59:54Z</time>
      </trkpt>
      <trkpt lat="46.20741" lon="6.72131">
        <ele>1072</ele>
        <time>2010-01-01T07:59:54Z</time>
      </trkpt>
      <trkpt lat="46.20747" lon="6.72068">
        <ele>1073</ele>
        <time>2010-01-01T08:00:11Z</time>
      </trkpt>
      <trkpt lat="46.2075" lon="6.72059">
        <ele>1073</ele>
        <time>2010-01-01T08:00:14Z</time>
      </trkpt>
      <trkpt lat="46.20754" lon="6.72057">
        <ele>1074</ele>
        <time>2010-01-01T08:00:16Z</time>
      </trkpt>
      <trkpt lat="46.20775" lon="6.72059">
        <ele>1074</ele>
        <time>2010-01-01T08:00:24Z</time>
      </trkpt>
      <trkpt lat="46.20779" lon="6.72058">
        <ele>1073</ele>
        <time>2010-01-01T08:00:26Z</time>
      </trkpt>
      <trkpt lat="46.20792" lon="6.72052">
        <ele>1074</ele>
        <time>2010-01-01T08:00:31Z</time>
      </trkpt>
      <trkpt lat="46.20801" lon="6.72052">
        <ele>1074</ele>
        <time>2010-01-01T08:00:35Z</time>
      </trkpt>
      <trkpt lat="46.20813" lon="6.72048">
        <ele>1073</ele>
        <time>2010-01-01T08:00:39Z</time>
      </trkpt>
      <trkpt lat="46.20822" lon="6.72042">
        <ele>1074</ele>
        <time>2010-01-01T08:00:44Z</time>
      </trkpt>
      <trkpt lat="46.20835" lon="6.72028">
        <ele>1072</ele>
        <time>2010-01-01T08:00:50Z</time>
      </trkpt>
      <trkpt lat="46.20839" lon="6.72016">
        <ele>1071</ele>
        <time>2010-01-01T08:00:54Z</time>
      </trkpt>
      <trkpt lat="46.20849" lon="6.72005">
        <ele>1071</ele>
        <time>2010-01-01T08:00:59Z</time>
      </trkpt>
      <trkpt lat="46.20858" lon="6.71991">
        <ele>1071</ele>
        <time>2010-01-01T08:01:04Z</time>
      </trkpt>
      <trkpt lat="46.20876" lon="6.71957">
        <ele>1073</ele>
        <time>2010-01-01T08:01:16Z</time>
      </trkpt>
      <trkpt lat="46.20882" lon="6.71947">
        <ele>1074</ele>
        <time>2010-01-01T08:01:20Z</time>
      </trkpt>
      <trkpt lat="46.20885" lon="6.71938">
        <ele>1073</ele>
        <time>2010-01-01T08:01:22Z</time>
      </trkpt>
      <trkpt lat="46.20882" lon="6.71933">
        <ele>1074</ele>
        <time>2010-01-01T08:01:24Z</time>
      </trkpt>
      <trkpt lat="46.20872" lon="6.71842">
        <ele>1076</ele>
        <time>2010-01-01T08:01:49Z</time>
      </trkpt>
      <trkpt lat="46.20868" lon="6.7182">
        <ele>1076</ele>
        <time>2010-01-01T08:01:56Z</time>
      </trkpt>
      <trkpt lat="46.20854" lon="6.71783">
        <ele>1076</ele>
        <time>2010-01-01T08:02:08Z</time>
      </trkpt>
      <trkpt lat="46.20845" lon="6.71733">
        <ele>1076</ele>
        <time>2010-01-01T08:02:22Z</time>
      </trkpt>
      <trkpt lat="46.2084" lon="6.71671">
        <ele>1077</ele>
        <time>2010-01-01T08:02:39Z</time>
      </trkpt>
      <trkpt lat="46.20833" lon="6.71648">
        <ele>1076</ele>
        <time>2010-01-01T08:02:46Z</time>
      </trkpt>
      <trkpt lat="46.20821" lon="6.71628">
        <ele>1076</ele>
        <time>2010-01-01T08:02:53Z</time>
      </trkpt>
      <trkpt lat="46.20786" lon="6.71587">
        <ele>1075</ele>
        <time>2010-01-01T08:03:11Z</time>
      </trkpt>
      <trkpt lat="46.20752" lon="6.71558">
        <ele>1075</ele>
        <time>2010-01-01T08:03:27Z</time>
      </trkpt>
      <trkpt lat="46.20739" lon="6.7155">
        <ele>1074</ele>
        <time>2010-01-01T08:03:33Z</time>
      </trkpt>
      <trkpt lat="46.20733" lon="6.7155">
        <ele>1074</ele>
        <time>2010-01-01T08:03:35Z</time>
      </trkpt>
      <trkpt lat="46.20729" lon="6.71547">
        <ele>1074</ele>
        <time>2010-01-01T08:03:37Z</time>
      </trkpt>
      <trkpt lat="46.2071" lon="6.71534">
        <ele>1073</ele>
        <time>2010-01-01T08:03:45Z</time>
      </trkpt>
      <trkpt lat="46.20706" lon="6.71521">
        <ele>1069</ele>
        <time>2010-01-01T08:03:49Z</time>
      </trkpt>
      <trkpt lat="46.20689" lon="6.71441">
        <ele>1066</ele>
        <time>2010-01-01T08:04:12Z</time>
      </trkpt>
      <trkpt lat="46.20664" lon="6.71381">
        <ele>1065</ele>
        <time>2010-01-01T08:04:32Z</time>
      </trkpt>
      <trkpt lat="46.20656" lon="6.71347">
        <ele>1063</ele>
        <time>2010-01-01T08:04:42Z</time>
      </trkpt>
      <trkpt lat="46.20654" lon="6.71317">
        <ele>1056</ele>
        <time>2010-01-01T08:04:50Z</time>
      </trkpt>
      <trkpt lat="46.20657" lon="6.71303">
        <ele>1054</ele>
        <time>2010-01-01T08:04:54Z</time>
      </trkpt>
      <trkpt lat="46.2066" lon="6.7127">
        <ele>1043</ele>
        <time>2010-01-01T08:05:03Z</time>
      </trkpt>
      <trkpt lat="46.20668" lon="6.71233">
        <ele>1038</ele>
        <time>2010-01-01T08:05:14Z</time>
      </trkpt>
      <trkpt lat="46.20672" lon="6.71189">
        <ele>1036</ele>
        <time>2010-01-01T08:05:26Z</time>
      </trkpt>
      <trkpt lat="46.2067" lon="6.7117">
        <ele>1033</ele>
        <time>2010-01-01T08:05:32Z</time>
      </trkpt>
      <trkpt lat="46.20659" lon="6.71129">
        <ele>1029</ele>
        <time>2010-01-01T08:05:44Z</time>
      </trkpt>
      <trkpt lat="46.20655" lon="6.71105">
        <ele>1027</ele>
        <time>2010-01-01T08:05:51Z</time>
      </trkpt>
      <trkpt lat="46.20655" lon="6.71105">
        <ele>1027</ele>
        <time>2010-01-01T08:05:51Z</time>
      </trkpt>
      <trkpt lat="46.20653" lon="6.71064">
        <ele>1024</ele>
        <time>2010-01-01T08:06:02Z</time>
      </trkpt>
      <trkpt lat="46.20654" lon="6.71064">
        <ele>1022</ele>
        <time>2010-01-01T08:06:03Z</time>
      </trkpt>
      <trkpt lat="46.20657" lon="6.71073">
        <ele>1017</ele>
        <time>2010-01-01T08:06:06Z</time>
      </trkpt>
      <trkpt lat="46.20657" lon="6.71075">
        <ele>1016</ele>
        <time>2010-01-01T08:06:06Z</time>
      </trkpt>
      <trkpt lat="46.20653" lon="6.71081">
        <ele>1013</ele>
        <time>2010-01-01T08:06:08Z</time>
      </trkpt>
      <trkpt lat="46.20642" lon="6.7108">
        <ele>1012</ele>
        <time>2010-01-01T08:06:13Z</time>
      </trkpt>
      <trkpt lat="46.20613" lon="6.71074">
        <ele>1009</ele>
        <time>2010-01-01T08:06:24Z</time>
      </trkpt>
      <trkpt lat="46.20595" lon="6.71055">
        <ele>1008</ele>
        <time>2010-01-01T08:06:33Z</time>
      </trkpt>
      <trkpt lat="46.20568" lon="6.71014">
        <ele>1006</ele>
        <time>2010-01-01T08:06:49Z</time>
      </trkpt>
      <trkpt lat="46.20539" lon="6.70955">
        <ele>1002</ele>
        <time>2010-01-01T08:07:09Z</time>
      </trkpt>
      <trkpt lat="46.20521" lon="6.70899">
        <ele>1001</ele>
        <time>2010-01-01T08:07:26Z</time>
      </trkpt>
      <trkpt lat="46.20487" lon="6.70824">
        <ele>997</ele>
        <time>2010-01-01T08:07:51Z</time>
      </trkpt>
      <trkpt lat="46.20477" lon="6.70805">
        <ele>995</ele>
        <time>2010-01-01T08:07:58Z</time>
      </trkpt>
      <trkpt lat="46.20465" lon="6.70788">
        <ele>994</ele>
        <time>2010-01-01T08:08:04Z</time>
      </trkpt>
      <trkpt lat="46.20457" lon="6.70769">
        <ele>992</ele>
        <time>2010-01-01T08:08:11Z</time>
      </trkpt>
      <trkpt lat="46.20454" lon="6.70759">
        <ele>992</ele>
        <time>2010-01-01T08:08:14Z</time>
      </trkpt>
      <trkpt lat="46.2045" lon="6.70728">
        <ele>990</ele>
        <time>2010-01-01T08:08:23Z</time>
      </trkpt>
      <trkpt lat="46.20447" lon="6.70717">
        <ele>990</ele>
        <time>2010-01-01T08:08:26Z</time>
      </trkpt>
      <trkpt lat="46.2043" lon="6.70675">
        <ele>988</ele>
        <time>2010-01-01T08:08:39Z</time>
      </trkpt>
      <trkpt lat="46.20423" lon="6.70653">
        <ele>987</ele>
        <time>2010-01-01T08:08:46Z</time>
      </trkpt>
      <trkpt lat="46.20419" lon="6.70598">
        <ele>985</ele>
        <time>2010-01-01T08:09:01Z</time>
      </trkpt>
      <trkpt lat="46.20416" lon="6.70584">
        <ele>984</ele>
        <time>2010-01-01T08:09:05Z</time>
      </trkpt>
      <trkpt lat="46.20403" lon="6.70547">
        <ele>982</ele>
        <time>2010-01-01T08:09:17Z</time>
      </trkpt>
      <trkpt lat="46.20401" lon="6.70535">
        <ele>982</ele>
        <time>2010-01-01T08:09:20Z</time>
      </trkpt>
      <trkpt lat="46.20399" lon="6.70497">
        <ele>978</ele>
        <time>2010-01-01T08:09:31Z</time>
      </trkpt>
      <trkpt lat="46.20391" lon="6.70461">
        <ele>976</ele>
        <time>2010-01-01T08:09:41Z</time>
      </trkpt>
      <trkpt lat="46.20378" lon="6.70427">
        <ele>974</ele>
        <time>2010-01-01T08:09:52Z</time>
      </trkpt>
      <trkpt lat="46.20366" lon="6.70408">
        <ele>972</ele>
        <time>2010-01-01T08:09:59Z</time>
      </trkpt>
      <trkpt lat="46.20355" lon="6.70386">
        <ele>970</ele>
        <time>2010-01-01T08:10:06Z</time>
      </trkpt>
      <trkpt lat="46.2035" lon="6.70374">
        <ele>970</ele>
        <time>2010-01-01T08:10:10Z</time>
      </trkpt>
      <trkpt lat="46.20347" lon="6.70362">
        <ele>969</ele>
        <time>2010-01-01T08:10:14Z</time>
      </trkpt>
      <trkpt lat="46.2034" lon="6.70313">
        <ele>967</ele>
        <time>2010-01-01T08:10:28Z</time>
      </trkpt>
      <trkpt lat="46.20325" lon="6.70269">
        <ele>965</ele>
        <time>2010-01-01T08:10:41Z</time>
      </trkpt>
      <trkpt lat="46.20322" lon="6.70248">
        <ele>964</ele>
        <time>2010-01-01T08:10:47Z</time>
      </trkpt>
      <trkpt lat="46.20332" lon="6.7021">
        <ele>961</ele>
        <time>2010-01-01T08:10:59Z</time>
      </trkpt>
      <trkpt lat="46.20334" lon="6.70199">
        <ele>961</ele>
        <time>2010-01-01T08:11:02Z</time>
      </trkpt>
      <trkpt lat="46.20332" lon="6.70188">
        <ele>961</ele>
        <time>2010-01-01T08:11:05Z</time>
      </trkpt>
      <trkpt lat="46.20327" lon="6.70179">
        <ele>961</ele>
        <time>2010-01-01T08:11:08Z</time>
      </trkpt>
      <trkpt lat="46.20322" lon="6.7016">
        <ele>961</ele>
        <time>2010-01-01T08:11:14Z</time>
      </trkpt>
      <trkpt lat="46.20297" lon="6.70123">
        <ele>954</ele>
        <time>2010-01-01T08:11:28Z</time>
      </trkpt>
      <trkpt lat="46.20287" lon="6.70105">
        <ele>953</ele>
        <time>2010-01-01T08:11:34Z</time>
      </trkpt>
      <trkpt lat="46.20271" lon="6.70062">
        <ele>951</ele>
        <time>2010-01-01T08:11:48Z</time>
      </trkpt>
      <trkpt lat="46.20271" lon="6.70062">
        <ele>951</ele>
        <time>2010-01-01T08:11:48Z</time>
      </trkpt>
      <trkpt lat="46.20265" lon="6.70039">
        <ele>950</ele>
        <time>2010-01-01T08:11:55Z</time>
      </trkpt>
      <trkpt lat="46.20263" lon="6.70002">
        <ele>948</ele>
        <time>2010-01-01T08:12:05Z</time>
      </trkpt>
      <trkpt lat="46.20259" lon="6.69977">
        <ele>947</ele>
        <time>2010-01-01T08:12:12Z</time>
      </trkpt>
      <trkpt lat="46.20235" lon="6.69886">
        <ele>947</ele>
        <time>2010-01-01T08:12:39Z</time>
      </trkpt>
      <trkpt lat="46.20221" lon="6.69848">
        <ele>947</ele>
        <time>2010-01-01T08:12:51Z</time>
      </trkpt>
      <trkpt lat="46.20214" lon="6.69822">
        <ele>946</ele>
        <time>2010-01-01T08:12:59Z</time>
      </trkpt>
      <trkpt lat="46.20214" lon="6.69795">
        <ele>946</ele>
        <time>2010-01-01T08:13:06Z</time>
      </trkpt>
      <trkpt lat="46.20219" lon="6.69755">
        <ele>943</ele>
        <time>2010-01-01T08:13:17Z</time>
      </trkpt>
      <trkpt lat="46.2022" lon="6.69742">
        <ele>942</ele>
        <time>2010-01-01T08:13:21Z</time>
      </trkpt>
      <trkpt lat="46.20216" lon="6.69717">
        <ele>939</ele>
        <time>2010-01-01T08:13:28Z</time>
      </trkpt>
      <trkpt lat="46.20197" lon="6.69655">
        <ele>935</ele>
        <time>2010-01-01T08:13:47Z</time>
      </trkpt>
      <trkpt lat="46.20187" lon="6.69616">
        <ele>934</ele>
        <time>2010-01-01T08:13:58Z</time>
      </trkpt>
      <trkpt lat="46.20172" lon="6.69566">
        <ele>933</ele>
        <time>2010-01-01T08:14:14Z</time>
      </trkpt>
      <trkpt lat="46.20161" lon="6.69512">
        <ele>932</ele>
        <time>2010-01-01T08:14:29Z</time>
      </trkpt>
      <trkpt lat="46.20155" lon="6.69458">
        <ele>930</ele>
        <time>2010-01-01T08:14:44Z</time>
      </trkpt>
      <trkpt lat="46.2015" lon="6.69434">
        <ele>929</ele>
        <time>2010-01-01T08:14:51Z</time>
      </trkpt>
      <trkpt lat="46.20141" lon="6.69411">
        <ele>928</ele>
        <time>2010-01-01T08:14:58Z</time>
      </trkpt>
      <trkpt lat="46.20129" lon="6.69393">
        <ele>927</ele>
        <time>2010-01-01T08:15:05Z</time>
      </trkpt>
      <trkpt lat="46.20094" lon="6.69356">
        <ele>925</ele>
        <time>2010-01-01T08:15:23Z</time>
      </trkpt>
      <trkpt lat="46.20083" lon="6.69339">
        <ele>924</ele>
        <time>2010-01-01T08:15:29Z</time>
      </trkpt>
      <trkpt lat="46.20061" lon="6.6928">
        <ele>924</ele>
        <time>2010-01-01T08:15:48Z</time>
      </trkpt>
      <trkpt lat="46.20049" lon="6.69236">
        <ele>924</ele>
        <time>2010-01-01T08:16:01Z</time>
      </trkpt>
      <trkpt lat="46.20042" lon="6.69162">
        <ele>919</ele>
        <time>2010-01-01T08:16:22Z</time>
      </trkpt>
      <trkpt lat="46.20035" lon="6.69114">
        <ele>918</ele>
        <time>2010-01-01T08:16:35Z</time>
      </trkpt>
      <trkpt lat="46.20022" lon="6.69042">
        <ele>916</ele>
        <time>2010-01-01T08:16:56Z</time>
      </trkpt>
      <trkpt lat="46.20008" lon="6.68978">
        <ele>915</ele>
        <time>2010-01-01T08:17:15Z</time>
      </trkpt>
      <trkpt lat="46.20003" lon="6.68948">
        <ele>915</ele>
        <time>2010-01-01T08:17:23Z</time>
      </trkpt>
      <trkpt lat="46.20003" lon="6.68945">
        <ele>915</ele>
        <time>2010-01-01T08:17:24Z</time>
      </trkpt>
      <trkpt lat="46.20005" lon="6.68944">
        <ele>912</ele>
        <time>2010-01-01T08:17:24Z</time>
      </trkpt>
      <trkpt lat="46.20003" lon="6.68936">
        <ele>912</ele>
        <time>2010-01-01T08:17:27Z</time>
      </trkpt>
      <trkpt lat="46.2002" lon="6.68886">
        <ele>907</ele>
        <time>2010-01-01T08:17:42Z</time>
      </trkpt>
      <trkpt lat="46.2002" lon="6.68886">
        <ele>907</ele>
        <time>2010-01-01T08:17:42Z</time>
      </trkpt>
      <trkpt lat="46.20021" lon="6.68877">
        <ele>906</ele>
        <time>2010-01-01T08:17:45Z</time>
      </trkpt>
      <trkpt lat="46.20018" lon="6.68873">
        <ele>905</ele>
        <time>2010-01-01T08:17:46Z</time>
      </trkpt>
      <trkpt lat="46.20014" lon="6.68872">
        <ele>905</ele>
        <time>2010-01-01T08:17:48Z</time>
      </trkpt>
      <trkpt lat="46.19996" lon="6.6887">
        <ele>903</ele>
        <time>2010-01-01T08:17:55Z</time>
      </trkpt>
      <trkpt lat="46.19981" lon="6.68877">
        <ele>902</ele>
        <time>2010-01-01T08:18:01Z</time>
      </trkpt>
      <trkpt lat="46.19936" lon="6.68908">
        <ele>902</ele>
        <time>2010-01-01T08:18:21Z</time>
      </trkpt>
      <trkpt lat="46.1993" lon="6.6891">
        <ele>902</ele>
        <time>2010-01-01T08:18:24Z</time>
      </trkpt>
      <trkpt lat="46.19925" lon="6.68908">
        <ele>901</ele>
        <time>2010-01-01T08:18:26Z</time>
      </trkpt>
      <trkpt lat="46.1992" lon="6.68904">
        <ele>901</ele>
        <time>2010-01-01T08:18:28Z</time>
      </trkpt>
      <trkpt lat="46.19917" lon="6.68898">
        <ele>901</ele>
        <time>2010-01-01T08:18:30Z</time>
      </trkpt>
      <trkpt lat="46.199" lon="6.68846">
        <ele>901</ele>
        <time>2010-01-01T08:18:46Z</time>
      </trkpt>
      <trkpt lat="46.19897" lon="6.68839">
        <ele>901</ele>
        <time>2010-01-01T08:18:48Z</time>
      </trkpt>
      <trkpt lat="46.19892" lon="6.68834">
        <ele>901</ele>
        <time>2010-01-01T08:18:51Z</time>
      </trkpt>
      <trkpt lat="46.19875" lon="6.68828">
        <ele>901</ele>
        <time>2010-01-01T08:18:57Z</time>
      </trkpt>
      <trkpt lat="46.19839" lon="6.68818">
        <ele>900</ele>
        <time>2010-01-01T08:19:12Z</time>
      </trkpt>
      <trkpt lat="46.19834" lon="6.68814">
        <ele>900</ele>
        <time>2010-01-01T08:19:15Z</time>
      </trkpt>
      <trkpt lat="46.19824" lon="6.68796">
        <ele>899</ele>
        <time>2010-01-01T08:19:21Z</time>
      </trkpt>
      <trkpt lat="46.19816" lon="6.68791">
        <ele>899</ele>
        <time>2010-01-01T08:19:24Z</time>
      </trkpt>
      <trkpt lat="46.19812" lon="6.68792">
        <ele>899</ele>
        <time>2010-01-01T08:19:26Z</time>
      </trkpt>
      <trkpt lat="46.19777" lon="6.68828">
        <ele>897</ele>
        <time>2010-01-01T08:19:43Z</time>
      </trkpt>
      <trkpt lat="46.19738" lon="6.68882">
        <ele>895</ele>
        <time>2010-01-01T08:20:05Z</time>
      </trkpt>
      <trkpt lat="46.19701" lon="6.68912">
        <ele>895</ele>
        <time>2010-01-01T08:20:22Z</time>
      </trkpt>
      <trkpt lat="46.1967" lon="6.68931">
        <ele>893</ele>
        <time>2010-01-01T08:20:35Z</time>
      </trkpt>
      <trkpt lat="46.19636" lon="6.68958">
        <ele>893</ele>
        <time>2010-01-01T08:20:51Z</time>
      </trkpt>
      <trkpt lat="46.19617" lon="6.68977">
        <ele>893</ele>
        <time>2010-01-01T08:21:00Z</time>
      </trkpt>
      <trkpt lat="46.19612" lon="6.68984">
        <ele>893</ele>
        <time>2010-01-01T08:21:03Z</time>
      </trkpt>
      <trkpt lat="46.19607" lon="6.69001">
        <ele>893</ele>
        <time>2010-01-01T08:21:08Z</time>
      </trkpt>
      <trkpt lat="46.19602" lon="6.69013">
        <ele>893</ele>
        <time>2010-01-01T08:21:12Z</time>
      </trkpt>
      <trkpt lat="46.19581" lon="6.69044">
        <ele>892</ele>
        <time>2010-01-01T08:21:24Z</time>
      </trkpt>
      <trkpt lat="46.19566" lon="6.69052">
        <ele>893</ele>
        <time>2010-01-01T08:21:30Z</time>
      </trkpt>
      <trkpt lat="46.19558" lon="6.69051">
        <ele>894</ele>
        <time>2010-01-01T08:21:34Z</time>
      </trkpt>
      <trkpt lat="46.19551" lon="6.69053">
        <ele>895</ele>
        <time>2010-01-01T08:21:36Z</time>
      </trkpt>
      <trkpt lat="46.1953" lon="6.69073">
        <ele>895</ele>
        <time>2010-01-01T08:21:47Z</time>
      </trkpt>
      <trkpt lat="46.19523" lon="6.69087">
        <ele>895</ele>
        <time>2010-01-01T08:21:51Z</time>
      </trkpt>
      <trkpt lat="46.19512" lon="6.69124">
        <ele>895</ele>
        <time>2010-01-01T08:22:03Z</time>
      </trkpt>
      <trkpt lat="46.195" lon="6.69145">
        <ele>894</ele>
        <time>2010-01-01T08:22:10Z</time>
      </trkpt>
      <trkpt lat="46.1947" lon="6.69214">
        <ele>898</ele>
        <time>2010-01-01T08:22:33Z</time>
      </trkpt>
      <trkpt lat="46.1944" lon="6.69252">
        <ele>899</ele>
        <time>2010-01-01T08:22:49Z</time>
      </trkpt>
      <trkpt lat="46.19408" lon="6.69277">
        <ele>900</ele>
        <time>2010-01-01T08:23:03Z</time>
      </trkpt>
      <trkpt lat="46.19389" lon="6.6929">
        <ele>900</ele>
        <time>2010-01-01T08:23:11Z</time>
      </trkpt>
      <trkpt lat="46.19382" lon="6.69296">
        <ele>900</ele>
        <time>2010-01-01T08:23:15Z</time>
      </trkpt>
      <trkpt lat="46.19361" lon="6.69356">
        <ele>902</ele>
        <time>2010-01-01T08:23:33Z</time>
      </trkpt>
      <trkpt lat="46.19355" lon="6.69382">
        <ele>903</ele>
        <time>2010-01-01T08:23:41Z</time>
      </trkpt>
      <trkpt lat="46.19355" lon="6.69382">
        <ele>903</ele>
        <time>2010-01-01T08:23:41Z</time>
      </trkpt>
      <trkpt lat="46.19346" lon="6.69416">
        <ele>905</ele>
        <time>2010-01-01T08:23:51Z</time>
      </trkpt>
      <trkpt lat="46.19332" lon="6.69448">
        <ele>905</ele>
        <time>2010-01-01T08:24:02Z</time>
      </trkpt>
      <trkpt lat="46.19315" lon="6.69468">
        <ele>905</ele>
        <time>2010-01-01T08:24:10Z</time>
      </trkpt>
      <trkpt lat="46.19305" lon="6.69485">
        <ele>905</ele>
        <time>2010-01-01T08:24:17Z</time>
      </trkpt>
      <trkpt lat="46.193" lon="6.6949">
        <ele>905</ele>
        <time>2010-01-01T08:24:19Z</time>
      </trkpt>
      <trkpt lat="46.19265" lon="6.69511">
        <ele>907</ele>
        <time>2010-01-01T08:24:34Z</time>
      </trkpt>
      <trkpt lat="46.19243" lon="6.69537">
        <ele>909</ele>
        <time>2010-01-01T08:24:45Z</time>
      </trkpt>
      <trkpt lat="46.19228" lon="6.69548">
        <ele>910</ele>
        <time>2010-01-01T08:24:52Z</time>
      </trkpt>
      <trkpt lat="46.19205" lon="6.69556">
        <ele>915</ele>
        <time>2010-01-01T08:25:02Z</time>
      </trkpt>
      <trkpt lat="46.19191" lon="6.69566">
        <ele>917</ele>
        <time>2010-01-01T08:25:08Z</time>
      </trkpt>
      <trkpt lat="46.19169" lon="6.6957">
        <ele>919</ele>
        <time>2010-01-01T08:25:17Z</time>
      </trkpt>
      <trkpt lat="46.19146" lon="6.69568">
        <ele>922</ele>
        <time>2010-01-01T08:25:26Z</time>
      </trkpt>
      <trkpt lat="46.19141" lon="6.69571">
        <ele>921</ele>
        <time>2010-01-01T08:25:28Z</time>
      </trkpt>
      <trkpt lat="46.19134" lon="6.69585">
        <ele>920</ele>
        <time>2010-01-01T08:25:33Z</time>
      </trkpt>
      <trkpt lat="46.19125" lon="6.69619">
        <ele>919</ele>
        <time>2010-01-01T08:25:43Z</time>
      </trkpt>
      <trkpt lat="46.19117" lon="6.69645">
        <ele>914</ele>
        <time>2010-01-01T08:25:51Z</time>
      </trkpt>
      <trkpt lat="46.19112" lon="6.69655">
        <ele>912</ele>
        <time>2010-01-01T08:25:54Z</time>
      </trkpt>
      <trkpt lat="46.19093" lon="6.69665">
        <ele>913</ele>
        <time>2010-01-01T08:26:03Z</time>
      </trkpt>
      <trkpt lat="46.19085" lon="6.69673">
        <ele>915</ele>
        <time>2010-01-01T08:26:06Z</time>
      </trkpt>
      <trkpt lat="46.19069" lon="6.69683">
        <ele>917</ele>
        <time>2010-01-01T08:26:13Z</time>
      </trkpt>
      <trkpt lat="46.19045" lon="6.69698">
        <ele>920</ele>
        <time>2010-01-01T08:26:24Z</time>
      </trkpt>
      <trkpt lat="46.19037" lon="6.69702">
        <ele>920</ele>
        <time>2010-01-01T08:26:27Z</time>
      </trkpt>
      <trkpt lat="46.19015" lon="6.6971">
        <ele>921</ele>
        <time>2010-01-01T08:26:36Z</time>
      </trkpt>
      <trkpt lat="46.1899" lon="6.69714">
        <ele>923</ele>
        <time>2010-01-01T08:26:46Z</time>
      </trkpt>
      <trkpt lat="46.18978" lon="6.69713">
        <ele>925</ele>
        <time>2010-01-01T08:26:51Z</time>
      </trkpt>
      <trkpt lat="46.18974" lon="6.69715">
        <ele>925</ele>
        <time>2010-01-01T08:26:53Z</time>
      </trkpt>
      <trkpt lat="46.18967" lon="6.69719">
        <ele>925</ele>
        <time>2010-01-01T08:26:56Z</time>
      </trkpt>
      <trkpt lat="46.18952" lon="6.69735">
        <ele>926</ele>
        <time>2010-01-01T08:27:03Z</time>
      </trkpt>
      <trkpt lat="46.18936" lon="6.69747">
        <ele>925</ele>
        <time>2010-01-01T08:27:10Z</time>
      </trkpt>
      <trkpt lat="46.18922" lon="6.69761">
        <ele>925</ele>
        <time>2010-01-01T08:27:17Z</time>
      </trkpt>
      <trkpt lat="46.18901" lon="6.69776">
        <ele>925</ele>
        <time>2010-01-01T08:27:26Z</time>
      </trkpt>
      <trkpt lat="46.18846" lon="6.698">
        <ele>925</ele>
        <time>2010-01-01T08:27:49Z</time>
      </trkpt>
      <trkpt lat="46.18809" lon="6.69814">
        <ele>929</ele>
        <time>2010-01-01T08:28:05Z</time>
      </trkpt>
      <trkpt lat="46.18789" lon="6.69828">
        <ele>931</ele>
        <time>2010-01-01T08:28:14Z</time>
      </trkpt>
      <trkpt lat="46.18773" lon="6.69847">
        <ele>931</ele>
        <time>2010-01-01T08:28:22Z</time>
      </trkpt>
      <trkpt lat="46.18751" lon="6.69867">
        <ele>929</ele>
        <time>2010-01-01T08:28:33Z</time>
      </trkpt>
      <trkpt lat="46.1874" lon="6.69883">
        <ele>928</ele>
        <time>2010-01-01T08:28:39Z</time>
      </trkpt>
      <trkpt lat="46.18737" lon="6.69897">
        <ele>929</ele>
        <time>2010-01-01T08:28:43Z</time>
      </trkpt>
      <trkpt lat="46.18747" lon="6.69952">
        <ele>928</ele>
        <time>2010-01-01T08:28:58Z</time>
      </trkpt>
      <trkpt lat="46.18746" lon="6.69963">
        <ele>928</ele>
        <time>2010-01-01T08:29:02Z</time>
      </trkpt>
      <trkpt lat="46.18727" lon="6.70021">
        <ele>928</ele>
        <time>2010-01-01T08:29:19Z</time>
      </trkpt>
      <trkpt lat="46.18713" lon="6.70052">
        <ele>928</ele>
        <time>2010-01-01T08:29:29Z</time>
      </trkpt>
      <trkpt lat="46.18707" lon="6.70062">
        <ele>929</ele>
        <time>2010-01-01T08:29:33Z</time>
      </trkpt>
      <trkpt lat="46.18702" lon="6.70074">
        <ele>931</ele>
        <time>2010-01-01T08:29:37Z</time>
      </trkpt>
      <trkpt lat="46.18702" lon="6.70074">
        <ele>931</ele>
        <time>2010-01-01T08:29:37Z</time>
      </trkpt>
      <trkpt lat="46.18697" lon="6.70086">
        <ele>931</ele>
        <time>2010-01-01T08:29:41Z</time>
      </trkpt>
      <trkpt lat="46.18689" lon="6.70113">
        <ele>932</ele>
        <time>2010-01-01T08:29:49Z</time>
      </trkpt>
      <trkpt lat="46.18651" lon="6.70159">
        <ele>933</ele>
        <time>2010-01-01T08:30:09Z</time>
      </trkpt>
      <trkpt lat="46.18633" lon="6.70175">
        <ele>933</ele>
        <time>2010-01-01T08:30:17Z</time>
      </trkpt>
      <trkpt lat="46.18589" lon="6.70198">
        <ele>934</ele>
        <time>2010-01-01T08:30:36Z</time>
      </trkpt>
      <trkpt lat="46.18556" lon="6.70237">
        <ele>934</ele>
        <time>2010-01-01T08:30:53Z</time>
      </trkpt>
      <trkpt lat="46.18537" lon="6.70253">
        <ele>933</ele>
        <time>2010-01-01T08:31:02Z</time>
      </trkpt>
      <trkpt lat="46.18527" lon="6.70262">
        <ele>934</ele>
        <time>2010-01-01T08:31:07Z</time>
      </trkpt>
      <trkpt lat="46.18505" lon="6.70295">
        <ele>935</ele>
        <time>2010-01-01T08:31:19Z</time>
      </trkpt>
      <trkpt lat="46.18493" lon="6.70318">
        <ele>937</ele>
        <time>2010-01-01T08:31:27Z</time>
      </trkpt>
      <trkpt lat="46.18474" lon="6.70347">
        <ele>938</ele>
        <time>2010-01-01T08:31:38Z</time>
      </trkpt>
      <trkpt lat="46.18461" lon="6.70365">
        <ele>939</ele>
        <time>2010-01-01T08:31:46Z</time>
      </trkpt>
      <trkpt lat="46.18425" lon="6.70408">
        <ele>941</ele>
        <time>2010-01-01T08:32:04Z</time>
      </trkpt>
      <trkpt lat="46.18413" lon="6.70424">
        <ele>942</ele>
        <time>2010-01-01T08:32:11Z</time>
      </trkpt>
      <trkpt lat="46.18402" lon="6.70431">
        <ele>943</ele>
        <time>2010-01-01T08:32:16Z</time>
      </trkpt>
      <trkpt lat="46.18391" lon="6.70442">
        <ele>944</ele>
        <time>2010-01-01T08:32:21Z</time>
      </trkpt>
      <trkpt lat="46.18367" lon="6.7047">
        <ele>947</ele>
        <time>2010-01-01T08:32:33Z</time>
      </trkpt>
      <trkpt lat="46.18358" lon="6.70487">
        <ele>948</ele>
        <time>2010-01-01T08:32:39Z</time>
      </trkpt>
      <trkpt lat="46.18355" lon="6.705">
        <ele>949</ele>
        <time>2010-01-01T08:32:43Z</time>
      </trkpt>
      <trkpt lat="46.18342" lon="6.70524">
        <ele>951</ele>
        <time>2010-01-01T08:32:52Z</time>
      </trkpt>
      <trkpt lat="46.1831" lon="6.70561">
        <ele>952</ele>
        <time>2010-01-01T08:33:08Z</time>
      </trkpt>
      <trkpt lat="46.18289" lon="6.7058">
        <ele>953</ele>
        <time>2010-01-01T08:33:18Z</time>
      </trkpt>
      <trkpt lat="46.18266" lon="6.70597">
        <ele>955</ele>
        <time>2010-01-01T08:33:28Z</time>
      </trkpt>
      <trkpt lat="46.18233" lon="6.70619">
        <ele>957</ele>
        <time>2010-01-01T08:33:43Z</time>
      </trkpt>
      <trkpt lat="46.18208" lon="6.70632">
        <ele>959</ele>
        <time>2010-01-01T08:33:53Z</time>
      </trkpt>
      <trkpt lat="46.18193" lon="6.70642">
        <ele>961</ele>
        <time>2010-01-01T08:34:00Z</time>
      </trkpt>
      <trkpt lat="46.1817" lon="6.70661">
        <ele>963</ele>
        <time>2010-01-01T08:34:11Z</time>
      </trkpt>
      <trkpt lat="46.18141" lon="6.7069">
        <ele>966</ele>
        <time>2010-01-01T08:34:25Z</time>
      </trkpt>
      <trkpt lat="46.18124" lon="6.70715">
        <ele>966</ele>
        <time>2010-01-01T08:34:35Z</time>
      </trkpt>
      <trkpt lat="46.18103" lon="6.70737">
        <ele>967</ele>
        <time>2010-01-01T08:34:45Z</time>
      </trkpt>
      <trkpt lat="46.18087" lon="6.70751">
        <ele>968</ele>
        <time>2010-01-01T08:34:52Z</time>
      </trkpt>
      <trkpt lat="46.18064" lon="6.70765">
        <ele>969</ele>
        <time>2010-01-01T08:35:02Z</time>
      </trkpt>
      <trkpt lat="46.1803" lon="6.70782">
        <ele>969</ele>
        <time>2010-01-01T08:35:17Z</time>
      </trkpt>
      <trkpt lat="46.17991" lon="6.70817">
        <ele>971</ele>
        <time>2010-01-01T08:35:35Z</time>
      </trkpt>
      <trkpt lat="46.17991" lon="6.70817">
        <ele>971</ele>
        <time>2010-01-01T08:35:35Z</time>
      </trkpt>
      <trkpt lat="46.17978" lon="6.70827">
        <ele>972</ele>
        <time>2010-01-01T08:35:41Z</time>
      </trkpt>
      <trkpt lat="46.17955" lon="6.70853">
        <ele>972</ele>
        <time>2010-01-01T08:35:53Z</time>
      </trkpt>
      <trkpt lat="46.17936" lon="6.70858">
        <ele>974</ele>
        <time>2010-01-01T08:36:00Z</time>
      </trkpt>
      <trkpt lat="46.17914" lon="6.70861">
        <ele>973</ele>
        <time>2010-01-01T08:36:09Z</time>
      </trkpt>
      <trkpt lat="46.17886" lon="6.70868">
        <ele>974</ele>
        <time>2010-01-01T08:36:20Z</time>
      </trkpt>
      <trkpt lat="46.17868" lon="6.70888">
        <ele>973</ele>
        <time>2010-01-01T08:36:30Z</time>
      </trkpt>
      <trkpt lat="46.17849" lon="6.70895">
        <ele>975</ele>
        <time>2010-01-01T08:36:38Z</time>
      </trkpt>
      <trkpt lat="46.17803" lon="6.70905">
        <ele>976</ele>
        <time>2010-01-01T08:36:56Z</time>
      </trkpt>
      <trkpt lat="46.17781" lon="6.70907">
        <ele>976</ele>
        <time>2010-01-01T08:37:05Z</time>
      </trkpt>
      <trkpt lat="46.17763" lon="6.70903">
        <ele>976</ele>
        <time>2010-01-01T08:37:12Z</time>
      </trkpt>
      <trkpt lat="46.17719" lon="6.70887">
        <ele>977</ele>
        <time>2010-01-01T08:37:31Z</time>
      </trkpt>
      <trkpt lat="46.17713" lon="6.70887">
        <ele>977</ele>
        <time>2010-01-01T08:37:33Z</time>
      </trkpt>
      <trkpt lat="46.17702" lon="6.7089">
        <ele>978</ele>
        <time>2010-01-01T08:37:37Z</time>
      </trkpt>
      <trkpt lat="46.17693" lon="6.70897">
        <ele>978</ele>
        <time>2010-01-01T08:37:42Z</time>
      </trkpt>
      <trkpt lat="46.17684" lon="6.70909">
        <ele>978</ele>
        <time>2010-01-01T08:37:46Z</time>
      </trkpt>
      <trkpt lat="46.17661" lon="6.7095">
        <ele>978</ele>
        <time>2010-01-01T08:38:01Z</time>
      </trkpt>
      <trkpt lat="46.17652" lon="6.70973">
        <ele>979</ele>
        <time>2010-01-01T08:38:08Z</time>
      </trkpt>
      <trkpt lat="46.17627" lon="6.71013">
        <ele>982</ele>
        <time>2010-01-01T08:38:23Z</time>
      </trkpt>
      <trkpt lat="46.1762" lon="6.71021">
        <ele>983</ele>
        <time>2010-01-01T08:38:27Z</time>
      </trkpt>
      <trkpt lat="46.17611" lon="6.71026">
        <ele>984</ele>
        <time>2010-01-01T08:38:31Z</time>
      </trkpt>
      <trkpt lat="46.17597" lon="6.71029">
        <ele>984</ele>
        <time>2010-01-01T08:38:36Z</time>
      </trkpt>
      <trkpt lat="46.17589" lon="6.71024">
        <ele>985</ele>
        <time>2010-01-01T08:38:40Z</time>
      </trkpt>
      <trkpt lat="46.17578" lon="6.71011">
        <ele>985</ele>
        <time>2010-01-01T08:38:46Z</time>
      </trkpt>
      <trkpt lat="46.17574" lon="6.71003">
        <ele>986</ele>
        <time>2010-01-01T08:38:48Z</time>
      </trkpt>
      <trkpt lat="46.17569" lon="6.70955">
        <ele>986</ele>
        <time>2010-01-01T08:39:02Z</time>
      </trkpt>
      <trkpt lat="46.17568" lon="6.7094">
        <ele>986</ele>
        <time>2010-01-01T08:39:06Z</time>
      </trkpt>
      <trkpt lat="46.1757" lon="6.70922">
        <ele>986</ele>
        <time>2010-01-01T08:39:11Z</time>
      </trkpt>
      <trkpt lat="46.17579" lon="6.70903">
        <ele>987</ele>
        <time>2010-01-01T08:39:17Z</time>
      </trkpt>
      <trkpt lat="46.17596" lon="6.70876">
        <ele>988</ele>
        <time>2010-01-01T08:39:27Z</time>
      </trkpt>
      <trkpt lat="46.17618" lon="6.70846">
        <ele>990</ele>
        <time>2010-01-01T08:39:39Z</time>
      </trkpt>
      <trkpt lat="46.17634" lon="6.7083">
        <ele>990</ele>
        <time>2010-01-01T08:39:47Z</time>
      </trkpt>
      <trkpt lat="46.17661" lon="6.70809">
        <ele>991</ele>
        <time>2010-01-01T08:39:59Z</time>
      </trkpt>
      <trkpt lat="46.17678" lon="6.70789">
        <ele>992</ele>
        <time>2010-01-01T08:40:08Z</time>
      </trkpt>
      <trkpt lat="46.17693" lon="6.70764">
        <ele>993</ele>
        <time>2010-01-01T08:40:18Z</time>
      </trkpt>
      <trkpt lat="46.17706" lon="6.70737">
        <ele>994</ele>
        <time>2010-01-01T08:40:27Z</time>
      </trkpt>
      <trkpt lat="46.17738" lon="6.70685">
        <ele>997</ele>
        <time>2010-01-01T08:40:46Z</time>
      </trkpt>
      <trkpt lat="46.17745" lon="6.70678">
        <ele>998</ele>
        <time>2010-01-01T08:40:49Z</time>
      </trkpt>
      <trkpt lat="46.17754" lon="6.70672">
        <ele>998</ele>
        <time>2010-01-01T08:40:53Z</time>
      </trkpt>
      <trkpt lat="46.17761" lon="6.70663">
        <ele>998</ele>
        <time>2010-01-01T08:40:57Z</time>
      </trkpt>
      <trkpt lat="46.17782" lon="6.70622">
        <ele>997</ele>
        <time>2010-01-01T08:41:11Z</time>
      </trkpt>
      <trkpt lat="46.17803" lon="6.70591">
        <ele>996</ele>
        <time>2010-01-01T08:41:23Z</time>
      </trkpt>
      <trkpt lat="46.17819" lon="6.70564">
        <ele>996</ele>
        <time>2010-01-01T08:41:33Z</time>
      </trkpt>
      <trkpt lat="46.17819" lon="6.70564">
        <ele>996</ele>
        <time>2010-01-01T08:41:33Z</time>
      </trkpt>
      <trkpt lat="46.17842" lon="6.70527">
        <ele>997</ele>
        <time>2010-01-01T08:41:47Z</time>
      </trkpt>
      <trkpt lat="46.17864" lon="6.70497">
        <ele>997</ele>
        <time>2010-01-01T08:41:59Z</time>
      </trkpt>
      <trkpt lat="46.17875" lon="6.70477">
        <ele>997</ele>
        <time>2010-01-01T08:42:06Z</time>
      </trkpt>
      <trkpt lat="46.17926" lon="6.70402">
        <ele>998</ele>
        <time>2010-01-01T08:42:35Z</time>
      </trkpt>
      <trkpt lat="46.17945" lon="6.70381">
        <ele>998</ele>
        <time>2010-01-01T08:42:45Z</time>
      </trkpt>
      <trkpt lat="46.17984" lon="6.70321">
        <ele>999</ele>
        <time>2010-01-01T08:43:08Z</time>
      </trkpt>
      <trkpt lat="46.1801" lon="6.70274">
        <ele>999</ele>
        <time>2010-01-01T08:43:24Z</time>
      </trkpt>
      <trkpt lat="46.18048" lon="6.70216">
        <ele>996</ele>
        <time>2010-01-01T08:43:46Z</time>
      </trkpt>
      <trkpt lat="46.18049" lon="6.70203">
        <ele>996</ele>
        <time>2010-01-01T08:43:50Z</time>
      </trkpt>
      <trkpt lat="46.18046" lon="6.70198">
        <ele>996</ele>
        <time>2010-01-01T08:43:52Z</time>
      </trkpt>
      <trkpt lat="46.18029" lon="6.70181">
        <ele>996</ele>
        <time>2010-01-01T08:44:00Z</time>
      </trkpt>
      <trkpt lat="46.1802" lon="6.70174">
        <ele>996</ele>
        <time>2010-01-01T08:44:04Z</time>
      </trkpt>
      <trkpt lat="46.18001" lon="6.70155">
        <ele>996</ele>
        <time>2010-01-01T08:44:13Z</time>
      </trkpt>
      <trkpt lat="46.17992" lon="6.70148">
        <ele>997</ele>
        <time>2010-01-01T08:44:17Z</time>
      </trkpt>
      <trkpt lat="46.17988" lon="6.70146">
        <ele>996</ele>
        <time>2010-01-01T08:44:19Z</time>
      </trkpt>
      <trkpt lat="46.1799" lon="6.70149">
        <ele>998</ele>
        <time>2010-01-01T08:44:20Z</time>
      </trkpt>
      <trkpt lat="46.17989" lon="6.7015">
        <ele>997</ele>
        <time>2010-01-01T08:44:21Z</time>
      </trkpt>
      <trkpt lat="46.17973" lon="6.70134">
        <ele>995</ele>
        <time>2010-01-01T08:44:28Z</time>
      </trkpt>
      <trkpt lat="46.1796" lon="6.70134">
        <ele>992</ele>
        <time>2010-01-01T08:44:34Z</time>
      </trkpt>
      <trkpt lat="46.1791" lon="6.70101">
        <ele>1003</ele>
        <time>2010-01-01T08:44:56Z</time>
      </trkpt>
      <trkpt lat="46.1786" lon="6.70053">
        <ele>1027</ele>
        <time>2010-01-01T08:45:20Z</time>
      </trkpt>
      <trkpt lat="46.17786" lon="6.69989">
        <ele>1064</ele>
        <time>2010-01-01T08:45:54Z</time>
      </trkpt>
      <trkpt lat="46.17703" lon="6.69913">
        <ele>1101</ele>
        <time>2010-01-01T08:46:34Z</time>
      </trkpt>
      <trkpt lat="46.17674" lon="6.69886">
        <ele>1115</ele>
        <time>2010-01-01T08:46:47Z</time>
      </trkpt>
      <trkpt lat="46.17655" lon="6.69864">
        <ele>1131</ele>
        <time>2010-01-01T08:46:57Z</time>
      </trkpt>
      <trkpt lat="46.17614" lon="6.69829">
        <ele>1153</ele>
        <time>2010-01-01T08:47:16Z</time>
      </trkpt>
      <trkpt lat="46.17614" lon="6.69829">
        <ele>1153</ele>
        <time>2010-01-01T08:47:16Z</time>
      </trkpt>
      <trkpt lat="46.17598" lon="6.69814">
        <ele>1165</ele>
        <time>2010-01-01T08:47:24Z</time>
      </trkpt>
      <trkpt lat="46.17554" lon="6.69755">
        <ele>1200</ele>
        <time>2010-01-01T08:47:48Z</time>
      </trkpt>
      <trkpt lat="46.17504" lon="6.69702">
        <ele>1236</ele>
        <time>2010-01-01T08:48:13Z</time>
      </trkpt>
      <trkpt lat="46.17476" lon="6.69678">
        <ele>1251</ele>
        <time>2010-01-01T08:48:26Z</time>
      </trkpt>
      <trkpt lat="46.17443" lon="6.69645">
        <ele>1269</ele>
        <time>2010-01-01T08:48:42Z</time>
      </trkpt>
      <trkpt lat="46.17421" lon="6.69628">
        <ele>1276</ele>
        <time>2010-01-01T08:48:52Z</time>
      </trkpt>
      <trkpt lat="46.17368" lon="6.69576">
        <ele>1303</ele>
        <time>2010-01-01T08:49:17Z</time>
      </trkpt>
      <trkpt lat="46.173" lon="6.6952">
        <ele>1328</ele>
        <time>2010-01-01T08:49:49Z</time>
      </trkpt>
      <trkpt lat="46.17273" lon="6.695">
        <ele>1341</ele>
        <time>2010-01-01T08:50:01Z</time>
      </trkpt>
      <trkpt lat="46.1725" lon="6.69481">
        <ele>1354</ele>
        <time>2010-01-01T08:50:11Z</time>
      </trkpt>
      <trkpt lat="46.17015" lon="6.69267">
        <ele>1496</ele>
        <time>2010-01-01T08:52:02Z</time>
      </trkpt>
      <trkpt lat="46.16998" lon="6.69245">
        <ele>1510</ele>
        <time>2010-01-01T08:52:12Z</time>
      </trkpt>
      <trkpt lat="46.17001" lon="6.69245">
        <ele>1512</ele>
        <time>2010-01-01T08:52:13Z</time>
      </trkpt>
      <trkpt lat="46.17001" lon="6.69251">
        <ele>1511</ele>
        <time>2010-01-01T08:52:15Z</time>
      </trkpt>
      <trkpt lat="46.17002" lon="6.6925">
        <ele>1511</ele>
        <time>2010-01-01T08:52:16Z</time>
      </trkpt>
      <trkpt lat="46.17001" lon="6.6925">
        <ele>1511</ele>
        <time>2010-01-01T08:52:16Z</time>
      </trkpt>
      <trkpt lat="46.17004" lon="6.69242">
        <ele>1511</ele>
        <time>2010-01-01T08:52:19Z</time>
      </trkpt>
      <trkpt lat="46.17002" lon="6.69231">
        <ele>1511</ele>
        <time>2010-01-01T08:52:22Z</time>
      </trkpt>
      <trkpt lat="46.16997" lon="6.69234">
        <ele>1511</ele>
        <time>2010-01-01T08:52:24Z</time>
      </trkpt>
      <trkpt lat="46.16994" lon="6.69232">
        <ele>1511</ele>
        <time>2010-01-01T08:52:25Z</time>
      </trkpt>
      <trkpt lat="46.16988" lon="6.6924">
        <ele>1511</ele>
        <time>2010-01-01T08:52:28Z</time>
      </trkpt>
      <trkpt lat="46.16991" lon="6.69229">
        <ele>1511</ele>
        <time>2010-01-01T08:52:31Z</time>
      </trkpt>
      <trkpt lat="46.16994" lon="6.69228">
        <ele>1511</ele>
        <time>2010-01-01T08:52:33Z</time>
      </trkpt>
      <trkpt lat="46.16995" lon="6.69223">
        <ele>1511</ele>
        <time>2010-01-01T08:52:34Z</time>
      </trkpt>
      <trkpt lat="46.16994" lon="6.69222">
        <ele>1511</ele>
        <time>2010-01-01T08:52:35Z</time>
      </trkpt>
      <trkpt lat="46.16992" lon="6.69225">
        <ele>1511</ele>
        <time>2010-01-01T08:52:36Z</time>
      </trkpt>
      <trkpt lat="46.16991" lon="6.69228">
        <ele>1511</ele>
        <time>2010-01-01T08:52:36Z</time>
      </trkpt>
      <trkpt lat="46.16992" lon="6.6923">
        <ele>1511</ele>
        <time>2010-01-01T08:52:37Z</time>
      </trkpt>
      <trkpt lat="46.16989" lon="6.69234">
        <ele>1511</ele>
        <time>2010-01-01T08:52:39Z</time>
      </trkpt>
      <trkpt lat="46.16989" lon="6.69232">
        <ele>1511</ele>
        <time>2010-01-01T08:52:39Z</time>
      </trkpt>
      <trkpt lat="46.16981" lon="6.69239">
        <ele>1510</ele>
        <time>2010-01-01T08:52:43Z</time>
      </trkpt>
      <trkpt lat="46.16979" lon="6.69239">
        <ele>1511</ele>
        <time>2010-01-01T08:52:44Z</time>
      </trkpt>
      <trkpt lat="46.16979" lon="6.69239">
        <ele>1511</ele>
        <time>2010-01-01T08:52:44Z</time>
      </trkpt>
      <trkpt lat="46.16967" lon="6.69235">
        <ele>1510</ele>
        <time>2010-01-01T08:52:49Z</time>
      </trkpt>
      <trkpt lat="46.1696" lon="6.69236">
        <ele>1510</ele>
        <time>2010-01-01T08:52:52Z</time>
      </trkpt>
      <trkpt lat="46.16958" lon="6.69232">
        <ele>1510</ele>
        <time>2010-01-01T08:52:53Z</time>
      </trkpt>
      <trkpt lat="46.16958" lon="6.69226">
        <ele>1511</ele>
        <time>2010-01-01T08:52:55Z</time>
      </trkpt>
      <trkpt lat="46.16962" lon="6.6922">
        <ele>1510</ele>
        <time>2010-01-01T08:52:57Z</time>
      </trkpt>
      <trkpt lat="46.16968" lon="6.69196">
        <ele>1509</ele>
        <time>2010-01-01T08:53:04Z</time>
      </trkpt>
      <trkpt lat="46.16971" lon="6.69191">
        <ele>1509</ele>
        <time>2010-01-01T08:53:06Z</time>
      </trkpt>
      <trkpt lat="46.16976" lon="6.69188">
        <ele>1508</ele>
        <time>2010-01-01T08:53:08Z</time>
      </trkpt>
      <trkpt lat="46.16985" lon="6.69178">
        <ele>1508</ele>
        <time>2010-01-01T08:53:12Z</time>
      </trkpt>
      <trkpt lat="46.16997" lon="6.69174">
        <ele>1506</ele>
        <time>2010-01-01T08:53:18Z</time>
      </trkpt>
      <trkpt lat="46.17008" lon="6.69168">
        <ele>1504</ele>
        <time>2010-01-01T08:53:22Z</time>
      </trkpt>
      <trkpt lat="46.17048" lon="6.69137">
        <ele>1501</ele>
        <time>2010-01-01T08:53:40Z</time>
      </trkpt>
      <trkpt lat="46.17083" lon="6.69106">
        <ele>1498</ele>
        <time>2010-01-01T08:53:57Z</time>
      </trkpt>
      <trkpt lat="46.17093" lon="6.69089">
        <ele>1496</ele>
        <time>2010-01-01T08:54:03Z</time>
      </trkpt>
      <trkpt lat="46.17097" lon="6.69086">
        <ele>1494</ele>
        <time>2010-01-01T08:54:05Z</time>
      </trkpt>
      <trkpt lat="46.17102" lon="6.69084">
        <ele>1494</ele>
        <time>2010-01-01T08:54:07Z</time>
      </trkpt>
      <trkpt lat="46.17107" lon="6.69086">
        <ele>1493</ele>
        <time>2010-01-01T08:54:09Z</time>
      </trkpt>
      <trkpt lat="46.17116" lon="6.69094">
        <ele>1492</ele>
        <time>2010-01-01T08:54:13Z</time>
      </trkpt>
      <trkpt lat="46.17134" lon="6.69128">
        <ele>1488</ele>
        <time>2010-01-01T08:54:25Z</time>
      </trkpt>
      <trkpt lat="46.17141" lon="6.69134">
        <ele>1487</ele>
        <time>2010-01-01T08:54:28Z</time>
      </trkpt>
      <trkpt lat="46.17151" lon="6.69128">
        <ele>1486</ele>
        <time>2010-01-01T08:54:32Z</time>
      </trkpt>
      <trkpt lat="46.17165" lon="6.69115">
        <ele>1486</ele>
        <time>2010-01-01T08:54:39Z</time>
      </trkpt>
      <trkpt lat="46.17209" lon="6.69089">
        <ele>1479</ele>
        <time>2010-01-01T08:54:58Z</time>
      </trkpt>
      <trkpt lat="46.17215" lon="6.69069">
        <ele>1476</ele>
        <time>2010-01-01T08:55:04Z</time>
      </trkpt>
      <trkpt lat="46.17217" lon="6.69055">
        <ele>1475</ele>
        <time>2010-01-01T08:55:08Z</time>
      </trkpt>
      <trkpt lat="46.17216" lon="6.68977">
        <ele>1470</ele>
        <time>2010-01-01T08:55:30Z</time>
      </trkpt>
      <trkpt lat="46.17227" lon="6.68931">
        <ele>1466</ele>
        <time>2010-01-01T08:55:43Z</time>
      </trkpt>
      <trkpt lat="46.17224" lon="6.6891">
        <ele>1465</ele>
        <time>2010-01-01T08:55:49Z</time>
      </trkpt>
      <trkpt lat="46.17219" lon="6.68901">
        <ele>1464</ele>
        <time>2010-01-01T08:55:52Z</time>
      </trkpt>
      <trkpt lat="46.17195" lon="6.68871">
        <ele>1461</ele>
        <time>2010-01-01T08:56:05Z</time>
      </trkpt>
      <trkpt lat="46.17185" lon="6.68849">
        <ele>1460</ele>
        <time>2010-01-01T08:56:12Z</time>
      </trkpt>
      <trkpt lat="46.17178" lon="6.68806">
        <ele>1461</ele>
        <time>2010-01-01T08:56:25Z</time>
      </trkpt>
      <trkpt lat="46.17171" lon="6.68771">
        <ele>1462</ele>
        <time>2010-01-01T08:56:35Z</time>
      </trkpt>
      <trkpt lat="46.17184" lon="6.68799">
        <ele>1460</ele>
        <time>2010-01-01T08:56:44Z</time>
      </trkpt>
      <trkpt lat="46.17188" lon="6.68802">
        <ele>1460</ele>
        <time>2010-01-01T08:56:46Z</time>
      </trkpt>
      <trkpt lat="46.1719" lon="6.68801">
        <ele>1459</ele>
        <time>2010-01-01T08:56:46Z</time>
      </trkpt>
      <trkpt lat="46.17188" lon="6.68801">
        <ele>1459</ele>
        <time>2010-01-01T08:56:47Z</time>
      </trkpt>
      <trkpt lat="46.17183" lon="6.68795">
        <ele>1458</ele>
        <time>2010-01-01T08:56:50Z</time>
      </trkpt>
      <trkpt lat="46.17177" lon="6.6878">
        <ele>1457</ele>
        <time>2010-01-01T08:56:54Z</time>
      </trkpt>
      <trkpt lat="46.17167" lon="6.68765">
        <ele>1456</ele>
        <time>2010-01-01T08:57:00Z</time>
      </trkpt>
      <trkpt lat="46.17151" lon="6.6875">
        <ele>1451</ele>
        <time>2010-01-01T08:57:08Z</time>
      </trkpt>
      <trkpt lat="46.17125" lon="6.68731">
        <ele>1451</ele>
        <time>2010-01-01T08:57:19Z</time>
      </trkpt>
      <trkpt lat="46.17111" lon="6.68725">
        <ele>1450</ele>
        <time>2010-01-01T08:57:25Z</time>
      </trkpt>
      <trkpt lat="46.17083" lon="6.68719">
        <ele>1450</ele>
        <time>2010-01-01T08:57:36Z</time>
      </trkpt>
      <trkpt lat="46.17062" lon="6.68708">
        <ele>1450</ele>
        <time>2010-01-01T08:57:45Z</time>
      </trkpt>
      <trkpt lat="46.17033" lon="6.68675">
        <ele>1449</ele>
        <time>2010-01-01T08:58:00Z</time>
      </trkpt>
      <trkpt lat="46.1701" lon="6.68658">
        <ele>1449</ele>
        <time>2010-01-01T08:58:11Z</time>
      </trkpt>
      <trkpt lat="46.16992" lon="6.68642">
        <ele>1450</ele>
        <time>2010-01-01T08:58:19Z</time>
      </trkpt>
      <trkpt lat="46.16975" lon="6.68623">
        <ele>1450</ele>
        <time>2010-01-01T08:58:28Z</time>
      </trkpt>
      <trkpt lat="46.16966" lon="6.68615">
        <ele>1450</ele>
        <time>2010-01-01T08:58:32Z</time>
      </trkpt>
      <trkpt lat="46.16951" lon="6.68606">
        <ele>1449</ele>
        <time>2010-01-01T08:58:38Z</time>
      </trkpt>
      <trkpt lat="46.16951" lon="6.68606">
        <ele>1449</ele>
        <time>2010-01-01T08:58:38Z</time>
      </trkpt>
      <trkpt lat="46.16942" lon="6.68599">
        <ele>1449</ele>
        <time>2010-01-01T08:58:43Z</time>
      </trkpt>
      <trkpt lat="46.16927" lon="6.68592">
        <ele>1449</ele>
        <time>2010-01-01T08:58:49Z</time>
      </trkpt>
      <trkpt lat="46.16906" lon="6.68575">
        <ele>1451</ele>
        <time>2010-01-01T08:58:59Z</time>
      </trkpt>
      <trkpt lat="46.1687" lon="6.68568">
        <ele>1453</ele>
        <time>2010-01-01T08:59:13Z</time>
      </trkpt>
      <trkpt lat="46.16862" lon="6.68565">
        <ele>1453</ele>
        <time>2010-01-01T08:59:16Z</time>
      </trkpt>
      <trkpt lat="46.16858" lon="6.68565">
        <ele>1452</ele>
        <time>2010-01-01T08:59:18Z</time>
      </trkpt>
      <trkpt lat="46.16843" lon="6.68574">
        <ele>1450</ele>
        <time>2010-01-01T08:59:24Z</time>
      </trkpt>
      <trkpt lat="46.16827" lon="6.68572">
        <ele>1448</ele>
        <time>2010-01-01T08:59:31Z</time>
      </trkpt>
      <trkpt lat="46.1682" lon="6.68572">
        <ele>1447</ele>
        <time>2010-01-01T08:59:34Z</time>
      </trkpt>
      <trkpt lat="46.16791" lon="6.68582">
        <ele>1445</ele>
        <time>2010-01-01T08:59:46Z</time>
      </trkpt>
      <trkpt lat="46.16771" lon="6.68585">
        <ele>1445</ele>
        <time>2010-01-01T08:59:54Z</time>
      </trkpt>
      <trkpt lat="46.16765" lon="6.68585">
        <ele>1445</ele>
        <time>2010-01-01T08:59:56Z</time>
      </trkpt>
      <trkpt lat="46.16748" lon="6.68578">
        <ele>1445</ele>
        <time>2010-01-01T09:00:03Z</time>
      </trkpt>
      <trkpt lat="46.16734" lon="6.68576">
        <ele>1445</ele>
        <time>2010-01-01T09:00:09Z</time>
      </trkpt>
      <trkpt lat="46.16696" lon="6.6856">
        <ele>1445</ele>
        <time>2010-01-01T09:00:25Z</time>
      </trkpt>
      <trkpt lat="46.16679" lon="6.6855">
        <ele>1444</ele>
        <time>2010-01-01T09:00:32Z</time>
      </trkpt>
      <trkpt lat="46.16664" lon="6.68545">
        <ele>1444</ele>
        <time>2010-01-01T09:00:38Z</time>
      </trkpt>
      <trkpt lat="46.16642" lon="6.68547">
        <ele>1444</ele>
        <time>2010-01-01T09:00:47Z</time>
      </trkpt>
      <trkpt lat="46.16627" lon="6.6855">
        <ele>1444</ele>
        <time>2010-01-01T09:00:53Z</time>
      </trkpt>
      <trkpt lat="46.16597" lon="6.68554">
        <ele>1443</ele>
        <time>2010-01-01T09:01:05Z</time>
      </trkpt>
      <trkpt lat="46.16589" lon="6.68555">
        <ele>1442</ele>
        <time>2010-01-01T09:01:08Z</time>
      </trkpt>
      <trkpt lat="46.16582" lon="6.68553">
        <ele>1442</ele>
        <time>2010-01-01T09:01:11Z</time>
      </trkpt>
      <trkpt lat="46.1657" lon="6.68545">
        <ele>1441</ele>
        <time>2010-01-01T09:01:16Z</time>
      </trkpt>
      <trkpt lat="46.16553" lon="6.68539">
        <ele>1440</ele>
        <time>2010-01-01T09:01:24Z</time>
      </trkpt>
      <trkpt lat="46.1653" lon="6.68523">
        <ele>1438</ele>
        <time>2010-01-01T09:01:34Z</time>
      </trkpt>
      <trkpt lat="46.16514" lon="6.68521">
        <ele>1437</ele>
        <time>2010-01-01T09:01:40Z</time>
      </trkpt>
      <trkpt lat="46.16499" lon="6.68515">
        <ele>1437</ele>
        <time>2010-01-01T09:01:46Z</time>
      </trkpt>
      <trkpt lat="46.16484" lon="6.68505">
        <ele>1437</ele>
        <time>2010-01-01T09:01:53Z</time>
      </trkpt>
      <trkpt lat="46.1647" lon="6.68493">
        <ele>1437</ele>
        <time>2010-01-01T09:01:59Z</time>
      </trkpt>
      <trkpt lat="46.16442" lon="6.68464">
        <ele>1435</ele>
        <time>2010-01-01T09:02:13Z</time>
      </trkpt>
      <trkpt lat="46.16429" lon="6.68453">
        <ele>1436</ele>
        <time>2010-01-01T09:02:19Z</time>
      </trkpt>
      <trkpt lat="46.1637" lon="6.68418">
        <ele>1434</ele>
        <time>2010-01-01T09:02:45Z</time>
      </trkpt>
      <trkpt lat="46.16356" lon="6.68408">
        <ele>1434</ele>
        <time>2010-01-01T09:02:51Z</time>
      </trkpt>
      <trkpt lat="46.16337" lon="6.68385">
        <ele>1433</ele>
        <time>2010-01-01T09:03:01Z</time>
      </trkpt>
      <trkpt lat="46.16324" lon="6.68373">
        <ele>1432</ele>
        <time>2010-01-01T09:03:07Z</time>
      </trkpt>
      <trkpt lat="46.16289" lon="6.68363">
        <ele>1430</ele>
        <time>2010-01-01T09:03:21Z</time>
      </trkpt>
      <trkpt lat="46.16271" lon="6.68363">
        <ele>1429</ele>
        <time>2010-01-01T09:03:29Z</time>
      </trkpt>
      <trkpt lat="46.16252" lon="6.68367">
        <ele>1427</ele>
        <time>2010-01-01T09:03:36Z</time>
      </trkpt>
      <trkpt lat="46.16219" lon="6.68379">
        <ele>1425</ele>
        <time>2010-01-01T09:03:50Z</time>
      </trkpt>
      <trkpt lat="46.16187" lon="6.68396">
        <ele>1421</ele>
        <time>2010-01-01T09:04:04Z</time>
      </trkpt>
      <trkpt lat="46.16157" lon="6.68404">
        <ele>1420</ele>
        <time>2010-01-01T09:04:16Z</time>
      </trkpt>
      <trkpt lat="46.16129" lon="6.68414">
        <ele>1419</ele>
        <time>2010-01-01T09:04:27Z</time>
      </trkpt>
      <trkpt lat="46.16108" lon="6.68425">
        <ele>1416</ele>
        <time>2010-01-01T09:04:36Z</time>
      </trkpt>
      <trkpt lat="46.16108" lon="6.68425">
        <ele>1416</ele>
        <time>2010-01-01T09:04:36Z</time>
      </trkpt>
      <trkpt lat="46.16045" lon="6.68473">
        <ele>1410</ele>
        <time>2010-01-01T09:05:05Z</time>
      </trkpt>
      <trkpt lat="46.16029" lon="6.68487">
        <ele>1409</ele>
        <time>2010-01-01T09:05:12Z</time>
      </trkpt>
      <trkpt lat="46.16017" lon="6.68503">
        <ele>1408</ele>
        <time>2010-01-01T09:05:19Z</time>
      </trkpt>
      <trkpt lat="46.1601" lon="6.68506">
        <ele>1408</ele>
        <time>2010-01-01T09:05:21Z</time>
      </trkpt>
      <trkpt lat="46.15992" lon="6.68488">
        <ele>1407</ele>
        <time>2010-01-01T09:05:30Z</time>
      </trkpt>
      <trkpt lat="46.15986" lon="6.68485">
        <ele>1407</ele>
        <time>2010-01-01T09:05:33Z</time>
      </trkpt>
      <trkpt lat="46.15973" lon="6.68483">
        <ele>1407</ele>
        <time>2010-01-01T09:05:38Z</time>
      </trkpt>
      <trkpt lat="46.1596" lon="6.68484">
        <ele>1406</ele>
        <time>2010-01-01T09:05:43Z</time>
      </trkpt>
      <trkpt lat="46.15947" lon="6.68486">
        <ele>1401</ele>
        <time>2010-01-01T09:05:49Z</time>
      </trkpt>
      <trkpt lat="46.15931" lon="6.68485">
        <ele>1399</ele>
        <time>2010-01-01T09:05:55Z</time>
      </trkpt>
      <trkpt lat="46.15923" lon="6.68481">
        <ele>1398</ele>
        <time>2010-01-01T09:05:58Z</time>
      </trkpt>
      <trkpt lat="46.15917" lon="6.68474">
        <ele>1397</ele>
        <time>2010-01-01T09:06:01Z</time>
      </trkpt>
      <trkpt lat="46.15897" lon="6.68449">
        <ele>1392</ele>
        <time>2010-01-01T09:06:12Z</time>
      </trkpt>
      <trkpt lat="46.15883" lon="6.68435">
        <ele>1389</ele>
        <time>2010-01-01T09:06:19Z</time>
      </trkpt>
      <trkpt lat="46.15876" lon="6.68431">
        <ele>1388</ele>
        <time>2010-01-01T09:06:22Z</time>
      </trkpt>
      <trkpt lat="46.15869" lon="6.68429">
        <ele>1387</ele>
        <time>2010-01-01T09:06:25Z</time>
      </trkpt>
      <trkpt lat="46.15855" lon="6.68429">
        <ele>1387</ele>
        <time>2010-01-01T09:06:30Z</time>
      </trkpt>
      <trkpt lat="46.15842" lon="6.68425">
        <ele>1386</ele>
        <time>2010-01-01T09:06:35Z</time>
      </trkpt>
      <trkpt lat="46.15835" lon="6.68421">
        <ele>1386</ele>
        <time>2010-01-01T09:06:38Z</time>
      </trkpt>
      <trkpt lat="46.15829" lon="6.68416">
        <ele>1385</ele>
        <time>2010-01-01T09:06:41Z</time>
      </trkpt>
      <trkpt lat="46.15823" lon="6.68409">
        <ele>1384</ele>
        <time>2010-01-01T09:06:44Z</time>
      </trkpt>
      <trkpt lat="46.15816" lon="6.6839">
        <ele>1383</ele>
        <time>2010-01-01T09:06:50Z</time>
      </trkpt>
      <trkpt lat="46.15812" lon="6.68361">
        <ele>1381</ele>
        <time>2010-01-01T09:06:58Z</time>
      </trkpt>
      <trkpt lat="46.158" lon="6.68322">
        <ele>1374</ele>
        <time>2010-01-01T09:07:10Z</time>
      </trkpt>
      <trkpt lat="46.15781" lon="6.68288">
        <ele>1368</ele>
        <time>2010-01-01T09:07:22Z</time>
      </trkpt>
      <trkpt lat="46.1575" lon="6.68244">
        <ele>1358</ele>
        <time>2010-01-01T09:07:40Z</time>
      </trkpt>
      <trkpt lat="46.15687" lon="6.68163">
        <ele>1341</ele>
        <time>2010-01-01T09:08:14Z</time>
      </trkpt>
      <trkpt lat="46.15662" lon="6.68128">
        <ele>1334</ele>
        <time>2010-01-01T09:08:28Z</time>
      </trkpt>
      <trkpt lat="46.15633" lon="6.68102">
        <ele>1328</ele>
        <time>2010-01-01T09:08:41Z</time>
      </trkpt>
      <trkpt lat="46.15618" lon="6.68083">
        <ele>1326</ele>
        <time>2010-01-01T09:08:49Z</time>
      </trkpt>
      <trkpt lat="46.15606" lon="6.68064">
        <ele>1323</ele>
        <time>2010-01-01T09:08:56Z</time>
      </trkpt>
      <trkpt lat="46.15594" lon="6.68029">
        <ele>1321</ele>
        <time>2010-01-01T09:09:07Z</time>
      </trkpt>
      <trkpt lat="46.1559" lon="6.68006">
        <ele>1320</ele>
        <time>2010-01-01T09:09:14Z</time>
      </trkpt>
      <trkpt lat="46.15585" lon="6.67972">
        <ele>1318</ele>
        <time>2010-01-01T09:09:23Z</time>
      </trkpt>
      <trkpt lat="46.15582" lon="6.67911">
        <ele>1313</ele>
        <time>2010-01-01T09:09:40Z</time>
      </trkpt>
      <trkpt lat="46.15579" lon="6.67884">
        <ele>1311</ele>
        <time>2010-01-01T09:09:48Z</time>
      </trkpt>
      <trkpt lat="46.15573" lon="6.67856">
        <ele>1308</ele>
        <time>2010-01-01T09:09:56Z</time>
      </trkpt>
      <trkpt lat="46.15554" lon="6.67792">
        <ele>1306</ele>
        <time>2010-01-01T09:10:15Z</time>
      </trkpt>
      <trkpt lat="46.15546" lon="6.67772">
        <ele>1305</ele>
        <time>2010-01-01T09:10:22Z</time>
      </trkpt>
      <trkpt lat="46.15542" lon="6.67765">
        <ele>1304</ele>
        <time>2010-01-01T09:10:24Z</time>
      </trkpt>
      <trkpt lat="46.15536" lon="6.67759">
        <ele>1304</ele>
        <time>2010-01-01T09:10:27Z</time>
      </trkpt>
      <trkpt lat="46.15523" lon="6.67751">
        <ele>1301</ele>
        <time>2010-01-01T09:10:33Z</time>
      </trkpt>
      <trkpt lat="46.15523" lon="6.67751">
        <ele>1301</ele>
        <time>2010-01-01T09:10:33Z</time>
      </trkpt>
      <trkpt lat="46.15505" lon="6.67739">
        <ele>1299</ele>
        <time>2010-01-01T09:10:41Z</time>
      </trkpt>
      <trkpt lat="46.15494" lon="6.67728">
        <ele>1297</ele>
        <time>2010-01-01T09:10:46Z</time>
      </trkpt>
      <trkpt lat="46.15453" lon="6.67684">
        <ele>1295</ele>
        <time>2010-01-01T09:11:06Z</time>
      </trkpt>
      <trkpt lat="46.15436" lon="6.67664">
        <ele>1293</ele>
        <time>2010-01-01T09:11:15Z</time>
      </trkpt>
      <trkpt lat="46.15433" lon="6.67659">
        <ele>1292</ele>
        <time>2010-01-01T09:11:17Z</time>
      </trkpt>
      <trkpt lat="46.15431" lon="6.67652">
        <ele>1292</ele>
        <time>2010-01-01T09:11:19Z</time>
      </trkpt>
      <trkpt lat="46.15432" lon="6.67645">
        <ele>1291</ele>
        <time>2010-01-01T09:11:21Z</time>
      </trkpt>
      <trkpt lat="46.1544" lon="6.67637">
        <ele>1291</ele>
        <time>2010-01-01T09:11:25Z</time>
      </trkpt>
      <trkpt lat="46.15444" lon="6.67627">
        <ele>1290</ele>
        <time>2010-01-01T09:11:28Z</time>
      </trkpt>
      <trkpt lat="46.15443" lon="6.67594">
        <ele>1289</ele>
        <time>2010-01-01T09:11:37Z</time>
      </trkpt>
      <trkpt lat="46.15433" lon="6.67587">
        <ele>1288</ele>
        <time>2010-01-01T09:11:42Z</time>
      </trkpt>
      <trkpt lat="46.15424" lon="6.67579">
        <ele>1287</ele>
        <time>2010-01-01T09:11:46Z</time>
      </trkpt>
      <trkpt lat="46.15407" lon="6.67564">
        <ele>1286</ele>
        <time>2010-01-01T09:11:54Z</time>
      </trkpt>
      <trkpt lat="46.15391" lon="6.67545">
        <ele>1284</ele>
        <time>2010-01-01T09:12:02Z</time>
      </trkpt>
      <trkpt lat="46.15358" lon="6.67497">
        <ele>1281</ele>
        <time>2010-01-01T09:12:21Z</time>
      </trkpt>
      <trkpt lat="46.15354" lon="6.67489">
        <ele>1281</ele>
        <time>2010-01-01T09:12:24Z</time>
      </trkpt>
      <trkpt lat="46.15354" lon="6.67481">
        <ele>1280</ele>
        <time>2010-01-01T09:12:26Z</time>
      </trkpt>
      <trkpt lat="46.15357" lon="6.67475">
        <ele>1279</ele>
        <time>2010-01-01T09:12:28Z</time>
      </trkpt>
      <trkpt lat="46.15382" lon="6.67462">
        <ele>1275</ele>
        <time>2010-01-01T09:12:39Z</time>
      </trkpt>
      <trkpt lat="46.15389" lon="6.67456">
        <ele>1274</ele>
        <time>2010-01-01T09:12:42Z</time>
      </trkpt>
      <trkpt lat="46.15395" lon="6.67448">
        <ele>1273</ele>
        <time>2010-01-01T09:12:45Z</time>
      </trkpt>
      <trkpt lat="46.15399" lon="6.67439">
        <ele>1273</ele>
        <time>2010-01-01T09:12:48Z</time>
      </trkpt>
      <trkpt lat="46.15406" lon="6.67404">
        <ele>1270</ele>
        <time>2010-01-01T09:12:58Z</time>
      </trkpt>
      <trkpt lat="46.15419" lon="6.67384">
        <ele>1266</ele>
        <time>2010-01-01T09:13:06Z</time>
      </trkpt>
      <trkpt lat="46.15421" lon="6.67372">
        <ele>1265</ele>
        <time>2010-01-01T09:13:09Z</time>
      </trkpt>
      <trkpt lat="46.15423" lon="6.67367">
        <ele>1265</ele>
        <time>2010-01-01T09:13:11Z</time>
      </trkpt>
      <trkpt lat="46.1544" lon="6.67358">
        <ele>1264</ele>
        <time>2010-01-01T09:13:18Z</time>
      </trkpt>
      <trkpt lat="46.1545" lon="6.6735">
        <ele>1265</ele>
        <time>2010-01-01T09:13:23Z</time>
      </trkpt>
      <trkpt lat="46.15459" lon="6.67341">
        <ele>1264</ele>
        <time>2010-01-01T09:13:27Z</time>
      </trkpt>
      <trkpt lat="46.15463" lon="6.67334">
        <ele>1264</ele>
        <time>2010-01-01T09:13:30Z</time>
      </trkpt>
      <trkpt lat="46.15474" lon="6.67313">
        <ele>1262</ele>
        <time>2010-01-01T09:13:37Z</time>
      </trkpt>
      <trkpt lat="46.15506" lon="6.67222">
        <ele>1255</ele>
        <time>2010-01-01T09:14:06Z</time>
      </trkpt>
      <trkpt lat="46.15522" lon="6.67193">
        <ele>1252</ele>
        <time>2010-01-01T09:14:16Z</time>
      </trkpt>
      <trkpt lat="46.15537" lon="6.67156">
        <ele>1249</ele>
        <time>2010-01-01T09:14:28Z</time>
      </trkpt>
      <trkpt lat="46.15545" lon="6.67147">
        <ele>1247</ele>
        <time>2010-01-01T09:14:32Z</time>
      </trkpt>
      <trkpt lat="46.15576" lon="6.67126">
        <ele>1243</ele>
        <time>2010-01-01T09:14:45Z</time>
      </trkpt>
      <trkpt lat="46.15623" lon="6.67089">
        <ele>1239</ele>
        <time>2010-01-01T09:15:07Z</time>
      </trkpt>
      <trkpt lat="46.15625" lon="6.67083">
        <ele>1238</ele>
        <time>2010-01-01T09:15:09Z</time>
      </trkpt>
      <trkpt lat="46.15624" lon="6.67076">
        <ele>1237</ele>
        <time>2010-01-01T09:15:11Z</time>
      </trkpt>
      <trkpt lat="46.15616" lon="6.67055">
        <ele>1235</ele>
        <time>2010-01-01T09:15:17Z</time>
      </trkpt>
      <trkpt lat="46.15618" lon="6.67051">
        <ele>1234</ele>
        <time>2010-01-01T09:15:19Z</time>
      </trkpt>
      <trkpt lat="46.15619" lon="6.67048">
        <ele>1233</ele>
        <time>2010-01-01T09:15:20Z</time>
      </trkpt>
      <trkpt lat="46.15629" lon="6.67055">
        <ele>1231</ele>
        <time>2010-01-01T09:15:24Z</time>
      </trkpt>
      <trkpt lat="46.15634" lon="6.67056">
        <ele>1230</ele>
        <time>2010-01-01T09:15:26Z</time>
      </trkpt>
      <trkpt lat="46.15637" lon="6.67053">
        <ele>1229</ele>
        <time>2010-01-01T09:15:27Z</time>
      </trkpt>
      <trkpt lat="46.1564" lon="6.67044">
        <ele>1227</ele>
        <time>2010-01-01T09:15:30Z</time>
      </trkpt>
      <trkpt lat="46.15633" lon="6.67034">
        <ele>1225</ele>
        <time>2010-01-01T09:15:34Z</time>
      </trkpt>
      <trkpt lat="46.15632" lon="6.6703">
        <ele>1224</ele>
        <time>2010-01-01T09:15:35Z</time>
      </trkpt>
      <trkpt lat="46.15634" lon="6.67027">
        <ele>1223</ele>
        <time>2010-01-01T09:15:37Z</time>
      </trkpt>
      <trkpt lat="46.15637" lon="6.67025">
        <ele>1222</ele>
        <time>2010-01-01T09:15:38Z</time>
      </trkpt>
      <trkpt lat="46.1565" lon="6.67025">
        <ele>1219</ele>
        <time>2010-01-01T09:15:43Z</time>
      </trkpt>
      <trkpt lat="46.15652" lon="6.67018">
        <ele>1219</ele>
        <time>2010-01-01T09:15:45Z</time>
      </trkpt>
      <trkpt lat="46.15649" lon="6.67011">
        <ele>1217</ele>
        <time>2010-01-01T09:15:47Z</time>
      </trkpt>
      <trkpt lat="46.1564" lon="6.67008">
        <ele>1216</ele>
        <time>2010-01-01T09:15:51Z</time>
      </trkpt>
      <trkpt lat="46.15634" lon="6.67004">
        <ele>1215</ele>
        <time>2010-01-01T09:15:54Z</time>
      </trkpt>
      <trkpt lat="46.1563" lon="6.66991">
        <ele>1213</ele>
        <time>2010-01-01T09:15:58Z</time>
      </trkpt>
      <trkpt lat="46.15634" lon="6.66986">
        <ele>1210</ele>
        <time>2010-01-01T09:16:00Z</time>
      </trkpt>
      <trkpt lat="46.15636" lon="6.66985">
        <ele>1209</ele>
        <time>2010-01-01T09:16:00Z</time>
      </trkpt>
      <trkpt lat="46.15657" lon="6.66998">
        <ele>1207</ele>
        <time>2010-01-01T09:16:10Z</time>
      </trkpt>
      <trkpt lat="46.15663" lon="6.67001">
        <ele>1206</ele>
        <time>2010-01-01T09:16:12Z</time>
      </trkpt>
      <trkpt lat="46.15669" lon="6.67">
        <ele>1205</ele>
        <time>2010-01-01T09:16:15Z</time>
      </trkpt>
      <trkpt lat="46.15675" lon="6.66985">
        <ele>1201</ele>
        <time>2010-01-01T09:16:19Z</time>
      </trkpt>
      <trkpt lat="46.15668" lon="6.66976">
        <ele>1201</ele>
        <time>2010-01-01T09:16:23Z</time>
      </trkpt>
      <trkpt lat="46.15663" lon="6.66957">
        <ele>1199</ele>
        <time>2010-01-01T09:16:29Z</time>
      </trkpt>
      <trkpt lat="46.15663" lon="6.66957">
        <ele>1199</ele>
        <time>2010-01-01T09:16:29Z</time>
      </trkpt>
      <trkpt lat="46.1566" lon="6.66916">
        <ele>1195</ele>
        <time>2010-01-01T09:16:40Z</time>
      </trkpt>
      <trkpt lat="46.15651" lon="6.66849">
        <ele>1189</ele>
        <time>2010-01-01T09:16:59Z</time>
      </trkpt>
      <trkpt lat="46.15651" lon="6.66819">
        <ele>1185</ele>
        <time>2010-01-01T09:17:07Z</time>
      </trkpt>
      <trkpt lat="46.15653" lon="6.66806">
        <ele>1183</ele>
        <time>2010-01-01T09:17:11Z</time>
      </trkpt>
      <trkpt lat="46.15657" lon="6.66804">
        <ele>1182</ele>
        <time>2010-01-01T09:17:13Z</time>
      </trkpt>
      <trkpt lat="46.15672" lon="6.66806">
        <ele>1178</ele>
        <time>2010-01-01T09:17:19Z</time>
      </trkpt>
      <trkpt lat="46.15681" lon="6.6681">
        <ele>1175</ele>
        <time>2010-01-01T09:17:23Z</time>
      </trkpt>
      <trkpt lat="46.15692" lon="6.66819">
        <ele>1173</ele>
        <time>2010-01-01T09:17:27Z</time>
      </trkpt>
      <trkpt lat="46.15697" lon="6.66828">
        <ele>1173</ele>
        <time>2010-01-01T09:17:31Z</time>
      </trkpt>
      <trkpt lat="46.15705" lon="6.66853">
        <ele>1172</ele>
        <time>2010-01-01T09:17:38Z</time>
      </trkpt>
      <trkpt lat="46.1571" lon="6.66863">
        <ele>1172</ele>
        <time>2010-01-01T09:17:42Z</time>
      </trkpt>
      <trkpt lat="46.15717" lon="6.66871">
        <ele>1172</ele>
        <time>2010-01-01T09:17:45Z</time>
      </trkpt>
      <trkpt lat="46.15721" lon="6.6687">
        <ele>1171</ele>
        <time>2010-01-01T09:17:47Z</time>
      </trkpt>
      <trkpt lat="46.15724" lon="6.66868">
        <ele>1171</ele>
        <time>2010-01-01T09:17:48Z</time>
      </trkpt>
      <trkpt lat="46.15723" lon="6.66863">
        <ele>1171</ele>
        <time>2010-01-01T09:17:50Z</time>
      </trkpt>
      <trkpt lat="46.15722" lon="6.66858">
        <ele>1171</ele>
        <time>2010-01-01T09:17:51Z</time>
      </trkpt>
      <trkpt lat="46.15716" lon="6.66844">
        <ele>1170</ele>
        <time>2010-01-01T09:17:56Z</time>
      </trkpt>
      <trkpt lat="46.15716" lon="6.66841">
        <ele>1170</ele>
        <time>2010-01-01T09:17:57Z</time>
      </trkpt>
      <trkpt lat="46.15718" lon="6.66837">
        <ele>1169</ele>
        <time>2010-01-01T09:17:58Z</time>
      </trkpt>
      <trkpt lat="46.15732" lon="6.66851">
        <ele>1168</ele>
        <time>2010-01-01T09:18:05Z</time>
      </trkpt>
      <trkpt lat="46.15755" lon="6.66878">
        <ele>1168</ele>
        <time>2010-01-01T09:18:16Z</time>
      </trkpt>
      <trkpt lat="46.15816" lon="6.66927">
        <ele>1167</ele>
        <time>2010-01-01T09:18:44Z</time>
      </trkpt>
      <trkpt lat="46.15842" lon="6.66946">
        <ele>1167</ele>
        <time>2010-01-01T09:18:56Z</time>
      </trkpt>
      <trkpt lat="46.15864" lon="6.66954">
        <ele>1168</ele>
        <time>2010-01-01T09:19:05Z</time>
      </trkpt>
      <trkpt lat="46.15881" lon="6.66963">
        <ele>1168</ele>
        <time>2010-01-01T09:19:13Z</time>
      </trkpt>
      <trkpt lat="46.15893" lon="6.66972">
        <ele>1169</ele>
        <time>2010-01-01T09:19:18Z</time>
      </trkpt>
      <trkpt lat="46.15903" lon="6.66984">
        <ele>1170</ele>
        <time>2010-01-01T09:19:23Z</time>
      </trkpt>
      <trkpt lat="46.15914" lon="6.66989">
        <ele>1170</ele>
        <time>2010-01-01T09:19:28Z</time>
      </trkpt>
      <trkpt lat="46.15928" lon="6.67003">
        <ele>1169</ele>
        <time>2010-01-01T09:19:35Z</time>
      </trkpt>
      <trkpt lat="46.15948" lon="6.67017">
        <ele>1170</ele>
        <time>2010-01-01T09:19:44Z</time>
      </trkpt>
      <trkpt lat="46.15961" lon="6.67041">
        <ele>1170</ele>
        <time>2010-01-01T09:19:52Z</time>
      </trkpt>
      <trkpt lat="46.15978" lon="6.67081">
        <ele>1171</ele>
        <time>2010-01-01T09:20:05Z</time>
      </trkpt>
      <trkpt lat="46.15984" lon="6.67105">
        <ele>1170</ele>
        <time>2010-01-01T09:20:12Z</time>
      </trkpt>
      <trkpt lat="46.15989" lon="6.67143">
        <ele>1171</ele>
        <time>2010-01-01T09:20:23Z</time>
      </trkpt>
      <trkpt lat="46.15998" lon="6.67171">
        <ele>1170</ele>
        <time>2010-01-01T09:20:31Z</time>
      </trkpt>
      <trkpt lat="46.16002" lon="6.6718">
        <ele>1171</ele>
        <time>2010-01-01T09:20:34Z</time>
      </trkpt>
      <trkpt lat="46.16019" lon="6.67209">
        <ele>1172</ele>
        <time>2010-01-01T09:20:45Z</time>
      </trkpt>
      <trkpt lat="46.16037" lon="6.67204">
        <ele>1172</ele>
        <time>2010-01-01T09:20:52Z</time>
      </trkpt>
      <trkpt lat="46.1605" lon="6.67203">
        <ele>1172</ele>
        <time>2010-01-01T09:20:57Z</time>
      </trkpt>
      <trkpt lat="46.1608" lon="6.67211">
        <ele>1172</ele>
        <time>2010-01-01T09:21:10Z</time>
      </trkpt>
      <trkpt lat="46.16086" lon="6.67214">
        <ele>1172</ele>
        <time>2010-01-01T09:21:12Z</time>
      </trkpt>
      <trkpt lat="46.16091" lon="6.6722">
        <ele>1172</ele>
        <time>2010-01-01T09:21:15Z</time>
      </trkpt>
      <trkpt lat="46.16108" lon="6.67241">
        <ele>1172</ele>
        <time>2010-01-01T09:21:24Z</time>
      </trkpt>
      <trkpt lat="46.16135" lon="6.67271">
        <ele>1170</ele>
        <time>2010-01-01T09:21:37Z</time>
      </trkpt>
      <trkpt lat="46.1616" lon="6.67301">
        <ele>1170</ele>
        <time>2010-01-01T09:21:50Z</time>
      </trkpt>
      <trkpt lat="46.1618" lon="6.67319">
        <ele>1170</ele>
        <time>2010-01-01T09:22:00Z</time>
      </trkpt>
      <trkpt lat="46.16193" lon="6.67328">
        <ele>1170</ele>
        <time>2010-01-01T09:22:06Z</time>
      </trkpt>
      <trkpt lat="46.16214" lon="6.67335">
        <ele>1169</ele>
        <time>2010-01-01T09:22:14Z</time>
      </trkpt>
      <trkpt lat="46.16242" lon="6.67336">
        <ele>1169</ele>
        <time>2010-01-01T09:22:25Z</time>
      </trkpt>
      <trkpt lat="46.16242" lon="6.67336">
        <ele>1169</ele>
        <time>2010-01-01T09:22:25Z</time>
      </trkpt>
      <trkpt lat="46.16263" lon="6.67338">
        <ele>1168</ele>
        <time>2010-01-01T09:22:34Z</time>
      </trkpt>
      <trkpt lat="46.16276" lon="6.67346">
        <ele>1167</ele>
        <time>2010-01-01T09:22:39Z</time>
      </trkpt>
      <trkpt lat="46.1635" lon="6.67416">
        <ele>1163</ele>
        <time>2010-01-01T09:23:15Z</time>
      </trkpt>
      <trkpt lat="46.16414" lon="6.67469">
        <ele>1161</ele>
        <time>2010-01-01T09:23:44Z</time>
      </trkpt>
      <trkpt lat="46.16451" lon="6.67495">
        <ele>1159</ele>
        <time>2010-01-01T09:24:01Z</time>
      </trkpt>
      <trkpt lat="46.1652" lon="6.67533">
        <ele>1158</ele>
        <time>2010-01-01T09:24:30Z</time>
      </trkpt>
      <trkpt lat="46.16548" lon="6.6755">
        <ele>1156</ele>
        <time>2010-01-01T09:24:43Z</time>
      </trkpt>
      <trkpt lat="46.16562" lon="6.67562">
        <ele>1156</ele>
        <time>2010-01-01T09:24:49Z</time>
      </trkpt>
      <trkpt lat="46.16608" lon="6.67611">
        <ele>1155</ele>
        <time>2010-01-01T09:25:12Z</time>
      </trkpt>
      <trkpt lat="46.16622" lon="6.67623">
        <ele>1154</ele>
        <time>2010-01-01T09:25:18Z</time>
      </trkpt>
      <trkpt lat="46.16675" lon="6.67651">
        <ele>1151</ele>
        <time>2010-01-01T09:25:41Z</time>
      </trkpt>
      <trkpt lat="46.16679" lon="6.67646">
        <ele>1152</ele>
        <time>2010-01-01T09:25:43Z</time>
      </trkpt>
      <trkpt lat="46.16689" lon="6.67624">
        <ele>1151</ele>
        <time>2010-01-01T09:25:50Z</time>
      </trkpt>
      <trkpt lat="46.16693" lon="6.6762">
        <ele>1151</ele>
        <time>2010-01-01T09:25:52Z</time>
      </trkpt>
      <trkpt lat="46.16697" lon="6.6762">
        <ele>1151</ele>
        <time>2010-01-01T09:25:54Z</time>
      </trkpt>
      <trkpt lat="46.16702" lon="6.67623">
        <ele>1151</ele>
        <time>2010-01-01T09:25:56Z</time>
      </trkpt>
      <trkpt lat="46.16714" lon="6.67645">
        <ele>1149</ele>
        <time>2010-01-01T09:26:04Z</time>
      </trkpt>
      <trkpt lat="46.16725" lon="6.67658">
        <ele>1149</ele>
        <time>2010-01-01T09:26:10Z</time>
      </trkpt>
      <trkpt lat="46.16749" lon="6.67673">
        <ele>1148</ele>
        <time>2010-01-01T09:26:20Z</time>
      </trkpt>
      <trkpt lat="46.16775" lon="6.67682">
        <ele>1147</ele>
        <time>2010-01-01T09:26:31Z</time>
      </trkpt>
      <trkpt lat="46.16786" lon="6.67682">
        <ele>1147</ele>
        <time>2010-01-01T09:26:35Z</time>
      </trkpt>
      <trkpt lat="46.16797" lon="6.6768">
        <ele>1147</ele>
        <time>2010-01-01T09:26:40Z</time>
      </trkpt>
      <trkpt lat="46.16816" lon="6.67668">
        <ele>1146</ele>
        <time>2010-01-01T09:26:48Z</time>
      </trkpt>
      <trkpt lat="46.16832" lon="6.67655">
        <ele>1146</ele>
        <time>2010-01-01T09:26:55Z</time>
      </trkpt>
      <trkpt lat="46.16841" lon="6.6765">
        <ele>1146</ele>
        <time>2010-01-01T09:26:59Z</time>
      </trkpt>
      <trkpt lat="46.16849" lon="6.67648">
        <ele>1145</ele>
        <time>2010-01-01T09:27:03Z</time>
      </trkpt>
      <trkpt lat="46.16857" lon="6.67648">
        <ele>1145</ele>
        <time>2010-01-01T09:27:06Z</time>
      </trkpt>
      <trkpt lat="46.1688" lon="6.67658">
        <ele>1146</ele>
        <time>2010-01-01T09:27:15Z</time>
      </trkpt>
      <trkpt lat="46.16887" lon="6.67659">
        <ele>1146</ele>
        <time>2010-01-01T09:27:18Z</time>
      </trkpt>
      <trkpt lat="46.16907" lon="6.67657">
        <ele>1146</ele>
        <time>2010-01-01T09:27:26Z</time>
      </trkpt>
      <trkpt lat="46.16931" lon="6.67658">
        <ele>1146</ele>
        <time>2010-01-01T09:27:36Z</time>
      </trkpt>
      <trkpt lat="46.16942" lon="6.6766">
        <ele>1146</ele>
        <time>2010-01-01T09:27:40Z</time>
      </trkpt>
      <trkpt lat="46.16957" lon="6.67668">
        <ele>1145</ele>
        <time>2010-01-01T09:27:46Z</time>
      </trkpt>
      <trkpt lat="46.16976" lon="6.67681">
        <ele>1147</ele>
        <time>2010-01-01T09:27:55Z</time>
      </trkpt>
      <trkpt lat="46.1699" lon="6.67688">
        <ele>1148</ele>
        <time>2010-01-01T09:28:01Z</time>
      </trkpt>
      <trkpt lat="46.17047" lon="6.67706">
        <ele>1145</ele>
        <time>2010-01-01T09:28:24Z</time>
      </trkpt>
      <trkpt lat="46.17047" lon="6.67706">
        <ele>1145</ele>
        <time>2010-01-01T09:28:24Z</time>
      </trkpt>
      <trkpt lat="46.17073" lon="6.67718">
        <ele>1144</ele>
        <time>2010-01-01T09:28:35Z</time>
      </trkpt>
      <trkpt lat="46.17104" lon="6.67742">
        <ele>1142</ele>
        <time>2010-01-01T09:28:49Z</time>
      </trkpt>
      <trkpt lat="46.17115" lon="6.67747">
        <ele>1141</ele>
        <time>2010-01-01T09:28:54Z</time>
      </trkpt>
      <trkpt lat="46.17157" lon="6.67753">
        <ele>1141</ele>
        <time>2010-01-01T09:29:10Z</time>
      </trkpt>
      <trkpt lat="46.17164" lon="6.67756">
        <ele>1141</ele>
        <time>2010-01-01T09:29:14Z</time>
      </trkpt>
      <trkpt lat="46.1718" lon="6.67766">
        <ele>1141</ele>
        <time>2010-01-01T09:29:21Z</time>
      </trkpt>
      <trkpt lat="46.17195" lon="6.67771">
        <ele>1141</ele>
        <time>2010-01-01T09:29:27Z</time>
      </trkpt>
      <trkpt lat="46.1722" lon="6.67774">
        <ele>1142</ele>
        <time>2010-01-01T09:29:37Z</time>
      </trkpt>
      <trkpt lat="46.1724" lon="6.67774">
        <ele>1142</ele>
        <time>2010-01-01T09:29:45Z</time>
      </trkpt>
      <trkpt lat="46.17254" lon="6.67776">
        <ele>1143</ele>
        <time>2010-01-01T09:29:50Z</time>
      </trkpt>
      <trkpt lat="46.17271" lon="6.67782">
        <ele>1142</ele>
        <time>2010-01-01T09:29:57Z</time>
      </trkpt>
      <trkpt lat="46.17298" lon="6.67801">
        <ele>1141</ele>
        <time>2010-01-01T09:30:09Z</time>
      </trkpt>
      <trkpt lat="46.17305" lon="6.6781">
        <ele>1141</ele>
        <time>2010-01-01T09:30:13Z</time>
      </trkpt>
      <trkpt lat="46.17313" lon="6.67826">
        <ele>1141</ele>
        <time>2010-01-01T09:30:19Z</time>
      </trkpt>
      <trkpt lat="46.17322" lon="6.67837">
        <ele>1141</ele>
        <time>2010-01-01T09:30:23Z</time>
      </trkpt>
      <trkpt lat="46.17327" lon="6.6784">
        <ele>1141</ele>
        <time>2010-01-01T09:30:25Z</time>
      </trkpt>
      <trkpt lat="46.17376" lon="6.67857">
        <ele>1140</ele>
        <time>2010-01-01T09:30:46Z</time>
      </trkpt>
      <trkpt lat="46.17381" lon="6.67861">
        <ele>1139</ele>
        <time>2010-01-01T09:30:48Z</time>
      </trkpt>
      <trkpt lat="46.1739" lon="6.67865">
        <ele>1138</ele>
        <time>2010-01-01T09:30:52Z</time>
      </trkpt>
      <trkpt lat="46.17405" lon="6.67881">
        <ele>1136</ele>
        <time>2010-01-01T09:30:59Z</time>
      </trkpt>
      <trkpt lat="46.17428" lon="6.67897">
        <ele>1136</ele>
        <time>2010-01-01T09:31:09Z</time>
      </trkpt>
      <trkpt lat="46.1746" lon="6.67916">
        <ele>1135</ele>
        <time>2010-01-01T09:31:23Z</time>
      </trkpt>
      <trkpt lat="46.17496" lon="6.67931">
        <ele>1133</ele>
        <time>2010-01-01T09:31:38Z</time>
      </trkpt>
      <trkpt lat="46.17513" lon="6.67934">
        <ele>1133</ele>
        <time>2010-01-01T09:31:45Z</time>
      </trkpt>
      <trkpt lat="46.17529" lon="6.6794">
        <ele>1133</ele>
        <time>2010-01-01T09:31:52Z</time>
      </trkpt>
      <trkpt lat="46.17566" lon="6.67942">
        <ele>1135</ele>
        <time>2010-01-01T09:32:06Z</time>
      </trkpt>
      <trkpt lat="46.17575" lon="6.67945">
        <ele>1135</ele>
        <time>2010-01-01T09:32:10Z</time>
      </trkpt>
      <trkpt lat="46.17591" lon="6.67954">
        <ele>1135</ele>
        <time>2010-01-01T09:32:17Z</time>
      </trkpt>
      <trkpt lat="46.17601" lon="6.67956">
        <ele>1135</ele>
        <time>2010-01-01T09:32:21Z</time>
      </trkpt>
      <trkpt lat="46.17629" lon="6.67959">
        <ele>1134</ele>
        <time>2010-01-01T09:32:32Z</time>
      </trkpt>
      <trkpt lat="46.17636" lon="6.67962">
        <ele>1134</ele>
        <time>2010-01-01T09:32:35Z</time>
      </trkpt>
      <trkpt lat="46.17661" lon="6.67986">
        <ele>1135</ele>
        <time>2010-01-01T09:32:47Z</time>
      </trkpt>
      <trkpt lat="46.17675" lon="6.67995">
        <ele>1135</ele>
        <time>2010-01-01T09:32:53Z</time>
      </trkpt>
      <trkpt lat="46.17685" lon="6.67995">
        <ele>1137</ele>
        <time>2010-01-01T09:32:57Z</time>
      </trkpt>
      <trkpt lat="46.17703" lon="6.67999">
        <ele>1139</ele>
        <time>2010-01-01T09:33:05Z</time>
      </trkpt>
      <trkpt lat="46.17712" lon="6.67996">
        <ele>1137</ele>
        <time>2010-01-01T09:33:08Z</time>
      </trkpt>
      <trkpt lat="46.17717" lon="6.67997">
        <ele>1137</ele>
        <time>2010-01-01T09:33:10Z</time>
      </trkpt>
      <trkpt lat="46.17733" lon="6.68008">
        <ele>1139</ele>
        <time>2010-01-01T09:33:17Z</time>
      </trkpt>
      <trkpt lat="46.17749" lon="6.68008">
        <ele>1137</ele>
        <time>2010-01-01T09:33:24Z</time>
      </trkpt>
      <trkpt lat="46.17764" lon="6.68011">
        <ele>1138</ele>
        <time>2010-01-01T09:33:30Z</time>
      </trkpt>
      <trkpt lat="46.17776" lon="6.68007">
        <ele>1137</ele>
        <time>2010-01-01T09:33:35Z</time>
      </trkpt>
      <trkpt lat="46.17791" lon="6.67998">
        <ele>1135</ele>
        <time>2010-01-01T09:33:41Z</time>
      </trkpt>
      <trkpt lat="46.17803" lon="6.68001">
        <ele>1135</ele>
        <time>2010-01-01T09:33:46Z</time>
      </trkpt>
      <trkpt lat="46.17822" lon="6.68">
        <ele>1136</ele>
        <time>2010-01-01T09:33:54Z</time>
      </trkpt>
      <trkpt lat="46.17826" lon="6.68">
        <ele>1136</ele>
        <time>2010-01-01T09:33:55Z</time>
      </trkpt>
      <trkpt lat="46.17832" lon="6.67996">
        <ele>1134</ele>
        <time>2010-01-01T09:33:58Z</time>
      </trkpt>
      <trkpt lat="46.17857" lon="6.67993">
        <ele>1135</ele>
        <time>2010-01-01T09:34:08Z</time>
      </trkpt>
      <trkpt lat="46.1788" lon="6.67988">
        <ele>1140</ele>
        <time>2010-01-01T09:34:17Z</time>
      </trkpt>
      <trkpt lat="46.17884" lon="6.67986">
        <ele>1140</ele>
        <time>2010-01-01T09:34:19Z</time>
      </trkpt>
      <trkpt lat="46.17884" lon="6.67986">
        <ele>1140</ele>
        <time>2010-01-01T09:34:19Z</time>
      </trkpt>
      <trkpt lat="46.17899" lon="6.6798">
        <ele>1139</ele>
        <time>2010-01-01T09:34:25Z</time>
      </trkpt>
      <trkpt lat="46.17911" lon="6.67969">
        <ele>1137</ele>
        <time>2010-01-01T09:34:31Z</time>
      </trkpt>
      <trkpt lat="46.17919" lon="6.67967">
        <ele>1137</ele>
        <time>2010-01-01T09:34:34Z</time>
      </trkpt>
      <trkpt lat="46.17932" lon="6.67971">
        <ele>1138</ele>
        <time>2010-01-01T09:34:40Z</time>
      </trkpt>
      <trkpt lat="46.17937" lon="6.67971">
        <ele>1138</ele>
        <time>2010-01-01T09:34:42Z</time>
      </trkpt>
      <trkpt lat="46.17953" lon="6.67968">
        <ele>1137</ele>
        <time>2010-01-01T09:34:48Z</time>
      </trkpt>
      <trkpt lat="46.17977" lon="6.67959">
        <ele>1139</ele>
        <time>2010-01-01T09:34:58Z</time>
      </trkpt>
      <trkpt lat="46.17996" lon="6.67954">
        <ele>1139</ele>
        <time>2010-01-01T09:35:06Z</time>
      </trkpt>
      <trkpt lat="46.18015" lon="6.67939">
        <ele>1138</ele>
        <time>2010-01-01T09:35:15Z</time>
      </trkpt>
      <trkpt lat="46.18021" lon="6.67937">
        <ele>1139</ele>
        <time>2010-01-01T09:35:17Z</time>
      </trkpt>
      <trkpt lat="46.1803" lon="6.67941">
        <ele>1139</ele>
        <time>2010-01-01T09:35:21Z</time>
      </trkpt>
      <trkpt lat="46.18038" lon="6.67942">
        <ele>1139</ele>
        <time>2010-01-01T09:35:24Z</time>
      </trkpt>
      <trkpt lat="46.18055" lon="6.67941">
        <ele>1141</ele>
        <time>2010-01-01T09:35:31Z</time>
      </trkpt>
      <trkpt lat="46.18063" lon="6.67938">
        <ele>1140</ele>
        <time>2010-01-01T09:35:34Z</time>
      </trkpt>
      <trkpt lat="46.1808" lon="6.67926">
        <ele>1139</ele>
        <time>2010-01-01T09:35:41Z</time>
      </trkpt>
      <trkpt lat="46.18109" lon="6.67923">
        <ele>1137</ele>
        <time>2010-01-01T09:35:53Z</time>
      </trkpt>
      <trkpt lat="46.18129" lon="6.67917">
        <ele>1135</ele>
        <time>2010-01-01T09:36:01Z</time>
      </trkpt>
      <trkpt lat="46.1815" lon="6.67907">
        <ele>1132</ele>
        <time>2010-01-01T09:36:10Z</time>
      </trkpt>
      <trkpt lat="46.18187" lon="6.67886">
        <ele>1131</ele>
        <time>2010-01-01T09:36:26Z</time>
      </trkpt>
      <trkpt lat="46.18205" lon="6.67883">
        <ele>1131</ele>
        <time>2010-01-01T09:36:33Z</time>
      </trkpt>
      <trkpt lat="46.18224" lon="6.67875">
        <ele>1129</ele>
        <time>2010-01-01T09:36:41Z</time>
      </trkpt>
      <trkpt lat="46.18239" lon="6.67865">
        <ele>1124</ele>
        <time>2010-01-01T09:36:48Z</time>
      </trkpt>
      <trkpt lat="46.18249" lon="6.67855">
        <ele>1118</ele>
        <time>2010-01-01T09:36:53Z</time>
      </trkpt>
      <trkpt lat="46.18265" lon="6.67859">
        <ele>1105</ele>
        <time>2010-01-01T09:36:59Z</time>
      </trkpt>
      <trkpt lat="46.1828" lon="6.67858">
        <ele>1101</ele>
        <time>2010-01-01T09:37:05Z</time>
      </trkpt>
      <trkpt lat="46.18306" lon="6.67832">
        <ele>1092</ele>
        <time>2010-01-01T09:37:18Z</time>
      </trkpt>
      <trkpt lat="46.18324" lon="6.67809">
        <ele>1086</ele>
        <time>2010-01-01T09:37:27Z</time>
      </trkpt>
      <trkpt lat="46.18328" lon="6.67806">
        <ele>1085</ele>
        <time>2010-01-01T09:37:29Z</time>
      </trkpt>
      <trkpt lat="46.18366" lon="6.67798">
        <ele>1079</ele>
        <time>2010-01-01T09:37:45Z</time>
      </trkpt>
      <trkpt lat="46.18378" lon="6.67798">
        <ele>1079</ele>
        <time>2010-01-01T09:37:49Z</time>
      </trkpt>
      <trkpt lat="46.18393" lon="6.67795">
        <ele>1076</ele>
        <time>2010-01-01T09:37:55Z</time>
      </trkpt>
      <trkpt lat="46.18423" lon="6.67797">
        <ele>1073</ele>
        <time>2010-01-01T09:38:07Z</time>
      </trkpt>
      <trkpt lat="46.18438" lon="6.67795">
        <ele>1074</ele>
        <time>2010-01-01T09:38:13Z</time>
      </trkpt>
      <trkpt lat="46.18477" lon="6.67784">
        <ele>1070</ele>
        <time>2010-01-01T09:38:29Z</time>
      </trkpt>
      <trkpt lat="46.18487" lon="6.6778">
        <ele>1068</ele>
        <time>2010-01-01T09:38:34Z</time>
      </trkpt>
      <trkpt lat="46.18538" lon="6.67762">
        <ele>1069</ele>
        <time>2010-01-01T09:38:55Z</time>
      </trkpt>
      <trkpt lat="46.18587" lon="6.67739">
        <ele>1068</ele>
        <time>2010-01-01T09:39:15Z</time>
      </trkpt>
      <trkpt lat="46.18595" lon="6.67739">
        <ele>1067</ele>
        <time>2010-01-01T09:39:19Z</time>
      </trkpt>
      <trkpt lat="46.18599" lon="6.67746">
        <ele>1067</ele>
        <time>2010-01-01T09:39:21Z</time>
      </trkpt>
      <trkpt lat="46.186" lon="6.67755">
        <ele>1066</ele>
        <time>2010-01-01T09:39:24Z</time>
      </trkpt>
      <trkpt lat="46.18598" lon="6.67763">
        <ele>1066</ele>
        <time>2010-01-01T09:39:26Z</time>
      </trkpt>
      <trkpt lat="46.18584" lon="6.67783">
        <ele>1066</ele>
        <time>2010-01-01T09:39:34Z</time>
      </trkpt>
      <trkpt lat="46.18577" lon="6.67792">
        <ele>1065</ele>
        <time>2010-01-01T09:39:38Z</time>
      </trkpt>
      <trkpt lat="46.18556" lon="6.67806">
        <ele>1063</ele>
        <time>2010-01-01T09:39:47Z</time>
      </trkpt>
      <trkpt lat="46.18526" lon="6.67821">
        <ele>1061</ele>
        <time>2010-01-01T09:40:00Z</time>
      </trkpt>
      <trkpt lat="46.18506" lon="6.67836">
        <ele>1060</ele>
        <time>2010-01-01T09:40:09Z</time>
      </trkpt>
      <trkpt lat="46.18495" lon="6.67843">
        <ele>1060</ele>
        <time>2010-01-01T09:40:13Z</time>
      </trkpt>
      <trkpt lat="46.18495" lon="6.67843">
        <ele>1060</ele>
        <time>2010-01-01T09:40:13Z</time>
      </trkpt>
      <trkpt lat="46.18469" lon="6.67861">
        <ele>1059</ele>
        <time>2010-01-01T09:40:25Z</time>
      </trkpt>
      <trkpt lat="46.1845" lon="6.6787">
        <ele>1058</ele>
        <time>2010-01-01T09:40:33Z</time>
      </trkpt>
      <trkpt lat="46.1843" lon="6.67872">
        <ele>1058</ele>
        <time>2010-01-01T09:40:41Z</time>
      </trkpt>
      <trkpt lat="46.18406" lon="6.67873">
        <ele>1057</ele>
        <time>2010-01-01T09:40:50Z</time>
      </trkpt>
      <trkpt lat="46.18356" lon="6.67885">
        <ele>1054</ele>
        <time>2010-01-01T09:41:11Z</time>
      </trkpt>
      <trkpt lat="46.18343" lon="6.67905">
        <ele>1052</ele>
        <time>2010-01-01T09:41:18Z</time>
      </trkpt>
      <trkpt lat="46.18356" lon="6.67918">
        <ele>1054</ele>
        <time>2010-01-01T09:41:25Z</time>
      </trkpt>
      <trkpt lat="46.18374" lon="6.6793">
        <ele>1053</ele>
        <time>2010-01-01T09:41:33Z</time>
      </trkpt>
      <trkpt lat="46.18389" lon="6.67936">
        <ele>1052</ele>
        <time>2010-01-01T09:41:39Z</time>
      </trkpt>
      <trkpt lat="46.18407" lon="6.67953">
        <ele>1051</ele>
        <time>2010-01-01T09:41:48Z</time>
      </trkpt>
      <trkpt lat="46.1841" lon="6.67958">
        <ele>1051</ele>
        <time>2010-01-01T09:41:50Z</time>
      </trkpt>
      <trkpt lat="46.1841" lon="6.67964">
        <ele>1051</ele>
        <time>2010-01-01T09:41:51Z</time>
      </trkpt>
      <trkpt lat="46.18415" lon="6.67981">
        <ele>1052</ele>
        <time>2010-01-01T09:41:57Z</time>
      </trkpt>
      <trkpt lat="46.18415" lon="6.67988">
        <ele>1052</ele>
        <time>2010-01-01T09:41:58Z</time>
      </trkpt>
      <trkpt lat="46.18414" lon="6.67991">
        <ele>1052</ele>
        <time>2010-01-01T09:41:59Z</time>
      </trkpt>
      <trkpt lat="46.18414" lon="6.67991">
        <ele>1052</ele>
        <time>2010-01-01T09:42:00Z</time>
      </trkpt>
      <trkpt lat="46.18413" lon="6.67989">
        <ele>1053</ele>
        <time>2010-01-01T09:42:00Z</time>
      </trkpt>
      <trkpt lat="46.18418" lon="6.67991">
        <ele>1053</ele>
        <time>2010-01-01T09:42:02Z</time>
      </trkpt>
      <trkpt lat="46.18438" lon="6.68002">
        <ele>1052</ele>
        <time>2010-01-01T09:42:11Z</time>
      </trkpt>
      <trkpt lat="46.1846" lon="6.68008">
        <ele>1057</ele>
        <time>2010-01-01T09:42:20Z</time>
      </trkpt>
      <trkpt lat="46.18472" lon="6.68009">
        <ele>1058</ele>
        <time>2010-01-01T09:42:24Z</time>
      </trkpt>
      <trkpt lat="46.18484" lon="6.68015">
        <ele>1059</ele>
        <time>2010-01-01T09:42:30Z</time>
      </trkpt>
      <trkpt lat="46.18492" lon="6.68015">
        <ele>1059</ele>
        <time>2010-01-01T09:42:33Z</time>
      </trkpt>
      <trkpt lat="46.18499" lon="6.68013">
        <ele>1061</ele>
        <time>2010-01-01T09:42:36Z</time>
      </trkpt>
      <trkpt lat="46.18501" lon="6.68013">
        <ele>1062</ele>
        <time>2010-01-01T09:42:37Z</time>
      </trkpt>
      <trkpt lat="46.18508" lon="6.68019">
        <ele>1062</ele>
        <time>2010-01-01T09:42:40Z</time>
      </trkpt>
      <trkpt lat="46.18513" lon="6.68041">
        <ele>1067</ele>
        <time>2010-01-01T09:42:46Z</time>
      </trkpt>
      <trkpt lat="46.18512" lon="6.68055">
        <ele>1068</ele>
        <time>2010-01-01T09:42:50Z</time>
      </trkpt>
      <trkpt lat="46.18509" lon="6.68069">
        <ele>1070</ele>
        <time>2010-01-01T09:42:54Z</time>
      </trkpt>
      <trkpt lat="46.18506" lon="6.68074">
        <ele>1072</ele>
        <time>2010-01-01T09:42:56Z</time>
      </trkpt>
      <trkpt lat="46.18498" lon="6.68105">
        <ele>1074</ele>
        <time>2010-01-01T09:43:05Z</time>
      </trkpt>
      <trkpt lat="46.18495" lon="6.68112">
        <ele>1075</ele>
        <time>2010-01-01T09:43:08Z</time>
      </trkpt>
      <trkpt lat="46.18492" lon="6.68134">
        <ele>1076</ele>
        <time>2010-01-01T09:43:14Z</time>
      </trkpt>
      <trkpt lat="46.18492" lon="6.68142">
        <ele>1076</ele>
        <time>2010-01-01T09:43:16Z</time>
      </trkpt>
      <trkpt lat="46.18496" lon="6.68159">
        <ele>1078</ele>
        <time>2010-01-01T09:43:21Z</time>
      </trkpt>
      <trkpt lat="46.18502" lon="6.68176">
        <ele>1079</ele>
        <time>2010-01-01T09:43:26Z</time>
      </trkpt>
      <trkpt lat="46.18529" lon="6.68192">
        <ele>1080</ele>
        <time>2010-01-01T09:43:38Z</time>
      </trkpt>
      <trkpt lat="46.18555" lon="6.68204">
        <ele>1078</ele>
        <time>2010-01-01T09:43:49Z</time>
      </trkpt>
      <trkpt lat="46.18567" lon="6.68206">
        <ele>1078</ele>
        <time>2010-01-01T09:43:54Z</time>
      </trkpt>
      <trkpt lat="46.18579" lon="6.68207">
        <ele>1076</ele>
        <time>2010-01-01T09:43:58Z</time>
      </trkpt>
      <trkpt lat="46.18642" lon="6.68223">
        <ele>1074</ele>
        <time>2010-01-01T09:44:24Z</time>
      </trkpt>
      <trkpt lat="46.18676" lon="6.68228">
        <ele>1073</ele>
        <time>2010-01-01T09:44:38Z</time>
      </trkpt>
      <trkpt lat="46.1871" lon="6.68242">
        <ele>1069</ele>
        <time>2010-01-01T09:44:52Z</time>
      </trkpt>
      <trkpt lat="46.18719" lon="6.68244">
        <ele>1069</ele>
        <time>2010-01-01T09:44:56Z</time>
      </trkpt>
      <trkpt lat="46.1875" lon="6.68245">
        <ele>1068</ele>
        <time>2010-01-01T09:45:08Z</time>
      </trkpt>
      <trkpt lat="46.18792" lon="6.68258">
        <ele>1065</ele>
        <time>2010-01-01T09:45:25Z</time>
      </trkpt>
      <trkpt lat="46.18812" lon="6.68268">
        <ele>1061</ele>
        <time>2010-01-01T09:45:34Z</time>
      </trkpt>
      <trkpt lat="46.1885" lon="6.68293">
        <ele>1057</ele>
        <time>2010-01-01T09:45:50Z</time>
      </trkpt>
      <trkpt lat="46.18888" lon="6.68316">
        <ele>1052</ele>
        <time>2010-01-01T09:46:07Z</time>
      </trkpt>
      <trkpt lat="46.18888" lon="6.68316">
        <ele>1052</ele>
        <time>2010-01-01T09:46:07Z</time>
      </trkpt>
      <trkpt lat="46.18915" lon="6.68337">
        <ele>1049</ele>
        <time>2010-01-01T09:46:19Z</time>
      </trkpt>
      <trkpt lat="46.18923" lon="6.68346">
        <ele>1048</ele>
        <time>2010-01-01T09:46:23Z</time>
      </trkpt>
      <trkpt lat="46.18945" lon="6.68376">
        <ele>1044</ele>
        <time>2010-01-01T09:46:35Z</time>
      </trkpt>
      <trkpt lat="46.18962" lon="6.68391">
        <ele>1043</ele>
        <time>2010-01-01T09:46:43Z</time>
      </trkpt>
      <trkpt lat="46.18969" lon="6.68395">
        <ele>1042</ele>
        <time>2010-01-01T09:46:46Z</time>
      </trkpt>
      <trkpt lat="46.19014" lon="6.68406">
        <ele>1038</ele>
        <time>2010-01-01T09:47:05Z</time>
      </trkpt>
      <trkpt lat="46.1903" lon="6.68413">
        <ele>1037</ele>
        <time>2010-01-01T09:47:11Z</time>
      </trkpt>
      <trkpt lat="46.19046" lon="6.68421">
        <ele>1036</ele>
        <time>2010-01-01T09:47:18Z</time>
      </trkpt>
      <trkpt lat="46.19054" lon="6.68427">
        <ele>1035</ele>
        <time>2010-01-01T09:47:22Z</time>
      </trkpt>
      <trkpt lat="46.19087" lon="6.68457">
        <ele>1031</ele>
        <time>2010-01-01T09:47:37Z</time>
      </trkpt>
      <trkpt lat="46.19122" lon="6.68485">
        <ele>1029</ele>
        <time>2010-01-01T09:47:53Z</time>
      </trkpt>
      <trkpt lat="46.19148" lon="6.68522">
        <ele>1024</ele>
        <time>2010-01-01T09:48:08Z</time>
      </trkpt>
      <trkpt lat="46.19162" lon="6.68536">
        <ele>1023</ele>
        <time>2010-01-01T09:48:15Z</time>
      </trkpt>
      <trkpt lat="46.19177" lon="6.68545">
        <ele>1022</ele>
        <time>2010-01-01T09:48:21Z</time>
      </trkpt>
      <trkpt lat="46.19175" lon="6.6854">
        <ele>1021</ele>
        <time>2010-01-01T09:48:23Z</time>
      </trkpt>
      <trkpt lat="46.19176" lon="6.68539">
        <ele>1020</ele>
        <time>2010-01-01T09:48:24Z</time>
      </trkpt>
      <trkpt lat="46.19188" lon="6.68541">
        <ele>1020</ele>
        <time>2010-01-01T09:48:29Z</time>
      </trkpt>
      <trkpt lat="46.19206" lon="6.68554">
        <ele>1018</ele>
        <time>2010-01-01T09:48:36Z</time>
      </trkpt>
      <trkpt lat="46.1922" lon="6.68574">
        <ele>1017</ele>
        <time>2010-01-01T09:48:44Z</time>
      </trkpt>
      <trkpt lat="46.19227" lon="6.68592">
        <ele>1016</ele>
        <time>2010-01-01T09:48:50Z</time>
      </trkpt>
      <trkpt lat="46.19238" lon="6.68627">
        <ele>1015</ele>
        <time>2010-01-01T09:49:01Z</time>
      </trkpt>
      <trkpt lat="46.19257" lon="6.68662">
        <ele>1015</ele>
        <time>2010-01-01T09:49:13Z</time>
      </trkpt>
      <trkpt lat="46.19259" lon="6.68661">
        <ele>1015</ele>
        <time>2010-01-01T09:49:14Z</time>
      </trkpt>
      <trkpt lat="46.19257" lon="6.68648">
        <ele>1013</ele>
        <time>2010-01-01T09:49:18Z</time>
      </trkpt>
      <trkpt lat="46.19257" lon="6.68624">
        <ele>1012</ele>
        <time>2010-01-01T09:49:24Z</time>
      </trkpt>
      <trkpt lat="46.1926" lon="6.686">
        <ele>1012</ele>
        <time>2010-01-01T09:49:31Z</time>
      </trkpt>
      <trkpt lat="46.19271" lon="6.68569">
        <ele>1011</ele>
        <time>2010-01-01T09:49:41Z</time>
      </trkpt>
      <trkpt lat="46.19284" lon="6.68545">
        <ele>1011</ele>
        <time>2010-01-01T09:49:49Z</time>
      </trkpt>
      <trkpt lat="46.1929" lon="6.68539">
        <ele>1010</ele>
        <time>2010-01-01T09:49:52Z</time>
      </trkpt>
      <trkpt lat="46.19302" lon="6.6853">
        <ele>1010</ele>
        <time>2010-01-01T09:49:58Z</time>
      </trkpt>
      <trkpt lat="46.19321" lon="6.68526">
        <ele>1010</ele>
        <time>2010-01-01T09:50:05Z</time>
      </trkpt>
      <trkpt lat="46.19326" lon="6.68527">
        <ele>1009</ele>
        <time>2010-01-01T09:50:07Z</time>
      </trkpt>
      <trkpt lat="46.19337" lon="6.68532">
        <ele>1009</ele>
        <time>2010-01-01T09:50:12Z</time>
      </trkpt>
      <trkpt lat="46.19348" lon="6.68544">
        <ele>1007</ele>
        <time>2010-01-01T09:50:17Z</time>
      </trkpt>
      <trkpt lat="46.19359" lon="6.68564">
        <ele>1006</ele>
        <time>2010-01-01T09:50:24Z</time>
      </trkpt>
      <trkpt lat="46.19364" lon="6.68581">
        <ele>1006</ele>
        <time>2010-01-01T09:50:29Z</time>
      </trkpt>
      <trkpt lat="46.19381" lon="6.68669">
        <ele>1003</ele>
        <time>2010-01-01T09:50:55Z</time>
      </trkpt>
      <trkpt lat="46.19383" lon="6.68692">
        <ele>1002</ele>
        <time>2010-01-01T09:51:01Z</time>
      </trkpt>
      <trkpt lat="46.19381" lon="6.68716">
        <ele>1001</ele>
        <time>2010-01-01T09:51:08Z</time>
      </trkpt>
      <trkpt lat="46.19377" lon="6.6874">
        <ele>1000</ele>
        <time>2010-01-01T09:51:15Z</time>
      </trkpt>
      <trkpt lat="46.1937" lon="6.68763">
        <ele>998</ele>
        <time>2010-01-01T09:51:22Z</time>
      </trkpt>
      <trkpt lat="46.19364" lon="6.68773">
        <ele>998</ele>
        <time>2010-01-01T09:51:25Z</time>
      </trkpt>
      <trkpt lat="46.19334" lon="6.68804">
        <ele>995</ele>
        <time>2010-01-01T09:51:40Z</time>
      </trkpt>
      <trkpt lat="46.19305" lon="6.68838">
        <ele>989</ele>
        <time>2010-01-01T09:51:55Z</time>
      </trkpt>
      <trkpt lat="46.19282" lon="6.68858">
        <ele>985</ele>
        <time>2010-01-01T09:52:06Z</time>
      </trkpt>
      <trkpt lat="46.19282" lon="6.68858">
        <ele>985</ele>
        <time>2010-01-01T09:52:06Z</time>
      </trkpt>
      <trkpt lat="46.19259" lon="6.68876">
        <ele>984</ele>
        <time>2010-01-01T09:52:16Z</time>
      </trkpt>
      <trkpt lat="46.19246" lon="6.68891">
        <ele>982</ele>
        <time>2010-01-01T09:52:23Z</time>
      </trkpt>
      <trkpt lat="46.1924" lon="6.689">
        <ele>981</ele>
        <time>2010-01-01T09:52:26Z</time>
      </trkpt>
      <trkpt lat="46.19237" lon="6.68909">
        <ele>981</ele>
        <time>2010-01-01T09:52:29Z</time>
      </trkpt>
      <trkpt lat="46.19232" lon="6.6893">
        <ele>979</ele>
        <time>2010-01-01T09:52:36Z</time>
      </trkpt>
      <trkpt lat="46.19243" lon="6.68924">
        <ele>978</ele>
        <time>2010-01-01T09:52:40Z</time>
      </trkpt>
      <trkpt lat="46.1926" lon="6.68919">
        <ele>978</ele>
        <time>2010-01-01T09:52:47Z</time>
      </trkpt>
      <trkpt lat="46.19275" lon="6.68909">
        <ele>978</ele>
        <time>2010-01-01T09:52:54Z</time>
      </trkpt>
      <trkpt lat="46.19342" lon="6.6887">
        <ele>975</ele>
        <time>2010-01-01T09:53:23Z</time>
      </trkpt>
      <trkpt lat="46.19373" lon="6.68847">
        <ele>974</ele>
        <time>2010-01-01T09:53:37Z</time>
      </trkpt>
      <trkpt lat="46.1943" lon="6.68799">
        <ele>971</ele>
        <time>2010-01-01T09:54:03Z</time>
      </trkpt>
      <trkpt lat="46.19442" lon="6.68785">
        <ele>971</ele>
        <time>2010-01-01T09:54:09Z</time>
      </trkpt>
      <trkpt lat="46.19454" lon="6.68757">
        <ele>969</ele>
        <time>2010-01-01T09:54:18Z</time>
      </trkpt>
      <trkpt lat="46.19464" lon="6.68714">
        <ele>967</ele>
        <time>2010-01-01T09:54:31Z</time>
      </trkpt>
      <trkpt lat="46.19467" lon="6.68705">
        <ele>967</ele>
        <time>2010-01-01T09:54:34Z</time>
      </trkpt>
      <trkpt lat="46.19471" lon="6.68698">
        <ele>966</ele>
        <time>2010-01-01T09:54:36Z</time>
      </trkpt>
      <trkpt lat="46.19475" lon="6.68694">
        <ele>966</ele>
        <time>2010-01-01T09:54:38Z</time>
      </trkpt>
      <trkpt lat="46.19478" lon="6.68694">
        <ele>966</ele>
        <time>2010-01-01T09:54:39Z</time>
      </trkpt>
      <trkpt lat="46.19481" lon="6.68699">
        <ele>965</ele>
        <time>2010-01-01T09:54:41Z</time>
      </trkpt>
      <trkpt lat="46.19484" lon="6.68711">
        <ele>965</ele>
        <time>2010-01-01T09:54:45Z</time>
      </trkpt>
      <trkpt lat="46.19475" lon="6.68767">
        <ele>964</ele>
        <time>2010-01-01T09:55:01Z</time>
      </trkpt>
      <trkpt lat="46.19471" lon="6.68784">
        <ele>962</ele>
        <time>2010-01-01T09:55:06Z</time>
      </trkpt>
      <trkpt lat="46.19444" lon="6.68863">
        <ele>960</ele>
        <time>2010-01-01T09:55:30Z</time>
      </trkpt>
      <trkpt lat="46.19423" lon="6.68916">
        <ele>960</ele>
        <time>2010-01-01T09:55:47Z</time>
      </trkpt>
      <trkpt lat="46.19417" lon="6.68921">
        <ele>959</ele>
        <time>2010-01-01T09:55:50Z</time>
      </trkpt>
      <trkpt lat="46.19379" lon="6.68981">
        <ele>957</ele>
        <time>2010-01-01T09:56:12Z</time>
      </trkpt>
      <trkpt lat="46.19351" lon="6.6903">
        <ele>956</ele>
        <time>2010-01-01T09:56:30Z</time>
      </trkpt>
      <trkpt lat="46.19333" lon="6.69056">
        <ele>955</ele>
        <time>2010-01-01T09:56:40Z</time>
      </trkpt>
      <trkpt lat="46.1928" lon="6.69143">
        <ele>954</ele>
        <time>2010-01-01T09:57:12Z</time>
      </trkpt>
      <trkpt lat="46.1927" lon="6.69158">
        <ele>953</ele>
        <time>2010-01-01T09:57:18Z</time>
      </trkpt>
      <trkpt lat="46.19235" lon="6.69191">
        <ele>953</ele>
        <time>2010-01-01T09:57:34Z</time>
      </trkpt>
      <trkpt lat="46.19194" lon="6.69216">
        <ele>953</ele>
        <time>2010-01-01T09:57:52Z</time>
      </trkpt>
      <trkpt lat="46.19172" lon="6.69225">
        <ele>953</ele>
        <time>2010-01-01T09:58:01Z</time>
      </trkpt>
      <trkpt lat="46.19172" lon="6.69225">
        <ele>953</ele>
        <time>2010-01-01T09:58:01Z</time>
      </trkpt>
      <trkpt lat="46.19119" lon="6.69244">
        <ele>954</ele>
        <time>2010-01-01T09:58:23Z</time>
      </trkpt>
      <trkpt lat="46.19091" lon="6.69256">
        <ele>955</ele>
        <time>2010-01-01T09:58:35Z</time>
      </trkpt>
      <trkpt lat="46.19043" lon="6.69272">
        <ele>957</ele>
        <time>2010-01-01T09:58:55Z</time>
      </trkpt>
      <trkpt lat="46.19013" lon="6.69277">
        <ele>957</ele>
        <time>2010-01-01T09:59:07Z</time>
      </trkpt>
      <trkpt lat="46.18993" lon="6.69278">
        <ele>957</ele>
        <time>2010-01-01T09:59:15Z</time>
      </trkpt>
      <trkpt lat="46.18978" lon="6.69281">
        <ele>956</ele>
        <time>2010-01-01T09:59:21Z</time>
      </trkpt>
      <trkpt lat="46.18954" lon="6.69292">
        <ele>955</ele>
        <time>2010-01-01T09:59:31Z</time>
      </trkpt>
      <trkpt lat="46.18946" lon="6.693">
        <ele>955</ele>
        <time>2010-01-01T09:59:35Z</time>
      </trkpt>
      <trkpt lat="46.18891" lon="6.69365">
        <ele>957</ele>
        <time>2010-01-01T10:00:03Z</time>
      </trkpt>
      <trkpt lat="46.18834" lon="6.69427">
        <ele>958</ele>
        <time>2010-01-01T10:00:32Z</time>
      </trkpt>
      <trkpt lat="46.18798" lon="6.69473">
        <ele>958</ele>
        <time>2010-01-01T10:00:51Z</time>
      </trkpt>
      <trkpt lat="46.1878" lon="6.695">
        <ele>957</ele>
        <time>2010-01-01T10:01:02Z</time>
      </trkpt>
      <trkpt lat="46.18752" lon="6.69546">
        <ele>957</ele>
        <time>2010-01-01T10:01:19Z</time>
      </trkpt>
      <trkpt lat="46.18691" lon="6.69639">
        <ele>960</ele>
        <time>2010-01-01T10:01:54Z</time>
      </trkpt>
      <trkpt lat="46.18678" lon="6.69654">
        <ele>960</ele>
        <time>2010-01-01T10:02:01Z</time>
      </trkpt>
      <trkpt lat="46.18647" lon="6.69703">
        <ele>962</ele>
        <time>2010-01-01T10:02:19Z</time>
      </trkpt>
      <trkpt lat="46.18611" lon="6.69752">
        <ele>961</ele>
        <time>2010-01-01T10:02:39Z</time>
      </trkpt>
      <trkpt lat="46.18604" lon="6.69765">
        <ele>962</ele>
        <time>2010-01-01T10:02:44Z</time>
      </trkpt>
      <trkpt lat="46.18564" lon="6.69819">
        <ele>962</ele>
        <time>2010-01-01T10:03:05Z</time>
      </trkpt>
      <trkpt lat="46.18551" lon="6.69841">
        <ele>963</ele>
        <time>2010-01-01T10:03:13Z</time>
      </trkpt>
      <trkpt lat="46.18517" lon="6.69887">
        <ele>965</ele>
        <time>2010-01-01T10:03:32Z</time>
      </trkpt>
      <trkpt lat="46.18467" lon="6.69961">
        <ele>967</ele>
        <time>2010-01-01T10:04:01Z</time>
      </trkpt>
      <trkpt lat="46.18467" lon="6.69961">
        <ele>967</ele>
        <time>2010-01-01T10:04:01Z</time>
      </trkpt>
      <trkpt lat="46.18449" lon="6.69984">
        <ele>968</ele>
        <time>2010-01-01T10:04:10Z</time>
      </trkpt>
      <trkpt lat="46.18399" lon="6.70058">
        <ele>971</ele>
        <time>2010-01-01T10:04:39Z</time>
      </trkpt>
      <trkpt lat="46.18379" lon="6.70092">
        <ele>973</ele>
        <time>2010-01-01T10:04:51Z</time>
      </trkpt>
      <trkpt lat="46.18378" lon="6.70098">
        <ele>973</ele>
        <time>2010-01-01T10:04:53Z</time>
      </trkpt>
      <trkpt lat="46.18363" lon="6.70115">
        <ele>975</ele>
        <time>2010-01-01T10:05:00Z</time>
      </trkpt>
      <trkpt lat="46.1835" lon="6.70128">
        <ele>975</ele>
        <time>2010-01-01T10:05:07Z</time>
      </trkpt>
      <trkpt lat="46.18331" lon="6.70155">
        <ele>976</ele>
        <time>2010-01-01T10:05:18Z</time>
      </trkpt>
      <trkpt lat="46.18326" lon="6.70166">
        <ele>976</ele>
        <time>2010-01-01T10:05:21Z</time>
      </trkpt>
      <trkpt lat="46.18308" lon="6.70196">
        <ele>978</ele>
        <time>2010-01-01T10:05:32Z</time>
      </trkpt>
      <trkpt lat="46.18295" lon="6.70213">
        <ele>979</ele>
        <time>2010-01-01T10:05:39Z</time>
      </trkpt>
      <trkpt lat="46.18292" lon="6.70219">
        <ele>980</ele>
        <time>2010-01-01T10:05:41Z</time>
      </trkpt>
      <trkpt lat="46.18295" lon="6.70231">
        <ele>980</ele>
        <time>2010-01-01T10:05:45Z</time>
      </trkpt>
      <trkpt lat="46.18257" lon="6.70245">
        <ele>989</ele>
        <time>2010-01-01T10:06:00Z</time>
      </trkpt>
      <trkpt lat="46.18274" lon="6.70223">
        <ele>988</ele>
        <time>2010-01-01T10:06:09Z</time>
      </trkpt>
      <trkpt lat="46.1828" lon="6.70221">
        <ele>988</ele>
        <time>2010-01-01T10:06:12Z</time>
      </trkpt>
      <trkpt lat="46.18282" lon="6.70222">
        <ele>988</ele>
        <time>2010-01-01T10:06:13Z</time>
      </trkpt>
      <trkpt lat="46.1829" lon="6.70231">
        <ele>986</ele>
        <time>2010-01-01T10:06:17Z</time>
      </trkpt>
      <trkpt lat="46.18312" lon="6.70272">
        <ele>986</ele>
        <time>2010-01-01T10:06:31Z</time>
      </trkpt>
      <trkpt lat="46.18323" lon="6.70286">
        <ele>987</ele>
        <time>2010-01-01T10:06:37Z</time>
      </trkpt>
      <trkpt lat="46.18325" lon="6.70296">
        <ele>989</ele>
        <time>2010-01-01T10:06:40Z</time>
      </trkpt>
    </trkseg>
  </trk>
</gpx>